<?xml version="1.0" encoding="UTF-8" standalone="no" ?>
<gpx xmlns="http://www.topografix.com/GPX/1/1" xmlns:xsi="http://www.w3.org/2001/XMLSchema-instance" xsi:schemaLocation="http://www.topografix.com/GPX/1/1 http://www.topografix.com/GPX/1/1/gpx.xsd" version="1.1" creator="VisuGPX - https://www.visugpx.com">
  <metadata>
    <name>St Antonin Noble Val</name>
    <desc><![CDATA[St Antonin, grand tour du causse d'Anglars]]></desc>
  </metadata>
  <trk>
    <name><![CDATA[St Antonin Noble Val_1]]></name>
    <trkseg>
      <trkpt lat="44.14952" lon="1.75302">
        <ele>110.5</ele>
        <time>2018-02-19T10:54:02Z</time>
      </trkpt>
      <trkpt lat="44.14957" lon="1.75303">
        <ele>117.3</ele>
        <time>2018-02-19T10:54:14Z</time>
      </trkpt>
      <trkpt lat="44.14962" lon="1.75309">
        <ele>121.1</ele>
        <time>2018-02-19T10:54:21Z</time>
      </trkpt>
      <trkpt lat="44.14971" lon="1.75305">
        <ele>121.4</ele>
        <time>2018-02-19T10:54:40Z</time>
      </trkpt>
      <trkpt lat="44.1497" lon="1.75308">
        <ele>121</ele>
        <time>2018-02-19T10:54:47Z</time>
      </trkpt>
      <trkpt lat="44.14966" lon="1.75299">
        <ele>119.6</ele>
        <time>2018-02-19T10:55:00Z</time>
      </trkpt>
      <trkpt lat="44.14966" lon="1.75288">
        <ele>118.7</ele>
        <time>2018-02-19T10:55:04Z</time>
      </trkpt>
      <trkpt lat="44.14967" lon="1.75274">
        <ele>118.4</ele>
        <time>2018-02-19T10:55:08Z</time>
      </trkpt>
      <trkpt lat="44.14966" lon="1.75263">
        <ele>119.1</ele>
        <time>2018-02-19T10:55:11Z</time>
      </trkpt>
      <trkpt lat="44.14967" lon="1.75252">
        <ele>120.6</ele>
        <time>2018-02-19T10:55:15Z</time>
      </trkpt>
      <trkpt lat="44.14969" lon="1.75236">
        <ele>120.6</ele>
        <time>2018-02-19T10:55:19Z</time>
      </trkpt>
      <trkpt lat="44.1497" lon="1.75223">
        <ele>119.9</ele>
        <time>2018-02-19T10:55:22Z</time>
      </trkpt>
      <trkpt lat="44.14972" lon="1.75212">
        <ele>119</ele>
        <time>2018-02-19T10:55:25Z</time>
      </trkpt>
      <trkpt lat="44.14972" lon="1.75197">
        <ele>117.1</ele>
        <time>2018-02-19T10:55:29Z</time>
      </trkpt>
      <trkpt lat="44.14976" lon="1.75184">
        <ele>115.8</ele>
        <time>2018-02-19T10:55:31Z</time>
      </trkpt>
      <trkpt lat="44.1498" lon="1.75172">
        <ele>115.2</ele>
        <time>2018-02-19T10:55:33Z</time>
      </trkpt>
      <trkpt lat="44.14984" lon="1.75158">
        <ele>114.5</ele>
        <time>2018-02-19T10:55:35Z</time>
      </trkpt>
      <trkpt lat="44.14987" lon="1.75145">
        <ele>114.1</ele>
        <time>2018-02-19T10:55:37Z</time>
      </trkpt>
      <trkpt lat="44.14992" lon="1.75131">
        <ele>113.7</ele>
        <time>2018-02-19T10:55:39Z</time>
      </trkpt>
      <trkpt lat="44.14996" lon="1.75116">
        <ele>113.4</ele>
        <time>2018-02-19T10:55:41Z</time>
      </trkpt>
      <trkpt lat="44.14996" lon="1.75102">
        <ele>112.9</ele>
        <time>2018-02-19T10:55:43Z</time>
      </trkpt>
      <trkpt lat="44.14998" lon="1.75087">
        <ele>112.4</ele>
        <time>2018-02-19T10:55:45Z</time>
      </trkpt>
      <trkpt lat="44.14999" lon="1.75072">
        <ele>111.7</ele>
        <time>2018-02-19T10:55:47Z</time>
      </trkpt>
      <trkpt lat="44.15001" lon="1.75054">
        <ele>111.4</ele>
        <time>2018-02-19T10:55:49Z</time>
      </trkpt>
      <trkpt lat="44.15" lon="1.75036">
        <ele>110.8</ele>
        <time>2018-02-19T10:55:51Z</time>
      </trkpt>
      <trkpt lat="44.14999" lon="1.75019">
        <ele>110.1</ele>
        <time>2018-02-19T10:55:53Z</time>
      </trkpt>
      <trkpt lat="44.14998" lon="1.75004">
        <ele>109.9</ele>
        <time>2018-02-19T10:55:55Z</time>
      </trkpt>
      <trkpt lat="44.14997" lon="1.74987">
        <ele>109.8</ele>
        <time>2018-02-19T10:55:57Z</time>
      </trkpt>
      <trkpt lat="44.14994" lon="1.74971">
        <ele>109.4</ele>
        <time>2018-02-19T10:55:59Z</time>
      </trkpt>
      <trkpt lat="44.14992" lon="1.74956">
        <ele>109</ele>
        <time>2018-02-19T10:56:01Z</time>
      </trkpt>
      <trkpt lat="44.14991" lon="1.7494">
        <ele>108.6</ele>
        <time>2018-02-19T10:56:03Z</time>
      </trkpt>
      <trkpt lat="44.14989" lon="1.74926">
        <ele>108.3</ele>
        <time>2018-02-19T10:56:05Z</time>
      </trkpt>
      <trkpt lat="44.14985" lon="1.74912">
        <ele>108.1</ele>
        <time>2018-02-19T10:56:07Z</time>
      </trkpt>
      <trkpt lat="44.14984" lon="1.74897">
        <ele>108</ele>
        <time>2018-02-19T10:56:09Z</time>
      </trkpt>
      <trkpt lat="44.14983" lon="1.74884">
        <ele>108</ele>
        <time>2018-02-19T10:56:11Z</time>
      </trkpt>
      <trkpt lat="44.14983" lon="1.74872">
        <ele>108.2</ele>
        <time>2018-02-19T10:56:13Z</time>
      </trkpt>
      <trkpt lat="44.14982" lon="1.7486">
        <ele>108.1</ele>
        <time>2018-02-19T10:56:15Z</time>
      </trkpt>
      <trkpt lat="44.14977" lon="1.74847">
        <ele>107.9</ele>
        <time>2018-02-19T10:56:17Z</time>
      </trkpt>
      <trkpt lat="44.14974" lon="1.74835">
        <ele>107.5</ele>
        <time>2018-02-19T10:56:19Z</time>
      </trkpt>
      <trkpt lat="44.14971" lon="1.74822">
        <ele>107.3</ele>
        <time>2018-02-19T10:56:21Z</time>
      </trkpt>
      <trkpt lat="44.14968" lon="1.74811">
        <ele>107.4</ele>
        <time>2018-02-19T10:56:23Z</time>
      </trkpt>
      <trkpt lat="44.14967" lon="1.74798">
        <ele>107.7</ele>
        <time>2018-02-19T10:56:25Z</time>
      </trkpt>
      <trkpt lat="44.14964" lon="1.74786">
        <ele>107.8</ele>
        <time>2018-02-19T10:56:27Z</time>
      </trkpt>
      <trkpt lat="44.1496" lon="1.74774">
        <ele>108.2</ele>
        <time>2018-02-19T10:56:29Z</time>
      </trkpt>
      <trkpt lat="44.14957" lon="1.74762">
        <ele>108.5</ele>
        <time>2018-02-19T10:56:31Z</time>
      </trkpt>
      <trkpt lat="44.14954" lon="1.74749">
        <ele>108.9</ele>
        <time>2018-02-19T10:56:33Z</time>
      </trkpt>
      <trkpt lat="44.14948" lon="1.74733">
        <ele>108.7</ele>
        <time>2018-02-19T10:56:35Z</time>
      </trkpt>
      <trkpt lat="44.14946" lon="1.74716">
        <ele>108.6</ele>
        <time>2018-02-19T10:56:37Z</time>
      </trkpt>
      <trkpt lat="44.14943" lon="1.74702">
        <ele>108.5</ele>
        <time>2018-02-19T10:56:39Z</time>
      </trkpt>
      <trkpt lat="44.14941" lon="1.74689">
        <ele>108.8</ele>
        <time>2018-02-19T10:56:41Z</time>
      </trkpt>
      <trkpt lat="44.14939" lon="1.74678">
        <ele>109</ele>
        <time>2018-02-19T10:56:43Z</time>
      </trkpt>
      <trkpt lat="44.14936" lon="1.74666">
        <ele>109.1</ele>
        <time>2018-02-19T10:56:45Z</time>
      </trkpt>
      <trkpt lat="44.14934" lon="1.74654">
        <ele>109.2</ele>
        <time>2018-02-19T10:56:47Z</time>
      </trkpt>
      <trkpt lat="44.14931" lon="1.74643">
        <ele>109.4</ele>
        <time>2018-02-19T10:56:49Z</time>
      </trkpt>
      <trkpt lat="44.14926" lon="1.74629">
        <ele>109.4</ele>
        <time>2018-02-19T10:56:51Z</time>
      </trkpt>
      <trkpt lat="44.14922" lon="1.74617">
        <ele>109.3</ele>
        <time>2018-02-19T10:56:53Z</time>
      </trkpt>
      <trkpt lat="44.14918" lon="1.74604">
        <ele>109.6</ele>
        <time>2018-02-19T10:56:55Z</time>
      </trkpt>
      <trkpt lat="44.14915" lon="1.74591">
        <ele>109.7</ele>
        <time>2018-02-19T10:56:57Z</time>
      </trkpt>
      <trkpt lat="44.14911" lon="1.74578">
        <ele>109.8</ele>
        <time>2018-02-19T10:56:59Z</time>
      </trkpt>
      <trkpt lat="44.14909" lon="1.74566">
        <ele>109.9</ele>
        <time>2018-02-19T10:57:01Z</time>
      </trkpt>
      <trkpt lat="44.14908" lon="1.74554">
        <ele>110.2</ele>
        <time>2018-02-19T10:57:03Z</time>
      </trkpt>
      <trkpt lat="44.14904" lon="1.74539">
        <ele>110.1</ele>
        <time>2018-02-19T10:57:05Z</time>
      </trkpt>
      <trkpt lat="44.14901" lon="1.74525">
        <ele>110.2</ele>
        <time>2018-02-19T10:57:07Z</time>
      </trkpt>
      <trkpt lat="44.14899" lon="1.74513">
        <ele>110.4</ele>
        <time>2018-02-19T10:57:09Z</time>
      </trkpt>
      <trkpt lat="44.14898" lon="1.74501">
        <ele>110.6</ele>
        <time>2018-02-19T10:57:11Z</time>
      </trkpt>
      <trkpt lat="44.14896" lon="1.7449">
        <ele>111</ele>
        <time>2018-02-19T10:57:13Z</time>
      </trkpt>
      <trkpt lat="44.14894" lon="1.7448">
        <ele>111.6</ele>
        <time>2018-02-19T10:57:15Z</time>
      </trkpt>
      <trkpt lat="44.14893" lon="1.74465">
        <ele>112.1</ele>
        <time>2018-02-19T10:57:18Z</time>
      </trkpt>
      <trkpt lat="44.1489" lon="1.74451">
        <ele>112.4</ele>
        <time>2018-02-19T10:57:21Z</time>
      </trkpt>
      <trkpt lat="44.14889" lon="1.74438">
        <ele>113.1</ele>
        <time>2018-02-19T10:57:23Z</time>
      </trkpt>
      <trkpt lat="44.14888" lon="1.74424">
        <ele>113.6</ele>
        <time>2018-02-19T10:57:25Z</time>
      </trkpt>
      <trkpt lat="44.14887" lon="1.74409">
        <ele>114.2</ele>
        <time>2018-02-19T10:57:27Z</time>
      </trkpt>
      <trkpt lat="44.14885" lon="1.74395">
        <ele>114.7</ele>
        <time>2018-02-19T10:57:29Z</time>
      </trkpt>
      <trkpt lat="44.14883" lon="1.7438">
        <ele>115</ele>
        <time>2018-02-19T10:57:31Z</time>
      </trkpt>
      <trkpt lat="44.14882" lon="1.74364">
        <ele>115.2</ele>
        <time>2018-02-19T10:57:33Z</time>
      </trkpt>
      <trkpt lat="44.1488" lon="1.74349">
        <ele>115.2</ele>
        <time>2018-02-19T10:57:35Z</time>
      </trkpt>
      <trkpt lat="44.14878" lon="1.74333">
        <ele>115.3</ele>
        <time>2018-02-19T10:57:37Z</time>
      </trkpt>
      <trkpt lat="44.14877" lon="1.7432">
        <ele>115.6</ele>
        <time>2018-02-19T10:57:40Z</time>
      </trkpt>
      <trkpt lat="44.14876" lon="1.74307">
        <ele>115.7</ele>
        <time>2018-02-19T10:57:41Z</time>
      </trkpt>
      <trkpt lat="44.14873" lon="1.74294">
        <ele>115.7</ele>
        <time>2018-02-19T10:57:43Z</time>
      </trkpt>
      <trkpt lat="44.1487" lon="1.7428">
        <ele>115.8</ele>
        <time>2018-02-19T10:57:45Z</time>
      </trkpt>
      <trkpt lat="44.14866" lon="1.74268">
        <ele>116</ele>
        <time>2018-02-19T10:57:47Z</time>
      </trkpt>
      <trkpt lat="44.14864" lon="1.74255">
        <ele>116.3</ele>
        <time>2018-02-19T10:57:50Z</time>
      </trkpt>
      <trkpt lat="44.14862" lon="1.74243">
        <ele>116.6</ele>
        <time>2018-02-19T10:57:51Z</time>
      </trkpt>
      <trkpt lat="44.14862" lon="1.74231">
        <ele>116.7</ele>
        <time>2018-02-19T10:57:53Z</time>
      </trkpt>
      <trkpt lat="44.14862" lon="1.74219">
        <ele>117.1</ele>
        <time>2018-02-19T10:57:55Z</time>
      </trkpt>
      <trkpt lat="44.1486" lon="1.74204">
        <ele>117.5</ele>
        <time>2018-02-19T10:57:58Z</time>
      </trkpt>
      <trkpt lat="44.14859" lon="1.7419">
        <ele>117.8</ele>
        <time>2018-02-19T10:58:00Z</time>
      </trkpt>
      <trkpt lat="44.14858" lon="1.74178">
        <ele>118</ele>
        <time>2018-02-19T10:58:02Z</time>
      </trkpt>
      <trkpt lat="44.14856" lon="1.74166">
        <ele>118.1</ele>
        <time>2018-02-19T10:58:04Z</time>
      </trkpt>
      <trkpt lat="44.14852" lon="1.74154">
        <ele>117.6</ele>
        <time>2018-02-19T10:58:06Z</time>
      </trkpt>
      <trkpt lat="44.14848" lon="1.7414">
        <ele>117.7</ele>
        <time>2018-02-19T10:58:08Z</time>
      </trkpt>
      <trkpt lat="44.14846" lon="1.74129">
        <ele>117.8</ele>
        <time>2018-02-19T10:58:10Z</time>
      </trkpt>
      <trkpt lat="44.14843" lon="1.74117">
        <ele>117.7</ele>
        <time>2018-02-19T10:58:12Z</time>
      </trkpt>
      <trkpt lat="44.14839" lon="1.74104">
        <ele>117.3</ele>
        <time>2018-02-19T10:58:14Z</time>
      </trkpt>
      <trkpt lat="44.14836" lon="1.74091">
        <ele>117.2</ele>
        <time>2018-02-19T10:58:16Z</time>
      </trkpt>
      <trkpt lat="44.14833" lon="1.74079">
        <ele>117.2</ele>
        <time>2018-02-19T10:58:19Z</time>
      </trkpt>
      <trkpt lat="44.1483" lon="1.74067">
        <ele>117.2</ele>
        <time>2018-02-19T10:58:20Z</time>
      </trkpt>
      <trkpt lat="44.14828" lon="1.74055">
        <ele>117.4</ele>
        <time>2018-02-19T10:58:22Z</time>
      </trkpt>
      <trkpt lat="44.14825" lon="1.74042">
        <ele>117.2</ele>
        <time>2018-02-19T10:58:24Z</time>
      </trkpt>
      <trkpt lat="44.14824" lon="1.74029">
        <ele>117.1</ele>
        <time>2018-02-19T10:58:26Z</time>
      </trkpt>
      <trkpt lat="44.1482" lon="1.74016">
        <ele>117</ele>
        <time>2018-02-19T10:58:28Z</time>
      </trkpt>
      <trkpt lat="44.14818" lon="1.74004">
        <ele>116.9</ele>
        <time>2018-02-19T10:58:30Z</time>
      </trkpt>
      <trkpt lat="44.14817" lon="1.73992">
        <ele>116.9</ele>
        <time>2018-02-19T10:58:32Z</time>
      </trkpt>
      <trkpt lat="44.14815" lon="1.7398">
        <ele>116.5</ele>
        <time>2018-02-19T10:58:34Z</time>
      </trkpt>
      <trkpt lat="44.14812" lon="1.73967">
        <ele>116.4</ele>
        <time>2018-02-19T10:58:36Z</time>
      </trkpt>
      <trkpt lat="44.14811" lon="1.73953">
        <ele>116.7</ele>
        <time>2018-02-19T10:58:38Z</time>
      </trkpt>
      <trkpt lat="44.14808" lon="1.7394">
        <ele>116.5</ele>
        <time>2018-02-19T10:58:40Z</time>
      </trkpt>
      <trkpt lat="44.14806" lon="1.73928">
        <ele>116.7</ele>
        <time>2018-02-19T10:58:42Z</time>
      </trkpt>
      <trkpt lat="44.14804" lon="1.73915">
        <ele>116.7</ele>
        <time>2018-02-19T10:58:44Z</time>
      </trkpt>
      <trkpt lat="44.14805" lon="1.73904">
        <ele>117.3</ele>
        <time>2018-02-19T10:58:46Z</time>
      </trkpt>
      <trkpt lat="44.14805" lon="1.7389">
        <ele>117.1</ele>
        <time>2018-02-19T10:58:49Z</time>
      </trkpt>
      <trkpt lat="44.14805" lon="1.73879">
        <ele>117.7</ele>
        <time>2018-02-19T10:58:51Z</time>
      </trkpt>
      <trkpt lat="44.14804" lon="1.73866">
        <ele>118.1</ele>
        <time>2018-02-19T10:58:53Z</time>
      </trkpt>
      <trkpt lat="44.148" lon="1.73855">
        <ele>118.8</ele>
        <time>2018-02-19T10:58:55Z</time>
      </trkpt>
      <trkpt lat="44.14797" lon="1.73845">
        <ele>119.4</ele>
        <time>2018-02-19T10:58:57Z</time>
      </trkpt>
      <trkpt lat="44.14792" lon="1.73833">
        <ele>118.6</ele>
        <time>2018-02-19T10:58:59Z</time>
      </trkpt>
      <trkpt lat="44.14789" lon="1.73822">
        <ele>118.9</ele>
        <time>2018-02-19T10:59:01Z</time>
      </trkpt>
      <trkpt lat="44.14785" lon="1.7381">
        <ele>118.5</ele>
        <time>2018-02-19T10:59:03Z</time>
      </trkpt>
      <trkpt lat="44.1478" lon="1.73798">
        <ele>118.9</ele>
        <time>2018-02-19T10:59:05Z</time>
      </trkpt>
      <trkpt lat="44.1478" lon="1.73786">
        <ele>119.1</ele>
        <time>2018-02-19T10:59:07Z</time>
      </trkpt>
      <trkpt lat="44.14778" lon="1.73773">
        <ele>119.2</ele>
        <time>2018-02-19T10:59:09Z</time>
      </trkpt>
      <trkpt lat="44.14776" lon="1.73759">
        <ele>119.5</ele>
        <time>2018-02-19T10:59:11Z</time>
      </trkpt>
      <trkpt lat="44.14776" lon="1.73745">
        <ele>120</ele>
        <time>2018-02-19T10:59:13Z</time>
      </trkpt>
      <trkpt lat="44.14773" lon="1.7373">
        <ele>120.3</ele>
        <time>2018-02-19T10:59:15Z</time>
      </trkpt>
      <trkpt lat="44.1477" lon="1.73716">
        <ele>120.7</ele>
        <time>2018-02-19T10:59:17Z</time>
      </trkpt>
      <trkpt lat="44.14766" lon="1.73705">
        <ele>121</ele>
        <time>2018-02-19T10:59:19Z</time>
      </trkpt>
      <trkpt lat="44.14763" lon="1.73689">
        <ele>121.9</ele>
        <time>2018-02-19T10:59:21Z</time>
      </trkpt>
      <trkpt lat="44.14761" lon="1.73674">
        <ele>122.3</ele>
        <time>2018-02-19T10:59:23Z</time>
      </trkpt>
      <trkpt lat="44.14759" lon="1.7366">
        <ele>123.3</ele>
        <time>2018-02-19T10:59:25Z</time>
      </trkpt>
      <trkpt lat="44.14755" lon="1.73645">
        <ele>123.6</ele>
        <time>2018-02-19T10:59:27Z</time>
      </trkpt>
      <trkpt lat="44.14752" lon="1.73628">
        <ele>124.5</ele>
        <time>2018-02-19T10:59:29Z</time>
      </trkpt>
      <trkpt lat="44.14748" lon="1.73617">
        <ele>124.6</ele>
        <time>2018-02-19T10:59:30Z</time>
      </trkpt>
      <trkpt lat="44.14742" lon="1.73601">
        <ele>125.5</ele>
        <time>2018-02-19T10:59:32Z</time>
      </trkpt>
      <trkpt lat="44.14738" lon="1.73584">
        <ele>126.2</ele>
        <time>2018-02-19T10:59:34Z</time>
      </trkpt>
      <trkpt lat="44.14737" lon="1.73569">
        <ele>126.2</ele>
        <time>2018-02-19T10:59:36Z</time>
      </trkpt>
      <trkpt lat="44.14734" lon="1.73555">
        <ele>126.6</ele>
        <time>2018-02-19T10:59:38Z</time>
      </trkpt>
      <trkpt lat="44.14733" lon="1.73541">
        <ele>127.1</ele>
        <time>2018-02-19T10:59:40Z</time>
      </trkpt>
      <trkpt lat="44.14731" lon="1.73527">
        <ele>127.1</ele>
        <time>2018-02-19T10:59:42Z</time>
      </trkpt>
      <trkpt lat="44.1473" lon="1.73516">
        <ele>127.3</ele>
        <time>2018-02-19T10:59:44Z</time>
      </trkpt>
      <trkpt lat="44.14728" lon="1.73503">
        <ele>127.1</ele>
        <time>2018-02-19T10:59:46Z</time>
      </trkpt>
      <trkpt lat="44.14727" lon="1.73493">
        <ele>127.4</ele>
        <time>2018-02-19T10:59:48Z</time>
      </trkpt>
      <trkpt lat="44.14727" lon="1.73479">
        <ele>126.9</ele>
        <time>2018-02-19T10:59:51Z</time>
      </trkpt>
      <trkpt lat="44.14727" lon="1.73465">
        <ele>127.4</ele>
        <time>2018-02-19T10:59:54Z</time>
      </trkpt>
      <trkpt lat="44.14727" lon="1.73455">
        <ele>128.6</ele>
        <time>2018-02-19T10:59:57Z</time>
      </trkpt>
      <trkpt lat="44.14727" lon="1.73442">
        <ele>128.9</ele>
        <time>2018-02-19T11:00:00Z</time>
      </trkpt>
      <trkpt lat="44.14723" lon="1.73427">
        <ele>128.9</ele>
        <time>2018-02-19T11:00:03Z</time>
      </trkpt>
      <trkpt lat="44.14725" lon="1.73416">
        <ele>129</ele>
        <time>2018-02-19T11:00:05Z</time>
      </trkpt>
      <trkpt lat="44.14726" lon="1.734">
        <ele>128.7</ele>
        <time>2018-02-19T11:00:08Z</time>
      </trkpt>
      <trkpt lat="44.14732" lon="1.73389">
        <ele>129.5</ele>
        <time>2018-02-19T11:00:11Z</time>
      </trkpt>
      <trkpt lat="44.14734" lon="1.73378">
        <ele>129.2</ele>
        <time>2018-02-19T11:00:13Z</time>
      </trkpt>
      <trkpt lat="44.14736" lon="1.73368">
        <ele>128.8</ele>
        <time>2018-02-19T11:00:15Z</time>
      </trkpt>
      <trkpt lat="44.14737" lon="1.73355">
        <ele>128.4</ele>
        <time>2018-02-19T11:00:17Z</time>
      </trkpt>
      <trkpt lat="44.14737" lon="1.73343">
        <ele>127.5</ele>
        <time>2018-02-19T11:00:19Z</time>
      </trkpt>
      <trkpt lat="44.14739" lon="1.73333">
        <ele>127.6</ele>
        <time>2018-02-19T11:00:21Z</time>
      </trkpt>
      <trkpt lat="44.14739" lon="1.73322">
        <ele>127</ele>
        <time>2018-02-19T11:00:24Z</time>
      </trkpt>
      <trkpt lat="44.14738" lon="1.73308">
        <ele>126.2</ele>
        <time>2018-02-19T11:00:26Z</time>
      </trkpt>
      <trkpt lat="44.1474" lon="1.73297">
        <ele>127.1</ele>
        <time>2018-02-19T11:00:29Z</time>
      </trkpt>
      <trkpt lat="44.1474" lon="1.73285">
        <ele>126.5</ele>
        <time>2018-02-19T11:00:32Z</time>
      </trkpt>
      <trkpt lat="44.14738" lon="1.73275">
        <ele>126.1</ele>
        <time>2018-02-19T11:00:34Z</time>
      </trkpt>
      <trkpt lat="44.14742" lon="1.73264">
        <ele>125.6</ele>
        <time>2018-02-19T11:00:37Z</time>
      </trkpt>
      <trkpt lat="44.14745" lon="1.73251">
        <ele>125.4</ele>
        <time>2018-02-19T11:00:40Z</time>
      </trkpt>
      <trkpt lat="44.14749" lon="1.73241">
        <ele>125.5</ele>
        <time>2018-02-19T11:00:43Z</time>
      </trkpt>
      <trkpt lat="44.14755" lon="1.73233">
        <ele>125</ele>
        <time>2018-02-19T11:00:46Z</time>
      </trkpt>
      <trkpt lat="44.14757" lon="1.73233">
        <ele>124.6</ele>
        <time>2018-02-19T11:00:53Z</time>
      </trkpt>
      <trkpt lat="44.14755" lon="1.73232">
        <ele>123.6</ele>
        <time>2018-02-19T11:01:00Z</time>
      </trkpt>
      <trkpt lat="44.14756" lon="1.73221">
        <ele>122.9</ele>
        <time>2018-02-19T11:01:05Z</time>
      </trkpt>
      <trkpt lat="44.14756" lon="1.73211">
        <ele>121.6</ele>
        <time>2018-02-19T11:01:08Z</time>
      </trkpt>
      <trkpt lat="44.14752" lon="1.7322">
        <ele>121</ele>
        <time>2018-02-19T11:01:11Z</time>
      </trkpt>
      <trkpt lat="44.14754" lon="1.73209">
        <ele>118.5</ele>
        <time>2018-02-19T11:01:15Z</time>
      </trkpt>
      <trkpt lat="44.14754" lon="1.73221">
        <ele>117.9</ele>
        <time>2018-02-19T11:01:16Z</time>
      </trkpt>
      <trkpt lat="44.14759" lon="1.73223">
        <ele>114.5</ele>
        <time>2018-02-19T11:01:23Z</time>
      </trkpt>
      <trkpt lat="44.14762" lon="1.73213">
        <ele>113.1</ele>
        <time>2018-02-19T11:01:28Z</time>
      </trkpt>
      <trkpt lat="44.14768" lon="1.73204">
        <ele>112.2</ele>
        <time>2018-02-19T11:01:31Z</time>
      </trkpt>
      <trkpt lat="44.14774" lon="1.73195">
        <ele>111.2</ele>
        <time>2018-02-19T11:01:34Z</time>
      </trkpt>
      <trkpt lat="44.14779" lon="1.73187">
        <ele>110.2</ele>
        <time>2018-02-19T11:01:36Z</time>
      </trkpt>
      <trkpt lat="44.14784" lon="1.7318">
        <ele>109.4</ele>
        <time>2018-02-19T11:01:38Z</time>
      </trkpt>
      <trkpt lat="44.14791" lon="1.7317">
        <ele>108.5</ele>
        <time>2018-02-19T11:01:41Z</time>
      </trkpt>
      <trkpt lat="44.14799" lon="1.73159">
        <ele>107.5</ele>
        <time>2018-02-19T11:01:44Z</time>
      </trkpt>
      <trkpt lat="44.14804" lon="1.73152">
        <ele>106.5</ele>
        <time>2018-02-19T11:01:46Z</time>
      </trkpt>
      <trkpt lat="44.14811" lon="1.73143">
        <ele>105.5</ele>
        <time>2018-02-19T11:01:48Z</time>
      </trkpt>
      <trkpt lat="44.14822" lon="1.73133">
        <ele>104.2</ele>
        <time>2018-02-19T11:01:51Z</time>
      </trkpt>
      <trkpt lat="44.14828" lon="1.73125">
        <ele>103.3</ele>
        <time>2018-02-19T11:01:53Z</time>
      </trkpt>
      <trkpt lat="44.14835" lon="1.73119">
        <ele>102.8</ele>
        <time>2018-02-19T11:01:56Z</time>
      </trkpt>
      <trkpt lat="44.14842" lon="1.73111">
        <ele>102.6</ele>
        <time>2018-02-19T11:01:57Z</time>
      </trkpt>
      <trkpt lat="44.14849" lon="1.73103">
        <ele>102.4</ele>
        <time>2018-02-19T11:01:59Z</time>
      </trkpt>
      <trkpt lat="44.14855" lon="1.73094">
        <ele>102</ele>
        <time>2018-02-19T11:02:01Z</time>
      </trkpt>
      <trkpt lat="44.14862" lon="1.73082">
        <ele>101.6</ele>
        <time>2018-02-19T11:02:03Z</time>
      </trkpt>
      <trkpt lat="44.14868" lon="1.73071">
        <ele>101.6</ele>
        <time>2018-02-19T11:02:05Z</time>
      </trkpt>
      <trkpt lat="44.14875" lon="1.73062">
        <ele>101.6</ele>
        <time>2018-02-19T11:02:07Z</time>
      </trkpt>
      <trkpt lat="44.14884" lon="1.73052">
        <ele>101.5</ele>
        <time>2018-02-19T11:02:10Z</time>
      </trkpt>
      <trkpt lat="44.14891" lon="1.73044">
        <ele>101.4</ele>
        <time>2018-02-19T11:02:11Z</time>
      </trkpt>
      <trkpt lat="44.14897" lon="1.73033">
        <ele>101.6</ele>
        <time>2018-02-19T11:02:13Z</time>
      </trkpt>
      <trkpt lat="44.14902" lon="1.73023">
        <ele>101.8</ele>
        <time>2018-02-19T11:02:15Z</time>
      </trkpt>
      <trkpt lat="44.14908" lon="1.73011">
        <ele>101.7</ele>
        <time>2018-02-19T11:02:17Z</time>
      </trkpt>
      <trkpt lat="44.14915" lon="1.73">
        <ele>101.5</ele>
        <time>2018-02-19T11:02:19Z</time>
      </trkpt>
      <trkpt lat="44.14922" lon="1.72991">
        <ele>101.4</ele>
        <time>2018-02-19T11:02:21Z</time>
      </trkpt>
      <trkpt lat="44.14931" lon="1.72981">
        <ele>101.2</ele>
        <time>2018-02-19T11:02:23Z</time>
      </trkpt>
      <trkpt lat="44.14937" lon="1.72972">
        <ele>101</ele>
        <time>2018-02-19T11:02:25Z</time>
      </trkpt>
      <trkpt lat="44.14944" lon="1.72963">
        <ele>101.1</ele>
        <time>2018-02-19T11:02:27Z</time>
      </trkpt>
      <trkpt lat="44.14949" lon="1.72953">
        <ele>101.1</ele>
        <time>2018-02-19T11:02:29Z</time>
      </trkpt>
      <trkpt lat="44.14954" lon="1.72944">
        <ele>101.1</ele>
        <time>2018-02-19T11:02:31Z</time>
      </trkpt>
      <trkpt lat="44.14961" lon="1.72933">
        <ele>101.3</ele>
        <time>2018-02-19T11:02:33Z</time>
      </trkpt>
      <trkpt lat="44.14969" lon="1.72922">
        <ele>101.2</ele>
        <time>2018-02-19T11:02:35Z</time>
      </trkpt>
      <trkpt lat="44.14974" lon="1.72907">
        <ele>100.7</ele>
        <time>2018-02-19T11:02:37Z</time>
      </trkpt>
      <trkpt lat="44.14982" lon="1.72898">
        <ele>100.6</ele>
        <time>2018-02-19T11:02:39Z</time>
      </trkpt>
      <trkpt lat="44.14989" lon="1.72887">
        <ele>100.8</ele>
        <time>2018-02-19T11:02:42Z</time>
      </trkpt>
      <trkpt lat="44.14994" lon="1.72879">
        <ele>100.9</ele>
        <time>2018-02-19T11:02:44Z</time>
      </trkpt>
      <trkpt lat="44.15003" lon="1.7287">
        <ele>100.8</ele>
        <time>2018-02-19T11:02:47Z</time>
      </trkpt>
      <trkpt lat="44.15008" lon="1.72861">
        <ele>100.7</ele>
        <time>2018-02-19T11:02:49Z</time>
      </trkpt>
      <trkpt lat="44.15013" lon="1.72855">
        <ele>100.8</ele>
        <time>2018-02-19T11:02:51Z</time>
      </trkpt>
      <trkpt lat="44.15021" lon="1.72848">
        <ele>100.9</ele>
        <time>2018-02-19T11:02:53Z</time>
      </trkpt>
      <trkpt lat="44.1503" lon="1.72838">
        <ele>101.2</ele>
        <time>2018-02-19T11:02:55Z</time>
      </trkpt>
      <trkpt lat="44.15038" lon="1.72828">
        <ele>101.4</ele>
        <time>2018-02-19T11:02:57Z</time>
      </trkpt>
      <trkpt lat="44.15045" lon="1.7282">
        <ele>101.2</ele>
        <time>2018-02-19T11:02:59Z</time>
      </trkpt>
      <trkpt lat="44.15051" lon="1.72809">
        <ele>101.2</ele>
        <time>2018-02-19T11:03:01Z</time>
      </trkpt>
      <trkpt lat="44.15057" lon="1.72799">
        <ele>100.9</ele>
        <time>2018-02-19T11:03:03Z</time>
      </trkpt>
      <trkpt lat="44.15063" lon="1.7279">
        <ele>101</ele>
        <time>2018-02-19T11:03:05Z</time>
      </trkpt>
      <trkpt lat="44.15067" lon="1.7278">
        <ele>101.6</ele>
        <time>2018-02-19T11:03:07Z</time>
      </trkpt>
      <trkpt lat="44.15074" lon="1.72768">
        <ele>102.4</ele>
        <time>2018-02-19T11:03:10Z</time>
      </trkpt>
      <trkpt lat="44.15079" lon="1.7276">
        <ele>102.7</ele>
        <time>2018-02-19T11:03:12Z</time>
      </trkpt>
      <trkpt lat="44.15084" lon="1.72754">
        <ele>103</ele>
        <time>2018-02-19T11:03:14Z</time>
      </trkpt>
      <trkpt lat="44.15089" lon="1.72746">
        <ele>103.2</ele>
        <time>2018-02-19T11:03:16Z</time>
      </trkpt>
      <trkpt lat="44.15095" lon="1.72737">
        <ele>103.2</ele>
        <time>2018-02-19T11:03:18Z</time>
      </trkpt>
      <trkpt lat="44.15103" lon="1.72727">
        <ele>103.4</ele>
        <time>2018-02-19T11:03:20Z</time>
      </trkpt>
      <trkpt lat="44.15111" lon="1.72717">
        <ele>103.7</ele>
        <time>2018-02-19T11:03:22Z</time>
      </trkpt>
      <trkpt lat="44.15118" lon="1.72709">
        <ele>103.8</ele>
        <time>2018-02-19T11:03:24Z</time>
      </trkpt>
      <trkpt lat="44.15122" lon="1.72699">
        <ele>104.1</ele>
        <time>2018-02-19T11:03:26Z</time>
      </trkpt>
      <trkpt lat="44.15128" lon="1.72689">
        <ele>103.5</ele>
        <time>2018-02-19T11:03:28Z</time>
      </trkpt>
      <trkpt lat="44.15133" lon="1.72679">
        <ele>103.1</ele>
        <time>2018-02-19T11:03:30Z</time>
      </trkpt>
      <trkpt lat="44.15139" lon="1.72669">
        <ele>102.8</ele>
        <time>2018-02-19T11:03:33Z</time>
      </trkpt>
      <trkpt lat="44.15146" lon="1.72658">
        <ele>102.2</ele>
        <time>2018-02-19T11:03:36Z</time>
      </trkpt>
      <trkpt lat="44.15151" lon="1.72648">
        <ele>102.1</ele>
        <time>2018-02-19T11:03:38Z</time>
      </trkpt>
      <trkpt lat="44.15153" lon="1.72637">
        <ele>102.1</ele>
        <time>2018-02-19T11:03:40Z</time>
      </trkpt>
      <trkpt lat="44.15157" lon="1.72627">
        <ele>102.5</ele>
        <time>2018-02-19T11:03:42Z</time>
      </trkpt>
      <trkpt lat="44.15163" lon="1.72615">
        <ele>102.3</ele>
        <time>2018-02-19T11:03:44Z</time>
      </trkpt>
      <trkpt lat="44.15167" lon="1.72606">
        <ele>102.5</ele>
        <time>2018-02-19T11:03:46Z</time>
      </trkpt>
      <trkpt lat="44.15173" lon="1.72598">
        <ele>102.4</ele>
        <time>2018-02-19T11:03:48Z</time>
      </trkpt>
      <trkpt lat="44.15177" lon="1.72585">
        <ele>102.4</ele>
        <time>2018-02-19T11:03:52Z</time>
      </trkpt>
      <trkpt lat="44.15169" lon="1.72577">
        <ele>101.9</ele>
        <time>2018-02-19T11:03:53Z</time>
      </trkpt>
      <trkpt lat="44.1516" lon="1.72571">
        <ele>101.2</ele>
        <time>2018-02-19T11:03:56Z</time>
      </trkpt>
      <trkpt lat="44.15159" lon="1.72557">
        <ele>100.6</ele>
        <time>2018-02-19T11:04:00Z</time>
      </trkpt>
      <trkpt lat="44.15161" lon="1.72545">
        <ele>100.3</ele>
        <time>2018-02-19T11:04:03Z</time>
      </trkpt>
      <trkpt lat="44.15165" lon="1.72536">
        <ele>100.3</ele>
        <time>2018-02-19T11:04:05Z</time>
      </trkpt>
      <trkpt lat="44.1517" lon="1.72528">
        <ele>100.8</ele>
        <time>2018-02-19T11:04:07Z</time>
      </trkpt>
      <trkpt lat="44.15175" lon="1.72519">
        <ele>101.5</ele>
        <time>2018-02-19T11:04:09Z</time>
      </trkpt>
      <trkpt lat="44.15179" lon="1.7251">
        <ele>102.2</ele>
        <time>2018-02-19T11:04:11Z</time>
      </trkpt>
      <trkpt lat="44.15186" lon="1.72499">
        <ele>103.3</ele>
        <time>2018-02-19T11:04:14Z</time>
      </trkpt>
      <trkpt lat="44.15194" lon="1.72487">
        <ele>104.2</ele>
        <time>2018-02-19T11:04:17Z</time>
      </trkpt>
      <trkpt lat="44.15201" lon="1.72478">
        <ele>104.4</ele>
        <time>2018-02-19T11:04:19Z</time>
      </trkpt>
      <trkpt lat="44.15204" lon="1.72469">
        <ele>105</ele>
        <time>2018-02-19T11:04:21Z</time>
      </trkpt>
      <trkpt lat="44.15205" lon="1.72458">
        <ele>105.3</ele>
        <time>2018-02-19T11:04:23Z</time>
      </trkpt>
      <trkpt lat="44.15207" lon="1.72446">
        <ele>105.2</ele>
        <time>2018-02-19T11:04:26Z</time>
      </trkpt>
      <trkpt lat="44.1521" lon="1.72435">
        <ele>105.2</ele>
        <time>2018-02-19T11:04:28Z</time>
      </trkpt>
      <trkpt lat="44.15211" lon="1.72424">
        <ele>105.1</ele>
        <time>2018-02-19T11:04:30Z</time>
      </trkpt>
      <trkpt lat="44.15215" lon="1.72412">
        <ele>104.7</ele>
        <time>2018-02-19T11:04:33Z</time>
      </trkpt>
      <trkpt lat="44.15215" lon="1.72401">
        <ele>104.2</ele>
        <time>2018-02-19T11:04:35Z</time>
      </trkpt>
      <trkpt lat="44.15217" lon="1.7239">
        <ele>103.8</ele>
        <time>2018-02-19T11:04:37Z</time>
      </trkpt>
      <trkpt lat="44.15218" lon="1.72376">
        <ele>103.2</ele>
        <time>2018-02-19T11:04:40Z</time>
      </trkpt>
      <trkpt lat="44.1522" lon="1.72362">
        <ele>102.7</ele>
        <time>2018-02-19T11:04:43Z</time>
      </trkpt>
      <trkpt lat="44.15224" lon="1.72349">
        <ele>102.1</ele>
        <time>2018-02-19T11:04:46Z</time>
      </trkpt>
      <trkpt lat="44.15225" lon="1.72339">
        <ele>101.5</ele>
        <time>2018-02-19T11:04:48Z</time>
      </trkpt>
      <trkpt lat="44.15227" lon="1.72328">
        <ele>101</ele>
        <time>2018-02-19T11:04:50Z</time>
      </trkpt>
      <trkpt lat="44.15229" lon="1.72315">
        <ele>100</ele>
        <time>2018-02-19T11:04:53Z</time>
      </trkpt>
      <trkpt lat="44.15227" lon="1.72302">
        <ele>99.3</ele>
        <time>2018-02-19T11:04:55Z</time>
      </trkpt>
      <trkpt lat="44.15228" lon="1.72291">
        <ele>98.2</ele>
        <time>2018-02-19T11:04:57Z</time>
      </trkpt>
      <trkpt lat="44.15231" lon="1.7228">
        <ele>97.6</ele>
        <time>2018-02-19T11:04:59Z</time>
      </trkpt>
      <trkpt lat="44.15235" lon="1.7227">
        <ele>97</ele>
        <time>2018-02-19T11:05:01Z</time>
      </trkpt>
      <trkpt lat="44.15239" lon="1.7226">
        <ele>96.4</ele>
        <time>2018-02-19T11:05:03Z</time>
      </trkpt>
      <trkpt lat="44.15241" lon="1.72247">
        <ele>95.8</ele>
        <time>2018-02-19T11:05:05Z</time>
      </trkpt>
      <trkpt lat="44.15243" lon="1.72233">
        <ele>95.2</ele>
        <time>2018-02-19T11:05:07Z</time>
      </trkpt>
      <trkpt lat="44.15243" lon="1.7222">
        <ele>94</ele>
        <time>2018-02-19T11:05:09Z</time>
      </trkpt>
      <trkpt lat="44.15243" lon="1.72208">
        <ele>93.2</ele>
        <time>2018-02-19T11:05:11Z</time>
      </trkpt>
      <trkpt lat="44.15243" lon="1.72197">
        <ele>92.4</ele>
        <time>2018-02-19T11:05:13Z</time>
      </trkpt>
      <trkpt lat="44.15242" lon="1.72185">
        <ele>91.4</ele>
        <time>2018-02-19T11:05:15Z</time>
      </trkpt>
      <trkpt lat="44.15241" lon="1.72174">
        <ele>90.3</ele>
        <time>2018-02-19T11:05:17Z</time>
      </trkpt>
      <trkpt lat="44.15238" lon="1.72164">
        <ele>89.3</ele>
        <time>2018-02-19T11:05:19Z</time>
      </trkpt>
      <trkpt lat="44.15235" lon="1.72152">
        <ele>88.1</ele>
        <time>2018-02-19T11:05:21Z</time>
      </trkpt>
      <trkpt lat="44.15231" lon="1.7214">
        <ele>86.7</ele>
        <time>2018-02-19T11:05:23Z</time>
      </trkpt>
      <trkpt lat="44.15227" lon="1.72127">
        <ele>85.5</ele>
        <time>2018-02-19T11:05:25Z</time>
      </trkpt>
      <trkpt lat="44.15223" lon="1.72115">
        <ele>84.4</ele>
        <time>2018-02-19T11:05:27Z</time>
      </trkpt>
      <trkpt lat="44.15219" lon="1.72106">
        <ele>83.5</ele>
        <time>2018-02-19T11:05:29Z</time>
      </trkpt>
      <trkpt lat="44.15215" lon="1.72098">
        <ele>82.9</ele>
        <time>2018-02-19T11:05:31Z</time>
      </trkpt>
      <trkpt lat="44.15208" lon="1.72091">
        <ele>82.7</ele>
        <time>2018-02-19T11:05:33Z</time>
      </trkpt>
      <trkpt lat="44.15202" lon="1.72084">
        <ele>82.9</ele>
        <time>2018-02-19T11:05:35Z</time>
      </trkpt>
      <trkpt lat="44.15195" lon="1.7208">
        <ele>82.7</ele>
        <time>2018-02-19T11:05:37Z</time>
      </trkpt>
      <trkpt lat="44.15187" lon="1.72075">
        <ele>82</ele>
        <time>2018-02-19T11:05:40Z</time>
      </trkpt>
      <trkpt lat="44.15184" lon="1.72078">
        <ele>86.3</ele>
        <time>2018-02-19T11:06:04Z</time>
      </trkpt>
      <trkpt lat="44.15188" lon="1.72077">
        <ele>87</ele>
        <time>2018-02-19T11:06:10Z</time>
      </trkpt>
      <trkpt lat="44.15129" lon="1.7212">
        <ele>97</ele>
        <time>2018-02-19T11:06:50Z</time>
      </trkpt>
      <trkpt lat="44.15125" lon="1.72132">
        <ele>97.8</ele>
        <time>2018-02-19T11:06:52Z</time>
      </trkpt>
      <trkpt lat="44.1512" lon="1.72145">
        <ele>98.5</ele>
        <time>2018-02-19T11:06:53Z</time>
      </trkpt>
      <trkpt lat="44.15116" lon="1.7216">
        <ele>99.2</ele>
        <time>2018-02-19T11:06:55Z</time>
      </trkpt>
      <trkpt lat="44.15113" lon="1.72174">
        <ele>99.8</ele>
        <time>2018-02-19T11:06:57Z</time>
      </trkpt>
      <trkpt lat="44.1511" lon="1.72189">
        <ele>100.6</ele>
        <time>2018-02-19T11:06:59Z</time>
      </trkpt>
      <trkpt lat="44.15105" lon="1.72204">
        <ele>101.5</ele>
        <time>2018-02-19T11:07:01Z</time>
      </trkpt>
      <trkpt lat="44.15101" lon="1.7222">
        <ele>102.5</ele>
        <time>2018-02-19T11:07:04Z</time>
      </trkpt>
      <trkpt lat="44.15096" lon="1.72235">
        <ele>103.3</ele>
        <time>2018-02-19T11:07:05Z</time>
      </trkpt>
      <trkpt lat="44.1509" lon="1.72252">
        <ele>104.2</ele>
        <time>2018-02-19T11:07:07Z</time>
      </trkpt>
      <trkpt lat="44.15086" lon="1.72269">
        <ele>105.2</ele>
        <time>2018-02-19T11:07:09Z</time>
      </trkpt>
      <trkpt lat="44.1508" lon="1.72285">
        <ele>106.5</ele>
        <time>2018-02-19T11:07:11Z</time>
      </trkpt>
      <trkpt lat="44.15075" lon="1.72299">
        <ele>108</ele>
        <time>2018-02-19T11:07:13Z</time>
      </trkpt>
      <trkpt lat="44.15069" lon="1.72315">
        <ele>109.3</ele>
        <time>2018-02-19T11:07:15Z</time>
      </trkpt>
      <trkpt lat="44.15063" lon="1.72329">
        <ele>110.4</ele>
        <time>2018-02-19T11:07:17Z</time>
      </trkpt>
      <trkpt lat="44.15057" lon="1.72343">
        <ele>111.3</ele>
        <time>2018-02-19T11:07:19Z</time>
      </trkpt>
      <trkpt lat="44.1505" lon="1.72358">
        <ele>112.2</ele>
        <time>2018-02-19T11:07:21Z</time>
      </trkpt>
      <trkpt lat="44.15044" lon="1.72372">
        <ele>113</ele>
        <time>2018-02-19T11:07:23Z</time>
      </trkpt>
      <trkpt lat="44.15038" lon="1.72386">
        <ele>113.9</ele>
        <time>2018-02-19T11:07:25Z</time>
      </trkpt>
      <trkpt lat="44.15032" lon="1.724">
        <ele>114.6</ele>
        <time>2018-02-19T11:07:27Z</time>
      </trkpt>
      <trkpt lat="44.15027" lon="1.72414">
        <ele>115.3</ele>
        <time>2018-02-19T11:07:29Z</time>
      </trkpt>
      <trkpt lat="44.1502" lon="1.72428">
        <ele>115.9</ele>
        <time>2018-02-19T11:07:31Z</time>
      </trkpt>
      <trkpt lat="44.15014" lon="1.72442">
        <ele>116.3</ele>
        <time>2018-02-19T11:07:33Z</time>
      </trkpt>
      <trkpt lat="44.15006" lon="1.72455">
        <ele>116.8</ele>
        <time>2018-02-19T11:07:35Z</time>
      </trkpt>
      <trkpt lat="44.14996" lon="1.72466">
        <ele>117.5</ele>
        <time>2018-02-19T11:07:37Z</time>
      </trkpt>
      <trkpt lat="44.14985" lon="1.72477">
        <ele>117.9</ele>
        <time>2018-02-19T11:07:39Z</time>
      </trkpt>
      <trkpt lat="44.14975" lon="1.72488">
        <ele>118.4</ele>
        <time>2018-02-19T11:07:41Z</time>
      </trkpt>
      <trkpt lat="44.14965" lon="1.72497">
        <ele>119.1</ele>
        <time>2018-02-19T11:07:43Z</time>
      </trkpt>
      <trkpt lat="44.14954" lon="1.72507">
        <ele>119.8</ele>
        <time>2018-02-19T11:07:45Z</time>
      </trkpt>
      <trkpt lat="44.14944" lon="1.72516">
        <ele>120.4</ele>
        <time>2018-02-19T11:07:47Z</time>
      </trkpt>
      <trkpt lat="44.14934" lon="1.72523">
        <ele>120.9</ele>
        <time>2018-02-19T11:07:49Z</time>
      </trkpt>
      <trkpt lat="44.14922" lon="1.7253">
        <ele>121.2</ele>
        <time>2018-02-19T11:07:52Z</time>
      </trkpt>
      <trkpt lat="44.14908" lon="1.72534">
        <ele>121.5</ele>
        <time>2018-02-19T11:07:54Z</time>
      </trkpt>
      <trkpt lat="44.14901" lon="1.72536">
        <ele>121.6</ele>
        <time>2018-02-19T11:07:55Z</time>
      </trkpt>
      <trkpt lat="44.14886" lon="1.72542">
        <ele>122</ele>
        <time>2018-02-19T11:07:57Z</time>
      </trkpt>
      <trkpt lat="44.14873" lon="1.72546">
        <ele>122.4</ele>
        <time>2018-02-19T11:07:59Z</time>
      </trkpt>
      <trkpt lat="44.1486" lon="1.7255">
        <ele>123</ele>
        <time>2018-02-19T11:08:01Z</time>
      </trkpt>
      <trkpt lat="44.14847" lon="1.72553">
        <ele>123.4</ele>
        <time>2018-02-19T11:08:03Z</time>
      </trkpt>
      <trkpt lat="44.14833" lon="1.72555">
        <ele>123.8</ele>
        <time>2018-02-19T11:08:05Z</time>
      </trkpt>
      <trkpt lat="44.14821" lon="1.72558">
        <ele>124.3</ele>
        <time>2018-02-19T11:08:07Z</time>
      </trkpt>
      <trkpt lat="44.14806" lon="1.72559">
        <ele>124.8</ele>
        <time>2018-02-19T11:08:09Z</time>
      </trkpt>
      <trkpt lat="44.14798" lon="1.72558">
        <ele>125</ele>
        <time>2018-02-19T11:08:10Z</time>
      </trkpt>
      <trkpt lat="44.14784" lon="1.72556">
        <ele>125.4</ele>
        <time>2018-02-19T11:08:12Z</time>
      </trkpt>
      <trkpt lat="44.14771" lon="1.72548">
        <ele>126</ele>
        <time>2018-02-19T11:08:14Z</time>
      </trkpt>
      <trkpt lat="44.14765" lon="1.72544">
        <ele>126.5</ele>
        <time>2018-02-19T11:08:15Z</time>
      </trkpt>
      <trkpt lat="44.14758" lon="1.72538">
        <ele>126.9</ele>
        <time>2018-02-19T11:08:16Z</time>
      </trkpt>
      <trkpt lat="44.14753" lon="1.72529">
        <ele>127.3</ele>
        <time>2018-02-19T11:08:17Z</time>
      </trkpt>
      <trkpt lat="44.14749" lon="1.7252">
        <ele>127.7</ele>
        <time>2018-02-19T11:08:18Z</time>
      </trkpt>
      <trkpt lat="44.14745" lon="1.7251">
        <ele>128</ele>
        <time>2018-02-19T11:08:19Z</time>
      </trkpt>
      <trkpt lat="44.14741" lon="1.725">
        <ele>128.3</ele>
        <time>2018-02-19T11:08:20Z</time>
      </trkpt>
      <trkpt lat="44.14739" lon="1.7249">
        <ele>128.7</ele>
        <time>2018-02-19T11:08:21Z</time>
      </trkpt>
      <trkpt lat="44.14734" lon="1.72472">
        <ele>129.2</ele>
        <time>2018-02-19T11:08:23Z</time>
      </trkpt>
      <trkpt lat="44.1473" lon="1.72462">
        <ele>129.5</ele>
        <time>2018-02-19T11:08:24Z</time>
      </trkpt>
      <trkpt lat="44.14723" lon="1.72445">
        <ele>130.3</ele>
        <time>2018-02-19T11:08:26Z</time>
      </trkpt>
      <trkpt lat="44.14715" lon="1.7243">
        <ele>130.9</ele>
        <time>2018-02-19T11:08:28Z</time>
      </trkpt>
      <trkpt lat="44.1471" lon="1.72422">
        <ele>131.2</ele>
        <time>2018-02-19T11:08:29Z</time>
      </trkpt>
      <trkpt lat="44.14706" lon="1.72413">
        <ele>131.4</ele>
        <time>2018-02-19T11:08:30Z</time>
      </trkpt>
      <trkpt lat="44.147" lon="1.72398">
        <ele>131.8</ele>
        <time>2018-02-19T11:08:32Z</time>
      </trkpt>
      <trkpt lat="44.14696" lon="1.72384">
        <ele>132.5</ele>
        <time>2018-02-19T11:08:34Z</time>
      </trkpt>
      <trkpt lat="44.14693" lon="1.7237">
        <ele>133.3</ele>
        <time>2018-02-19T11:08:36Z</time>
      </trkpt>
      <trkpt lat="44.14692" lon="1.7236">
        <ele>134.6</ele>
        <time>2018-02-19T11:08:38Z</time>
      </trkpt>
      <trkpt lat="44.1469" lon="1.7235">
        <ele>135.8</ele>
        <time>2018-02-19T11:08:40Z</time>
      </trkpt>
      <trkpt lat="44.14692" lon="1.72333">
        <ele>137</ele>
        <time>2018-02-19T11:08:42Z</time>
      </trkpt>
      <trkpt lat="44.14695" lon="1.72318">
        <ele>138.6</ele>
        <time>2018-02-19T11:08:44Z</time>
      </trkpt>
      <trkpt lat="44.14697" lon="1.72303">
        <ele>139.4</ele>
        <time>2018-02-19T11:08:46Z</time>
      </trkpt>
      <trkpt lat="44.14702" lon="1.72289">
        <ele>139.8</ele>
        <time>2018-02-19T11:08:48Z</time>
      </trkpt>
      <trkpt lat="44.14707" lon="1.72274">
        <ele>140</ele>
        <time>2018-02-19T11:08:50Z</time>
      </trkpt>
      <trkpt lat="44.1471" lon="1.72257">
        <ele>139.8</ele>
        <time>2018-02-19T11:08:52Z</time>
      </trkpt>
      <trkpt lat="44.14714" lon="1.72241">
        <ele>139.2</ele>
        <time>2018-02-19T11:08:54Z</time>
      </trkpt>
      <trkpt lat="44.1472" lon="1.72226">
        <ele>139.6</ele>
        <time>2018-02-19T11:08:56Z</time>
      </trkpt>
      <trkpt lat="44.14726" lon="1.7221">
        <ele>139.8</ele>
        <time>2018-02-19T11:08:58Z</time>
      </trkpt>
      <trkpt lat="44.14731" lon="1.72193">
        <ele>140.2</ele>
        <time>2018-02-19T11:09:00Z</time>
      </trkpt>
      <trkpt lat="44.14735" lon="1.72176">
        <ele>139.9</ele>
        <time>2018-02-19T11:09:02Z</time>
      </trkpt>
      <trkpt lat="44.14741" lon="1.72161">
        <ele>139.8</ele>
        <time>2018-02-19T11:09:04Z</time>
      </trkpt>
      <trkpt lat="44.14744" lon="1.72147">
        <ele>140</ele>
        <time>2018-02-19T11:09:06Z</time>
      </trkpt>
      <trkpt lat="44.14747" lon="1.72132">
        <ele>140</ele>
        <time>2018-02-19T11:09:08Z</time>
      </trkpt>
      <trkpt lat="44.1475" lon="1.72118">
        <ele>139.9</ele>
        <time>2018-02-19T11:09:10Z</time>
      </trkpt>
      <trkpt lat="44.14754" lon="1.72103">
        <ele>139.2</ele>
        <time>2018-02-19T11:09:12Z</time>
      </trkpt>
      <trkpt lat="44.14758" lon="1.7209">
        <ele>138.6</ele>
        <time>2018-02-19T11:09:14Z</time>
      </trkpt>
      <trkpt lat="44.14762" lon="1.72077">
        <ele>137.4</ele>
        <time>2018-02-19T11:09:16Z</time>
      </trkpt>
      <trkpt lat="44.14766" lon="1.72064">
        <ele>136.4</ele>
        <time>2018-02-19T11:09:18Z</time>
      </trkpt>
      <trkpt lat="44.1477" lon="1.72054">
        <ele>135.7</ele>
        <time>2018-02-19T11:09:20Z</time>
      </trkpt>
      <trkpt lat="44.14771" lon="1.72044">
        <ele>134.5</ele>
        <time>2018-02-19T11:09:24Z</time>
      </trkpt>
      <trkpt lat="44.14772" lon="1.7204">
        <ele>131.7</ele>
        <time>2018-02-19T11:09:38Z</time>
      </trkpt>
      <trkpt lat="44.14768" lon="1.72031">
        <ele>129.9</ele>
        <time>2018-02-19T11:09:44Z</time>
      </trkpt>
      <trkpt lat="44.14761" lon="1.72023">
        <ele>129.6</ele>
        <time>2018-02-19T11:10:33Z</time>
      </trkpt>
      <trkpt lat="44.1477" lon="1.72018">
        <ele>128.9</ele>
        <time>2018-02-19T11:10:36Z</time>
      </trkpt>
      <trkpt lat="44.14776" lon="1.72013">
        <ele>128.4</ele>
        <time>2018-02-19T11:10:38Z</time>
      </trkpt>
      <trkpt lat="44.14783" lon="1.72005">
        <ele>128.1</ele>
        <time>2018-02-19T11:10:40Z</time>
      </trkpt>
      <trkpt lat="44.14789" lon="1.71996">
        <ele>127.7</ele>
        <time>2018-02-19T11:10:42Z</time>
      </trkpt>
      <trkpt lat="44.14796" lon="1.71984">
        <ele>127.6</ele>
        <time>2018-02-19T11:10:44Z</time>
      </trkpt>
      <trkpt lat="44.14803" lon="1.71972">
        <ele>127.4</ele>
        <time>2018-02-19T11:10:46Z</time>
      </trkpt>
      <trkpt lat="44.1481" lon="1.7196">
        <ele>127.6</ele>
        <time>2018-02-19T11:10:48Z</time>
      </trkpt>
      <trkpt lat="44.14818" lon="1.71947">
        <ele>127.8</ele>
        <time>2018-02-19T11:10:50Z</time>
      </trkpt>
      <trkpt lat="44.14822" lon="1.71933">
        <ele>128.1</ele>
        <time>2018-02-19T11:10:52Z</time>
      </trkpt>
      <trkpt lat="44.1483" lon="1.7192">
        <ele>128.4</ele>
        <time>2018-02-19T11:10:54Z</time>
      </trkpt>
      <trkpt lat="44.14837" lon="1.71908">
        <ele>128.6</ele>
        <time>2018-02-19T11:10:56Z</time>
      </trkpt>
      <trkpt lat="44.14842" lon="1.71897">
        <ele>128.7</ele>
        <time>2018-02-19T11:10:58Z</time>
      </trkpt>
      <trkpt lat="44.14848" lon="1.71887">
        <ele>128.6</ele>
        <time>2018-02-19T11:11:00Z</time>
      </trkpt>
      <trkpt lat="44.14855" lon="1.71877">
        <ele>128.6</ele>
        <time>2018-02-19T11:11:02Z</time>
      </trkpt>
      <trkpt lat="44.1486" lon="1.71867">
        <ele>128.6</ele>
        <time>2018-02-19T11:11:04Z</time>
      </trkpt>
      <trkpt lat="44.14864" lon="1.71858">
        <ele>128.1</ele>
        <time>2018-02-19T11:11:06Z</time>
      </trkpt>
      <trkpt lat="44.14869" lon="1.71849">
        <ele>127.8</ele>
        <time>2018-02-19T11:11:08Z</time>
      </trkpt>
      <trkpt lat="44.14873" lon="1.7184">
        <ele>127.5</ele>
        <time>2018-02-19T11:11:10Z</time>
      </trkpt>
      <trkpt lat="44.14878" lon="1.71831">
        <ele>127.3</ele>
        <time>2018-02-19T11:11:12Z</time>
      </trkpt>
      <trkpt lat="44.1488" lon="1.71821">
        <ele>127.2</ele>
        <time>2018-02-19T11:11:14Z</time>
      </trkpt>
      <trkpt lat="44.14884" lon="1.71812">
        <ele>126.9</ele>
        <time>2018-02-19T11:11:16Z</time>
      </trkpt>
      <trkpt lat="44.14889" lon="1.71803">
        <ele>126.1</ele>
        <time>2018-02-19T11:11:18Z</time>
      </trkpt>
      <trkpt lat="44.14892" lon="1.71794">
        <ele>125.6</ele>
        <time>2018-02-19T11:11:20Z</time>
      </trkpt>
      <trkpt lat="44.14894" lon="1.71782">
        <ele>125.5</ele>
        <time>2018-02-19T11:11:23Z</time>
      </trkpt>
      <trkpt lat="44.14893" lon="1.7177">
        <ele>125.5</ele>
        <time>2018-02-19T11:11:26Z</time>
      </trkpt>
      <trkpt lat="44.14893" lon="1.71759">
        <ele>125.9</ele>
        <time>2018-02-19T11:11:29Z</time>
      </trkpt>
      <trkpt lat="44.14892" lon="1.71745">
        <ele>126.3</ele>
        <time>2018-02-19T11:11:32Z</time>
      </trkpt>
      <trkpt lat="44.1489" lon="1.71734">
        <ele>127</ele>
        <time>2018-02-19T11:11:35Z</time>
      </trkpt>
      <trkpt lat="44.14886" lon="1.71725">
        <ele>127.6</ele>
        <time>2018-02-19T11:11:37Z</time>
      </trkpt>
      <trkpt lat="44.14884" lon="1.71714">
        <ele>128.7</ele>
        <time>2018-02-19T11:11:40Z</time>
      </trkpt>
      <trkpt lat="44.14883" lon="1.71704">
        <ele>129.7</ele>
        <time>2018-02-19T11:11:43Z</time>
      </trkpt>
      <trkpt lat="44.14879" lon="1.71689">
        <ele>130.5</ele>
        <time>2018-02-19T11:11:46Z</time>
      </trkpt>
      <trkpt lat="44.14876" lon="1.71676">
        <ele>131.4</ele>
        <time>2018-02-19T11:11:49Z</time>
      </trkpt>
      <trkpt lat="44.14872" lon="1.71665">
        <ele>131.6</ele>
        <time>2018-02-19T11:11:51Z</time>
      </trkpt>
      <trkpt lat="44.14868" lon="1.71655">
        <ele>131.8</ele>
        <time>2018-02-19T11:11:53Z</time>
      </trkpt>
      <trkpt lat="44.14864" lon="1.71645">
        <ele>132.2</ele>
        <time>2018-02-19T11:11:55Z</time>
      </trkpt>
      <trkpt lat="44.14859" lon="1.71632">
        <ele>132.8</ele>
        <time>2018-02-19T11:11:58Z</time>
      </trkpt>
      <trkpt lat="44.14854" lon="1.71624">
        <ele>133</ele>
        <time>2018-02-19T11:12:00Z</time>
      </trkpt>
      <trkpt lat="44.14846" lon="1.71616">
        <ele>133.4</ele>
        <time>2018-02-19T11:12:02Z</time>
      </trkpt>
      <trkpt lat="44.14839" lon="1.71608">
        <ele>133.5</ele>
        <time>2018-02-19T11:12:04Z</time>
      </trkpt>
      <trkpt lat="44.14831" lon="1.716">
        <ele>133.7</ele>
        <time>2018-02-19T11:12:06Z</time>
      </trkpt>
      <trkpt lat="44.14824" lon="1.71592">
        <ele>133.5</ele>
        <time>2018-02-19T11:12:08Z</time>
      </trkpt>
      <trkpt lat="44.14815" lon="1.71586">
        <ele>133.3</ele>
        <time>2018-02-19T11:12:10Z</time>
      </trkpt>
      <trkpt lat="44.14807" lon="1.71578">
        <ele>133.1</ele>
        <time>2018-02-19T11:12:12Z</time>
      </trkpt>
      <trkpt lat="44.14799" lon="1.71571">
        <ele>133</ele>
        <time>2018-02-19T11:12:14Z</time>
      </trkpt>
      <trkpt lat="44.14791" lon="1.71566">
        <ele>132.7</ele>
        <time>2018-02-19T11:12:16Z</time>
      </trkpt>
      <trkpt lat="44.14783" lon="1.7156">
        <ele>132.4</ele>
        <time>2018-02-19T11:12:18Z</time>
      </trkpt>
      <trkpt lat="44.14775" lon="1.71555">
        <ele>132.5</ele>
        <time>2018-02-19T11:12:20Z</time>
      </trkpt>
      <trkpt lat="44.14767" lon="1.71551">
        <ele>132.4</ele>
        <time>2018-02-19T11:12:22Z</time>
      </trkpt>
      <trkpt lat="44.14758" lon="1.71548">
        <ele>132.4</ele>
        <time>2018-02-19T11:12:24Z</time>
      </trkpt>
      <trkpt lat="44.14749" lon="1.71545">
        <ele>132.4</ele>
        <time>2018-02-19T11:12:26Z</time>
      </trkpt>
      <trkpt lat="44.14739" lon="1.71543">
        <ele>132.6</ele>
        <time>2018-02-19T11:12:28Z</time>
      </trkpt>
      <trkpt lat="44.1473" lon="1.7154">
        <ele>132.8</ele>
        <time>2018-02-19T11:12:30Z</time>
      </trkpt>
      <trkpt lat="44.1472" lon="1.71537">
        <ele>133.1</ele>
        <time>2018-02-19T11:12:32Z</time>
      </trkpt>
      <trkpt lat="44.1471" lon="1.71535">
        <ele>133.5</ele>
        <time>2018-02-19T11:12:34Z</time>
      </trkpt>
      <trkpt lat="44.14701" lon="1.71533">
        <ele>133.9</ele>
        <time>2018-02-19T11:12:36Z</time>
      </trkpt>
      <trkpt lat="44.1469" lon="1.71532">
        <ele>134.2</ele>
        <time>2018-02-19T11:12:38Z</time>
      </trkpt>
      <trkpt lat="44.14679" lon="1.7153">
        <ele>134.7</ele>
        <time>2018-02-19T11:12:40Z</time>
      </trkpt>
      <trkpt lat="44.14668" lon="1.7153">
        <ele>135.1</ele>
        <time>2018-02-19T11:12:42Z</time>
      </trkpt>
      <trkpt lat="44.14656" lon="1.71528">
        <ele>135.6</ele>
        <time>2018-02-19T11:12:44Z</time>
      </trkpt>
      <trkpt lat="44.14646" lon="1.71528">
        <ele>136.2</ele>
        <time>2018-02-19T11:12:46Z</time>
      </trkpt>
      <trkpt lat="44.14635" lon="1.71527">
        <ele>136.9</ele>
        <time>2018-02-19T11:12:48Z</time>
      </trkpt>
      <trkpt lat="44.14625" lon="1.71526">
        <ele>137.5</ele>
        <time>2018-02-19T11:12:50Z</time>
      </trkpt>
      <trkpt lat="44.14616" lon="1.71526">
        <ele>138.2</ele>
        <time>2018-02-19T11:12:52Z</time>
      </trkpt>
      <trkpt lat="44.14606" lon="1.71525">
        <ele>138.8</ele>
        <time>2018-02-19T11:12:54Z</time>
      </trkpt>
      <trkpt lat="44.14597" lon="1.71523">
        <ele>139.4</ele>
        <time>2018-02-19T11:12:56Z</time>
      </trkpt>
      <trkpt lat="44.1459" lon="1.71523">
        <ele>140.1</ele>
        <time>2018-02-19T11:12:58Z</time>
      </trkpt>
      <trkpt lat="44.14582" lon="1.71523">
        <ele>140.7</ele>
        <time>2018-02-19T11:13:00Z</time>
      </trkpt>
      <trkpt lat="44.14575" lon="1.71526">
        <ele>141.2</ele>
        <time>2018-02-19T11:13:02Z</time>
      </trkpt>
      <trkpt lat="44.14568" lon="1.71526">
        <ele>141.6</ele>
        <time>2018-02-19T11:13:04Z</time>
      </trkpt>
      <trkpt lat="44.1456" lon="1.71536">
        <ele>142.1</ele>
        <time>2018-02-19T11:13:09Z</time>
      </trkpt>
      <trkpt lat="44.14552" lon="1.71534">
        <ele>141.8</ele>
        <time>2018-02-19T11:13:10Z</time>
      </trkpt>
      <trkpt lat="44.14541" lon="1.71534">
        <ele>141.6</ele>
        <time>2018-02-19T11:13:12Z</time>
      </trkpt>
      <trkpt lat="44.14533" lon="1.71534">
        <ele>141.6</ele>
        <time>2018-02-19T11:13:14Z</time>
      </trkpt>
      <trkpt lat="44.14524" lon="1.71533">
        <ele>141.5</ele>
        <time>2018-02-19T11:13:16Z</time>
      </trkpt>
      <trkpt lat="44.14514" lon="1.71529">
        <ele>141.5</ele>
        <time>2018-02-19T11:13:19Z</time>
      </trkpt>
      <trkpt lat="44.14504" lon="1.71526">
        <ele>142</ele>
        <time>2018-02-19T11:13:22Z</time>
      </trkpt>
      <trkpt lat="44.14497" lon="1.71526">
        <ele>141.5</ele>
        <time>2018-02-19T11:13:25Z</time>
      </trkpt>
      <trkpt lat="44.14488" lon="1.71524">
        <ele>140.9</ele>
        <time>2018-02-19T11:13:28Z</time>
      </trkpt>
      <trkpt lat="44.1448" lon="1.71522">
        <ele>140.8</ele>
        <time>2018-02-19T11:13:31Z</time>
      </trkpt>
      <trkpt lat="44.14471" lon="1.71521">
        <ele>141.3</ele>
        <time>2018-02-19T11:13:34Z</time>
      </trkpt>
      <trkpt lat="44.14462" lon="1.7152">
        <ele>141.8</ele>
        <time>2018-02-19T11:13:37Z</time>
      </trkpt>
      <trkpt lat="44.14454" lon="1.7152">
        <ele>142.4</ele>
        <time>2018-02-19T11:13:40Z</time>
      </trkpt>
      <trkpt lat="44.14444" lon="1.71521">
        <ele>142.6</ele>
        <time>2018-02-19T11:13:43Z</time>
      </trkpt>
      <trkpt lat="44.14436" lon="1.71521">
        <ele>142.8</ele>
        <time>2018-02-19T11:13:46Z</time>
      </trkpt>
      <trkpt lat="44.14426" lon="1.71522">
        <ele>142.5</ele>
        <time>2018-02-19T11:13:49Z</time>
      </trkpt>
      <trkpt lat="44.14416" lon="1.71524">
        <ele>142.5</ele>
        <time>2018-02-19T11:13:52Z</time>
      </trkpt>
      <trkpt lat="44.14406" lon="1.71527">
        <ele>142.3</ele>
        <time>2018-02-19T11:13:55Z</time>
      </trkpt>
      <trkpt lat="44.14398" lon="1.71531">
        <ele>142.4</ele>
        <time>2018-02-19T11:13:58Z</time>
      </trkpt>
      <trkpt lat="44.1439" lon="1.71536">
        <ele>141.4</ele>
        <time>2018-02-19T11:14:01Z</time>
      </trkpt>
      <trkpt lat="44.14382" lon="1.7154">
        <ele>141</ele>
        <time>2018-02-19T11:14:04Z</time>
      </trkpt>
      <trkpt lat="44.14374" lon="1.71545">
        <ele>140.9</ele>
        <time>2018-02-19T11:14:07Z</time>
      </trkpt>
      <trkpt lat="44.14365" lon="1.7155">
        <ele>140.4</ele>
        <time>2018-02-19T11:14:10Z</time>
      </trkpt>
      <trkpt lat="44.14359" lon="1.71556">
        <ele>140.1</ele>
        <time>2018-02-19T11:14:13Z</time>
      </trkpt>
      <trkpt lat="44.1435" lon="1.71561">
        <ele>139.8</ele>
        <time>2018-02-19T11:14:16Z</time>
      </trkpt>
      <trkpt lat="44.14343" lon="1.71565">
        <ele>139.4</ele>
        <time>2018-02-19T11:14:18Z</time>
      </trkpt>
      <trkpt lat="44.14336" lon="1.71574">
        <ele>138.8</ele>
        <time>2018-02-19T11:14:21Z</time>
      </trkpt>
      <trkpt lat="44.14329" lon="1.71581">
        <ele>137.8</ele>
        <time>2018-02-19T11:14:24Z</time>
      </trkpt>
      <trkpt lat="44.14322" lon="1.71589">
        <ele>137.3</ele>
        <time>2018-02-19T11:14:27Z</time>
      </trkpt>
      <trkpt lat="44.14315" lon="1.71597">
        <ele>137.1</ele>
        <time>2018-02-19T11:14:30Z</time>
      </trkpt>
      <trkpt lat="44.14308" lon="1.71604">
        <ele>137.5</ele>
        <time>2018-02-19T11:14:33Z</time>
      </trkpt>
      <trkpt lat="44.14301" lon="1.71611">
        <ele>137.2</ele>
        <time>2018-02-19T11:14:36Z</time>
      </trkpt>
      <trkpt lat="44.14295" lon="1.71618">
        <ele>136.9</ele>
        <time>2018-02-19T11:14:39Z</time>
      </trkpt>
      <trkpt lat="44.14288" lon="1.71627">
        <ele>136.5</ele>
        <time>2018-02-19T11:14:42Z</time>
      </trkpt>
      <trkpt lat="44.14283" lon="1.71635">
        <ele>136.4</ele>
        <time>2018-02-19T11:14:45Z</time>
      </trkpt>
      <trkpt lat="44.14276" lon="1.71642">
        <ele>136.1</ele>
        <time>2018-02-19T11:14:48Z</time>
      </trkpt>
      <trkpt lat="44.1427" lon="1.71649">
        <ele>135.9</ele>
        <time>2018-02-19T11:14:51Z</time>
      </trkpt>
      <trkpt lat="44.14265" lon="1.71656">
        <ele>136.1</ele>
        <time>2018-02-19T11:14:54Z</time>
      </trkpt>
      <trkpt lat="44.14261" lon="1.71664">
        <ele>136.5</ele>
        <time>2018-02-19T11:15:02Z</time>
      </trkpt>
      <trkpt lat="44.14259" lon="1.71673">
        <ele>142.1</ele>
        <time>2018-02-19T11:17:20Z</time>
      </trkpt>
      <trkpt lat="44.14255" lon="1.71682">
        <ele>142</ele>
        <time>2018-02-19T11:17:22Z</time>
      </trkpt>
      <trkpt lat="44.1425" lon="1.71691">
        <ele>141.9</ele>
        <time>2018-02-19T11:17:25Z</time>
      </trkpt>
      <trkpt lat="44.14247" lon="1.71702">
        <ele>142</ele>
        <time>2018-02-19T11:17:28Z</time>
      </trkpt>
      <trkpt lat="44.14241" lon="1.7171">
        <ele>142</ele>
        <time>2018-02-19T11:17:31Z</time>
      </trkpt>
      <trkpt lat="44.14235" lon="1.71719">
        <ele>142.1</ele>
        <time>2018-02-19T11:17:34Z</time>
      </trkpt>
      <trkpt lat="44.14228" lon="1.71726">
        <ele>142.1</ele>
        <time>2018-02-19T11:17:37Z</time>
      </trkpt>
      <trkpt lat="44.14219" lon="1.71733">
        <ele>142.2</ele>
        <time>2018-02-19T11:17:40Z</time>
      </trkpt>
      <trkpt lat="44.14213" lon="1.7174">
        <ele>142.5</ele>
        <time>2018-02-19T11:17:42Z</time>
      </trkpt>
      <trkpt lat="44.14204" lon="1.71748">
        <ele>142.9</ele>
        <time>2018-02-19T11:17:45Z</time>
      </trkpt>
      <trkpt lat="44.14198" lon="1.71756">
        <ele>143.1</ele>
        <time>2018-02-19T11:17:48Z</time>
      </trkpt>
      <trkpt lat="44.14192" lon="1.71765">
        <ele>143.3</ele>
        <time>2018-02-19T11:17:51Z</time>
      </trkpt>
      <trkpt lat="44.14185" lon="1.71774">
        <ele>143.5</ele>
        <time>2018-02-19T11:17:54Z</time>
      </trkpt>
      <trkpt lat="44.14179" lon="1.71781">
        <ele>143.6</ele>
        <time>2018-02-19T11:17:57Z</time>
      </trkpt>
      <trkpt lat="44.14171" lon="1.71789">
        <ele>143.4</ele>
        <time>2018-02-19T11:18:00Z</time>
      </trkpt>
      <trkpt lat="44.14165" lon="1.71795">
        <ele>143.4</ele>
        <time>2018-02-19T11:18:02Z</time>
      </trkpt>
      <trkpt lat="44.14159" lon="1.71801">
        <ele>143.4</ele>
        <time>2018-02-19T11:18:04Z</time>
      </trkpt>
      <trkpt lat="44.14153" lon="1.71808">
        <ele>143.3</ele>
        <time>2018-02-19T11:18:06Z</time>
      </trkpt>
      <trkpt lat="44.14146" lon="1.71814">
        <ele>143.3</ele>
        <time>2018-02-19T11:18:08Z</time>
      </trkpt>
      <trkpt lat="44.14138" lon="1.71819">
        <ele>143.4</ele>
        <time>2018-02-19T11:18:10Z</time>
      </trkpt>
      <trkpt lat="44.14131" lon="1.71822">
        <ele>143.4</ele>
        <time>2018-02-19T11:18:12Z</time>
      </trkpt>
      <trkpt lat="44.14123" lon="1.71826">
        <ele>143.4</ele>
        <time>2018-02-19T11:18:14Z</time>
      </trkpt>
      <trkpt lat="44.14116" lon="1.7183">
        <ele>143.4</ele>
        <time>2018-02-19T11:18:16Z</time>
      </trkpt>
      <trkpt lat="44.14108" lon="1.71834">
        <ele>143.3</ele>
        <time>2018-02-19T11:18:18Z</time>
      </trkpt>
      <trkpt lat="44.14101" lon="1.71838">
        <ele>143.2</ele>
        <time>2018-02-19T11:18:20Z</time>
      </trkpt>
      <trkpt lat="44.14092" lon="1.71842">
        <ele>143.1</ele>
        <time>2018-02-19T11:18:22Z</time>
      </trkpt>
      <trkpt lat="44.14083" lon="1.71848">
        <ele>143</ele>
        <time>2018-02-19T11:18:24Z</time>
      </trkpt>
      <trkpt lat="44.14075" lon="1.71851">
        <ele>143</ele>
        <time>2018-02-19T11:18:26Z</time>
      </trkpt>
      <trkpt lat="44.14066" lon="1.71856">
        <ele>143.2</ele>
        <time>2018-02-19T11:18:28Z</time>
      </trkpt>
      <trkpt lat="44.14057" lon="1.71858">
        <ele>143.5</ele>
        <time>2018-02-19T11:18:30Z</time>
      </trkpt>
      <trkpt lat="44.14047" lon="1.71862">
        <ele>143.7</ele>
        <time>2018-02-19T11:18:32Z</time>
      </trkpt>
      <trkpt lat="44.14037" lon="1.71867">
        <ele>143.8</ele>
        <time>2018-02-19T11:18:34Z</time>
      </trkpt>
      <trkpt lat="44.14027" lon="1.71874">
        <ele>144</ele>
        <time>2018-02-19T11:18:36Z</time>
      </trkpt>
      <trkpt lat="44.14017" lon="1.71879">
        <ele>144</ele>
        <time>2018-02-19T11:18:38Z</time>
      </trkpt>
      <trkpt lat="44.14004" lon="1.71882">
        <ele>144</ele>
        <time>2018-02-19T11:18:40Z</time>
      </trkpt>
      <trkpt lat="44.13992" lon="1.71886">
        <ele>144.1</ele>
        <time>2018-02-19T11:18:42Z</time>
      </trkpt>
      <trkpt lat="44.1398" lon="1.71891">
        <ele>144.4</ele>
        <time>2018-02-19T11:18:44Z</time>
      </trkpt>
      <trkpt lat="44.13967" lon="1.71894">
        <ele>144.5</ele>
        <time>2018-02-19T11:18:46Z</time>
      </trkpt>
      <trkpt lat="44.13955" lon="1.71898">
        <ele>144.8</ele>
        <time>2018-02-19T11:18:48Z</time>
      </trkpt>
      <trkpt lat="44.13943" lon="1.719">
        <ele>144.7</ele>
        <time>2018-02-19T11:18:50Z</time>
      </trkpt>
      <trkpt lat="44.13929" lon="1.71899">
        <ele>144.8</ele>
        <time>2018-02-19T11:18:52Z</time>
      </trkpt>
      <trkpt lat="44.13921" lon="1.71899">
        <ele>144.7</ele>
        <time>2018-02-19T11:18:53Z</time>
      </trkpt>
      <trkpt lat="44.13908" lon="1.71899">
        <ele>144.6</ele>
        <time>2018-02-19T11:18:55Z</time>
      </trkpt>
      <trkpt lat="44.13895" lon="1.719">
        <ele>144.8</ele>
        <time>2018-02-19T11:18:57Z</time>
      </trkpt>
      <trkpt lat="44.13882" lon="1.719">
        <ele>145.3</ele>
        <time>2018-02-19T11:18:59Z</time>
      </trkpt>
      <trkpt lat="44.1387" lon="1.71902">
        <ele>145.4</ele>
        <time>2018-02-19T11:19:01Z</time>
      </trkpt>
      <trkpt lat="44.13859" lon="1.71906">
        <ele>145.4</ele>
        <time>2018-02-19T11:19:03Z</time>
      </trkpt>
      <trkpt lat="44.13847" lon="1.71907">
        <ele>145.5</ele>
        <time>2018-02-19T11:19:05Z</time>
      </trkpt>
      <trkpt lat="44.13835" lon="1.71908">
        <ele>145.4</ele>
        <time>2018-02-19T11:19:07Z</time>
      </trkpt>
      <trkpt lat="44.13825" lon="1.71907">
        <ele>145.4</ele>
        <time>2018-02-19T11:19:09Z</time>
      </trkpt>
      <trkpt lat="44.13814" lon="1.71905">
        <ele>145.3</ele>
        <time>2018-02-19T11:19:11Z</time>
      </trkpt>
      <trkpt lat="44.13804" lon="1.71905">
        <ele>145.1</ele>
        <time>2018-02-19T11:19:13Z</time>
      </trkpt>
      <trkpt lat="44.13795" lon="1.71904">
        <ele>144.7</ele>
        <time>2018-02-19T11:19:15Z</time>
      </trkpt>
      <trkpt lat="44.13786" lon="1.71903">
        <ele>144.5</ele>
        <time>2018-02-19T11:19:17Z</time>
      </trkpt>
      <trkpt lat="44.13777" lon="1.71903">
        <ele>144.6</ele>
        <time>2018-02-19T11:19:19Z</time>
      </trkpt>
      <trkpt lat="44.13768" lon="1.71904">
        <ele>145.1</ele>
        <time>2018-02-19T11:19:21Z</time>
      </trkpt>
      <trkpt lat="44.1376" lon="1.71903">
        <ele>145.5</ele>
        <time>2018-02-19T11:19:23Z</time>
      </trkpt>
      <trkpt lat="44.13752" lon="1.71902">
        <ele>145.9</ele>
        <time>2018-02-19T11:19:25Z</time>
      </trkpt>
      <trkpt lat="44.13745" lon="1.71901">
        <ele>146.4</ele>
        <time>2018-02-19T11:19:27Z</time>
      </trkpt>
      <trkpt lat="44.13735" lon="1.71899">
        <ele>147.5</ele>
        <time>2018-02-19T11:19:30Z</time>
      </trkpt>
      <trkpt lat="44.13725" lon="1.71898">
        <ele>148.3</ele>
        <time>2018-02-19T11:19:33Z</time>
      </trkpt>
      <trkpt lat="44.13715" lon="1.71897">
        <ele>149.1</ele>
        <time>2018-02-19T11:19:36Z</time>
      </trkpt>
      <trkpt lat="44.13705" lon="1.71896">
        <ele>150.2</ele>
        <time>2018-02-19T11:19:39Z</time>
      </trkpt>
      <trkpt lat="44.13695" lon="1.71894">
        <ele>151.5</ele>
        <time>2018-02-19T11:19:42Z</time>
      </trkpt>
      <trkpt lat="44.13686" lon="1.71893">
        <ele>152.9</ele>
        <time>2018-02-19T11:19:45Z</time>
      </trkpt>
      <trkpt lat="44.13676" lon="1.71891">
        <ele>155</ele>
        <time>2018-02-19T11:19:48Z</time>
      </trkpt>
      <trkpt lat="44.13666" lon="1.71889">
        <ele>156.5</ele>
        <time>2018-02-19T11:19:51Z</time>
      </trkpt>
      <trkpt lat="44.13657" lon="1.71889">
        <ele>157.8</ele>
        <time>2018-02-19T11:19:54Z</time>
      </trkpt>
      <trkpt lat="44.13648" lon="1.71887">
        <ele>159.2</ele>
        <time>2018-02-19T11:19:57Z</time>
      </trkpt>
      <trkpt lat="44.13638" lon="1.71885">
        <ele>160.3</ele>
        <time>2018-02-19T11:20:00Z</time>
      </trkpt>
      <trkpt lat="44.13628" lon="1.71885">
        <ele>162.1</ele>
        <time>2018-02-19T11:20:03Z</time>
      </trkpt>
      <trkpt lat="44.13619" lon="1.71884">
        <ele>163.9</ele>
        <time>2018-02-19T11:20:06Z</time>
      </trkpt>
      <trkpt lat="44.13609" lon="1.71885">
        <ele>165.2</ele>
        <time>2018-02-19T11:20:09Z</time>
      </trkpt>
      <trkpt lat="44.136" lon="1.71883">
        <ele>166.4</ele>
        <time>2018-02-19T11:20:12Z</time>
      </trkpt>
      <trkpt lat="44.13589" lon="1.71882">
        <ele>167.6</ele>
        <time>2018-02-19T11:20:15Z</time>
      </trkpt>
      <trkpt lat="44.13579" lon="1.71882">
        <ele>169</ele>
        <time>2018-02-19T11:20:18Z</time>
      </trkpt>
      <trkpt lat="44.13571" lon="1.71882">
        <ele>170.1</ele>
        <time>2018-02-19T11:20:21Z</time>
      </trkpt>
      <trkpt lat="44.13561" lon="1.71882">
        <ele>171.4</ele>
        <time>2018-02-19T11:20:24Z</time>
      </trkpt>
      <trkpt lat="44.13552" lon="1.71881">
        <ele>172.3</ele>
        <time>2018-02-19T11:20:27Z</time>
      </trkpt>
      <trkpt lat="44.13543" lon="1.7188">
        <ele>174.1</ele>
        <time>2018-02-19T11:20:30Z</time>
      </trkpt>
      <trkpt lat="44.13535" lon="1.71883">
        <ele>175.4</ele>
        <time>2018-02-19T11:20:33Z</time>
      </trkpt>
      <trkpt lat="44.13529" lon="1.71892">
        <ele>176.4</ele>
        <time>2018-02-19T11:20:37Z</time>
      </trkpt>
      <trkpt lat="44.13523" lon="1.71901">
        <ele>177.1</ele>
        <time>2018-02-19T11:20:40Z</time>
      </trkpt>
      <trkpt lat="44.13518" lon="1.71909">
        <ele>177.6</ele>
        <time>2018-02-19T11:20:43Z</time>
      </trkpt>
      <trkpt lat="44.13512" lon="1.71917">
        <ele>178.1</ele>
        <time>2018-02-19T11:20:46Z</time>
      </trkpt>
      <trkpt lat="44.13506" lon="1.71926">
        <ele>178.7</ele>
        <time>2018-02-19T11:20:49Z</time>
      </trkpt>
      <trkpt lat="44.13499" lon="1.71935">
        <ele>179.8</ele>
        <time>2018-02-19T11:20:52Z</time>
      </trkpt>
      <trkpt lat="44.13493" lon="1.71943">
        <ele>180.4</ele>
        <time>2018-02-19T11:20:55Z</time>
      </trkpt>
      <trkpt lat="44.13487" lon="1.7195">
        <ele>180.9</ele>
        <time>2018-02-19T11:20:58Z</time>
      </trkpt>
      <trkpt lat="44.13482" lon="1.7196">
        <ele>181.2</ele>
        <time>2018-02-19T11:21:01Z</time>
      </trkpt>
      <trkpt lat="44.13476" lon="1.71969">
        <ele>181.2</ele>
        <time>2018-02-19T11:21:04Z</time>
      </trkpt>
      <trkpt lat="44.1347" lon="1.71979">
        <ele>181.5</ele>
        <time>2018-02-19T11:21:07Z</time>
      </trkpt>
      <trkpt lat="44.13464" lon="1.71988">
        <ele>181.7</ele>
        <time>2018-02-19T11:21:10Z</time>
      </trkpt>
      <trkpt lat="44.13457" lon="1.71997">
        <ele>181.5</ele>
        <time>2018-02-19T11:21:13Z</time>
      </trkpt>
      <trkpt lat="44.13449" lon="1.72006">
        <ele>181.4</ele>
        <time>2018-02-19T11:21:16Z</time>
      </trkpt>
      <trkpt lat="44.13441" lon="1.72014">
        <ele>181.3</ele>
        <time>2018-02-19T11:21:19Z</time>
      </trkpt>
      <trkpt lat="44.13432" lon="1.72019">
        <ele>181.2</ele>
        <time>2018-02-19T11:21:22Z</time>
      </trkpt>
      <trkpt lat="44.13423" lon="1.72025">
        <ele>181</ele>
        <time>2018-02-19T11:21:25Z</time>
      </trkpt>
      <trkpt lat="44.13414" lon="1.72031">
        <ele>180.9</ele>
        <time>2018-02-19T11:21:28Z</time>
      </trkpt>
      <trkpt lat="44.13405" lon="1.72037">
        <ele>180.8</ele>
        <time>2018-02-19T11:21:31Z</time>
      </trkpt>
      <trkpt lat="44.13396" lon="1.72041">
        <ele>181</ele>
        <time>2018-02-19T11:21:34Z</time>
      </trkpt>
      <trkpt lat="44.13388" lon="1.72047">
        <ele>181.1</ele>
        <time>2018-02-19T11:21:37Z</time>
      </trkpt>
      <trkpt lat="44.13379" lon="1.72053">
        <ele>181</ele>
        <time>2018-02-19T11:21:40Z</time>
      </trkpt>
      <trkpt lat="44.13372" lon="1.72059">
        <ele>180.9</ele>
        <time>2018-02-19T11:21:43Z</time>
      </trkpt>
      <trkpt lat="44.13365" lon="1.72066">
        <ele>180.8</ele>
        <time>2018-02-19T11:21:46Z</time>
      </trkpt>
      <trkpt lat="44.13358" lon="1.72075">
        <ele>180.9</ele>
        <time>2018-02-19T11:21:49Z</time>
      </trkpt>
      <trkpt lat="44.13349" lon="1.72081">
        <ele>180.7</ele>
        <time>2018-02-19T11:21:52Z</time>
      </trkpt>
      <trkpt lat="44.1334" lon="1.7208">
        <ele>180.6</ele>
        <time>2018-02-19T11:21:55Z</time>
      </trkpt>
      <trkpt lat="44.13333" lon="1.72072">
        <ele>180.7</ele>
        <time>2018-02-19T11:21:58Z</time>
      </trkpt>
      <trkpt lat="44.1333" lon="1.7206">
        <ele>181.1</ele>
        <time>2018-02-19T11:22:01Z</time>
      </trkpt>
      <trkpt lat="44.13329" lon="1.72046">
        <ele>181.2</ele>
        <time>2018-02-19T11:22:04Z</time>
      </trkpt>
      <trkpt lat="44.13332" lon="1.72035">
        <ele>181.6</ele>
        <time>2018-02-19T11:22:08Z</time>
      </trkpt>
      <trkpt lat="44.13332" lon="1.72025">
        <ele>182</ele>
        <time>2018-02-19T11:22:11Z</time>
      </trkpt>
      <trkpt lat="44.13333" lon="1.72011">
        <ele>182</ele>
        <time>2018-02-19T11:22:14Z</time>
      </trkpt>
      <trkpt lat="44.13336" lon="1.71998">
        <ele>182.1</ele>
        <time>2018-02-19T11:22:17Z</time>
      </trkpt>
      <trkpt lat="44.13339" lon="1.71985">
        <ele>181.8</ele>
        <time>2018-02-19T11:22:20Z</time>
      </trkpt>
      <trkpt lat="44.13343" lon="1.71972">
        <ele>181.6</ele>
        <time>2018-02-19T11:22:23Z</time>
      </trkpt>
      <trkpt lat="44.13346" lon="1.71963">
        <ele>182.2</ele>
        <time>2018-02-19T11:22:25Z</time>
      </trkpt>
      <trkpt lat="44.13351" lon="1.7195">
        <ele>182.6</ele>
        <time>2018-02-19T11:22:28Z</time>
      </trkpt>
      <trkpt lat="44.13355" lon="1.71937">
        <ele>183.2</ele>
        <time>2018-02-19T11:22:31Z</time>
      </trkpt>
      <trkpt lat="44.1336" lon="1.71925">
        <ele>183.5</ele>
        <time>2018-02-19T11:22:34Z</time>
      </trkpt>
      <trkpt lat="44.13364" lon="1.71913">
        <ele>183.3</ele>
        <time>2018-02-19T11:22:37Z</time>
      </trkpt>
      <trkpt lat="44.13369" lon="1.71901">
        <ele>183.2</ele>
        <time>2018-02-19T11:22:40Z</time>
      </trkpt>
      <trkpt lat="44.13373" lon="1.71888">
        <ele>182.8</ele>
        <time>2018-02-19T11:22:43Z</time>
      </trkpt>
      <trkpt lat="44.13375" lon="1.71876">
        <ele>183.1</ele>
        <time>2018-02-19T11:22:46Z</time>
      </trkpt>
      <trkpt lat="44.13373" lon="1.71862">
        <ele>183.5</ele>
        <time>2018-02-19T11:22:49Z</time>
      </trkpt>
      <trkpt lat="44.13373" lon="1.71848">
        <ele>183.7</ele>
        <time>2018-02-19T11:22:52Z</time>
      </trkpt>
      <trkpt lat="44.13374" lon="1.71835">
        <ele>183.8</ele>
        <time>2018-02-19T11:22:55Z</time>
      </trkpt>
      <trkpt lat="44.13374" lon="1.71822">
        <ele>184.3</ele>
        <time>2018-02-19T11:22:58Z</time>
      </trkpt>
      <trkpt lat="44.1337" lon="1.71812">
        <ele>185.4</ele>
        <time>2018-02-19T11:23:01Z</time>
      </trkpt>
      <trkpt lat="44.13364" lon="1.71803">
        <ele>186.4</ele>
        <time>2018-02-19T11:23:04Z</time>
      </trkpt>
      <trkpt lat="44.13358" lon="1.71793">
        <ele>186.7</ele>
        <time>2018-02-19T11:23:07Z</time>
      </trkpt>
      <trkpt lat="44.13354" lon="1.71784">
        <ele>186.8</ele>
        <time>2018-02-19T11:23:10Z</time>
      </trkpt>
      <trkpt lat="44.13351" lon="1.71774">
        <ele>187.1</ele>
        <time>2018-02-19T11:23:14Z</time>
      </trkpt>
      <trkpt lat="44.13358" lon="1.71763">
        <ele>186.6</ele>
        <time>2018-02-19T11:23:18Z</time>
      </trkpt>
      <trkpt lat="44.13357" lon="1.71751">
        <ele>186.7</ele>
        <time>2018-02-19T11:23:23Z</time>
      </trkpt>
      <trkpt lat="44.13364" lon="1.71745">
        <ele>186.5</ele>
        <time>2018-02-19T11:23:26Z</time>
      </trkpt>
      <trkpt lat="44.13363" lon="1.7174">
        <ele>186.4</ele>
        <time>2018-02-19T11:23:33Z</time>
      </trkpt>
      <trkpt lat="44.13356" lon="1.7174">
        <ele>185.1</ele>
        <time>2018-02-19T11:23:40Z</time>
      </trkpt>
      <trkpt lat="44.13347" lon="1.71745">
        <ele>186.6</ele>
        <time>2018-02-19T11:23:54Z</time>
      </trkpt>
      <trkpt lat="44.13343" lon="1.71732">
        <ele>187.6</ele>
        <time>2018-02-19T11:23:59Z</time>
      </trkpt>
      <trkpt lat="44.13345" lon="1.71723">
        <ele>187.8</ele>
        <time>2018-02-19T11:24:01Z</time>
      </trkpt>
      <trkpt lat="44.13348" lon="1.7171">
        <ele>187.7</ele>
        <time>2018-02-19T11:24:03Z</time>
      </trkpt>
      <trkpt lat="44.13344" lon="1.717">
        <ele>187.2</ele>
        <time>2018-02-19T11:24:06Z</time>
      </trkpt>
      <trkpt lat="44.1334" lon="1.71695">
        <ele>188.3</ele>
        <time>2018-02-19T11:24:13Z</time>
      </trkpt>
      <trkpt lat="44.1333" lon="1.71696">
        <ele>188.4</ele>
        <time>2018-02-19T11:24:27Z</time>
      </trkpt>
      <trkpt lat="44.13322" lon="1.71696">
        <ele>188.3</ele>
        <time>2018-02-19T11:24:29Z</time>
      </trkpt>
      <trkpt lat="44.13314" lon="1.71697">
        <ele>188.1</ele>
        <time>2018-02-19T11:24:31Z</time>
      </trkpt>
      <trkpt lat="44.13304" lon="1.71696">
        <ele>187.8</ele>
        <time>2018-02-19T11:24:32Z</time>
      </trkpt>
      <trkpt lat="44.13292" lon="1.71696">
        <ele>187.4</ele>
        <time>2018-02-19T11:24:34Z</time>
      </trkpt>
      <trkpt lat="44.13284" lon="1.71698">
        <ele>186.7</ele>
        <time>2018-02-19T11:24:37Z</time>
      </trkpt>
      <trkpt lat="44.13276" lon="1.71702">
        <ele>186.1</ele>
        <time>2018-02-19T11:24:39Z</time>
      </trkpt>
      <trkpt lat="44.13266" lon="1.71704">
        <ele>185.9</ele>
        <time>2018-02-19T11:24:40Z</time>
      </trkpt>
      <trkpt lat="44.13257" lon="1.71706">
        <ele>185.6</ele>
        <time>2018-02-19T11:24:41Z</time>
      </trkpt>
      <trkpt lat="44.13245" lon="1.71709">
        <ele>185.3</ele>
        <time>2018-02-19T11:24:42Z</time>
      </trkpt>
      <trkpt lat="44.13237" lon="1.71712">
        <ele>185</ele>
        <time>2018-02-19T11:24:43Z</time>
      </trkpt>
      <trkpt lat="44.13224" lon="1.71713">
        <ele>184.4</ele>
        <time>2018-02-19T11:24:45Z</time>
      </trkpt>
      <trkpt lat="44.13259" lon="1.71708">
        <ele>183.8</ele>
        <time>2018-02-19T11:24:47Z</time>
      </trkpt>
      <trkpt lat="44.13255" lon="1.71699">
        <ele>181.3</ele>
        <time>2018-02-19T11:24:53Z</time>
      </trkpt>
      <trkpt lat="44.13248" lon="1.71692">
        <ele>179.5</ele>
        <time>2018-02-19T11:24:57Z</time>
      </trkpt>
      <trkpt lat="44.13307" lon="1.7168">
        <ele>184.1</ele>
        <time>2018-02-19T11:25:00Z</time>
      </trkpt>
      <trkpt lat="44.13298" lon="1.71672">
        <ele>184.3</ele>
        <time>2018-02-19T11:25:03Z</time>
      </trkpt>
      <trkpt lat="44.13291" lon="1.71666">
        <ele>184.4</ele>
        <time>2018-02-19T11:25:05Z</time>
      </trkpt>
      <trkpt lat="44.13287" lon="1.71657">
        <ele>184.6</ele>
        <time>2018-02-19T11:25:07Z</time>
      </trkpt>
      <trkpt lat="44.13287" lon="1.71647">
        <ele>184.7</ele>
        <time>2018-02-19T11:25:09Z</time>
      </trkpt>
      <trkpt lat="44.13288" lon="1.71636">
        <ele>184.7</ele>
        <time>2018-02-19T11:25:11Z</time>
      </trkpt>
      <trkpt lat="44.1328" lon="1.71627">
        <ele>185</ele>
        <time>2018-02-19T11:25:13Z</time>
      </trkpt>
      <trkpt lat="44.1328" lon="1.71613">
        <ele>185</ele>
        <time>2018-02-19T11:25:16Z</time>
      </trkpt>
      <trkpt lat="44.1328" lon="1.71603">
        <ele>185.1</ele>
        <time>2018-02-19T11:25:19Z</time>
      </trkpt>
      <trkpt lat="44.13273" lon="1.7159">
        <ele>185</ele>
        <time>2018-02-19T11:25:22Z</time>
      </trkpt>
      <trkpt lat="44.13267" lon="1.71582">
        <ele>184.9</ele>
        <time>2018-02-19T11:25:24Z</time>
      </trkpt>
      <trkpt lat="44.13259" lon="1.71575">
        <ele>185</ele>
        <time>2018-02-19T11:25:26Z</time>
      </trkpt>
      <trkpt lat="44.1325" lon="1.7157">
        <ele>185.4</ele>
        <time>2018-02-19T11:25:28Z</time>
      </trkpt>
      <trkpt lat="44.13243" lon="1.7156">
        <ele>185.7</ele>
        <time>2018-02-19T11:25:30Z</time>
      </trkpt>
      <trkpt lat="44.13239" lon="1.71544">
        <ele>185.6</ele>
        <time>2018-02-19T11:25:32Z</time>
      </trkpt>
      <trkpt lat="44.13238" lon="1.71526">
        <ele>185.3</ele>
        <time>2018-02-19T11:25:34Z</time>
      </trkpt>
      <trkpt lat="44.13238" lon="1.71508">
        <ele>184.9</ele>
        <time>2018-02-19T11:25:36Z</time>
      </trkpt>
      <trkpt lat="44.13235" lon="1.71492">
        <ele>184.7</ele>
        <time>2018-02-19T11:25:38Z</time>
      </trkpt>
      <trkpt lat="44.13228" lon="1.71478">
        <ele>184.3</ele>
        <time>2018-02-19T11:25:40Z</time>
      </trkpt>
      <trkpt lat="44.1322" lon="1.71467">
        <ele>184</ele>
        <time>2018-02-19T11:25:42Z</time>
      </trkpt>
      <trkpt lat="44.13212" lon="1.71452">
        <ele>183.6</ele>
        <time>2018-02-19T11:25:44Z</time>
      </trkpt>
      <trkpt lat="44.13208" lon="1.71442">
        <ele>183.5</ele>
        <time>2018-02-19T11:25:45Z</time>
      </trkpt>
      <trkpt lat="44.13204" lon="1.71432">
        <ele>183.2</ele>
        <time>2018-02-19T11:25:46Z</time>
      </trkpt>
      <trkpt lat="44.13202" lon="1.71419">
        <ele>182.9</ele>
        <time>2018-02-19T11:25:47Z</time>
      </trkpt>
      <trkpt lat="44.132" lon="1.71406">
        <ele>182.6</ele>
        <time>2018-02-19T11:25:48Z</time>
      </trkpt>
      <trkpt lat="44.13199" lon="1.71392">
        <ele>182.3</ele>
        <time>2018-02-19T11:25:49Z</time>
      </trkpt>
      <trkpt lat="44.13197" lon="1.71378">
        <ele>182.1</ele>
        <time>2018-02-19T11:25:50Z</time>
      </trkpt>
      <trkpt lat="44.13195" lon="1.71363">
        <ele>181.7</ele>
        <time>2018-02-19T11:25:51Z</time>
      </trkpt>
      <trkpt lat="44.13194" lon="1.71348">
        <ele>181.4</ele>
        <time>2018-02-19T11:25:52Z</time>
      </trkpt>
      <trkpt lat="44.13193" lon="1.71333">
        <ele>181.2</ele>
        <time>2018-02-19T11:25:53Z</time>
      </trkpt>
      <trkpt lat="44.13192" lon="1.71318">
        <ele>181</ele>
        <time>2018-02-19T11:25:54Z</time>
      </trkpt>
      <trkpt lat="44.13192" lon="1.71303">
        <ele>180.7</ele>
        <time>2018-02-19T11:25:55Z</time>
      </trkpt>
      <trkpt lat="44.1319" lon="1.71289">
        <ele>180.4</ele>
        <time>2018-02-19T11:25:56Z</time>
      </trkpt>
      <trkpt lat="44.1319" lon="1.71276">
        <ele>180.3</ele>
        <time>2018-02-19T11:25:57Z</time>
      </trkpt>
      <trkpt lat="44.1319" lon="1.71263">
        <ele>180</ele>
        <time>2018-02-19T11:25:58Z</time>
      </trkpt>
      <trkpt lat="44.13189" lon="1.71252">
        <ele>179.8</ele>
        <time>2018-02-19T11:25:59Z</time>
      </trkpt>
      <trkpt lat="44.13187" lon="1.71243">
        <ele>179.6</ele>
        <time>2018-02-19T11:26:00Z</time>
      </trkpt>
      <trkpt lat="44.13185" lon="1.71226">
        <ele>179.2</ele>
        <time>2018-02-19T11:26:02Z</time>
      </trkpt>
      <trkpt lat="44.13185" lon="1.71213">
        <ele>178.6</ele>
        <time>2018-02-19T11:26:04Z</time>
      </trkpt>
      <trkpt lat="44.13184" lon="1.71201">
        <ele>178.1</ele>
        <time>2018-02-19T11:26:06Z</time>
      </trkpt>
      <trkpt lat="44.13185" lon="1.71189">
        <ele>177.5</ele>
        <time>2018-02-19T11:26:08Z</time>
      </trkpt>
      <trkpt lat="44.13186" lon="1.71178">
        <ele>177.2</ele>
        <time>2018-02-19T11:26:10Z</time>
      </trkpt>
      <trkpt lat="44.13188" lon="1.71166">
        <ele>176.9</ele>
        <time>2018-02-19T11:26:12Z</time>
      </trkpt>
      <trkpt lat="44.1319" lon="1.71154">
        <ele>176.6</ele>
        <time>2018-02-19T11:26:14Z</time>
      </trkpt>
      <trkpt lat="44.1319" lon="1.71141">
        <ele>176.4</ele>
        <time>2018-02-19T11:26:16Z</time>
      </trkpt>
      <trkpt lat="44.13192" lon="1.7113">
        <ele>176</ele>
        <time>2018-02-19T11:26:18Z</time>
      </trkpt>
      <trkpt lat="44.13193" lon="1.71118">
        <ele>175.7</ele>
        <time>2018-02-19T11:26:20Z</time>
      </trkpt>
      <trkpt lat="44.13194" lon="1.711">
        <ele>175.4</ele>
        <time>2018-02-19T11:26:22Z</time>
      </trkpt>
      <trkpt lat="44.13195" lon="1.71082">
        <ele>175.1</ele>
        <time>2018-02-19T11:26:24Z</time>
      </trkpt>
      <trkpt lat="44.13196" lon="1.71071">
        <ele>174.8</ele>
        <time>2018-02-19T11:26:25Z</time>
      </trkpt>
      <trkpt lat="44.13197" lon="1.7106">
        <ele>174.6</ele>
        <time>2018-02-19T11:26:26Z</time>
      </trkpt>
      <trkpt lat="44.13197" lon="1.71049">
        <ele>174.4</ele>
        <time>2018-02-19T11:26:27Z</time>
      </trkpt>
      <trkpt lat="44.13197" lon="1.71037">
        <ele>174.2</ele>
        <time>2018-02-19T11:26:28Z</time>
      </trkpt>
      <trkpt lat="44.132" lon="1.71025">
        <ele>173.9</ele>
        <time>2018-02-19T11:26:29Z</time>
      </trkpt>
      <trkpt lat="44.13201" lon="1.71014">
        <ele>173.7</ele>
        <time>2018-02-19T11:26:30Z</time>
      </trkpt>
      <trkpt lat="44.13202" lon="1.71004">
        <ele>173.4</ele>
        <time>2018-02-19T11:26:31Z</time>
      </trkpt>
      <trkpt lat="44.13204" lon="1.70992">
        <ele>173</ele>
        <time>2018-02-19T11:26:32Z</time>
      </trkpt>
      <trkpt lat="44.13206" lon="1.70981">
        <ele>172.8</ele>
        <time>2018-02-19T11:26:33Z</time>
      </trkpt>
      <trkpt lat="44.13209" lon="1.70971">
        <ele>172.3</ele>
        <time>2018-02-19T11:26:34Z</time>
      </trkpt>
      <trkpt lat="44.13213" lon="1.70961">
        <ele>171.6</ele>
        <time>2018-02-19T11:26:35Z</time>
      </trkpt>
      <trkpt lat="44.13218" lon="1.70951">
        <ele>170.8</ele>
        <time>2018-02-19T11:26:36Z</time>
      </trkpt>
      <trkpt lat="44.13221" lon="1.70941">
        <ele>170.1</ele>
        <time>2018-02-19T11:26:37Z</time>
      </trkpt>
      <trkpt lat="44.13224" lon="1.70931">
        <ele>169.7</ele>
        <time>2018-02-19T11:26:38Z</time>
      </trkpt>
      <trkpt lat="44.13223" lon="1.70913">
        <ele>168.8</ele>
        <time>2018-02-19T11:26:40Z</time>
      </trkpt>
      <trkpt lat="44.13218" lon="1.70905">
        <ele>168.3</ele>
        <time>2018-02-19T11:26:41Z</time>
      </trkpt>
      <trkpt lat="44.13211" lon="1.70898">
        <ele>167</ele>
        <time>2018-02-19T11:26:42Z</time>
      </trkpt>
      <trkpt lat="44.13202" lon="1.70897">
        <ele>165.8</ele>
        <time>2018-02-19T11:26:43Z</time>
      </trkpt>
      <trkpt lat="44.13194" lon="1.70898">
        <ele>165</ele>
        <time>2018-02-19T11:26:44Z</time>
      </trkpt>
      <trkpt lat="44.13186" lon="1.70905">
        <ele>164.3</ele>
        <time>2018-02-19T11:26:45Z</time>
      </trkpt>
      <trkpt lat="44.13178" lon="1.70911">
        <ele>163.3</ele>
        <time>2018-02-19T11:26:46Z</time>
      </trkpt>
      <trkpt lat="44.13171" lon="1.70918">
        <ele>162.5</ele>
        <time>2018-02-19T11:26:47Z</time>
      </trkpt>
      <trkpt lat="44.13165" lon="1.70924">
        <ele>161.7</ele>
        <time>2018-02-19T11:26:48Z</time>
      </trkpt>
      <trkpt lat="44.13152" lon="1.70932">
        <ele>159.9</ele>
        <time>2018-02-19T11:26:50Z</time>
      </trkpt>
      <trkpt lat="44.13138" lon="1.70932">
        <ele>158.3</ele>
        <time>2018-02-19T11:26:52Z</time>
      </trkpt>
      <trkpt lat="44.13128" lon="1.70921">
        <ele>157.3</ele>
        <time>2018-02-19T11:26:54Z</time>
      </trkpt>
      <trkpt lat="44.13128" lon="1.70911">
        <ele>156.7</ele>
        <time>2018-02-19T11:26:55Z</time>
      </trkpt>
      <trkpt lat="44.13131" lon="1.70899">
        <ele>156.1</ele>
        <time>2018-02-19T11:26:56Z</time>
      </trkpt>
      <trkpt lat="44.13136" lon="1.7089">
        <ele>155.3</ele>
        <time>2018-02-19T11:26:57Z</time>
      </trkpt>
      <trkpt lat="44.13143" lon="1.70882">
        <ele>154.7</ele>
        <time>2018-02-19T11:26:58Z</time>
      </trkpt>
      <trkpt lat="44.13151" lon="1.70875">
        <ele>154</ele>
        <time>2018-02-19T11:26:59Z</time>
      </trkpt>
      <trkpt lat="44.13159" lon="1.70869">
        <ele>153.4</ele>
        <time>2018-02-19T11:27:00Z</time>
      </trkpt>
      <trkpt lat="44.13167" lon="1.70863">
        <ele>152.7</ele>
        <time>2018-02-19T11:27:01Z</time>
      </trkpt>
      <trkpt lat="44.13176" lon="1.70857">
        <ele>152.1</ele>
        <time>2018-02-19T11:27:02Z</time>
      </trkpt>
      <trkpt lat="44.13185" lon="1.70851">
        <ele>151.4</ele>
        <time>2018-02-19T11:27:03Z</time>
      </trkpt>
      <trkpt lat="44.13194" lon="1.70844">
        <ele>150.7</ele>
        <time>2018-02-19T11:27:04Z</time>
      </trkpt>
      <trkpt lat="44.13204" lon="1.70839">
        <ele>149.9</ele>
        <time>2018-02-19T11:27:05Z</time>
      </trkpt>
      <trkpt lat="44.13212" lon="1.70834">
        <ele>149</ele>
        <time>2018-02-19T11:27:06Z</time>
      </trkpt>
      <trkpt lat="44.13219" lon="1.70826">
        <ele>148.3</ele>
        <time>2018-02-19T11:27:07Z</time>
      </trkpt>
      <trkpt lat="44.13225" lon="1.70818">
        <ele>147.8</ele>
        <time>2018-02-19T11:27:08Z</time>
      </trkpt>
      <trkpt lat="44.13228" lon="1.70809">
        <ele>147.4</ele>
        <time>2018-02-19T11:27:09Z</time>
      </trkpt>
      <trkpt lat="44.13231" lon="1.708">
        <ele>146.9</ele>
        <time>2018-02-19T11:27:10Z</time>
      </trkpt>
      <trkpt lat="44.13225" lon="1.7079">
        <ele>146.5</ele>
        <time>2018-02-19T11:27:11Z</time>
      </trkpt>
      <trkpt lat="44.13214" lon="1.70781">
        <ele>146.1</ele>
        <time>2018-02-19T11:27:12Z</time>
      </trkpt>
      <trkpt lat="44.13204" lon="1.70777">
        <ele>145.5</ele>
        <time>2018-02-19T11:27:13Z</time>
      </trkpt>
      <trkpt lat="44.13196" lon="1.70777">
        <ele>145</ele>
        <time>2018-02-19T11:27:14Z</time>
      </trkpt>
      <trkpt lat="44.13187" lon="1.70779">
        <ele>144.4</ele>
        <time>2018-02-19T11:27:15Z</time>
      </trkpt>
      <trkpt lat="44.13177" lon="1.70782">
        <ele>143.7</ele>
        <time>2018-02-19T11:27:16Z</time>
      </trkpt>
      <trkpt lat="44.13166" lon="1.70786">
        <ele>143</ele>
        <time>2018-02-19T11:27:17Z</time>
      </trkpt>
      <trkpt lat="44.13157" lon="1.70791">
        <ele>142.4</ele>
        <time>2018-02-19T11:27:18Z</time>
      </trkpt>
      <trkpt lat="44.13147" lon="1.70797">
        <ele>141.7</ele>
        <time>2018-02-19T11:27:19Z</time>
      </trkpt>
      <trkpt lat="44.13138" lon="1.70804">
        <ele>141.1</ele>
        <time>2018-02-19T11:27:20Z</time>
      </trkpt>
      <trkpt lat="44.13128" lon="1.70813">
        <ele>140.4</ele>
        <time>2018-02-19T11:27:21Z</time>
      </trkpt>
      <trkpt lat="44.1312" lon="1.70823">
        <ele>139.8</ele>
        <time>2018-02-19T11:27:22Z</time>
      </trkpt>
      <trkpt lat="44.13112" lon="1.70833">
        <ele>139.1</ele>
        <time>2018-02-19T11:27:23Z</time>
      </trkpt>
      <trkpt lat="44.13105" lon="1.70844">
        <ele>138.5</ele>
        <time>2018-02-19T11:27:24Z</time>
      </trkpt>
      <trkpt lat="44.13098" lon="1.70856">
        <ele>137.9</ele>
        <time>2018-02-19T11:27:25Z</time>
      </trkpt>
      <trkpt lat="44.1309" lon="1.70868">
        <ele>137.3</ele>
        <time>2018-02-19T11:27:26Z</time>
      </trkpt>
      <trkpt lat="44.13084" lon="1.70879">
        <ele>136.6</ele>
        <time>2018-02-19T11:27:27Z</time>
      </trkpt>
      <trkpt lat="44.13078" lon="1.7089">
        <ele>135.9</ele>
        <time>2018-02-19T11:27:28Z</time>
      </trkpt>
      <trkpt lat="44.13072" lon="1.70902">
        <ele>135.2</ele>
        <time>2018-02-19T11:27:29Z</time>
      </trkpt>
      <trkpt lat="44.13067" lon="1.70915">
        <ele>134.5</ele>
        <time>2018-02-19T11:27:30Z</time>
      </trkpt>
      <trkpt lat="44.13062" lon="1.70927">
        <ele>133.7</ele>
        <time>2018-02-19T11:27:31Z</time>
      </trkpt>
      <trkpt lat="44.13058" lon="1.7094">
        <ele>133</ele>
        <time>2018-02-19T11:27:32Z</time>
      </trkpt>
      <trkpt lat="44.13054" lon="1.70952">
        <ele>132.3</ele>
        <time>2018-02-19T11:27:33Z</time>
      </trkpt>
      <trkpt lat="44.13051" lon="1.70963">
        <ele>131.6</ele>
        <time>2018-02-19T11:27:34Z</time>
      </trkpt>
      <trkpt lat="44.13047" lon="1.70974">
        <ele>130.9</ele>
        <time>2018-02-19T11:27:35Z</time>
      </trkpt>
      <trkpt lat="44.13044" lon="1.70986">
        <ele>130.2</ele>
        <time>2018-02-19T11:27:36Z</time>
      </trkpt>
      <trkpt lat="44.1304" lon="1.70997">
        <ele>129.5</ele>
        <time>2018-02-19T11:27:37Z</time>
      </trkpt>
      <trkpt lat="44.13037" lon="1.71008">
        <ele>128.7</ele>
        <time>2018-02-19T11:27:38Z</time>
      </trkpt>
      <trkpt lat="44.13033" lon="1.71019">
        <ele>127.9</ele>
        <time>2018-02-19T11:27:39Z</time>
      </trkpt>
      <trkpt lat="44.13031" lon="1.7103">
        <ele>127.3</ele>
        <time>2018-02-19T11:27:40Z</time>
      </trkpt>
      <trkpt lat="44.13029" lon="1.71039">
        <ele>126.6</ele>
        <time>2018-02-19T11:27:41Z</time>
      </trkpt>
      <trkpt lat="44.13025" lon="1.71048">
        <ele>125.9</ele>
        <time>2018-02-19T11:27:42Z</time>
      </trkpt>
      <trkpt lat="44.13019" lon="1.71065">
        <ele>124.3</ele>
        <time>2018-02-19T11:27:44Z</time>
      </trkpt>
      <trkpt lat="44.13015" lon="1.71075">
        <ele>123.5</ele>
        <time>2018-02-19T11:27:45Z</time>
      </trkpt>
      <trkpt lat="44.13008" lon="1.71092">
        <ele>122</ele>
        <time>2018-02-19T11:27:47Z</time>
      </trkpt>
      <trkpt lat="44.13001" lon="1.71107">
        <ele>120.4</ele>
        <time>2018-02-19T11:27:49Z</time>
      </trkpt>
      <trkpt lat="44.12994" lon="1.7112">
        <ele>118.8</ele>
        <time>2018-02-19T11:27:51Z</time>
      </trkpt>
      <trkpt lat="44.12987" lon="1.71133">
        <ele>117.2</ele>
        <time>2018-02-19T11:27:53Z</time>
      </trkpt>
      <trkpt lat="44.12982" lon="1.71144">
        <ele>115.6</ele>
        <time>2018-02-19T11:27:55Z</time>
      </trkpt>
      <trkpt lat="44.12977" lon="1.71154">
        <ele>114.3</ele>
        <time>2018-02-19T11:27:57Z</time>
      </trkpt>
      <trkpt lat="44.12972" lon="1.71165">
        <ele>112.9</ele>
        <time>2018-02-19T11:27:59Z</time>
      </trkpt>
      <trkpt lat="44.12966" lon="1.71175">
        <ele>111.5</ele>
        <time>2018-02-19T11:28:01Z</time>
      </trkpt>
      <trkpt lat="44.1296" lon="1.71182">
        <ele>109.9</ele>
        <time>2018-02-19T11:28:03Z</time>
      </trkpt>
      <trkpt lat="44.12955" lon="1.71191">
        <ele>108.3</ele>
        <time>2018-02-19T11:28:05Z</time>
      </trkpt>
      <trkpt lat="44.12947" lon="1.71201">
        <ele>106.9</ele>
        <time>2018-02-19T11:28:07Z</time>
      </trkpt>
      <trkpt lat="44.1294" lon="1.71211">
        <ele>105.7</ele>
        <time>2018-02-19T11:28:09Z</time>
      </trkpt>
      <trkpt lat="44.12934" lon="1.71221">
        <ele>104.5</ele>
        <time>2018-02-19T11:28:11Z</time>
      </trkpt>
      <trkpt lat="44.12925" lon="1.7123">
        <ele>103.2</ele>
        <time>2018-02-19T11:28:13Z</time>
      </trkpt>
      <trkpt lat="44.12917" lon="1.71242">
        <ele>101.9</ele>
        <time>2018-02-19T11:28:15Z</time>
      </trkpt>
      <trkpt lat="44.12911" lon="1.71254">
        <ele>100.4</ele>
        <time>2018-02-19T11:28:17Z</time>
      </trkpt>
      <trkpt lat="44.12905" lon="1.71265">
        <ele>99.2</ele>
        <time>2018-02-19T11:28:19Z</time>
      </trkpt>
      <trkpt lat="44.12899" lon="1.71275">
        <ele>97.8</ele>
        <time>2018-02-19T11:28:21Z</time>
      </trkpt>
      <trkpt lat="44.12893" lon="1.71285">
        <ele>96.6</ele>
        <time>2018-02-19T11:28:23Z</time>
      </trkpt>
      <trkpt lat="44.12888" lon="1.71294">
        <ele>95.4</ele>
        <time>2018-02-19T11:28:25Z</time>
      </trkpt>
      <trkpt lat="44.12882" lon="1.71304">
        <ele>94.2</ele>
        <time>2018-02-19T11:28:27Z</time>
      </trkpt>
      <trkpt lat="44.12878" lon="1.71317">
        <ele>93.1</ele>
        <time>2018-02-19T11:28:29Z</time>
      </trkpt>
      <trkpt lat="44.12875" lon="1.71327">
        <ele>91.7</ele>
        <time>2018-02-19T11:28:31Z</time>
      </trkpt>
      <trkpt lat="44.12872" lon="1.7134">
        <ele>90.1</ele>
        <time>2018-02-19T11:28:34Z</time>
      </trkpt>
      <trkpt lat="44.12868" lon="1.71351">
        <ele>88.9</ele>
        <time>2018-02-19T11:28:38Z</time>
      </trkpt>
      <trkpt lat="44.12863" lon="1.71364">
        <ele>87.6</ele>
        <time>2018-02-19T11:28:40Z</time>
      </trkpt>
      <trkpt lat="44.12859" lon="1.71372">
        <ele>86.8</ele>
        <time>2018-02-19T11:28:42Z</time>
      </trkpt>
      <trkpt lat="44.12854" lon="1.71381">
        <ele>86.1</ele>
        <time>2018-02-19T11:28:44Z</time>
      </trkpt>
      <trkpt lat="44.12848" lon="1.71389">
        <ele>85.6</ele>
        <time>2018-02-19T11:28:46Z</time>
      </trkpt>
      <trkpt lat="44.12845" lon="1.71398">
        <ele>84.7</ele>
        <time>2018-02-19T11:28:48Z</time>
      </trkpt>
      <trkpt lat="44.12839" lon="1.71411">
        <ele>83.8</ele>
        <time>2018-02-19T11:28:51Z</time>
      </trkpt>
      <trkpt lat="44.12836" lon="1.71421">
        <ele>83.6</ele>
        <time>2018-02-19T11:28:53Z</time>
      </trkpt>
      <trkpt lat="44.12832" lon="1.71431">
        <ele>83</ele>
        <time>2018-02-19T11:28:55Z</time>
      </trkpt>
      <trkpt lat="44.12829" lon="1.7144">
        <ele>82.6</ele>
        <time>2018-02-19T11:28:57Z</time>
      </trkpt>
      <trkpt lat="44.12824" lon="1.71449">
        <ele>82</ele>
        <time>2018-02-19T11:28:59Z</time>
      </trkpt>
      <trkpt lat="44.1282" lon="1.71459">
        <ele>81.3</ele>
        <time>2018-02-19T11:29:01Z</time>
      </trkpt>
      <trkpt lat="44.12815" lon="1.71468">
        <ele>80.4</ele>
        <time>2018-02-19T11:29:03Z</time>
      </trkpt>
      <trkpt lat="44.12808" lon="1.7148">
        <ele>81.2</ele>
        <time>2018-02-19T11:29:06Z</time>
      </trkpt>
      <trkpt lat="44.12803" lon="1.71488">
        <ele>81</ele>
        <time>2018-02-19T11:29:08Z</time>
      </trkpt>
      <trkpt lat="44.12798" lon="1.71499">
        <ele>80.7</ele>
        <time>2018-02-19T11:29:11Z</time>
      </trkpt>
      <trkpt lat="44.12791" lon="1.7151">
        <ele>80.3</ele>
        <time>2018-02-19T11:29:14Z</time>
      </trkpt>
      <trkpt lat="44.12787" lon="1.71522">
        <ele>79.9</ele>
        <time>2018-02-19T11:29:17Z</time>
      </trkpt>
      <trkpt lat="44.12781" lon="1.71531">
        <ele>79.6</ele>
        <time>2018-02-19T11:29:19Z</time>
      </trkpt>
      <trkpt lat="44.12775" lon="1.71541">
        <ele>79.1</ele>
        <time>2018-02-19T11:29:22Z</time>
      </trkpt>
      <trkpt lat="44.1277" lon="1.71548">
        <ele>78.8</ele>
        <time>2018-02-19T11:29:24Z</time>
      </trkpt>
      <trkpt lat="44.12763" lon="1.71559">
        <ele>78</ele>
        <time>2018-02-19T11:29:27Z</time>
      </trkpt>
      <trkpt lat="44.12758" lon="1.71571">
        <ele>77.1</ele>
        <time>2018-02-19T11:29:30Z</time>
      </trkpt>
      <trkpt lat="44.12752" lon="1.71581">
        <ele>76.9</ele>
        <time>2018-02-19T11:29:32Z</time>
      </trkpt>
      <trkpt lat="44.12746" lon="1.7159">
        <ele>76.1</ele>
        <time>2018-02-19T11:29:34Z</time>
      </trkpt>
      <trkpt lat="44.12739" lon="1.71597">
        <ele>75.4</ele>
        <time>2018-02-19T11:29:36Z</time>
      </trkpt>
      <trkpt lat="44.12734" lon="1.71606">
        <ele>75.1</ele>
        <time>2018-02-19T11:29:38Z</time>
      </trkpt>
      <trkpt lat="44.12728" lon="1.71613">
        <ele>74.5</ele>
        <time>2018-02-19T11:29:40Z</time>
      </trkpt>
      <trkpt lat="44.12722" lon="1.71623">
        <ele>73.8</ele>
        <time>2018-02-19T11:29:42Z</time>
      </trkpt>
      <trkpt lat="44.12716" lon="1.71632">
        <ele>73.2</ele>
        <time>2018-02-19T11:29:44Z</time>
      </trkpt>
      <trkpt lat="44.1271" lon="1.71643">
        <ele>72.9</ele>
        <time>2018-02-19T11:29:46Z</time>
      </trkpt>
      <trkpt lat="44.12703" lon="1.71651">
        <ele>72.3</ele>
        <time>2018-02-19T11:29:48Z</time>
      </trkpt>
      <trkpt lat="44.12696" lon="1.71659">
        <ele>71.6</ele>
        <time>2018-02-19T11:29:50Z</time>
      </trkpt>
      <trkpt lat="44.1269" lon="1.71667">
        <ele>71</ele>
        <time>2018-02-19T11:29:52Z</time>
      </trkpt>
      <trkpt lat="44.12684" lon="1.71674">
        <ele>70.3</ele>
        <time>2018-02-19T11:29:54Z</time>
      </trkpt>
      <trkpt lat="44.12676" lon="1.71685">
        <ele>69.7</ele>
        <time>2018-02-19T11:29:57Z</time>
      </trkpt>
      <trkpt lat="44.1267" lon="1.71693">
        <ele>69.7</ele>
        <time>2018-02-19T11:29:59Z</time>
      </trkpt>
      <trkpt lat="44.12664" lon="1.717">
        <ele>68.7</ele>
        <time>2018-02-19T11:30:02Z</time>
      </trkpt>
      <trkpt lat="44.12657" lon="1.7171">
        <ele>67.5</ele>
        <time>2018-02-19T11:30:04Z</time>
      </trkpt>
      <trkpt lat="44.12653" lon="1.71719">
        <ele>67</ele>
        <time>2018-02-19T11:30:06Z</time>
      </trkpt>
      <trkpt lat="44.12648" lon="1.71726">
        <ele>66.6</ele>
        <time>2018-02-19T11:30:08Z</time>
      </trkpt>
      <trkpt lat="44.12643" lon="1.71736">
        <ele>66.2</ele>
        <time>2018-02-19T11:30:11Z</time>
      </trkpt>
      <trkpt lat="44.12636" lon="1.71745">
        <ele>66.1</ele>
        <time>2018-02-19T11:30:14Z</time>
      </trkpt>
      <trkpt lat="44.12629" lon="1.7175">
        <ele>66</ele>
        <time>2018-02-19T11:30:16Z</time>
      </trkpt>
      <trkpt lat="44.12623" lon="1.71757">
        <ele>65.6</ele>
        <time>2018-02-19T11:30:19Z</time>
      </trkpt>
      <trkpt lat="44.12617" lon="1.71766">
        <ele>64.5</ele>
        <time>2018-02-19T11:30:23Z</time>
      </trkpt>
      <trkpt lat="44.12611" lon="1.71773">
        <ele>63.4</ele>
        <time>2018-02-19T11:30:27Z</time>
      </trkpt>
      <trkpt lat="44.12605" lon="1.71785">
        <ele>63.2</ele>
        <time>2018-02-19T11:30:31Z</time>
      </trkpt>
      <trkpt lat="44.12597" lon="1.71797">
        <ele>63.6</ele>
        <time>2018-02-19T11:30:34Z</time>
      </trkpt>
      <trkpt lat="44.12592" lon="1.71804">
        <ele>64.2</ele>
        <time>2018-02-19T11:30:37Z</time>
      </trkpt>
      <trkpt lat="44.12587" lon="1.71812">
        <ele>64.6</ele>
        <time>2018-02-19T11:30:40Z</time>
      </trkpt>
      <trkpt lat="44.12581" lon="1.71819">
        <ele>65</ele>
        <time>2018-02-19T11:30:43Z</time>
      </trkpt>
      <trkpt lat="44.12575" lon="1.71826">
        <ele>65.6</ele>
        <time>2018-02-19T11:30:46Z</time>
      </trkpt>
      <trkpt lat="44.12568" lon="1.71834">
        <ele>67.5</ele>
        <time>2018-02-19T11:30:50Z</time>
      </trkpt>
      <trkpt lat="44.12561" lon="1.7184">
        <ele>67.6</ele>
        <time>2018-02-19T11:30:53Z</time>
      </trkpt>
      <trkpt lat="44.12554" lon="1.71848">
        <ele>66.5</ele>
        <time>2018-02-19T11:30:58Z</time>
      </trkpt>
      <trkpt lat="44.12548" lon="1.71856">
        <ele>66</ele>
        <time>2018-02-19T11:31:01Z</time>
      </trkpt>
      <trkpt lat="44.12542" lon="1.71863">
        <ele>65.3</ele>
        <time>2018-02-19T11:31:04Z</time>
      </trkpt>
      <trkpt lat="44.12537" lon="1.71871">
        <ele>64.7</ele>
        <time>2018-02-19T11:31:06Z</time>
      </trkpt>
      <trkpt lat="44.12529" lon="1.71878">
        <ele>64.1</ele>
        <time>2018-02-19T11:31:08Z</time>
      </trkpt>
      <trkpt lat="44.12521" lon="1.71889">
        <ele>64.1</ele>
        <time>2018-02-19T11:31:10Z</time>
      </trkpt>
      <trkpt lat="44.12513" lon="1.71897">
        <ele>64</ele>
        <time>2018-02-19T11:31:12Z</time>
      </trkpt>
      <trkpt lat="44.12506" lon="1.71905">
        <ele>63.8</ele>
        <time>2018-02-19T11:31:14Z</time>
      </trkpt>
      <trkpt lat="44.12499" lon="1.71917">
        <ele>63.4</ele>
        <time>2018-02-19T11:31:17Z</time>
      </trkpt>
      <trkpt lat="44.12492" lon="1.71926">
        <ele>63.3</ele>
        <time>2018-02-19T11:31:19Z</time>
      </trkpt>
      <trkpt lat="44.12484" lon="1.71937">
        <ele>62.9</ele>
        <time>2018-02-19T11:31:22Z</time>
      </trkpt>
      <trkpt lat="44.12477" lon="1.71943">
        <ele>62.6</ele>
        <time>2018-02-19T11:31:24Z</time>
      </trkpt>
      <trkpt lat="44.12469" lon="1.71953">
        <ele>62.3</ele>
        <time>2018-02-19T11:31:27Z</time>
      </trkpt>
      <trkpt lat="44.12464" lon="1.7196">
        <ele>62</ele>
        <time>2018-02-19T11:31:29Z</time>
      </trkpt>
      <trkpt lat="44.12458" lon="1.71965">
        <ele>62.1</ele>
        <time>2018-02-19T11:31:31Z</time>
      </trkpt>
      <trkpt lat="44.12447" lon="1.7197">
        <ele>61.8</ele>
        <time>2018-02-19T11:31:34Z</time>
      </trkpt>
      <trkpt lat="44.1244" lon="1.71977">
        <ele>61.6</ele>
        <time>2018-02-19T11:31:37Z</time>
      </trkpt>
      <trkpt lat="44.12433" lon="1.71983">
        <ele>61.4</ele>
        <time>2018-02-19T11:31:40Z</time>
      </trkpt>
      <trkpt lat="44.12427" lon="1.71989">
        <ele>61.7</ele>
        <time>2018-02-19T11:31:42Z</time>
      </trkpt>
      <trkpt lat="44.12419" lon="1.71995">
        <ele>61.2</ele>
        <time>2018-02-19T11:31:45Z</time>
      </trkpt>
      <trkpt lat="44.12411" lon="1.72">
        <ele>61.5</ele>
        <time>2018-02-19T11:31:47Z</time>
      </trkpt>
      <trkpt lat="44.12402" lon="1.72008">
        <ele>61.5</ele>
        <time>2018-02-19T11:31:50Z</time>
      </trkpt>
      <trkpt lat="44.12393" lon="1.72011">
        <ele>60.7</ele>
        <time>2018-02-19T11:31:53Z</time>
      </trkpt>
      <trkpt lat="44.12386" lon="1.72015">
        <ele>60.4</ele>
        <time>2018-02-19T11:31:55Z</time>
      </trkpt>
      <trkpt lat="44.12378" lon="1.72021">
        <ele>60.1</ele>
        <time>2018-02-19T11:31:57Z</time>
      </trkpt>
      <trkpt lat="44.12372" lon="1.72026">
        <ele>59.7</ele>
        <time>2018-02-19T11:31:59Z</time>
      </trkpt>
      <trkpt lat="44.12365" lon="1.72032">
        <ele>59.4</ele>
        <time>2018-02-19T11:32:01Z</time>
      </trkpt>
      <trkpt lat="44.12357" lon="1.7204">
        <ele>59.9</ele>
        <time>2018-02-19T11:32:03Z</time>
      </trkpt>
      <trkpt lat="44.1235" lon="1.72046">
        <ele>60.2</ele>
        <time>2018-02-19T11:32:05Z</time>
      </trkpt>
      <trkpt lat="44.12343" lon="1.7205">
        <ele>59.7</ele>
        <time>2018-02-19T11:32:07Z</time>
      </trkpt>
      <trkpt lat="44.12336" lon="1.72055">
        <ele>59.5</ele>
        <time>2018-02-19T11:32:09Z</time>
      </trkpt>
      <trkpt lat="44.12328" lon="1.7206">
        <ele>58.9</ele>
        <time>2018-02-19T11:32:11Z</time>
      </trkpt>
      <trkpt lat="44.12321" lon="1.72066">
        <ele>59.1</ele>
        <time>2018-02-19T11:32:13Z</time>
      </trkpt>
      <trkpt lat="44.12313" lon="1.72071">
        <ele>59.7</ele>
        <time>2018-02-19T11:32:15Z</time>
      </trkpt>
      <trkpt lat="44.12306" lon="1.72075">
        <ele>59.4</ele>
        <time>2018-02-19T11:32:17Z</time>
      </trkpt>
      <trkpt lat="44.12299" lon="1.72078">
        <ele>58.5</ele>
        <time>2018-02-19T11:32:19Z</time>
      </trkpt>
      <trkpt lat="44.12292" lon="1.72088">
        <ele>57.5</ele>
        <time>2018-02-19T11:32:22Z</time>
      </trkpt>
      <trkpt lat="44.12285" lon="1.72092">
        <ele>57.4</ele>
        <time>2018-02-19T11:32:24Z</time>
      </trkpt>
      <trkpt lat="44.12276" lon="1.721">
        <ele>56.8</ele>
        <time>2018-02-19T11:32:27Z</time>
      </trkpt>
      <trkpt lat="44.12269" lon="1.72105">
        <ele>56.3</ele>
        <time>2018-02-19T11:32:29Z</time>
      </trkpt>
      <trkpt lat="44.1226" lon="1.7211">
        <ele>55.5</ele>
        <time>2018-02-19T11:32:32Z</time>
      </trkpt>
      <trkpt lat="44.12253" lon="1.72115">
        <ele>54.8</ele>
        <time>2018-02-19T11:32:34Z</time>
      </trkpt>
      <trkpt lat="44.12245" lon="1.72121">
        <ele>54.8</ele>
        <time>2018-02-19T11:32:36Z</time>
      </trkpt>
      <trkpt lat="44.12238" lon="1.72126">
        <ele>54.6</ele>
        <time>2018-02-19T11:32:38Z</time>
      </trkpt>
      <trkpt lat="44.12231" lon="1.72131">
        <ele>54.6</ele>
        <time>2018-02-19T11:32:40Z</time>
      </trkpt>
      <trkpt lat="44.12224" lon="1.72135">
        <ele>54.4</ele>
        <time>2018-02-19T11:32:42Z</time>
      </trkpt>
      <trkpt lat="44.12216" lon="1.7214">
        <ele>53.9</ele>
        <time>2018-02-19T11:32:45Z</time>
      </trkpt>
      <trkpt lat="44.12209" lon="1.72141">
        <ele>52.8</ele>
        <time>2018-02-19T11:32:48Z</time>
      </trkpt>
      <trkpt lat="44.122" lon="1.72142">
        <ele>51.6</ele>
        <time>2018-02-19T11:32:51Z</time>
      </trkpt>
      <trkpt lat="44.12191" lon="1.72143">
        <ele>50.3</ele>
        <time>2018-02-19T11:32:55Z</time>
      </trkpt>
      <trkpt lat="44.12181" lon="1.72146">
        <ele>49.6</ele>
        <time>2018-02-19T11:32:59Z</time>
      </trkpt>
      <trkpt lat="44.12173" lon="1.72151">
        <ele>49</ele>
        <time>2018-02-19T11:33:02Z</time>
      </trkpt>
      <trkpt lat="44.12166" lon="1.72158">
        <ele>48.7</ele>
        <time>2018-02-19T11:33:04Z</time>
      </trkpt>
      <trkpt lat="44.12157" lon="1.72162">
        <ele>48.1</ele>
        <time>2018-02-19T11:33:08Z</time>
      </trkpt>
      <trkpt lat="44.1215" lon="1.72169">
        <ele>48.8</ele>
        <time>2018-02-19T11:33:10Z</time>
      </trkpt>
      <trkpt lat="44.12143" lon="1.72174">
        <ele>50</ele>
        <time>2018-02-19T11:33:12Z</time>
      </trkpt>
      <trkpt lat="44.12136" lon="1.72176">
        <ele>51.2</ele>
        <time>2018-02-19T11:33:14Z</time>
      </trkpt>
      <trkpt lat="44.12125" lon="1.72177">
        <ele>53.1</ele>
        <time>2018-02-19T11:33:17Z</time>
      </trkpt>
      <trkpt lat="44.12118" lon="1.72179">
        <ele>54.1</ele>
        <time>2018-02-19T11:33:19Z</time>
      </trkpt>
      <trkpt lat="44.1211" lon="1.72181">
        <ele>54.7</ele>
        <time>2018-02-19T11:33:21Z</time>
      </trkpt>
      <trkpt lat="44.12103" lon="1.72185">
        <ele>55.2</ele>
        <time>2018-02-19T11:33:23Z</time>
      </trkpt>
      <trkpt lat="44.12094" lon="1.72189">
        <ele>55.6</ele>
        <time>2018-02-19T11:33:26Z</time>
      </trkpt>
      <trkpt lat="44.12084" lon="1.72189">
        <ele>55.1</ele>
        <time>2018-02-19T11:33:29Z</time>
      </trkpt>
      <trkpt lat="44.12075" lon="1.72192">
        <ele>55.6</ele>
        <time>2018-02-19T11:33:32Z</time>
      </trkpt>
      <trkpt lat="44.12066" lon="1.72195">
        <ele>56.7</ele>
        <time>2018-02-19T11:33:35Z</time>
      </trkpt>
      <trkpt lat="44.12055" lon="1.72197">
        <ele>57.7</ele>
        <time>2018-02-19T11:33:38Z</time>
      </trkpt>
      <trkpt lat="44.12049" lon="1.72203">
        <ele>57.9</ele>
        <time>2018-02-19T11:33:42Z</time>
      </trkpt>
      <trkpt lat="44.12043" lon="1.7221">
        <ele>60</ele>
        <time>2018-02-19T11:33:45Z</time>
      </trkpt>
      <trkpt lat="44.12035" lon="1.72209">
        <ele>61.2</ele>
        <time>2018-02-19T11:33:49Z</time>
      </trkpt>
      <trkpt lat="44.12027" lon="1.7221">
        <ele>62.3</ele>
        <time>2018-02-19T11:33:52Z</time>
      </trkpt>
      <trkpt lat="44.12019" lon="1.72211">
        <ele>63.3</ele>
        <time>2018-02-19T11:33:55Z</time>
      </trkpt>
      <trkpt lat="44.12009" lon="1.7221">
        <ele>64.5</ele>
        <time>2018-02-19T11:33:58Z</time>
      </trkpt>
      <trkpt lat="44.11999" lon="1.72211">
        <ele>65.9</ele>
        <time>2018-02-19T11:34:01Z</time>
      </trkpt>
      <trkpt lat="44.1199" lon="1.72213">
        <ele>67.2</ele>
        <time>2018-02-19T11:34:04Z</time>
      </trkpt>
      <trkpt lat="44.11981" lon="1.72215">
        <ele>68.3</ele>
        <time>2018-02-19T11:34:07Z</time>
      </trkpt>
      <trkpt lat="44.11973" lon="1.72215">
        <ele>68.3</ele>
        <time>2018-02-19T11:34:10Z</time>
      </trkpt>
      <trkpt lat="44.11963" lon="1.72218">
        <ele>69.1</ele>
        <time>2018-02-19T11:34:14Z</time>
      </trkpt>
      <trkpt lat="44.11955" lon="1.72221">
        <ele>69.4</ele>
        <time>2018-02-19T11:34:18Z</time>
      </trkpt>
      <trkpt lat="44.11946" lon="1.72224">
        <ele>70</ele>
        <time>2018-02-19T11:34:22Z</time>
      </trkpt>
      <trkpt lat="44.11938" lon="1.72226">
        <ele>70.6</ele>
        <time>2018-02-19T11:34:25Z</time>
      </trkpt>
      <trkpt lat="44.11931" lon="1.7223">
        <ele>70.9</ele>
        <time>2018-02-19T11:34:28Z</time>
      </trkpt>
      <trkpt lat="44.11922" lon="1.72233">
        <ele>71.3</ele>
        <time>2018-02-19T11:34:31Z</time>
      </trkpt>
      <trkpt lat="44.11912" lon="1.72235">
        <ele>71.6</ele>
        <time>2018-02-19T11:34:34Z</time>
      </trkpt>
      <trkpt lat="44.11901" lon="1.72239">
        <ele>71.9</ele>
        <time>2018-02-19T11:34:37Z</time>
      </trkpt>
      <trkpt lat="44.11893" lon="1.72242">
        <ele>71.5</ele>
        <time>2018-02-19T11:34:39Z</time>
      </trkpt>
      <trkpt lat="44.11884" lon="1.72247">
        <ele>71.3</ele>
        <time>2018-02-19T11:34:42Z</time>
      </trkpt>
      <trkpt lat="44.11875" lon="1.7225">
        <ele>71.2</ele>
        <time>2018-02-19T11:34:45Z</time>
      </trkpt>
      <trkpt lat="44.11866" lon="1.72255">
        <ele>70.8</ele>
        <time>2018-02-19T11:34:48Z</time>
      </trkpt>
      <trkpt lat="44.11858" lon="1.72257">
        <ele>70.8</ele>
        <time>2018-02-19T11:34:50Z</time>
      </trkpt>
      <trkpt lat="44.11849" lon="1.7226">
        <ele>71</ele>
        <time>2018-02-19T11:34:53Z</time>
      </trkpt>
      <trkpt lat="44.11841" lon="1.72261">
        <ele>71.8</ele>
        <time>2018-02-19T11:34:56Z</time>
      </trkpt>
      <trkpt lat="44.11832" lon="1.72264">
        <ele>72.5</ele>
        <time>2018-02-19T11:34:59Z</time>
      </trkpt>
      <trkpt lat="44.11822" lon="1.72265">
        <ele>73.1</ele>
        <time>2018-02-19T11:35:02Z</time>
      </trkpt>
      <trkpt lat="44.11815" lon="1.72266">
        <ele>73.1</ele>
        <time>2018-02-19T11:35:04Z</time>
      </trkpt>
      <trkpt lat="44.11804" lon="1.7227">
        <ele>73.9</ele>
        <time>2018-02-19T11:35:07Z</time>
      </trkpt>
      <trkpt lat="44.11797" lon="1.72271">
        <ele>74</ele>
        <time>2018-02-19T11:35:09Z</time>
      </trkpt>
      <trkpt lat="44.1179" lon="1.72275">
        <ele>74</ele>
        <time>2018-02-19T11:35:11Z</time>
      </trkpt>
      <trkpt lat="44.11782" lon="1.72281">
        <ele>74</ele>
        <time>2018-02-19T11:35:14Z</time>
      </trkpt>
      <trkpt lat="44.11771" lon="1.72286">
        <ele>74.6</ele>
        <time>2018-02-19T11:35:17Z</time>
      </trkpt>
      <trkpt lat="44.11763" lon="1.72291">
        <ele>74.9</ele>
        <time>2018-02-19T11:35:20Z</time>
      </trkpt>
      <trkpt lat="44.11754" lon="1.72294">
        <ele>75.2</ele>
        <time>2018-02-19T11:35:23Z</time>
      </trkpt>
      <trkpt lat="44.11746" lon="1.72301">
        <ele>75.4</ele>
        <time>2018-02-19T11:35:26Z</time>
      </trkpt>
      <trkpt lat="44.11737" lon="1.72308">
        <ele>76.3</ele>
        <time>2018-02-19T11:35:29Z</time>
      </trkpt>
      <trkpt lat="44.1173" lon="1.72317">
        <ele>77.3</ele>
        <time>2018-02-19T11:35:32Z</time>
      </trkpt>
      <trkpt lat="44.11725" lon="1.72327">
        <ele>78.6</ele>
        <time>2018-02-19T11:35:35Z</time>
      </trkpt>
      <trkpt lat="44.1172" lon="1.72336">
        <ele>79.2</ele>
        <time>2018-02-19T11:35:38Z</time>
      </trkpt>
      <trkpt lat="44.11716" lon="1.7235">
        <ele>79.7</ele>
        <time>2018-02-19T11:35:42Z</time>
      </trkpt>
      <trkpt lat="44.11716" lon="1.7236">
        <ele>79.9</ele>
        <time>2018-02-19T11:35:44Z</time>
      </trkpt>
      <trkpt lat="44.11717" lon="1.72373">
        <ele>80.2</ele>
        <time>2018-02-19T11:35:47Z</time>
      </trkpt>
      <trkpt lat="44.11713" lon="1.72384">
        <ele>81.1</ele>
        <time>2018-02-19T11:35:51Z</time>
      </trkpt>
      <trkpt lat="44.11712" lon="1.72396">
        <ele>82.1</ele>
        <time>2018-02-19T11:35:54Z</time>
      </trkpt>
      <trkpt lat="44.11712" lon="1.72407">
        <ele>82.9</ele>
        <time>2018-02-19T11:35:57Z</time>
      </trkpt>
      <trkpt lat="44.11708" lon="1.72416">
        <ele>83.8</ele>
        <time>2018-02-19T11:36:00Z</time>
      </trkpt>
      <trkpt lat="44.11703" lon="1.72425">
        <ele>84.5</ele>
        <time>2018-02-19T11:36:03Z</time>
      </trkpt>
      <trkpt lat="44.11695" lon="1.72435">
        <ele>85</ele>
        <time>2018-02-19T11:36:06Z</time>
      </trkpt>
      <trkpt lat="44.11686" lon="1.72444">
        <ele>85.4</ele>
        <time>2018-02-19T11:36:09Z</time>
      </trkpt>
      <trkpt lat="44.11677" lon="1.72455">
        <ele>85.4</ele>
        <time>2018-02-19T11:36:12Z</time>
      </trkpt>
      <trkpt lat="44.11672" lon="1.72461">
        <ele>85.3</ele>
        <time>2018-02-19T11:36:14Z</time>
      </trkpt>
      <trkpt lat="44.11666" lon="1.72471">
        <ele>85.9</ele>
        <time>2018-02-19T11:36:16Z</time>
      </trkpt>
      <trkpt lat="44.1166" lon="1.72479">
        <ele>85.9</ele>
        <time>2018-02-19T11:36:18Z</time>
      </trkpt>
      <trkpt lat="44.11652" lon="1.72489">
        <ele>86.4</ele>
        <time>2018-02-19T11:36:20Z</time>
      </trkpt>
      <trkpt lat="44.11647" lon="1.72499">
        <ele>86.7</ele>
        <time>2018-02-19T11:36:22Z</time>
      </trkpt>
      <trkpt lat="44.11639" lon="1.72507">
        <ele>87.2</ele>
        <time>2018-02-19T11:36:24Z</time>
      </trkpt>
      <trkpt lat="44.11632" lon="1.72515">
        <ele>87.4</ele>
        <time>2018-02-19T11:36:26Z</time>
      </trkpt>
      <trkpt lat="44.11626" lon="1.72526">
        <ele>87.8</ele>
        <time>2018-02-19T11:36:28Z</time>
      </trkpt>
      <trkpt lat="44.11618" lon="1.72536">
        <ele>88.3</ele>
        <time>2018-02-19T11:36:30Z</time>
      </trkpt>
      <trkpt lat="44.11611" lon="1.72546">
        <ele>88.6</ele>
        <time>2018-02-19T11:36:32Z</time>
      </trkpt>
      <trkpt lat="44.11604" lon="1.72556">
        <ele>89.2</ele>
        <time>2018-02-19T11:36:34Z</time>
      </trkpt>
      <trkpt lat="44.11596" lon="1.72566">
        <ele>89.7</ele>
        <time>2018-02-19T11:36:36Z</time>
      </trkpt>
      <trkpt lat="44.11588" lon="1.72575">
        <ele>90.2</ele>
        <time>2018-02-19T11:36:38Z</time>
      </trkpt>
      <trkpt lat="44.11581" lon="1.72585">
        <ele>90.9</ele>
        <time>2018-02-19T11:36:40Z</time>
      </trkpt>
      <trkpt lat="44.11573" lon="1.72595">
        <ele>91.5</ele>
        <time>2018-02-19T11:36:42Z</time>
      </trkpt>
      <trkpt lat="44.11566" lon="1.72604">
        <ele>92.1</ele>
        <time>2018-02-19T11:36:44Z</time>
      </trkpt>
      <trkpt lat="44.11558" lon="1.72613">
        <ele>92.6</ele>
        <time>2018-02-19T11:36:46Z</time>
      </trkpt>
      <trkpt lat="44.11549" lon="1.72623">
        <ele>93.3</ele>
        <time>2018-02-19T11:36:48Z</time>
      </trkpt>
      <trkpt lat="44.11542" lon="1.72631">
        <ele>94</ele>
        <time>2018-02-19T11:36:50Z</time>
      </trkpt>
      <trkpt lat="44.11534" lon="1.72639">
        <ele>94.7</ele>
        <time>2018-02-19T11:36:52Z</time>
      </trkpt>
      <trkpt lat="44.11525" lon="1.72649">
        <ele>95.4</ele>
        <time>2018-02-19T11:36:54Z</time>
      </trkpt>
      <trkpt lat="44.11517" lon="1.72658">
        <ele>96.2</ele>
        <time>2018-02-19T11:36:56Z</time>
      </trkpt>
      <trkpt lat="44.11509" lon="1.72667">
        <ele>96.8</ele>
        <time>2018-02-19T11:36:58Z</time>
      </trkpt>
      <trkpt lat="44.115" lon="1.72677">
        <ele>97.4</ele>
        <time>2018-02-19T11:37:00Z</time>
      </trkpt>
      <trkpt lat="44.11492" lon="1.72686">
        <ele>97.9</ele>
        <time>2018-02-19T11:37:02Z</time>
      </trkpt>
      <trkpt lat="44.11483" lon="1.72693">
        <ele>98.5</ele>
        <time>2018-02-19T11:37:05Z</time>
      </trkpt>
      <trkpt lat="44.11473" lon="1.72699">
        <ele>98.9</ele>
        <time>2018-02-19T11:37:06Z</time>
      </trkpt>
      <trkpt lat="44.11464" lon="1.72706">
        <ele>99.3</ele>
        <time>2018-02-19T11:37:08Z</time>
      </trkpt>
      <trkpt lat="44.11454" lon="1.72712">
        <ele>99.7</ele>
        <time>2018-02-19T11:37:10Z</time>
      </trkpt>
      <trkpt lat="44.11444" lon="1.72718">
        <ele>100</ele>
        <time>2018-02-19T11:37:12Z</time>
      </trkpt>
      <trkpt lat="44.11433" lon="1.72723">
        <ele>100.5</ele>
        <time>2018-02-19T11:37:14Z</time>
      </trkpt>
      <trkpt lat="44.11422" lon="1.72729">
        <ele>101.1</ele>
        <time>2018-02-19T11:37:16Z</time>
      </trkpt>
      <trkpt lat="44.1141" lon="1.72735">
        <ele>101.7</ele>
        <time>2018-02-19T11:37:18Z</time>
      </trkpt>
      <trkpt lat="44.11399" lon="1.72739">
        <ele>102.3</ele>
        <time>2018-02-19T11:37:20Z</time>
      </trkpt>
      <trkpt lat="44.11388" lon="1.72743">
        <ele>102.6</ele>
        <time>2018-02-19T11:37:22Z</time>
      </trkpt>
      <trkpt lat="44.11376" lon="1.72745">
        <ele>102.8</ele>
        <time>2018-02-19T11:37:25Z</time>
      </trkpt>
      <trkpt lat="44.11365" lon="1.72746">
        <ele>103.2</ele>
        <time>2018-02-19T11:37:26Z</time>
      </trkpt>
      <trkpt lat="44.11354" lon="1.72747">
        <ele>103.4</ele>
        <time>2018-02-19T11:37:28Z</time>
      </trkpt>
      <trkpt lat="44.11342" lon="1.72747">
        <ele>103.7</ele>
        <time>2018-02-19T11:37:30Z</time>
      </trkpt>
      <trkpt lat="44.1133" lon="1.72747">
        <ele>104.1</ele>
        <time>2018-02-19T11:37:32Z</time>
      </trkpt>
      <trkpt lat="44.11317" lon="1.72746">
        <ele>104.4</ele>
        <time>2018-02-19T11:37:34Z</time>
      </trkpt>
      <trkpt lat="44.11305" lon="1.72743">
        <ele>104.8</ele>
        <time>2018-02-19T11:37:36Z</time>
      </trkpt>
      <trkpt lat="44.11294" lon="1.72741">
        <ele>105.1</ele>
        <time>2018-02-19T11:37:38Z</time>
      </trkpt>
      <trkpt lat="44.11282" lon="1.72736">
        <ele>105.5</ele>
        <time>2018-02-19T11:37:40Z</time>
      </trkpt>
      <trkpt lat="44.1127" lon="1.72731">
        <ele>105.8</ele>
        <time>2018-02-19T11:37:42Z</time>
      </trkpt>
      <trkpt lat="44.11258" lon="1.72726">
        <ele>106.1</ele>
        <time>2018-02-19T11:37:44Z</time>
      </trkpt>
      <trkpt lat="44.11245" lon="1.7272">
        <ele>106.6</ele>
        <time>2018-02-19T11:37:46Z</time>
      </trkpt>
      <trkpt lat="44.11233" lon="1.72714">
        <ele>107.3</ele>
        <time>2018-02-19T11:37:48Z</time>
      </trkpt>
      <trkpt lat="44.11223" lon="1.72708">
        <ele>107.7</ele>
        <time>2018-02-19T11:37:50Z</time>
      </trkpt>
      <trkpt lat="44.11216" lon="1.72699">
        <ele>108.2</ele>
        <time>2018-02-19T11:37:52Z</time>
      </trkpt>
      <trkpt lat="44.11205" lon="1.72692">
        <ele>108.6</ele>
        <time>2018-02-19T11:37:54Z</time>
      </trkpt>
      <trkpt lat="44.11195" lon="1.72685">
        <ele>109</ele>
        <time>2018-02-19T11:37:56Z</time>
      </trkpt>
      <trkpt lat="44.11185" lon="1.72676">
        <ele>109.6</ele>
        <time>2018-02-19T11:37:58Z</time>
      </trkpt>
      <trkpt lat="44.11175" lon="1.72667">
        <ele>110</ele>
        <time>2018-02-19T11:38:00Z</time>
      </trkpt>
      <trkpt lat="44.11166" lon="1.72658">
        <ele>110.2</ele>
        <time>2018-02-19T11:38:02Z</time>
      </trkpt>
      <trkpt lat="44.11158" lon="1.72647">
        <ele>110.4</ele>
        <time>2018-02-19T11:38:04Z</time>
      </trkpt>
      <trkpt lat="44.1115" lon="1.72635">
        <ele>110.9</ele>
        <time>2018-02-19T11:38:06Z</time>
      </trkpt>
      <trkpt lat="44.11142" lon="1.72623">
        <ele>111.1</ele>
        <time>2018-02-19T11:38:08Z</time>
      </trkpt>
      <trkpt lat="44.11133" lon="1.72611">
        <ele>111.2</ele>
        <time>2018-02-19T11:38:10Z</time>
      </trkpt>
      <trkpt lat="44.11126" lon="1.72598">
        <ele>111</ele>
        <time>2018-02-19T11:38:12Z</time>
      </trkpt>
      <trkpt lat="44.11117" lon="1.72585">
        <ele>111</ele>
        <time>2018-02-19T11:38:14Z</time>
      </trkpt>
      <trkpt lat="44.11109" lon="1.72571">
        <ele>110.9</ele>
        <time>2018-02-19T11:38:16Z</time>
      </trkpt>
      <trkpt lat="44.111" lon="1.72556">
        <ele>110.7</ele>
        <time>2018-02-19T11:38:18Z</time>
      </trkpt>
      <trkpt lat="44.11092" lon="1.72544">
        <ele>110.7</ele>
        <time>2018-02-19T11:38:20Z</time>
      </trkpt>
      <trkpt lat="44.11083" lon="1.7253">
        <ele>110.7</ele>
        <time>2018-02-19T11:38:22Z</time>
      </trkpt>
      <trkpt lat="44.11075" lon="1.72517">
        <ele>110.5</ele>
        <time>2018-02-19T11:38:24Z</time>
      </trkpt>
      <trkpt lat="44.11066" lon="1.72503">
        <ele>110.1</ele>
        <time>2018-02-19T11:38:26Z</time>
      </trkpt>
      <trkpt lat="44.11057" lon="1.72491">
        <ele>110.2</ele>
        <time>2018-02-19T11:38:28Z</time>
      </trkpt>
      <trkpt lat="44.11048" lon="1.72478">
        <ele>110.3</ele>
        <time>2018-02-19T11:38:30Z</time>
      </trkpt>
      <trkpt lat="44.11038" lon="1.72466">
        <ele>110.2</ele>
        <time>2018-02-19T11:38:32Z</time>
      </trkpt>
      <trkpt lat="44.1103" lon="1.72452">
        <ele>110</ele>
        <time>2018-02-19T11:38:34Z</time>
      </trkpt>
      <trkpt lat="44.1102" lon="1.7244">
        <ele>109.7</ele>
        <time>2018-02-19T11:38:36Z</time>
      </trkpt>
      <trkpt lat="44.11013" lon="1.72424">
        <ele>109.7</ele>
        <time>2018-02-19T11:38:38Z</time>
      </trkpt>
      <trkpt lat="44.11005" lon="1.72409">
        <ele>109.6</ele>
        <time>2018-02-19T11:38:40Z</time>
      </trkpt>
      <trkpt lat="44.10998" lon="1.72395">
        <ele>109.3</ele>
        <time>2018-02-19T11:38:42Z</time>
      </trkpt>
      <trkpt lat="44.10991" lon="1.7238">
        <ele>109.2</ele>
        <time>2018-02-19T11:38:44Z</time>
      </trkpt>
      <trkpt lat="44.10984" lon="1.72364">
        <ele>109</ele>
        <time>2018-02-19T11:38:46Z</time>
      </trkpt>
      <trkpt lat="44.10978" lon="1.72348">
        <ele>108.8</ele>
        <time>2018-02-19T11:38:48Z</time>
      </trkpt>
      <trkpt lat="44.10972" lon="1.72332">
        <ele>108.5</ele>
        <time>2018-02-19T11:38:50Z</time>
      </trkpt>
      <trkpt lat="44.10968" lon="1.72314">
        <ele>108.2</ele>
        <time>2018-02-19T11:38:52Z</time>
      </trkpt>
      <trkpt lat="44.10965" lon="1.72294">
        <ele>107.6</ele>
        <time>2018-02-19T11:38:54Z</time>
      </trkpt>
      <trkpt lat="44.10963" lon="1.72284">
        <ele>107.3</ele>
        <time>2018-02-19T11:38:55Z</time>
      </trkpt>
      <trkpt lat="44.1096" lon="1.72265">
        <ele>106.6</ele>
        <time>2018-02-19T11:38:57Z</time>
      </trkpt>
      <trkpt lat="44.10958" lon="1.72246">
        <ele>105.9</ele>
        <time>2018-02-19T11:38:59Z</time>
      </trkpt>
      <trkpt lat="44.10956" lon="1.72226">
        <ele>105.4</ele>
        <time>2018-02-19T11:39:01Z</time>
      </trkpt>
      <trkpt lat="44.10955" lon="1.72216">
        <ele>105.2</ele>
        <time>2018-02-19T11:39:02Z</time>
      </trkpt>
      <trkpt lat="44.10954" lon="1.72198">
        <ele>104.7</ele>
        <time>2018-02-19T11:39:04Z</time>
      </trkpt>
      <trkpt lat="44.10954" lon="1.72178">
        <ele>103.9</ele>
        <time>2018-02-19T11:39:06Z</time>
      </trkpt>
      <trkpt lat="44.10953" lon="1.72158">
        <ele>103.4</ele>
        <time>2018-02-19T11:39:08Z</time>
      </trkpt>
      <trkpt lat="44.10952" lon="1.7214">
        <ele>102.8</ele>
        <time>2018-02-19T11:39:10Z</time>
      </trkpt>
      <trkpt lat="44.10951" lon="1.72129">
        <ele>102.5</ele>
        <time>2018-02-19T11:39:11Z</time>
      </trkpt>
      <trkpt lat="44.10951" lon="1.72118">
        <ele>102.1</ele>
        <time>2018-02-19T11:39:12Z</time>
      </trkpt>
      <trkpt lat="44.1095" lon="1.721">
        <ele>101.5</ele>
        <time>2018-02-19T11:39:14Z</time>
      </trkpt>
      <trkpt lat="44.10947" lon="1.72082">
        <ele>100.9</ele>
        <time>2018-02-19T11:39:16Z</time>
      </trkpt>
      <trkpt lat="44.10944" lon="1.72063">
        <ele>100.4</ele>
        <time>2018-02-19T11:39:18Z</time>
      </trkpt>
      <trkpt lat="44.10941" lon="1.72044">
        <ele>99.8</ele>
        <time>2018-02-19T11:39:20Z</time>
      </trkpt>
      <trkpt lat="44.10937" lon="1.72026">
        <ele>99.3</ele>
        <time>2018-02-19T11:39:22Z</time>
      </trkpt>
      <trkpt lat="44.10933" lon="1.72008">
        <ele>98.9</ele>
        <time>2018-02-19T11:39:24Z</time>
      </trkpt>
      <trkpt lat="44.10929" lon="1.71989">
        <ele>98.5</ele>
        <time>2018-02-19T11:39:26Z</time>
      </trkpt>
      <trkpt lat="44.10927" lon="1.7198">
        <ele>98.4</ele>
        <time>2018-02-19T11:39:27Z</time>
      </trkpt>
      <trkpt lat="44.10924" lon="1.7197">
        <ele>98.3</ele>
        <time>2018-02-19T11:39:28Z</time>
      </trkpt>
      <trkpt lat="44.10919" lon="1.71953">
        <ele>98</ele>
        <time>2018-02-19T11:39:30Z</time>
      </trkpt>
      <trkpt lat="44.10912" lon="1.71937">
        <ele>97.7</ele>
        <time>2018-02-19T11:39:32Z</time>
      </trkpt>
      <trkpt lat="44.10909" lon="1.71926">
        <ele>98.1</ele>
        <time>2018-02-19T11:39:33Z</time>
      </trkpt>
      <trkpt lat="44.10905" lon="1.71918">
        <ele>98.4</ele>
        <time>2018-02-19T11:39:34Z</time>
      </trkpt>
      <trkpt lat="44.10901" lon="1.71909">
        <ele>98.8</ele>
        <time>2018-02-19T11:39:35Z</time>
      </trkpt>
      <trkpt lat="44.10893" lon="1.71894">
        <ele>99.5</ele>
        <time>2018-02-19T11:39:37Z</time>
      </trkpt>
      <trkpt lat="44.10885" lon="1.7188">
        <ele>99.3</ele>
        <time>2018-02-19T11:39:39Z</time>
      </trkpt>
      <trkpt lat="44.10877" lon="1.71867">
        <ele>99.3</ele>
        <time>2018-02-19T11:39:41Z</time>
      </trkpt>
      <trkpt lat="44.10868" lon="1.71856">
        <ele>99.8</ele>
        <time>2018-02-19T11:39:43Z</time>
      </trkpt>
      <trkpt lat="44.10857" lon="1.71847">
        <ele>100.6</ele>
        <time>2018-02-19T11:39:45Z</time>
      </trkpt>
      <trkpt lat="44.10848" lon="1.71836">
        <ele>100.8</ele>
        <time>2018-02-19T11:39:47Z</time>
      </trkpt>
      <trkpt lat="44.10837" lon="1.71825">
        <ele>100.9</ele>
        <time>2018-02-19T11:39:49Z</time>
      </trkpt>
      <trkpt lat="44.10827" lon="1.71815">
        <ele>101.2</ele>
        <time>2018-02-19T11:39:51Z</time>
      </trkpt>
      <trkpt lat="44.10816" lon="1.71805">
        <ele>101.7</ele>
        <time>2018-02-19T11:39:53Z</time>
      </trkpt>
      <trkpt lat="44.10805" lon="1.71797">
        <ele>102.6</ele>
        <time>2018-02-19T11:39:55Z</time>
      </trkpt>
      <trkpt lat="44.10794" lon="1.71789">
        <ele>103</ele>
        <time>2018-02-19T11:39:57Z</time>
      </trkpt>
      <trkpt lat="44.10783" lon="1.71781">
        <ele>103.3</ele>
        <time>2018-02-19T11:39:59Z</time>
      </trkpt>
      <trkpt lat="44.10771" lon="1.71776">
        <ele>103.4</ele>
        <time>2018-02-19T11:40:01Z</time>
      </trkpt>
      <trkpt lat="44.10759" lon="1.7177">
        <ele>103.8</ele>
        <time>2018-02-19T11:40:03Z</time>
      </trkpt>
      <trkpt lat="44.10748" lon="1.71765">
        <ele>103.9</ele>
        <time>2018-02-19T11:40:05Z</time>
      </trkpt>
      <trkpt lat="44.10736" lon="1.71761">
        <ele>104</ele>
        <time>2018-02-19T11:40:07Z</time>
      </trkpt>
      <trkpt lat="44.10723" lon="1.71758">
        <ele>103.7</ele>
        <time>2018-02-19T11:40:09Z</time>
      </trkpt>
      <trkpt lat="44.1071" lon="1.71756">
        <ele>103.6</ele>
        <time>2018-02-19T11:40:11Z</time>
      </trkpt>
      <trkpt lat="44.10697" lon="1.71754">
        <ele>103.3</ele>
        <time>2018-02-19T11:40:13Z</time>
      </trkpt>
      <trkpt lat="44.10684" lon="1.71753">
        <ele>102.9</ele>
        <time>2018-02-19T11:40:15Z</time>
      </trkpt>
      <trkpt lat="44.10671" lon="1.71753">
        <ele>102.7</ele>
        <time>2018-02-19T11:40:17Z</time>
      </trkpt>
      <trkpt lat="44.10658" lon="1.71753">
        <ele>102.5</ele>
        <time>2018-02-19T11:40:19Z</time>
      </trkpt>
      <trkpt lat="44.10645" lon="1.71754">
        <ele>102.3</ele>
        <time>2018-02-19T11:40:21Z</time>
      </trkpt>
      <trkpt lat="44.10633" lon="1.71758">
        <ele>102.2</ele>
        <time>2018-02-19T11:40:23Z</time>
      </trkpt>
      <trkpt lat="44.1062" lon="1.71762">
        <ele>102</ele>
        <time>2018-02-19T11:40:25Z</time>
      </trkpt>
      <trkpt lat="44.10606" lon="1.71765">
        <ele>101.9</ele>
        <time>2018-02-19T11:40:27Z</time>
      </trkpt>
      <trkpt lat="44.10593" lon="1.7177">
        <ele>101.7</ele>
        <time>2018-02-19T11:40:29Z</time>
      </trkpt>
      <trkpt lat="44.10581" lon="1.71777">
        <ele>101.7</ele>
        <time>2018-02-19T11:40:31Z</time>
      </trkpt>
      <trkpt lat="44.10569" lon="1.71784">
        <ele>101.6</ele>
        <time>2018-02-19T11:40:33Z</time>
      </trkpt>
      <trkpt lat="44.10557" lon="1.71792">
        <ele>101.5</ele>
        <time>2018-02-19T11:40:35Z</time>
      </trkpt>
      <trkpt lat="44.10545" lon="1.71802">
        <ele>101.4</ele>
        <time>2018-02-19T11:40:37Z</time>
      </trkpt>
      <trkpt lat="44.10539" lon="1.71808">
        <ele>101.5</ele>
        <time>2018-02-19T11:40:38Z</time>
      </trkpt>
      <trkpt lat="44.10532" lon="1.71813">
        <ele>101.5</ele>
        <time>2018-02-19T11:40:39Z</time>
      </trkpt>
      <trkpt lat="44.1052" lon="1.71824">
        <ele>101.6</ele>
        <time>2018-02-19T11:40:41Z</time>
      </trkpt>
      <trkpt lat="44.10508" lon="1.71835">
        <ele>101.7</ele>
        <time>2018-02-19T11:40:43Z</time>
      </trkpt>
      <trkpt lat="44.10497" lon="1.71848">
        <ele>102</ele>
        <time>2018-02-19T11:40:45Z</time>
      </trkpt>
      <trkpt lat="44.10491" lon="1.71855">
        <ele>102.3</ele>
        <time>2018-02-19T11:40:46Z</time>
      </trkpt>
      <trkpt lat="44.10481" lon="1.71867">
        <ele>102.6</ele>
        <time>2018-02-19T11:40:48Z</time>
      </trkpt>
      <trkpt lat="44.10472" lon="1.71882">
        <ele>102.9</ele>
        <time>2018-02-19T11:40:50Z</time>
      </trkpt>
      <trkpt lat="44.10463" lon="1.71896">
        <ele>103.3</ele>
        <time>2018-02-19T11:40:52Z</time>
      </trkpt>
      <trkpt lat="44.10455" lon="1.71911">
        <ele>103.8</ele>
        <time>2018-02-19T11:40:54Z</time>
      </trkpt>
      <trkpt lat="44.10448" lon="1.71928">
        <ele>104.2</ele>
        <time>2018-02-19T11:40:56Z</time>
      </trkpt>
      <trkpt lat="44.1044" lon="1.71944">
        <ele>104.6</ele>
        <time>2018-02-19T11:40:58Z</time>
      </trkpt>
      <trkpt lat="44.10433" lon="1.71961">
        <ele>104.8</ele>
        <time>2018-02-19T11:41:00Z</time>
      </trkpt>
      <trkpt lat="44.10427" lon="1.71978">
        <ele>104.9</ele>
        <time>2018-02-19T11:41:02Z</time>
      </trkpt>
      <trkpt lat="44.10422" lon="1.71996">
        <ele>105.1</ele>
        <time>2018-02-19T11:41:04Z</time>
      </trkpt>
      <trkpt lat="44.10417" lon="1.72014">
        <ele>105.2</ele>
        <time>2018-02-19T11:41:06Z</time>
      </trkpt>
      <trkpt lat="44.10413" lon="1.72032">
        <ele>105.3</ele>
        <time>2018-02-19T11:41:08Z</time>
      </trkpt>
      <trkpt lat="44.10409" lon="1.7205">
        <ele>105.5</ele>
        <time>2018-02-19T11:41:10Z</time>
      </trkpt>
      <trkpt lat="44.10405" lon="1.72068">
        <ele>105.5</ele>
        <time>2018-02-19T11:41:12Z</time>
      </trkpt>
      <trkpt lat="44.10403" lon="1.72077">
        <ele>105.6</ele>
        <time>2018-02-19T11:41:13Z</time>
      </trkpt>
      <trkpt lat="44.10398" lon="1.72096">
        <ele>105.7</ele>
        <time>2018-02-19T11:41:15Z</time>
      </trkpt>
      <trkpt lat="44.10394" lon="1.72115">
        <ele>106</ele>
        <time>2018-02-19T11:41:17Z</time>
      </trkpt>
      <trkpt lat="44.1039" lon="1.72133">
        <ele>106.3</ele>
        <time>2018-02-19T11:41:19Z</time>
      </trkpt>
      <trkpt lat="44.10385" lon="1.7215">
        <ele>106.6</ele>
        <time>2018-02-19T11:41:21Z</time>
      </trkpt>
      <trkpt lat="44.1038" lon="1.72168">
        <ele>107</ele>
        <time>2018-02-19T11:41:23Z</time>
      </trkpt>
      <trkpt lat="44.10374" lon="1.72185">
        <ele>107.4</ele>
        <time>2018-02-19T11:41:25Z</time>
      </trkpt>
      <trkpt lat="44.10368" lon="1.72202">
        <ele>107.7</ele>
        <time>2018-02-19T11:41:27Z</time>
      </trkpt>
      <trkpt lat="44.10361" lon="1.72216">
        <ele>108.1</ele>
        <time>2018-02-19T11:41:29Z</time>
      </trkpt>
      <trkpt lat="44.10353" lon="1.7223">
        <ele>108.5</ele>
        <time>2018-02-19T11:41:31Z</time>
      </trkpt>
      <trkpt lat="44.10346" lon="1.72243">
        <ele>108.9</ele>
        <time>2018-02-19T11:41:33Z</time>
      </trkpt>
      <trkpt lat="44.10338" lon="1.72258">
        <ele>109.3</ele>
        <time>2018-02-19T11:41:35Z</time>
      </trkpt>
      <trkpt lat="44.1033" lon="1.7227">
        <ele>109.7</ele>
        <time>2018-02-19T11:41:37Z</time>
      </trkpt>
      <trkpt lat="44.10322" lon="1.72275">
        <ele>109.9</ele>
        <time>2018-02-19T11:41:39Z</time>
      </trkpt>
      <trkpt lat="44.10311" lon="1.72281">
        <ele>110.4</ele>
        <time>2018-02-19T11:41:41Z</time>
      </trkpt>
      <trkpt lat="44.10302" lon="1.72292">
        <ele>110.8</ele>
        <time>2018-02-19T11:41:43Z</time>
      </trkpt>
      <trkpt lat="44.10293" lon="1.72303">
        <ele>111.4</ele>
        <time>2018-02-19T11:41:45Z</time>
      </trkpt>
      <trkpt lat="44.10284" lon="1.72311">
        <ele>111.7</ele>
        <time>2018-02-19T11:41:47Z</time>
      </trkpt>
      <trkpt lat="44.10275" lon="1.72318">
        <ele>111.9</ele>
        <time>2018-02-19T11:41:49Z</time>
      </trkpt>
      <trkpt lat="44.10266" lon="1.72327">
        <ele>112.1</ele>
        <time>2018-02-19T11:41:51Z</time>
      </trkpt>
      <trkpt lat="44.10257" lon="1.72335">
        <ele>112.3</ele>
        <time>2018-02-19T11:41:53Z</time>
      </trkpt>
      <trkpt lat="44.10248" lon="1.72342">
        <ele>112.4</ele>
        <time>2018-02-19T11:41:55Z</time>
      </trkpt>
      <trkpt lat="44.10226" lon="1.72412">
        <ele>112.9</ele>
        <time>2018-02-19T11:42:02Z</time>
      </trkpt>
      <trkpt lat="44.10223" lon="1.72426">
        <ele>113</ele>
        <time>2018-02-19T11:42:03Z</time>
      </trkpt>
      <trkpt lat="44.10214" lon="1.72442">
        <ele>113.1</ele>
        <time>2018-02-19T11:42:05Z</time>
      </trkpt>
      <trkpt lat="44.10209" lon="1.7245">
        <ele>113.4</ele>
        <time>2018-02-19T11:42:06Z</time>
      </trkpt>
      <trkpt lat="44.102" lon="1.72462">
        <ele>114</ele>
        <time>2018-02-19T11:42:08Z</time>
      </trkpt>
      <trkpt lat="44.10193" lon="1.72472">
        <ele>114.5</ele>
        <time>2018-02-19T11:42:10Z</time>
      </trkpt>
      <trkpt lat="44.10186" lon="1.72482">
        <ele>115</ele>
        <time>2018-02-19T11:42:12Z</time>
      </trkpt>
      <trkpt lat="44.10179" lon="1.72492">
        <ele>115.5</ele>
        <time>2018-02-19T11:42:14Z</time>
      </trkpt>
      <trkpt lat="44.10171" lon="1.72501">
        <ele>116.7</ele>
        <time>2018-02-19T11:42:16Z</time>
      </trkpt>
      <trkpt lat="44.10164" lon="1.72509">
        <ele>117.6</ele>
        <time>2018-02-19T11:42:18Z</time>
      </trkpt>
      <trkpt lat="44.10157" lon="1.72519">
        <ele>118.4</ele>
        <time>2018-02-19T11:42:20Z</time>
      </trkpt>
      <trkpt lat="44.10151" lon="1.72526">
        <ele>119.1</ele>
        <time>2018-02-19T11:42:22Z</time>
      </trkpt>
      <trkpt lat="44.10144" lon="1.72535">
        <ele>119.8</ele>
        <time>2018-02-19T11:42:24Z</time>
      </trkpt>
      <trkpt lat="44.10138" lon="1.72544">
        <ele>120.2</ele>
        <time>2018-02-19T11:42:26Z</time>
      </trkpt>
      <trkpt lat="44.10131" lon="1.72554">
        <ele>120.3</ele>
        <time>2018-02-19T11:42:28Z</time>
      </trkpt>
      <trkpt lat="44.10124" lon="1.72563">
        <ele>120.9</ele>
        <time>2018-02-19T11:42:30Z</time>
      </trkpt>
      <trkpt lat="44.10116" lon="1.72571">
        <ele>121</ele>
        <time>2018-02-19T11:42:32Z</time>
      </trkpt>
      <trkpt lat="44.10109" lon="1.72582">
        <ele>121.5</ele>
        <time>2018-02-19T11:42:34Z</time>
      </trkpt>
      <trkpt lat="44.10104" lon="1.72591">
        <ele>121.9</ele>
        <time>2018-02-19T11:42:36Z</time>
      </trkpt>
      <trkpt lat="44.10097" lon="1.72601">
        <ele>122.5</ele>
        <time>2018-02-19T11:42:38Z</time>
      </trkpt>
      <trkpt lat="44.1009" lon="1.7261">
        <ele>123</ele>
        <time>2018-02-19T11:42:40Z</time>
      </trkpt>
      <trkpt lat="44.10084" lon="1.72618">
        <ele>123.4</ele>
        <time>2018-02-19T11:42:42Z</time>
      </trkpt>
      <trkpt lat="44.10079" lon="1.72628">
        <ele>123.9</ele>
        <time>2018-02-19T11:42:44Z</time>
      </trkpt>
      <trkpt lat="44.10071" lon="1.72638">
        <ele>124.2</ele>
        <time>2018-02-19T11:42:46Z</time>
      </trkpt>
      <trkpt lat="44.10063" lon="1.72648">
        <ele>124.4</ele>
        <time>2018-02-19T11:42:48Z</time>
      </trkpt>
      <trkpt lat="44.10058" lon="1.7266">
        <ele>124.6</ele>
        <time>2018-02-19T11:42:50Z</time>
      </trkpt>
      <trkpt lat="44.10051" lon="1.7267">
        <ele>124.9</ele>
        <time>2018-02-19T11:42:52Z</time>
      </trkpt>
      <trkpt lat="44.10044" lon="1.72679">
        <ele>125</ele>
        <time>2018-02-19T11:42:54Z</time>
      </trkpt>
      <trkpt lat="44.10036" lon="1.72686">
        <ele>125.2</ele>
        <time>2018-02-19T11:42:56Z</time>
      </trkpt>
      <trkpt lat="44.10029" lon="1.72693">
        <ele>125.4</ele>
        <time>2018-02-19T11:42:58Z</time>
      </trkpt>
      <trkpt lat="44.10019" lon="1.72703">
        <ele>125.6</ele>
        <time>2018-02-19T11:43:01Z</time>
      </trkpt>
      <trkpt lat="44.10009" lon="1.72712">
        <ele>125.2</ele>
        <time>2018-02-19T11:43:03Z</time>
      </trkpt>
      <trkpt lat="44.09996" lon="1.7272">
        <ele>125.5</ele>
        <time>2018-02-19T11:43:05Z</time>
      </trkpt>
      <trkpt lat="44.09989" lon="1.72725">
        <ele>125</ele>
        <time>2018-02-19T11:43:06Z</time>
      </trkpt>
      <trkpt lat="44.09976" lon="1.72732">
        <ele>124.8</ele>
        <time>2018-02-19T11:43:08Z</time>
      </trkpt>
      <trkpt lat="44.09963" lon="1.72738">
        <ele>124.5</ele>
        <time>2018-02-19T11:43:10Z</time>
      </trkpt>
      <trkpt lat="44.09951" lon="1.72744">
        <ele>124.4</ele>
        <time>2018-02-19T11:43:12Z</time>
      </trkpt>
      <trkpt lat="44.09939" lon="1.72749">
        <ele>124.3</ele>
        <time>2018-02-19T11:43:14Z</time>
      </trkpt>
      <trkpt lat="44.09928" lon="1.72752">
        <ele>124.1</ele>
        <time>2018-02-19T11:43:16Z</time>
      </trkpt>
      <trkpt lat="44.09916" lon="1.72757">
        <ele>124.2</ele>
        <time>2018-02-19T11:43:18Z</time>
      </trkpt>
      <trkpt lat="44.09904" lon="1.72758">
        <ele>124</ele>
        <time>2018-02-19T11:43:20Z</time>
      </trkpt>
      <trkpt lat="44.09892" lon="1.72759">
        <ele>123.9</ele>
        <time>2018-02-19T11:43:22Z</time>
      </trkpt>
      <trkpt lat="44.0988" lon="1.72756">
        <ele>123.9</ele>
        <time>2018-02-19T11:43:24Z</time>
      </trkpt>
      <trkpt lat="44.09868" lon="1.72757">
        <ele>124</ele>
        <time>2018-02-19T11:43:26Z</time>
      </trkpt>
      <trkpt lat="44.09857" lon="1.72757">
        <ele>124.1</ele>
        <time>2018-02-19T11:43:28Z</time>
      </trkpt>
      <trkpt lat="44.09845" lon="1.72753">
        <ele>124.4</ele>
        <time>2018-02-19T11:43:30Z</time>
      </trkpt>
      <trkpt lat="44.09835" lon="1.72754">
        <ele>124.4</ele>
        <time>2018-02-19T11:43:32Z</time>
      </trkpt>
      <trkpt lat="44.09824" lon="1.72752">
        <ele>124.5</ele>
        <time>2018-02-19T11:43:34Z</time>
      </trkpt>
      <trkpt lat="44.09813" lon="1.7275">
        <ele>124.4</ele>
        <time>2018-02-19T11:43:36Z</time>
      </trkpt>
      <trkpt lat="44.09801" lon="1.72749">
        <ele>124.3</ele>
        <time>2018-02-19T11:43:38Z</time>
      </trkpt>
      <trkpt lat="44.0979" lon="1.72744">
        <ele>124.2</ele>
        <time>2018-02-19T11:43:40Z</time>
      </trkpt>
      <trkpt lat="44.09779" lon="1.72735">
        <ele>124</ele>
        <time>2018-02-19T11:43:42Z</time>
      </trkpt>
      <trkpt lat="44.09769" lon="1.72735">
        <ele>123.9</ele>
        <time>2018-02-19T11:43:44Z</time>
      </trkpt>
      <trkpt lat="44.0976" lon="1.72737">
        <ele>123.7</ele>
        <time>2018-02-19T11:43:46Z</time>
      </trkpt>
      <trkpt lat="44.0975" lon="1.7274">
        <ele>123.5</ele>
        <time>2018-02-19T11:43:48Z</time>
      </trkpt>
      <trkpt lat="44.0974" lon="1.72737">
        <ele>123.4</ele>
        <time>2018-02-19T11:43:50Z</time>
      </trkpt>
      <trkpt lat="44.09731" lon="1.72727">
        <ele>123.3</ele>
        <time>2018-02-19T11:43:52Z</time>
      </trkpt>
      <trkpt lat="44.09722" lon="1.72717">
        <ele>123.1</ele>
        <time>2018-02-19T11:43:54Z</time>
      </trkpt>
      <trkpt lat="44.09713" lon="1.72706">
        <ele>122.9</ele>
        <time>2018-02-19T11:43:56Z</time>
      </trkpt>
      <trkpt lat="44.09703" lon="1.72697">
        <ele>122.8</ele>
        <time>2018-02-19T11:43:58Z</time>
      </trkpt>
      <trkpt lat="44.09695" lon="1.72691">
        <ele>122.7</ele>
        <time>2018-02-19T11:44:00Z</time>
      </trkpt>
      <trkpt lat="44.09687" lon="1.72681">
        <ele>122.7</ele>
        <time>2018-02-19T11:44:02Z</time>
      </trkpt>
      <trkpt lat="44.09682" lon="1.72671">
        <ele>122.6</ele>
        <time>2018-02-19T11:44:04Z</time>
      </trkpt>
      <trkpt lat="44.09675" lon="1.72662">
        <ele>122.6</ele>
        <time>2018-02-19T11:44:06Z</time>
      </trkpt>
      <trkpt lat="44.09669" lon="1.72652">
        <ele>122.6</ele>
        <time>2018-02-19T11:44:08Z</time>
      </trkpt>
      <trkpt lat="44.0966" lon="1.72645">
        <ele>122.5</ele>
        <time>2018-02-19T11:44:10Z</time>
      </trkpt>
      <trkpt lat="44.09653" lon="1.72635">
        <ele>122.5</ele>
        <time>2018-02-19T11:44:12Z</time>
      </trkpt>
      <trkpt lat="44.09646" lon="1.72629">
        <ele>122.5</ele>
        <time>2018-02-19T11:44:13Z</time>
      </trkpt>
      <trkpt lat="44.09637" lon="1.7262">
        <ele>122.5</ele>
        <time>2018-02-19T11:44:15Z</time>
      </trkpt>
      <trkpt lat="44.09628" lon="1.72612">
        <ele>122.5</ele>
        <time>2018-02-19T11:44:17Z</time>
      </trkpt>
      <trkpt lat="44.09623" lon="1.72603">
        <ele>122.5</ele>
        <time>2018-02-19T11:44:18Z</time>
      </trkpt>
      <trkpt lat="44.09619" lon="1.72594">
        <ele>122.4</ele>
        <time>2018-02-19T11:44:19Z</time>
      </trkpt>
      <trkpt lat="44.09611" lon="1.72583">
        <ele>122.4</ele>
        <time>2018-02-19T11:44:21Z</time>
      </trkpt>
      <trkpt lat="44.09605" lon="1.72575">
        <ele>122.3</ele>
        <time>2018-02-19T11:44:23Z</time>
      </trkpt>
      <trkpt lat="44.09596" lon="1.7256">
        <ele>122.3</ele>
        <time>2018-02-19T11:44:25Z</time>
      </trkpt>
      <trkpt lat="44.09589" lon="1.7255">
        <ele>122.2</ele>
        <time>2018-02-19T11:44:27Z</time>
      </trkpt>
      <trkpt lat="44.09584" lon="1.72539">
        <ele>123.9</ele>
        <time>2018-02-19T11:44:28Z</time>
      </trkpt>
      <trkpt lat="44.09579" lon="1.7253">
        <ele>125.2</ele>
        <time>2018-02-19T11:44:29Z</time>
      </trkpt>
      <trkpt lat="44.09574" lon="1.72519">
        <ele>126.7</ele>
        <time>2018-02-19T11:44:30Z</time>
      </trkpt>
      <trkpt lat="44.09571" lon="1.72511">
        <ele>127.2</ele>
        <time>2018-02-19T11:44:31Z</time>
      </trkpt>
      <trkpt lat="44.09566" lon="1.72502">
        <ele>127.6</ele>
        <time>2018-02-19T11:44:32Z</time>
      </trkpt>
      <trkpt lat="44.09561" lon="1.72493">
        <ele>128</ele>
        <time>2018-02-19T11:44:33Z</time>
      </trkpt>
      <trkpt lat="44.09554" lon="1.72481">
        <ele>128.5</ele>
        <time>2018-02-19T11:44:35Z</time>
      </trkpt>
      <trkpt lat="44.09545" lon="1.7247">
        <ele>129.4</ele>
        <time>2018-02-19T11:44:37Z</time>
      </trkpt>
      <trkpt lat="44.09537" lon="1.72458">
        <ele>129.8</ele>
        <time>2018-02-19T11:44:39Z</time>
      </trkpt>
      <trkpt lat="44.0953" lon="1.72447">
        <ele>129.7</ele>
        <time>2018-02-19T11:44:41Z</time>
      </trkpt>
      <trkpt lat="44.09523" lon="1.72436">
        <ele>129.7</ele>
        <time>2018-02-19T11:44:43Z</time>
      </trkpt>
      <trkpt lat="44.09516" lon="1.72427">
        <ele>129.5</ele>
        <time>2018-02-19T11:44:45Z</time>
      </trkpt>
      <trkpt lat="44.09509" lon="1.72418">
        <ele>129.4</ele>
        <time>2018-02-19T11:44:47Z</time>
      </trkpt>
      <trkpt lat="44.09502" lon="1.72411">
        <ele>128.9</ele>
        <time>2018-02-19T11:44:49Z</time>
      </trkpt>
      <trkpt lat="44.09495" lon="1.72402">
        <ele>128.5</ele>
        <time>2018-02-19T11:44:51Z</time>
      </trkpt>
      <trkpt lat="44.09485" lon="1.72395">
        <ele>128.4</ele>
        <time>2018-02-19T11:44:53Z</time>
      </trkpt>
      <trkpt lat="44.09477" lon="1.72387">
        <ele>128.5</ele>
        <time>2018-02-19T11:44:55Z</time>
      </trkpt>
      <trkpt lat="44.0947" lon="1.72384">
        <ele>128.5</ele>
        <time>2018-02-19T11:44:58Z</time>
      </trkpt>
      <trkpt lat="44.09478" lon="1.72386">
        <ele>127.6</ele>
        <time>2018-02-19T11:45:02Z</time>
      </trkpt>
      <trkpt lat="44.09479" lon="1.7238">
        <ele>126.9</ele>
        <time>2018-02-19T11:45:09Z</time>
      </trkpt>
      <trkpt lat="44.09474" lon="1.72381">
        <ele>127</ele>
        <time>2018-02-19T11:45:58Z</time>
      </trkpt>
      <trkpt lat="44.09468" lon="1.72374">
        <ele>126.9</ele>
        <time>2018-02-19T11:46:04Z</time>
      </trkpt>
      <trkpt lat="44.09459" lon="1.72371">
        <ele>127.2</ele>
        <time>2018-02-19T11:46:07Z</time>
      </trkpt>
      <trkpt lat="44.09452" lon="1.72368">
        <ele>127.6</ele>
        <time>2018-02-19T11:46:09Z</time>
      </trkpt>
      <trkpt lat="44.09445" lon="1.72364">
        <ele>127.9</ele>
        <time>2018-02-19T11:46:11Z</time>
      </trkpt>
      <trkpt lat="44.09438" lon="1.72359">
        <ele>128.2</ele>
        <time>2018-02-19T11:46:13Z</time>
      </trkpt>
      <trkpt lat="44.0943" lon="1.72355">
        <ele>128.5</ele>
        <time>2018-02-19T11:46:15Z</time>
      </trkpt>
      <trkpt lat="44.09423" lon="1.72351">
        <ele>128.7</ele>
        <time>2018-02-19T11:46:17Z</time>
      </trkpt>
      <trkpt lat="44.09415" lon="1.72348">
        <ele>128.9</ele>
        <time>2018-02-19T11:46:19Z</time>
      </trkpt>
      <trkpt lat="44.09406" lon="1.72345">
        <ele>129.1</ele>
        <time>2018-02-19T11:46:21Z</time>
      </trkpt>
      <trkpt lat="44.09397" lon="1.72342">
        <ele>129.3</ele>
        <time>2018-02-19T11:46:23Z</time>
      </trkpt>
      <trkpt lat="44.09387" lon="1.7234">
        <ele>129.4</ele>
        <time>2018-02-19T11:46:25Z</time>
      </trkpt>
      <trkpt lat="44.09377" lon="1.72337">
        <ele>129.4</ele>
        <time>2018-02-19T11:46:27Z</time>
      </trkpt>
      <trkpt lat="44.09366" lon="1.72336">
        <ele>129.5</ele>
        <time>2018-02-19T11:46:29Z</time>
      </trkpt>
      <trkpt lat="44.09355" lon="1.72335">
        <ele>129.6</ele>
        <time>2018-02-19T11:46:31Z</time>
      </trkpt>
      <trkpt lat="44.09344" lon="1.72336">
        <ele>129.9</ele>
        <time>2018-02-19T11:46:33Z</time>
      </trkpt>
      <trkpt lat="44.09333" lon="1.72336">
        <ele>130</ele>
        <time>2018-02-19T11:46:35Z</time>
      </trkpt>
      <trkpt lat="44.09324" lon="1.72336">
        <ele>130</ele>
        <time>2018-02-19T11:46:37Z</time>
      </trkpt>
      <trkpt lat="44.09314" lon="1.72338">
        <ele>130.3</ele>
        <time>2018-02-19T11:46:39Z</time>
      </trkpt>
      <trkpt lat="44.09304" lon="1.7234">
        <ele>130.5</ele>
        <time>2018-02-19T11:46:41Z</time>
      </trkpt>
      <trkpt lat="44.09293" lon="1.72343">
        <ele>130.5</ele>
        <time>2018-02-19T11:46:43Z</time>
      </trkpt>
      <trkpt lat="44.09283" lon="1.72346">
        <ele>130.7</ele>
        <time>2018-02-19T11:46:45Z</time>
      </trkpt>
      <trkpt lat="44.09272" lon="1.7235">
        <ele>131</ele>
        <time>2018-02-19T11:46:47Z</time>
      </trkpt>
      <trkpt lat="44.09261" lon="1.72355">
        <ele>131.3</ele>
        <time>2018-02-19T11:46:49Z</time>
      </trkpt>
      <trkpt lat="44.0925" lon="1.7236">
        <ele>131.4</ele>
        <time>2018-02-19T11:46:51Z</time>
      </trkpt>
      <trkpt lat="44.0924" lon="1.72366">
        <ele>131.4</ele>
        <time>2018-02-19T11:46:53Z</time>
      </trkpt>
      <trkpt lat="44.09229" lon="1.72372">
        <ele>131.4</ele>
        <time>2018-02-19T11:46:55Z</time>
      </trkpt>
      <trkpt lat="44.09219" lon="1.7238">
        <ele>131.5</ele>
        <time>2018-02-19T11:46:57Z</time>
      </trkpt>
      <trkpt lat="44.09209" lon="1.72387">
        <ele>131.6</ele>
        <time>2018-02-19T11:46:59Z</time>
      </trkpt>
      <trkpt lat="44.09199" lon="1.72396">
        <ele>131.5</ele>
        <time>2018-02-19T11:47:01Z</time>
      </trkpt>
      <trkpt lat="44.09189" lon="1.72406">
        <ele>131.8</ele>
        <time>2018-02-19T11:47:03Z</time>
      </trkpt>
      <trkpt lat="44.0918" lon="1.72417">
        <ele>132</ele>
        <time>2018-02-19T11:47:05Z</time>
      </trkpt>
      <trkpt lat="44.09171" lon="1.72426">
        <ele>132.1</ele>
        <time>2018-02-19T11:47:07Z</time>
      </trkpt>
      <trkpt lat="44.09162" lon="1.72437">
        <ele>132.4</ele>
        <time>2018-02-19T11:47:09Z</time>
      </trkpt>
      <trkpt lat="44.09154" lon="1.72449">
        <ele>132.8</ele>
        <time>2018-02-19T11:47:11Z</time>
      </trkpt>
      <trkpt lat="44.09146" lon="1.72461">
        <ele>133.1</ele>
        <time>2018-02-19T11:47:13Z</time>
      </trkpt>
      <trkpt lat="44.09139" lon="1.72474">
        <ele>133.5</ele>
        <time>2018-02-19T11:47:15Z</time>
      </trkpt>
      <trkpt lat="44.09132" lon="1.72486">
        <ele>134.1</ele>
        <time>2018-02-19T11:47:17Z</time>
      </trkpt>
      <trkpt lat="44.09125" lon="1.725">
        <ele>134.6</ele>
        <time>2018-02-19T11:47:19Z</time>
      </trkpt>
      <trkpt lat="44.09118" lon="1.72515">
        <ele>134.9</ele>
        <time>2018-02-19T11:47:21Z</time>
      </trkpt>
      <trkpt lat="44.09112" lon="1.72531">
        <ele>135.3</ele>
        <time>2018-02-19T11:47:23Z</time>
      </trkpt>
      <trkpt lat="44.09106" lon="1.72547">
        <ele>135.6</ele>
        <time>2018-02-19T11:47:25Z</time>
      </trkpt>
      <trkpt lat="44.09102" lon="1.72564">
        <ele>135.9</ele>
        <time>2018-02-19T11:47:27Z</time>
      </trkpt>
      <trkpt lat="44.09097" lon="1.72581">
        <ele>136.2</ele>
        <time>2018-02-19T11:47:29Z</time>
      </trkpt>
      <trkpt lat="44.09091" lon="1.72598">
        <ele>136.6</ele>
        <time>2018-02-19T11:47:31Z</time>
      </trkpt>
      <trkpt lat="44.09086" lon="1.72616">
        <ele>137</ele>
        <time>2018-02-19T11:47:33Z</time>
      </trkpt>
      <trkpt lat="44.09081" lon="1.72632">
        <ele>137.3</ele>
        <time>2018-02-19T11:47:35Z</time>
      </trkpt>
      <trkpt lat="44.09077" lon="1.72647">
        <ele>137.6</ele>
        <time>2018-02-19T11:47:37Z</time>
      </trkpt>
      <trkpt lat="44.09073" lon="1.72662">
        <ele>138</ele>
        <time>2018-02-19T11:47:39Z</time>
      </trkpt>
      <trkpt lat="44.09069" lon="1.72676">
        <ele>138.3</ele>
        <time>2018-02-19T11:47:41Z</time>
      </trkpt>
      <trkpt lat="44.09065" lon="1.72692">
        <ele>138.6</ele>
        <time>2018-02-19T11:47:43Z</time>
      </trkpt>
      <trkpt lat="44.0906" lon="1.72707">
        <ele>139.1</ele>
        <time>2018-02-19T11:47:45Z</time>
      </trkpt>
      <trkpt lat="44.09056" lon="1.72723">
        <ele>139.3</ele>
        <time>2018-02-19T11:47:47Z</time>
      </trkpt>
      <trkpt lat="44.09052" lon="1.72739">
        <ele>139.6</ele>
        <time>2018-02-19T11:47:49Z</time>
      </trkpt>
      <trkpt lat="44.09047" lon="1.72755">
        <ele>139.9</ele>
        <time>2018-02-19T11:47:51Z</time>
      </trkpt>
      <trkpt lat="44.09043" lon="1.72771">
        <ele>140</ele>
        <time>2018-02-19T11:47:53Z</time>
      </trkpt>
      <trkpt lat="44.09037" lon="1.72786">
        <ele>140.2</ele>
        <time>2018-02-19T11:47:55Z</time>
      </trkpt>
      <trkpt lat="44.09034" lon="1.72801">
        <ele>140.4</ele>
        <time>2018-02-19T11:47:57Z</time>
      </trkpt>
      <trkpt lat="44.09029" lon="1.72817">
        <ele>140.7</ele>
        <time>2018-02-19T11:47:59Z</time>
      </trkpt>
      <trkpt lat="44.09025" lon="1.72834">
        <ele>140.4</ele>
        <time>2018-02-19T11:48:01Z</time>
      </trkpt>
      <trkpt lat="44.09021" lon="1.7285">
        <ele>140.5</ele>
        <time>2018-02-19T11:48:03Z</time>
      </trkpt>
      <trkpt lat="44.09016" lon="1.72867">
        <ele>140.7</ele>
        <time>2018-02-19T11:48:05Z</time>
      </trkpt>
      <trkpt lat="44.09011" lon="1.72884">
        <ele>140.6</ele>
        <time>2018-02-19T11:48:07Z</time>
      </trkpt>
      <trkpt lat="44.09006" lon="1.72899">
        <ele>140.9</ele>
        <time>2018-02-19T11:48:09Z</time>
      </trkpt>
      <trkpt lat="44.09002" lon="1.72916">
        <ele>141.1</ele>
        <time>2018-02-19T11:48:11Z</time>
      </trkpt>
      <trkpt lat="44.08998" lon="1.72932">
        <ele>141.1</ele>
        <time>2018-02-19T11:48:13Z</time>
      </trkpt>
      <trkpt lat="44.08994" lon="1.72949">
        <ele>141.4</ele>
        <time>2018-02-19T11:48:15Z</time>
      </trkpt>
      <trkpt lat="44.0899" lon="1.72965">
        <ele>141.5</ele>
        <time>2018-02-19T11:48:17Z</time>
      </trkpt>
      <trkpt lat="44.08987" lon="1.72981">
        <ele>141.7</ele>
        <time>2018-02-19T11:48:19Z</time>
      </trkpt>
      <trkpt lat="44.08983" lon="1.72996">
        <ele>142</ele>
        <time>2018-02-19T11:48:21Z</time>
      </trkpt>
      <trkpt lat="44.08978" lon="1.73009">
        <ele>142</ele>
        <time>2018-02-19T11:48:23Z</time>
      </trkpt>
      <trkpt lat="44.08975" lon="1.7302">
        <ele>142.4</ele>
        <time>2018-02-19T11:48:25Z</time>
      </trkpt>
      <trkpt lat="44.08971" lon="1.73032">
        <ele>142.7</ele>
        <time>2018-02-19T11:48:27Z</time>
      </trkpt>
      <trkpt lat="44.08968" lon="1.73043">
        <ele>142.9</ele>
        <time>2018-02-19T11:48:29Z</time>
      </trkpt>
      <trkpt lat="44.08965" lon="1.73052">
        <ele>143.1</ele>
        <time>2018-02-19T11:48:31Z</time>
      </trkpt>
      <trkpt lat="44.08962" lon="1.73062">
        <ele>143.4</ele>
        <time>2018-02-19T11:48:33Z</time>
      </trkpt>
      <trkpt lat="44.08959" lon="1.73073">
        <ele>143.7</ele>
        <time>2018-02-19T11:48:35Z</time>
      </trkpt>
      <trkpt lat="44.08956" lon="1.73082">
        <ele>143.9</ele>
        <time>2018-02-19T11:48:37Z</time>
      </trkpt>
      <trkpt lat="44.08953" lon="1.73092">
        <ele>144.1</ele>
        <time>2018-02-19T11:48:39Z</time>
      </trkpt>
      <trkpt lat="44.08948" lon="1.73104">
        <ele>144.3</ele>
        <time>2018-02-19T11:48:42Z</time>
      </trkpt>
      <trkpt lat="44.08948" lon="1.73118">
        <ele>144.6</ele>
        <time>2018-02-19T11:48:45Z</time>
      </trkpt>
      <trkpt lat="44.08951" lon="1.73119">
        <ele>143.6</ele>
        <time>2018-02-19T11:48:52Z</time>
      </trkpt>
      <trkpt lat="44.0895" lon="1.73122">
        <ele>142.7</ele>
        <time>2018-02-19T11:48:59Z</time>
      </trkpt>
      <trkpt lat="44.08945" lon="1.73115">
        <ele>140</ele>
        <time>2018-02-19T11:49:11Z</time>
      </trkpt>
      <trkpt lat="44.08945" lon="1.7311">
        <ele>139</ele>
        <time>2018-02-19T11:49:18Z</time>
      </trkpt>
      <trkpt lat="44.08952" lon="1.73107">
        <ele>126</ele>
        <time>2018-02-19T11:52:06Z</time>
      </trkpt>
      <trkpt lat="44.08954" lon="1.73096">
        <ele>125.7</ele>
        <time>2018-02-19T11:52:09Z</time>
      </trkpt>
      <trkpt lat="44.08958" lon="1.73085">
        <ele>125.3</ele>
        <time>2018-02-19T11:52:12Z</time>
      </trkpt>
      <trkpt lat="44.08963" lon="1.73073">
        <ele>125.3</ele>
        <time>2018-02-19T11:52:15Z</time>
      </trkpt>
      <trkpt lat="44.08967" lon="1.73064">
        <ele>125.1</ele>
        <time>2018-02-19T11:52:17Z</time>
      </trkpt>
      <trkpt lat="44.08973" lon="1.73052">
        <ele>124.7</ele>
        <time>2018-02-19T11:52:20Z</time>
      </trkpt>
      <trkpt lat="44.08978" lon="1.73045">
        <ele>124.5</ele>
        <time>2018-02-19T11:52:23Z</time>
      </trkpt>
      <trkpt lat="44.08982" lon="1.73035">
        <ele>124.6</ele>
        <time>2018-02-19T11:52:26Z</time>
      </trkpt>
      <trkpt lat="44.08986" lon="1.73024">
        <ele>124.7</ele>
        <time>2018-02-19T11:52:29Z</time>
      </trkpt>
      <trkpt lat="44.0899" lon="1.73015">
        <ele>125</ele>
        <time>2018-02-19T11:52:32Z</time>
      </trkpt>
      <trkpt lat="44.08997" lon="1.73008">
        <ele>125.6</ele>
        <time>2018-02-19T11:52:35Z</time>
      </trkpt>
      <trkpt lat="44.09006" lon="1.73005">
        <ele>126.4</ele>
        <time>2018-02-19T11:52:38Z</time>
      </trkpt>
      <trkpt lat="44.09014" lon="1.73005">
        <ele>128.2</ele>
        <time>2018-02-19T11:52:42Z</time>
      </trkpt>
      <trkpt lat="44.09018" lon="1.73016">
        <ele>129.4</ele>
        <time>2018-02-19T11:52:45Z</time>
      </trkpt>
      <trkpt lat="44.09019" lon="1.73029">
        <ele>130.2</ele>
        <time>2018-02-19T11:52:48Z</time>
      </trkpt>
      <trkpt lat="44.0902" lon="1.73041">
        <ele>131.1</ele>
        <time>2018-02-19T11:52:51Z</time>
      </trkpt>
      <trkpt lat="44.09021" lon="1.73051">
        <ele>131.9</ele>
        <time>2018-02-19T11:52:54Z</time>
      </trkpt>
      <trkpt lat="44.09023" lon="1.73062">
        <ele>132.7</ele>
        <time>2018-02-19T11:52:57Z</time>
      </trkpt>
      <trkpt lat="44.09026" lon="1.73072">
        <ele>133.3</ele>
        <time>2018-02-19T11:53:00Z</time>
      </trkpt>
      <trkpt lat="44.09029" lon="1.73082">
        <ele>134</ele>
        <time>2018-02-19T11:53:03Z</time>
      </trkpt>
      <trkpt lat="44.09031" lon="1.73093">
        <ele>134.6</ele>
        <time>2018-02-19T11:53:06Z</time>
      </trkpt>
      <trkpt lat="44.09028" lon="1.73103">
        <ele>135.5</ele>
        <time>2018-02-19T11:53:09Z</time>
      </trkpt>
      <trkpt lat="44.09024" lon="1.73111">
        <ele>136.2</ele>
        <time>2018-02-19T11:53:12Z</time>
      </trkpt>
      <trkpt lat="44.09018" lon="1.7312">
        <ele>137.1</ele>
        <time>2018-02-19T11:53:16Z</time>
      </trkpt>
      <trkpt lat="44.09012" lon="1.73127">
        <ele>138.8</ele>
        <time>2018-02-19T11:53:21Z</time>
      </trkpt>
      <trkpt lat="44.09006" lon="1.73135">
        <ele>140.4</ele>
        <time>2018-02-19T11:53:25Z</time>
      </trkpt>
      <trkpt lat="44.09003" lon="1.73144">
        <ele>141.7</ele>
        <time>2018-02-19T11:53:28Z</time>
      </trkpt>
      <trkpt lat="44.08999" lon="1.73153">
        <ele>142.7</ele>
        <time>2018-02-19T11:53:30Z</time>
      </trkpt>
      <trkpt lat="44.08995" lon="1.73165">
        <ele>143.7</ele>
        <time>2018-02-19T11:53:33Z</time>
      </trkpt>
      <trkpt lat="44.08989" lon="1.73176">
        <ele>144.6</ele>
        <time>2018-02-19T11:53:36Z</time>
      </trkpt>
      <trkpt lat="44.08985" lon="1.73186">
        <ele>145.5</ele>
        <time>2018-02-19T11:53:39Z</time>
      </trkpt>
      <trkpt lat="44.08982" lon="1.73196">
        <ele>146.4</ele>
        <time>2018-02-19T11:53:42Z</time>
      </trkpt>
      <trkpt lat="44.08976" lon="1.73207">
        <ele>147.1</ele>
        <time>2018-02-19T11:53:45Z</time>
      </trkpt>
      <trkpt lat="44.08972" lon="1.73217">
        <ele>148.2</ele>
        <time>2018-02-19T11:53:48Z</time>
      </trkpt>
      <trkpt lat="44.08969" lon="1.73227">
        <ele>149.3</ele>
        <time>2018-02-19T11:53:51Z</time>
      </trkpt>
      <trkpt lat="44.08965" lon="1.73236">
        <ele>150.4</ele>
        <time>2018-02-19T11:53:55Z</time>
      </trkpt>
      <trkpt lat="44.0896" lon="1.73248">
        <ele>151.3</ele>
        <time>2018-02-19T11:53:59Z</time>
      </trkpt>
      <trkpt lat="44.08956" lon="1.73258">
        <ele>152.1</ele>
        <time>2018-02-19T11:54:03Z</time>
      </trkpt>
      <trkpt lat="44.08952" lon="1.73268">
        <ele>152.9</ele>
        <time>2018-02-19T11:54:07Z</time>
      </trkpt>
      <trkpt lat="44.08946" lon="1.73276">
        <ele>153.8</ele>
        <time>2018-02-19T11:54:11Z</time>
      </trkpt>
      <trkpt lat="44.08942" lon="1.73286">
        <ele>154.8</ele>
        <time>2018-02-19T11:54:15Z</time>
      </trkpt>
      <trkpt lat="44.08938" lon="1.73297">
        <ele>155.5</ele>
        <time>2018-02-19T11:54:19Z</time>
      </trkpt>
      <trkpt lat="44.08933" lon="1.73306">
        <ele>155.8</ele>
        <time>2018-02-19T11:54:23Z</time>
      </trkpt>
      <trkpt lat="44.08926" lon="1.73316">
        <ele>155.8</ele>
        <time>2018-02-19T11:54:27Z</time>
      </trkpt>
      <trkpt lat="44.08921" lon="1.73323">
        <ele>155.5</ele>
        <time>2018-02-19T11:54:30Z</time>
      </trkpt>
      <trkpt lat="44.08916" lon="1.73333">
        <ele>155.9</ele>
        <time>2018-02-19T11:54:34Z</time>
      </trkpt>
      <trkpt lat="44.08912" lon="1.73342">
        <ele>155.9</ele>
        <time>2018-02-19T11:54:39Z</time>
      </trkpt>
      <trkpt lat="44.08908" lon="1.73351">
        <ele>156.7</ele>
        <time>2018-02-19T11:54:42Z</time>
      </trkpt>
      <trkpt lat="44.08903" lon="1.73358">
        <ele>157.1</ele>
        <time>2018-02-19T11:54:45Z</time>
      </trkpt>
      <trkpt lat="44.08897" lon="1.73368">
        <ele>157.9</ele>
        <time>2018-02-19T11:54:50Z</time>
      </trkpt>
      <trkpt lat="44.08893" lon="1.73379">
        <ele>158.6</ele>
        <time>2018-02-19T11:54:54Z</time>
      </trkpt>
      <trkpt lat="44.08891" lon="1.73389">
        <ele>159.7</ele>
        <time>2018-02-19T11:55:00Z</time>
      </trkpt>
      <trkpt lat="44.08886" lon="1.734">
        <ele>161.6</ele>
        <time>2018-02-19T11:55:05Z</time>
      </trkpt>
      <trkpt lat="44.08883" lon="1.73409">
        <ele>163</ele>
        <time>2018-02-19T11:55:09Z</time>
      </trkpt>
      <trkpt lat="44.08878" lon="1.73418">
        <ele>164.1</ele>
        <time>2018-02-19T11:55:13Z</time>
      </trkpt>
      <trkpt lat="44.08872" lon="1.73427">
        <ele>165.3</ele>
        <time>2018-02-19T11:55:17Z</time>
      </trkpt>
      <trkpt lat="44.08867" lon="1.73436">
        <ele>166.5</ele>
        <time>2018-02-19T11:55:21Z</time>
      </trkpt>
      <trkpt lat="44.08862" lon="1.73445">
        <ele>167.6</ele>
        <time>2018-02-19T11:55:25Z</time>
      </trkpt>
      <trkpt lat="44.08859" lon="1.73455">
        <ele>168.9</ele>
        <time>2018-02-19T11:55:30Z</time>
      </trkpt>
      <trkpt lat="44.08854" lon="1.73463">
        <ele>170.3</ele>
        <time>2018-02-19T11:55:34Z</time>
      </trkpt>
      <trkpt lat="44.0885" lon="1.73474">
        <ele>172.4</ele>
        <time>2018-02-19T11:55:40Z</time>
      </trkpt>
      <trkpt lat="44.08846" lon="1.73483">
        <ele>173.9</ele>
        <time>2018-02-19T11:55:44Z</time>
      </trkpt>
      <trkpt lat="44.08854" lon="1.73477">
        <ele>176</ele>
        <time>2018-02-19T11:55:50Z</time>
      </trkpt>
      <trkpt lat="44.08857" lon="1.73466">
        <ele>177.8</ele>
        <time>2018-02-19T11:55:55Z</time>
      </trkpt>
      <trkpt lat="44.08863" lon="1.7346">
        <ele>178.9</ele>
        <time>2018-02-19T11:56:00Z</time>
      </trkpt>
      <trkpt lat="44.0887" lon="1.73455">
        <ele>179.7</ele>
        <time>2018-02-19T11:56:03Z</time>
      </trkpt>
      <trkpt lat="44.08876" lon="1.73448">
        <ele>180.5</ele>
        <time>2018-02-19T11:56:08Z</time>
      </trkpt>
      <trkpt lat="44.08883" lon="1.73442">
        <ele>181.5</ele>
        <time>2018-02-19T11:56:12Z</time>
      </trkpt>
      <trkpt lat="44.0889" lon="1.73436">
        <ele>182.8</ele>
        <time>2018-02-19T11:56:16Z</time>
      </trkpt>
      <trkpt lat="44.08897" lon="1.73431">
        <ele>184</ele>
        <time>2018-02-19T11:56:20Z</time>
      </trkpt>
      <trkpt lat="44.08904" lon="1.73425">
        <ele>185.7</ele>
        <time>2018-02-19T11:56:24Z</time>
      </trkpt>
      <trkpt lat="44.08912" lon="1.7342">
        <ele>186.9</ele>
        <time>2018-02-19T11:56:27Z</time>
      </trkpt>
      <trkpt lat="44.08919" lon="1.73413">
        <ele>188.5</ele>
        <time>2018-02-19T11:56:32Z</time>
      </trkpt>
      <trkpt lat="44.08926" lon="1.73407">
        <ele>189.7</ele>
        <time>2018-02-19T11:56:36Z</time>
      </trkpt>
      <trkpt lat="44.08932" lon="1.73399">
        <ele>190.9</ele>
        <time>2018-02-19T11:56:39Z</time>
      </trkpt>
      <trkpt lat="44.08939" lon="1.73391">
        <ele>192.3</ele>
        <time>2018-02-19T11:56:44Z</time>
      </trkpt>
      <trkpt lat="44.08946" lon="1.73386">
        <ele>193.2</ele>
        <time>2018-02-19T11:56:48Z</time>
      </trkpt>
      <trkpt lat="44.08954" lon="1.73382">
        <ele>193.9</ele>
        <time>2018-02-19T11:56:52Z</time>
      </trkpt>
      <trkpt lat="44.0896" lon="1.73376">
        <ele>194.7</ele>
        <time>2018-02-19T11:56:55Z</time>
      </trkpt>
      <trkpt lat="44.08967" lon="1.73373">
        <ele>196.2</ele>
        <time>2018-02-19T11:56:58Z</time>
      </trkpt>
      <trkpt lat="44.08974" lon="1.73368">
        <ele>197.8</ele>
        <time>2018-02-19T11:57:03Z</time>
      </trkpt>
      <trkpt lat="44.08983" lon="1.73363">
        <ele>198.8</ele>
        <time>2018-02-19T11:57:06Z</time>
      </trkpt>
      <trkpt lat="44.08989" lon="1.73357">
        <ele>199.8</ele>
        <time>2018-02-19T11:57:09Z</time>
      </trkpt>
      <trkpt lat="44.08997" lon="1.73353">
        <ele>201.5</ele>
        <time>2018-02-19T11:57:14Z</time>
      </trkpt>
      <trkpt lat="44.09003" lon="1.73346">
        <ele>203.1</ele>
        <time>2018-02-19T11:57:18Z</time>
      </trkpt>
      <trkpt lat="44.09011" lon="1.7334">
        <ele>204.2</ele>
        <time>2018-02-19T11:57:22Z</time>
      </trkpt>
      <trkpt lat="44.09017" lon="1.73334">
        <ele>205.1</ele>
        <time>2018-02-19T11:57:26Z</time>
      </trkpt>
      <trkpt lat="44.09025" lon="1.73328">
        <ele>206.6</ele>
        <time>2018-02-19T11:57:30Z</time>
      </trkpt>
      <trkpt lat="44.09031" lon="1.73322">
        <ele>207.8</ele>
        <time>2018-02-19T11:57:35Z</time>
      </trkpt>
      <trkpt lat="44.09038" lon="1.73317">
        <ele>209.6</ele>
        <time>2018-02-19T11:57:39Z</time>
      </trkpt>
      <trkpt lat="44.09046" lon="1.73311">
        <ele>210.7</ele>
        <time>2018-02-19T11:57:44Z</time>
      </trkpt>
      <trkpt lat="44.09054" lon="1.73306">
        <ele>212.4</ele>
        <time>2018-02-19T11:57:48Z</time>
      </trkpt>
      <trkpt lat="44.09063" lon="1.73304">
        <ele>213.7</ele>
        <time>2018-02-19T11:57:52Z</time>
      </trkpt>
      <trkpt lat="44.09071" lon="1.73301">
        <ele>214.9</ele>
        <time>2018-02-19T11:57:56Z</time>
      </trkpt>
      <trkpt lat="44.09074" lon="1.73307">
        <ele>217.6</ele>
        <time>2018-02-19T11:58:03Z</time>
      </trkpt>
      <trkpt lat="44.09074" lon="1.73308">
        <ele>218.1</ele>
        <time>2018-02-19T11:58:10Z</time>
      </trkpt>
      <trkpt lat="44.09074" lon="1.73314">
        <ele>211</ele>
        <time>2018-02-19T11:58:41Z</time>
      </trkpt>
      <trkpt lat="44.09078" lon="1.73314">
        <ele>208.3</ele>
        <time>2018-02-19T11:59:03Z</time>
      </trkpt>
      <trkpt lat="44.09083" lon="1.73309">
        <ele>207.7</ele>
        <time>2018-02-19T11:59:10Z</time>
      </trkpt>
      <trkpt lat="44.0909" lon="1.7331">
        <ele>207.3</ele>
        <time>2018-02-19T11:59:15Z</time>
      </trkpt>
      <trkpt lat="44.09097" lon="1.7331">
        <ele>206.8</ele>
        <time>2018-02-19T11:59:20Z</time>
      </trkpt>
      <trkpt lat="44.09102" lon="1.73304">
        <ele>206.4</ele>
        <time>2018-02-19T11:59:27Z</time>
      </trkpt>
      <trkpt lat="44.0909" lon="1.73305">
        <ele>204.6</ele>
        <time>2018-02-19T12:00:09Z</time>
      </trkpt>
      <trkpt lat="44.09084" lon="1.73306">
        <ele>204</ele>
        <time>2018-02-19T12:00:16Z</time>
      </trkpt>
      <trkpt lat="44.09078" lon="1.73315">
        <ele>203.4</ele>
        <time>2018-02-19T12:00:21Z</time>
      </trkpt>
      <trkpt lat="44.09074" lon="1.73318">
        <ele>202.5</ele>
        <time>2018-02-19T12:00:28Z</time>
      </trkpt>
      <trkpt lat="44.09068" lon="1.73324">
        <ele>199.6</ele>
        <time>2018-02-19T12:00:44Z</time>
      </trkpt>
      <trkpt lat="44.09064" lon="1.73334">
        <ele>200</ele>
        <time>2018-02-19T12:00:50Z</time>
      </trkpt>
      <trkpt lat="44.09062" lon="1.73345">
        <ele>200.7</ele>
        <time>2018-02-19T12:00:55Z</time>
      </trkpt>
      <trkpt lat="44.09059" lon="1.73355">
        <ele>202</ele>
        <time>2018-02-19T12:01:01Z</time>
      </trkpt>
      <trkpt lat="44.09055" lon="1.73364">
        <ele>203.4</ele>
        <time>2018-02-19T12:01:05Z</time>
      </trkpt>
      <trkpt lat="44.09048" lon="1.73373">
        <ele>204.8</ele>
        <time>2018-02-19T12:01:09Z</time>
      </trkpt>
      <trkpt lat="44.09044" lon="1.73381">
        <ele>206.3</ele>
        <time>2018-02-19T12:01:13Z</time>
      </trkpt>
      <trkpt lat="44.09038" lon="1.73391">
        <ele>207.4</ele>
        <time>2018-02-19T12:01:16Z</time>
      </trkpt>
      <trkpt lat="44.09034" lon="1.73399">
        <ele>208.6</ele>
        <time>2018-02-19T12:01:19Z</time>
      </trkpt>
      <trkpt lat="44.09029" lon="1.73408">
        <ele>210.1</ele>
        <time>2018-02-19T12:01:23Z</time>
      </trkpt>
      <trkpt lat="44.09025" lon="1.73418">
        <ele>211.9</ele>
        <time>2018-02-19T12:01:27Z</time>
      </trkpt>
      <trkpt lat="44.09021" lon="1.73427">
        <ele>214.9</ele>
        <time>2018-02-19T12:01:33Z</time>
      </trkpt>
      <trkpt lat="44.09015" lon="1.73436">
        <ele>215.9</ele>
        <time>2018-02-19T12:01:37Z</time>
      </trkpt>
      <trkpt lat="44.09012" lon="1.73445">
        <ele>217.6</ele>
        <time>2018-02-19T12:01:41Z</time>
      </trkpt>
      <trkpt lat="44.09007" lon="1.73454">
        <ele>219.5</ele>
        <time>2018-02-19T12:01:45Z</time>
      </trkpt>
      <trkpt lat="44.09003" lon="1.73463">
        <ele>221.3</ele>
        <time>2018-02-19T12:01:49Z</time>
      </trkpt>
      <trkpt lat="44.08998" lon="1.73472">
        <ele>222.6</ele>
        <time>2018-02-19T12:01:54Z</time>
      </trkpt>
      <trkpt lat="44.08995" lon="1.73482">
        <ele>224.8</ele>
        <time>2018-02-19T12:02:01Z</time>
      </trkpt>
      <trkpt lat="44.08991" lon="1.73492">
        <ele>226.6</ele>
        <time>2018-02-19T12:02:07Z</time>
      </trkpt>
      <trkpt lat="44.08988" lon="1.73502">
        <ele>227.8</ele>
        <time>2018-02-19T12:02:12Z</time>
      </trkpt>
      <trkpt lat="44.08984" lon="1.73512">
        <ele>229</ele>
        <time>2018-02-19T12:02:17Z</time>
      </trkpt>
      <trkpt lat="44.0898" lon="1.73522">
        <ele>230.3</ele>
        <time>2018-02-19T12:02:22Z</time>
      </trkpt>
      <trkpt lat="44.08977" lon="1.73532">
        <ele>231.1</ele>
        <time>2018-02-19T12:02:26Z</time>
      </trkpt>
      <trkpt lat="44.08975" lon="1.73542">
        <ele>232.2</ele>
        <time>2018-02-19T12:02:31Z</time>
      </trkpt>
      <trkpt lat="44.0897" lon="1.73551">
        <ele>233.5</ele>
        <time>2018-02-19T12:02:37Z</time>
      </trkpt>
      <trkpt lat="44.08965" lon="1.73561">
        <ele>234.7</ele>
        <time>2018-02-19T12:02:42Z</time>
      </trkpt>
      <trkpt lat="44.08961" lon="1.7357">
        <ele>235.8</ele>
        <time>2018-02-19T12:02:46Z</time>
      </trkpt>
      <trkpt lat="44.08956" lon="1.73578">
        <ele>236.4</ele>
        <time>2018-02-19T12:02:49Z</time>
      </trkpt>
      <trkpt lat="44.08952" lon="1.73587">
        <ele>237.6</ele>
        <time>2018-02-19T12:02:53Z</time>
      </trkpt>
      <trkpt lat="44.08949" lon="1.73597">
        <ele>239</ele>
        <time>2018-02-19T12:02:58Z</time>
      </trkpt>
      <trkpt lat="44.08945" lon="1.73607">
        <ele>240</ele>
        <time>2018-02-19T12:03:02Z</time>
      </trkpt>
      <trkpt lat="44.0894" lon="1.73616">
        <ele>241.2</ele>
        <time>2018-02-19T12:03:07Z</time>
      </trkpt>
      <trkpt lat="44.08935" lon="1.73626">
        <ele>242.4</ele>
        <time>2018-02-19T12:03:12Z</time>
      </trkpt>
      <trkpt lat="44.08931" lon="1.73634">
        <ele>243.8</ele>
        <time>2018-02-19T12:03:17Z</time>
      </trkpt>
      <trkpt lat="44.08926" lon="1.73645">
        <ele>244.9</ele>
        <time>2018-02-19T12:03:21Z</time>
      </trkpt>
      <trkpt lat="44.08923" lon="1.73654">
        <ele>246</ele>
        <time>2018-02-19T12:03:25Z</time>
      </trkpt>
      <trkpt lat="44.08918" lon="1.73664">
        <ele>247.5</ele>
        <time>2018-02-19T12:03:30Z</time>
      </trkpt>
      <trkpt lat="44.08913" lon="1.73672">
        <ele>248.4</ele>
        <time>2018-02-19T12:03:34Z</time>
      </trkpt>
      <trkpt lat="44.08909" lon="1.73681">
        <ele>249.1</ele>
        <time>2018-02-19T12:03:38Z</time>
      </trkpt>
      <trkpt lat="44.08905" lon="1.73691">
        <ele>249.5</ele>
        <time>2018-02-19T12:03:42Z</time>
      </trkpt>
      <trkpt lat="44.08901" lon="1.73701">
        <ele>250.5</ele>
        <time>2018-02-19T12:03:46Z</time>
      </trkpt>
      <trkpt lat="44.08896" lon="1.73712">
        <ele>251.8</ele>
        <time>2018-02-19T12:03:51Z</time>
      </trkpt>
      <trkpt lat="44.08892" lon="1.7372">
        <ele>253.1</ele>
        <time>2018-02-19T12:03:55Z</time>
      </trkpt>
      <trkpt lat="44.08887" lon="1.73729">
        <ele>254.4</ele>
        <time>2018-02-19T12:04:00Z</time>
      </trkpt>
      <trkpt lat="44.08887" lon="1.73736">
        <ele>256.2</ele>
        <time>2018-02-19T12:04:07Z</time>
      </trkpt>
      <trkpt lat="44.08892" lon="1.73728">
        <ele>257.1</ele>
        <time>2018-02-19T12:04:11Z</time>
      </trkpt>
      <trkpt lat="44.08899" lon="1.73721">
        <ele>258.3</ele>
        <time>2018-02-19T12:04:16Z</time>
      </trkpt>
      <trkpt lat="44.08905" lon="1.73714">
        <ele>259.1</ele>
        <time>2018-02-19T12:04:20Z</time>
      </trkpt>
      <trkpt lat="44.08904" lon="1.73724">
        <ele>260.8</ele>
        <time>2018-02-19T12:04:27Z</time>
      </trkpt>
      <trkpt lat="44.08902" lon="1.73735">
        <ele>261.8</ele>
        <time>2018-02-19T12:04:32Z</time>
      </trkpt>
      <trkpt lat="44.08898" lon="1.73744">
        <ele>262.8</ele>
        <time>2018-02-19T12:04:36Z</time>
      </trkpt>
      <trkpt lat="44.08894" lon="1.73755">
        <ele>264</ele>
        <time>2018-02-19T12:04:41Z</time>
      </trkpt>
      <trkpt lat="44.08891" lon="1.73766">
        <ele>265</ele>
        <time>2018-02-19T12:04:46Z</time>
      </trkpt>
      <trkpt lat="44.08887" lon="1.73777">
        <ele>266.2</ele>
        <time>2018-02-19T12:04:51Z</time>
      </trkpt>
      <trkpt lat="44.08883" lon="1.73786">
        <ele>266.9</ele>
        <time>2018-02-19T12:04:56Z</time>
      </trkpt>
      <trkpt lat="44.08877" lon="1.73796">
        <ele>268</ele>
        <time>2018-02-19T12:05:01Z</time>
      </trkpt>
      <trkpt lat="44.08872" lon="1.73804">
        <ele>268.9</ele>
        <time>2018-02-19T12:05:06Z</time>
      </trkpt>
      <trkpt lat="44.08868" lon="1.73813">
        <ele>269.7</ele>
        <time>2018-02-19T12:05:10Z</time>
      </trkpt>
      <trkpt lat="44.08863" lon="1.7382">
        <ele>270</ele>
        <time>2018-02-19T12:05:14Z</time>
      </trkpt>
      <trkpt lat="44.08858" lon="1.7383">
        <ele>270.4</ele>
        <time>2018-02-19T12:05:19Z</time>
      </trkpt>
      <trkpt lat="44.08853" lon="1.73837">
        <ele>270.8</ele>
        <time>2018-02-19T12:05:23Z</time>
      </trkpt>
      <trkpt lat="44.08847" lon="1.73845">
        <ele>271.3</ele>
        <time>2018-02-19T12:05:27Z</time>
      </trkpt>
      <trkpt lat="44.08839" lon="1.73851">
        <ele>272</ele>
        <time>2018-02-19T12:05:32Z</time>
      </trkpt>
      <trkpt lat="44.08835" lon="1.73859">
        <ele>273</ele>
        <time>2018-02-19T12:05:37Z</time>
      </trkpt>
      <trkpt lat="44.08829" lon="1.73866">
        <ele>273.5</ele>
        <time>2018-02-19T12:05:41Z</time>
      </trkpt>
      <trkpt lat="44.08823" lon="1.73875">
        <ele>274</ele>
        <time>2018-02-19T12:05:46Z</time>
      </trkpt>
      <trkpt lat="44.08817" lon="1.73881">
        <ele>275.1</ele>
        <time>2018-02-19T12:05:51Z</time>
      </trkpt>
      <trkpt lat="44.08809" lon="1.73886">
        <ele>276.2</ele>
        <time>2018-02-19T12:05:54Z</time>
      </trkpt>
      <trkpt lat="44.08804" lon="1.73893">
        <ele>277.3</ele>
        <time>2018-02-19T12:05:58Z</time>
      </trkpt>
      <trkpt lat="44.08798" lon="1.73902">
        <ele>278.4</ele>
        <time>2018-02-19T12:06:03Z</time>
      </trkpt>
      <trkpt lat="44.08793" lon="1.7391">
        <ele>281.3</ele>
        <time>2018-02-19T12:06:09Z</time>
      </trkpt>
      <trkpt lat="44.08787" lon="1.73919">
        <ele>285</ele>
        <time>2018-02-19T12:06:15Z</time>
      </trkpt>
      <trkpt lat="44.08781" lon="1.73928">
        <ele>288.1</ele>
        <time>2018-02-19T12:06:21Z</time>
      </trkpt>
      <trkpt lat="44.08773" lon="1.73932">
        <ele>289</ele>
        <time>2018-02-19T12:06:24Z</time>
      </trkpt>
      <trkpt lat="44.08766" lon="1.73939">
        <ele>291.3</ele>
        <time>2018-02-19T12:06:29Z</time>
      </trkpt>
      <trkpt lat="44.08759" lon="1.73943">
        <ele>293.3</ele>
        <time>2018-02-19T12:06:33Z</time>
      </trkpt>
      <trkpt lat="44.08752" lon="1.73948">
        <ele>295.4</ele>
        <time>2018-02-19T12:06:37Z</time>
      </trkpt>
      <trkpt lat="44.08747" lon="1.73956">
        <ele>297.8</ele>
        <time>2018-02-19T12:06:42Z</time>
      </trkpt>
      <trkpt lat="44.08742" lon="1.73965">
        <ele>300.6</ele>
        <time>2018-02-19T12:06:47Z</time>
      </trkpt>
      <trkpt lat="44.08735" lon="1.73972">
        <ele>303.5</ele>
        <time>2018-02-19T12:06:52Z</time>
      </trkpt>
      <trkpt lat="44.08726" lon="1.73975">
        <ele>304.5</ele>
        <time>2018-02-19T12:06:55Z</time>
      </trkpt>
      <trkpt lat="44.08718" lon="1.73979">
        <ele>305.7</ele>
        <time>2018-02-19T12:06:58Z</time>
      </trkpt>
      <trkpt lat="44.08708" lon="1.7398">
        <ele>306.8</ele>
        <time>2018-02-19T12:07:02Z</time>
      </trkpt>
      <trkpt lat="44.08698" lon="1.7398">
        <ele>307.4</ele>
        <time>2018-02-19T12:07:05Z</time>
      </trkpt>
      <trkpt lat="44.0869" lon="1.7398">
        <ele>308.2</ele>
        <time>2018-02-19T12:07:08Z</time>
      </trkpt>
      <trkpt lat="44.08681" lon="1.73982">
        <ele>308.6</ele>
        <time>2018-02-19T12:07:11Z</time>
      </trkpt>
      <trkpt lat="44.08673" lon="1.73984">
        <ele>309.1</ele>
        <time>2018-02-19T12:07:15Z</time>
      </trkpt>
      <trkpt lat="44.08663" lon="1.73987">
        <ele>310.2</ele>
        <time>2018-02-19T12:07:19Z</time>
      </trkpt>
      <trkpt lat="44.08656" lon="1.73988">
        <ele>310.8</ele>
        <time>2018-02-19T12:07:22Z</time>
      </trkpt>
      <trkpt lat="44.08647" lon="1.7399">
        <ele>310.8</ele>
        <time>2018-02-19T12:07:25Z</time>
      </trkpt>
      <trkpt lat="44.08639" lon="1.7399">
        <ele>310.7</ele>
        <time>2018-02-19T12:07:27Z</time>
      </trkpt>
      <trkpt lat="44.08631" lon="1.73991">
        <ele>310.6</ele>
        <time>2018-02-19T12:07:30Z</time>
      </trkpt>
      <trkpt lat="44.08623" lon="1.73993">
        <ele>310.3</ele>
        <time>2018-02-19T12:07:33Z</time>
      </trkpt>
      <trkpt lat="44.08616" lon="1.73994">
        <ele>309.6</ele>
        <time>2018-02-19T12:07:36Z</time>
      </trkpt>
      <trkpt lat="44.08609" lon="1.73996">
        <ele>309.3</ele>
        <time>2018-02-19T12:07:39Z</time>
      </trkpt>
      <trkpt lat="44.08601" lon="1.73999">
        <ele>309</ele>
        <time>2018-02-19T12:07:43Z</time>
      </trkpt>
      <trkpt lat="44.086" lon="1.74">
        <ele>303.1</ele>
        <time>2018-02-19T12:09:25Z</time>
      </trkpt>
      <trkpt lat="44.08603" lon="1.74003">
        <ele>301.9</ele>
        <time>2018-02-19T12:09:32Z</time>
      </trkpt>
      <trkpt lat="44.08608" lon="1.7401">
        <ele>301.7</ele>
        <time>2018-02-19T12:09:39Z</time>
      </trkpt>
      <trkpt lat="44.08614" lon="1.74018">
        <ele>301.5</ele>
        <time>2018-02-19T12:09:46Z</time>
      </trkpt>
      <trkpt lat="44.08621" lon="1.74022">
        <ele>301.3</ele>
        <time>2018-02-19T12:09:51Z</time>
      </trkpt>
      <trkpt lat="44.08627" lon="1.74029">
        <ele>301.1</ele>
        <time>2018-02-19T12:09:56Z</time>
      </trkpt>
      <trkpt lat="44.08632" lon="1.74037">
        <ele>300.6</ele>
        <time>2018-02-19T12:10:00Z</time>
      </trkpt>
      <trkpt lat="44.08638" lon="1.74044">
        <ele>300.3</ele>
        <time>2018-02-19T12:10:05Z</time>
      </trkpt>
      <trkpt lat="44.08643" lon="1.74046">
        <ele>299.6</ele>
        <time>2018-02-19T12:10:12Z</time>
      </trkpt>
      <trkpt lat="44.08648" lon="1.74053">
        <ele>299.1</ele>
        <time>2018-02-19T12:10:19Z</time>
      </trkpt>
      <trkpt lat="44.08654" lon="1.74058">
        <ele>299.2</ele>
        <time>2018-02-19T12:10:25Z</time>
      </trkpt>
      <trkpt lat="44.08661" lon="1.74062">
        <ele>298.9</ele>
        <time>2018-02-19T12:10:30Z</time>
      </trkpt>
      <trkpt lat="44.08667" lon="1.74068">
        <ele>298.8</ele>
        <time>2018-02-19T12:10:35Z</time>
      </trkpt>
      <trkpt lat="44.08676" lon="1.74071">
        <ele>298.6</ele>
        <time>2018-02-19T12:10:40Z</time>
      </trkpt>
      <trkpt lat="44.08682" lon="1.74076">
        <ele>298.4</ele>
        <time>2018-02-19T12:10:44Z</time>
      </trkpt>
      <trkpt lat="44.08688" lon="1.74084">
        <ele>298.1</ele>
        <time>2018-02-19T12:10:48Z</time>
      </trkpt>
      <trkpt lat="44.08692" lon="1.74092">
        <ele>297.9</ele>
        <time>2018-02-19T12:10:51Z</time>
      </trkpt>
      <trkpt lat="44.087" lon="1.74096">
        <ele>297.5</ele>
        <time>2018-02-19T12:10:56Z</time>
      </trkpt>
      <trkpt lat="44.08706" lon="1.74104">
        <ele>297.6</ele>
        <time>2018-02-19T12:11:03Z</time>
      </trkpt>
      <trkpt lat="44.08713" lon="1.74109">
        <ele>297.3</ele>
        <time>2018-02-19T12:11:08Z</time>
      </trkpt>
      <trkpt lat="44.08722" lon="1.74109">
        <ele>296.7</ele>
        <time>2018-02-19T12:11:12Z</time>
      </trkpt>
      <trkpt lat="44.08729" lon="1.7411">
        <ele>297.4</ele>
        <time>2018-02-19T12:11:18Z</time>
      </trkpt>
      <trkpt lat="44.08735" lon="1.74118">
        <ele>297.2</ele>
        <time>2018-02-19T12:11:21Z</time>
      </trkpt>
      <trkpt lat="44.08741" lon="1.74129">
        <ele>297</ele>
        <time>2018-02-19T12:11:24Z</time>
      </trkpt>
      <trkpt lat="44.08749" lon="1.7413">
        <ele>297.1</ele>
        <time>2018-02-19T12:11:28Z</time>
      </trkpt>
      <trkpt lat="44.08757" lon="1.74132">
        <ele>298</ele>
        <time>2018-02-19T12:11:32Z</time>
      </trkpt>
      <trkpt lat="44.0876" lon="1.74142">
        <ele>297.2</ele>
        <time>2018-02-19T12:11:35Z</time>
      </trkpt>
      <trkpt lat="44.08766" lon="1.74152">
        <ele>297.2</ele>
        <time>2018-02-19T12:11:38Z</time>
      </trkpt>
      <trkpt lat="44.0877" lon="1.74162">
        <ele>297.7</ele>
        <time>2018-02-19T12:11:42Z</time>
      </trkpt>
      <trkpt lat="44.08777" lon="1.74169">
        <ele>297.5</ele>
        <time>2018-02-19T12:11:46Z</time>
      </trkpt>
      <trkpt lat="44.08781" lon="1.74179">
        <ele>298.3</ele>
        <time>2018-02-19T12:11:49Z</time>
      </trkpt>
      <trkpt lat="44.08785" lon="1.7419">
        <ele>298.5</ele>
        <time>2018-02-19T12:11:52Z</time>
      </trkpt>
      <trkpt lat="44.08789" lon="1.74201">
        <ele>298.4</ele>
        <time>2018-02-19T12:11:55Z</time>
      </trkpt>
      <trkpt lat="44.08792" lon="1.74212">
        <ele>297.9</ele>
        <time>2018-02-19T12:11:58Z</time>
      </trkpt>
      <trkpt lat="44.08799" lon="1.74221">
        <ele>297.9</ele>
        <time>2018-02-19T12:12:03Z</time>
      </trkpt>
      <trkpt lat="44.08804" lon="1.7423">
        <ele>298.1</ele>
        <time>2018-02-19T12:12:06Z</time>
      </trkpt>
      <trkpt lat="44.08809" lon="1.74239">
        <ele>298.4</ele>
        <time>2018-02-19T12:12:10Z</time>
      </trkpt>
      <trkpt lat="44.08817" lon="1.7424">
        <ele>298.9</ele>
        <time>2018-02-19T12:12:14Z</time>
      </trkpt>
      <trkpt lat="44.08823" lon="1.74247">
        <ele>300.8</ele>
        <time>2018-02-19T12:12:20Z</time>
      </trkpt>
      <trkpt lat="44.08827" lon="1.74255">
        <ele>302.2</ele>
        <time>2018-02-19T12:12:23Z</time>
      </trkpt>
      <trkpt lat="44.08832" lon="1.74262">
        <ele>303.4</ele>
        <time>2018-02-19T12:12:28Z</time>
      </trkpt>
      <trkpt lat="44.08837" lon="1.74271">
        <ele>304.7</ele>
        <time>2018-02-19T12:12:35Z</time>
      </trkpt>
      <trkpt lat="44.08839" lon="1.74272">
        <ele>306</ele>
        <time>2018-02-19T12:12:42Z</time>
      </trkpt>
      <trkpt lat="44.08844" lon="1.7428">
        <ele>304.6</ele>
        <time>2018-02-19T12:13:14Z</time>
      </trkpt>
      <trkpt lat="44.08851" lon="1.74287">
        <ele>304.2</ele>
        <time>2018-02-19T12:13:20Z</time>
      </trkpt>
      <trkpt lat="44.08858" lon="1.74294">
        <ele>304.4</ele>
        <time>2018-02-19T12:13:25Z</time>
      </trkpt>
      <trkpt lat="44.08864" lon="1.74302">
        <ele>305.2</ele>
        <time>2018-02-19T12:13:29Z</time>
      </trkpt>
      <trkpt lat="44.08869" lon="1.74309">
        <ele>305.6</ele>
        <time>2018-02-19T12:13:32Z</time>
      </trkpt>
      <trkpt lat="44.08876" lon="1.74316">
        <ele>307.1</ele>
        <time>2018-02-19T12:13:36Z</time>
      </trkpt>
      <trkpt lat="44.08881" lon="1.74323">
        <ele>308.6</ele>
        <time>2018-02-19T12:13:40Z</time>
      </trkpt>
      <trkpt lat="44.08891" lon="1.74326">
        <ele>310.5</ele>
        <time>2018-02-19T12:13:44Z</time>
      </trkpt>
      <trkpt lat="44.08896" lon="1.74334">
        <ele>311.4</ele>
        <time>2018-02-19T12:13:47Z</time>
      </trkpt>
      <trkpt lat="44.08896" lon="1.74345">
        <ele>312.9</ele>
        <time>2018-02-19T12:13:51Z</time>
      </trkpt>
      <trkpt lat="44.08897" lon="1.74357">
        <ele>313.6</ele>
        <time>2018-02-19T12:13:55Z</time>
      </trkpt>
      <trkpt lat="44.08896" lon="1.74369">
        <ele>314.4</ele>
        <time>2018-02-19T12:14:00Z</time>
      </trkpt>
      <trkpt lat="44.08894" lon="1.74381">
        <ele>314.7</ele>
        <time>2018-02-19T12:14:04Z</time>
      </trkpt>
      <trkpt lat="44.08892" lon="1.74393">
        <ele>314.4</ele>
        <time>2018-02-19T12:14:08Z</time>
      </trkpt>
      <trkpt lat="44.08892" lon="1.74403">
        <ele>313.9</ele>
        <time>2018-02-19T12:14:12Z</time>
      </trkpt>
      <trkpt lat="44.0889" lon="1.74414">
        <ele>313.3</ele>
        <time>2018-02-19T12:14:15Z</time>
      </trkpt>
      <trkpt lat="44.08888" lon="1.74424">
        <ele>312.7</ele>
        <time>2018-02-19T12:14:18Z</time>
      </trkpt>
      <trkpt lat="44.08884" lon="1.74433">
        <ele>311.2</ele>
        <time>2018-02-19T12:14:23Z</time>
      </trkpt>
      <trkpt lat="44.08884" lon="1.74445">
        <ele>309.1</ele>
        <time>2018-02-19T12:14:29Z</time>
      </trkpt>
      <trkpt lat="44.08887" lon="1.74455">
        <ele>308.4</ele>
        <time>2018-02-19T12:14:34Z</time>
      </trkpt>
      <trkpt lat="44.08891" lon="1.74464">
        <ele>308.7</ele>
        <time>2018-02-19T12:14:39Z</time>
      </trkpt>
      <trkpt lat="44.08894" lon="1.74475">
        <ele>308.7</ele>
        <time>2018-02-19T12:14:43Z</time>
      </trkpt>
      <trkpt lat="44.08897" lon="1.74485">
        <ele>308.6</ele>
        <time>2018-02-19T12:14:46Z</time>
      </trkpt>
      <trkpt lat="44.08897" lon="1.74495">
        <ele>308.8</ele>
        <time>2018-02-19T12:14:49Z</time>
      </trkpt>
      <trkpt lat="44.08899" lon="1.74508">
        <ele>308.8</ele>
        <time>2018-02-19T12:14:53Z</time>
      </trkpt>
      <trkpt lat="44.08901" lon="1.74519">
        <ele>308.4</ele>
        <time>2018-02-19T12:14:57Z</time>
      </trkpt>
      <trkpt lat="44.08901" lon="1.74531">
        <ele>308</ele>
        <time>2018-02-19T12:15:02Z</time>
      </trkpt>
      <trkpt lat="44.08903" lon="1.74541">
        <ele>307.7</ele>
        <time>2018-02-19T12:15:07Z</time>
      </trkpt>
      <trkpt lat="44.08905" lon="1.74552">
        <ele>308.2</ele>
        <time>2018-02-19T12:15:11Z</time>
      </trkpt>
      <trkpt lat="44.08905" lon="1.74563">
        <ele>308.2</ele>
        <time>2018-02-19T12:15:15Z</time>
      </trkpt>
      <trkpt lat="44.08906" lon="1.74575">
        <ele>308.1</ele>
        <time>2018-02-19T12:15:19Z</time>
      </trkpt>
      <trkpt lat="44.08908" lon="1.74588">
        <ele>308.5</ele>
        <time>2018-02-19T12:15:23Z</time>
      </trkpt>
      <trkpt lat="44.08907" lon="1.74601">
        <ele>308.3</ele>
        <time>2018-02-19T12:15:27Z</time>
      </trkpt>
      <trkpt lat="44.08907" lon="1.74614">
        <ele>308.4</ele>
        <time>2018-02-19T12:15:30Z</time>
      </trkpt>
      <trkpt lat="44.08907" lon="1.74626">
        <ele>309.2</ele>
        <time>2018-02-19T12:15:34Z</time>
      </trkpt>
      <trkpt lat="44.08908" lon="1.74638">
        <ele>310</ele>
        <time>2018-02-19T12:15:38Z</time>
      </trkpt>
      <trkpt lat="44.0891" lon="1.74651">
        <ele>310.4</ele>
        <time>2018-02-19T12:15:42Z</time>
      </trkpt>
      <trkpt lat="44.08911" lon="1.74663">
        <ele>310.4</ele>
        <time>2018-02-19T12:15:45Z</time>
      </trkpt>
      <trkpt lat="44.08911" lon="1.74677">
        <ele>311.1</ele>
        <time>2018-02-19T12:15:48Z</time>
      </trkpt>
      <trkpt lat="44.08909" lon="1.74687">
        <ele>311.5</ele>
        <time>2018-02-19T12:15:51Z</time>
      </trkpt>
      <trkpt lat="44.08908" lon="1.74697">
        <ele>311.8</ele>
        <time>2018-02-19T12:15:55Z</time>
      </trkpt>
      <trkpt lat="44.08902" lon="1.74705">
        <ele>311.1</ele>
        <time>2018-02-19T12:15:58Z</time>
      </trkpt>
      <trkpt lat="44.08896" lon="1.74713">
        <ele>310.3</ele>
        <time>2018-02-19T12:16:01Z</time>
      </trkpt>
      <trkpt lat="44.08891" lon="1.74722">
        <ele>309.6</ele>
        <time>2018-02-19T12:16:05Z</time>
      </trkpt>
      <trkpt lat="44.08889" lon="1.74732">
        <ele>308.8</ele>
        <time>2018-02-19T12:16:08Z</time>
      </trkpt>
      <trkpt lat="44.08891" lon="1.74742">
        <ele>308.7</ele>
        <time>2018-02-19T12:16:12Z</time>
      </trkpt>
      <trkpt lat="44.08892" lon="1.74755">
        <ele>308.4</ele>
        <time>2018-02-19T12:16:16Z</time>
      </trkpt>
      <trkpt lat="44.08891" lon="1.74768">
        <ele>307.5</ele>
        <time>2018-02-19T12:16:20Z</time>
      </trkpt>
      <trkpt lat="44.08892" lon="1.74779">
        <ele>307</ele>
        <time>2018-02-19T12:16:23Z</time>
      </trkpt>
      <trkpt lat="44.08892" lon="1.74791">
        <ele>306.8</ele>
        <time>2018-02-19T12:16:26Z</time>
      </trkpt>
      <trkpt lat="44.08893" lon="1.74802">
        <ele>306.4</ele>
        <time>2018-02-19T12:16:29Z</time>
      </trkpt>
      <trkpt lat="44.08891" lon="1.74813">
        <ele>305.9</ele>
        <time>2018-02-19T12:16:32Z</time>
      </trkpt>
      <trkpt lat="44.08888" lon="1.74824">
        <ele>305.3</ele>
        <time>2018-02-19T12:16:34Z</time>
      </trkpt>
      <trkpt lat="44.08884" lon="1.74834">
        <ele>304.4</ele>
        <time>2018-02-19T12:16:36Z</time>
      </trkpt>
      <trkpt lat="44.08881" lon="1.74845">
        <ele>303.7</ele>
        <time>2018-02-19T12:16:38Z</time>
      </trkpt>
      <trkpt lat="44.0888" lon="1.74856">
        <ele>302.7</ele>
        <time>2018-02-19T12:16:41Z</time>
      </trkpt>
      <trkpt lat="44.08879" lon="1.74868">
        <ele>301.4</ele>
        <time>2018-02-19T12:16:47Z</time>
      </trkpt>
      <trkpt lat="44.08877" lon="1.74878">
        <ele>300.7</ele>
        <time>2018-02-19T12:16:50Z</time>
      </trkpt>
      <trkpt lat="44.08876" lon="1.74889">
        <ele>299.5</ele>
        <time>2018-02-19T12:16:54Z</time>
      </trkpt>
      <trkpt lat="44.08876" lon="1.74903">
        <ele>298.6</ele>
        <time>2018-02-19T12:16:58Z</time>
      </trkpt>
      <trkpt lat="44.08878" lon="1.74912">
        <ele>297.7</ele>
        <time>2018-02-19T12:17:02Z</time>
      </trkpt>
      <trkpt lat="44.08878" lon="1.74926">
        <ele>297.5</ele>
        <time>2018-02-19T12:17:06Z</time>
      </trkpt>
      <trkpt lat="44.08879" lon="1.74936">
        <ele>297.4</ele>
        <time>2018-02-19T12:17:09Z</time>
      </trkpt>
      <trkpt lat="44.0888" lon="1.74948">
        <ele>297</ele>
        <time>2018-02-19T12:17:14Z</time>
      </trkpt>
      <trkpt lat="44.08879" lon="1.74958">
        <ele>296.9</ele>
        <time>2018-02-19T12:17:19Z</time>
      </trkpt>
      <trkpt lat="44.0888" lon="1.74969">
        <ele>296.9</ele>
        <time>2018-02-19T12:17:23Z</time>
      </trkpt>
      <trkpt lat="44.0888" lon="1.7498">
        <ele>297.4</ele>
        <time>2018-02-19T12:17:27Z</time>
      </trkpt>
      <trkpt lat="44.08879" lon="1.74992">
        <ele>298.3</ele>
        <time>2018-02-19T12:17:33Z</time>
      </trkpt>
      <trkpt lat="44.08878" lon="1.75005">
        <ele>299</ele>
        <time>2018-02-19T12:17:37Z</time>
      </trkpt>
      <trkpt lat="44.08877" lon="1.75016">
        <ele>299.7</ele>
        <time>2018-02-19T12:17:40Z</time>
      </trkpt>
      <trkpt lat="44.08876" lon="1.75027">
        <ele>299.9</ele>
        <time>2018-02-19T12:17:43Z</time>
      </trkpt>
      <trkpt lat="44.08874" lon="1.75037">
        <ele>300.4</ele>
        <time>2018-02-19T12:17:46Z</time>
      </trkpt>
      <trkpt lat="44.08871" lon="1.7505">
        <ele>299.9</ele>
        <time>2018-02-19T12:17:51Z</time>
      </trkpt>
      <trkpt lat="44.08867" lon="1.7506">
        <ele>300</ele>
        <time>2018-02-19T12:17:54Z</time>
      </trkpt>
      <trkpt lat="44.08865" lon="1.75072">
        <ele>300.6</ele>
        <time>2018-02-19T12:17:58Z</time>
      </trkpt>
      <trkpt lat="44.08864" lon="1.75082">
        <ele>301.2</ele>
        <time>2018-02-19T12:18:01Z</time>
      </trkpt>
      <trkpt lat="44.08863" lon="1.75092">
        <ele>301.3</ele>
        <time>2018-02-19T12:18:04Z</time>
      </trkpt>
      <trkpt lat="44.08861" lon="1.75103">
        <ele>301.2</ele>
        <time>2018-02-19T12:18:08Z</time>
      </trkpt>
      <trkpt lat="44.08861" lon="1.75114">
        <ele>301.6</ele>
        <time>2018-02-19T12:18:13Z</time>
      </trkpt>
      <trkpt lat="44.08858" lon="1.75123">
        <ele>301.6</ele>
        <time>2018-02-19T12:18:20Z</time>
      </trkpt>
      <trkpt lat="44.08858" lon="1.75132">
        <ele>302.2</ele>
        <time>2018-02-19T12:18:27Z</time>
      </trkpt>
      <trkpt lat="44.08858" lon="1.75142">
        <ele>302.2</ele>
        <time>2018-02-19T12:18:33Z</time>
      </trkpt>
      <trkpt lat="44.08857" lon="1.75153">
        <ele>302.2</ele>
        <time>2018-02-19T12:18:37Z</time>
      </trkpt>
      <trkpt lat="44.08857" lon="1.75165">
        <ele>302.2</ele>
        <time>2018-02-19T12:18:42Z</time>
      </trkpt>
      <trkpt lat="44.08855" lon="1.75175">
        <ele>302.3</ele>
        <time>2018-02-19T12:18:47Z</time>
      </trkpt>
      <trkpt lat="44.08854" lon="1.75185">
        <ele>302.1</ele>
        <time>2018-02-19T12:18:51Z</time>
      </trkpt>
      <trkpt lat="44.08852" lon="1.75197">
        <ele>302.3</ele>
        <time>2018-02-19T12:18:56Z</time>
      </trkpt>
      <trkpt lat="44.08849" lon="1.75209">
        <ele>302.4</ele>
        <time>2018-02-19T12:19:00Z</time>
      </trkpt>
      <trkpt lat="44.08847" lon="1.7522">
        <ele>302.1</ele>
        <time>2018-02-19T12:19:03Z</time>
      </trkpt>
      <trkpt lat="44.08845" lon="1.7523">
        <ele>301.9</ele>
        <time>2018-02-19T12:19:06Z</time>
      </trkpt>
      <trkpt lat="44.08843" lon="1.75241">
        <ele>302.1</ele>
        <time>2018-02-19T12:19:09Z</time>
      </trkpt>
      <trkpt lat="44.0884" lon="1.75252">
        <ele>302.5</ele>
        <time>2018-02-19T12:19:12Z</time>
      </trkpt>
      <trkpt lat="44.08842" lon="1.75261">
        <ele>303.1</ele>
        <time>2018-02-19T12:19:16Z</time>
      </trkpt>
      <trkpt lat="44.08839" lon="1.75272">
        <ele>303.5</ele>
        <time>2018-02-19T12:19:21Z</time>
      </trkpt>
      <trkpt lat="44.08838" lon="1.75284">
        <ele>303.9</ele>
        <time>2018-02-19T12:19:26Z</time>
      </trkpt>
      <trkpt lat="44.08837" lon="1.75294">
        <ele>304.2</ele>
        <time>2018-02-19T12:19:31Z</time>
      </trkpt>
      <trkpt lat="44.08834" lon="1.75306">
        <ele>303.6</ele>
        <time>2018-02-19T12:19:35Z</time>
      </trkpt>
      <trkpt lat="44.08831" lon="1.75319">
        <ele>302.6</ele>
        <time>2018-02-19T12:19:39Z</time>
      </trkpt>
      <trkpt lat="44.08832" lon="1.7533">
        <ele>302.6</ele>
        <time>2018-02-19T12:19:43Z</time>
      </trkpt>
      <trkpt lat="44.08828" lon="1.75342">
        <ele>302.6</ele>
        <time>2018-02-19T12:19:47Z</time>
      </trkpt>
      <trkpt lat="44.08827" lon="1.75353">
        <ele>302.3</ele>
        <time>2018-02-19T12:19:51Z</time>
      </trkpt>
      <trkpt lat="44.08824" lon="1.75364">
        <ele>302.4</ele>
        <time>2018-02-19T12:19:55Z</time>
      </trkpt>
      <trkpt lat="44.0882" lon="1.75373">
        <ele>302.8</ele>
        <time>2018-02-19T12:19:58Z</time>
      </trkpt>
      <trkpt lat="44.08817" lon="1.75383">
        <ele>303.3</ele>
        <time>2018-02-19T12:20:01Z</time>
      </trkpt>
      <trkpt lat="44.08815" lon="1.75396">
        <ele>304</ele>
        <time>2018-02-19T12:20:05Z</time>
      </trkpt>
      <trkpt lat="44.08811" lon="1.75408">
        <ele>303.3</ele>
        <time>2018-02-19T12:20:09Z</time>
      </trkpt>
      <trkpt lat="44.08809" lon="1.75419">
        <ele>303.3</ele>
        <time>2018-02-19T12:20:13Z</time>
      </trkpt>
      <trkpt lat="44.08806" lon="1.75431">
        <ele>303.4</ele>
        <time>2018-02-19T12:20:18Z</time>
      </trkpt>
      <trkpt lat="44.08806" lon="1.75443">
        <ele>303</ele>
        <time>2018-02-19T12:20:23Z</time>
      </trkpt>
      <trkpt lat="44.08805" lon="1.75455">
        <ele>302.4</ele>
        <time>2018-02-19T12:20:27Z</time>
      </trkpt>
      <trkpt lat="44.08802" lon="1.75468">
        <ele>301.9</ele>
        <time>2018-02-19T12:20:30Z</time>
      </trkpt>
      <trkpt lat="44.08801" lon="1.75482">
        <ele>301.4</ele>
        <time>2018-02-19T12:20:34Z</time>
      </trkpt>
      <trkpt lat="44.08799" lon="1.75495">
        <ele>300.5</ele>
        <time>2018-02-19T12:20:37Z</time>
      </trkpt>
      <trkpt lat="44.08794" lon="1.75503">
        <ele>299.9</ele>
        <time>2018-02-19T12:20:40Z</time>
      </trkpt>
      <trkpt lat="44.08791" lon="1.75513">
        <ele>298.7</ele>
        <time>2018-02-19T12:20:44Z</time>
      </trkpt>
      <trkpt lat="44.08789" lon="1.75526">
        <ele>297.6</ele>
        <time>2018-02-19T12:20:49Z</time>
      </trkpt>
      <trkpt lat="44.08786" lon="1.75536">
        <ele>297</ele>
        <time>2018-02-19T12:20:53Z</time>
      </trkpt>
      <trkpt lat="44.08783" lon="1.75547">
        <ele>297</ele>
        <time>2018-02-19T12:20:59Z</time>
      </trkpt>
      <trkpt lat="44.08779" lon="1.75556">
        <ele>297.2</ele>
        <time>2018-02-19T12:21:04Z</time>
      </trkpt>
      <trkpt lat="44.08776" lon="1.75565">
        <ele>296.8</ele>
        <time>2018-02-19T12:21:09Z</time>
      </trkpt>
      <trkpt lat="44.08775" lon="1.75572">
        <ele>296.6</ele>
        <time>2018-02-19T12:21:16Z</time>
      </trkpt>
      <trkpt lat="44.08775" lon="1.75583">
        <ele>296.1</ele>
        <time>2018-02-19T12:21:22Z</time>
      </trkpt>
      <trkpt lat="44.08775" lon="1.75594">
        <ele>295.6</ele>
        <time>2018-02-19T12:21:28Z</time>
      </trkpt>
      <trkpt lat="44.08772" lon="1.75606">
        <ele>295.5</ele>
        <time>2018-02-19T12:21:34Z</time>
      </trkpt>
      <trkpt lat="44.0877" lon="1.7562">
        <ele>295.3</ele>
        <time>2018-02-19T12:21:39Z</time>
      </trkpt>
      <trkpt lat="44.08767" lon="1.7563">
        <ele>295.3</ele>
        <time>2018-02-19T12:21:42Z</time>
      </trkpt>
      <trkpt lat="44.08763" lon="1.7564">
        <ele>295</ele>
        <time>2018-02-19T12:21:47Z</time>
      </trkpt>
      <trkpt lat="44.08756" lon="1.7565">
        <ele>294.5</ele>
        <time>2018-02-19T12:21:53Z</time>
      </trkpt>
      <trkpt lat="44.08753" lon="1.7566">
        <ele>293.7</ele>
        <time>2018-02-19T12:21:58Z</time>
      </trkpt>
      <trkpt lat="44.08747" lon="1.75668">
        <ele>292.9</ele>
        <time>2018-02-19T12:22:01Z</time>
      </trkpt>
      <trkpt lat="44.08741" lon="1.75675">
        <ele>291.9</ele>
        <time>2018-02-19T12:22:04Z</time>
      </trkpt>
      <trkpt lat="44.08736" lon="1.75685">
        <ele>289.9</ele>
        <time>2018-02-19T12:22:08Z</time>
      </trkpt>
      <trkpt lat="44.08729" lon="1.7569">
        <ele>288.8</ele>
        <time>2018-02-19T12:22:13Z</time>
      </trkpt>
      <trkpt lat="44.08728" lon="1.757">
        <ele>290.7</ele>
        <time>2018-02-19T12:22:31Z</time>
      </trkpt>
      <trkpt lat="44.08729" lon="1.75705">
        <ele>291.3</ele>
        <time>2018-02-19T12:22:38Z</time>
      </trkpt>
      <trkpt lat="44.08733" lon="1.75715">
        <ele>293.9</ele>
        <time>2018-02-19T12:22:59Z</time>
      </trkpt>
      <trkpt lat="44.08737" lon="1.75719">
        <ele>295.2</ele>
        <time>2018-02-19T12:23:06Z</time>
      </trkpt>
      <trkpt lat="44.08741" lon="1.75724">
        <ele>296.3</ele>
        <time>2018-02-19T12:23:13Z</time>
      </trkpt>
      <trkpt lat="44.08744" lon="1.75729">
        <ele>297.6</ele>
        <time>2018-02-19T12:23:20Z</time>
      </trkpt>
      <trkpt lat="44.08748" lon="1.75739">
        <ele>298.8</ele>
        <time>2018-02-19T12:23:25Z</time>
      </trkpt>
      <trkpt lat="44.08752" lon="1.75747">
        <ele>300.3</ele>
        <time>2018-02-19T12:23:30Z</time>
      </trkpt>
      <trkpt lat="44.08756" lon="1.75757">
        <ele>301.7</ele>
        <time>2018-02-19T12:23:35Z</time>
      </trkpt>
      <trkpt lat="44.08761" lon="1.75764">
        <ele>303.1</ele>
        <time>2018-02-19T12:23:40Z</time>
      </trkpt>
      <trkpt lat="44.08766" lon="1.75772">
        <ele>304.3</ele>
        <time>2018-02-19T12:23:44Z</time>
      </trkpt>
      <trkpt lat="44.08771" lon="1.75782">
        <ele>306.7</ele>
        <time>2018-02-19T12:23:48Z</time>
      </trkpt>
      <trkpt lat="44.08777" lon="1.75789">
        <ele>308.9</ele>
        <time>2018-02-19T12:23:52Z</time>
      </trkpt>
      <trkpt lat="44.08783" lon="1.75795">
        <ele>311.2</ele>
        <time>2018-02-19T12:23:56Z</time>
      </trkpt>
      <trkpt lat="44.08787" lon="1.75807">
        <ele>312</ele>
        <time>2018-02-19T12:23:59Z</time>
      </trkpt>
      <trkpt lat="44.08794" lon="1.75818">
        <ele>312.4</ele>
        <time>2018-02-19T12:24:02Z</time>
      </trkpt>
      <trkpt lat="44.08798" lon="1.7583">
        <ele>312.5</ele>
        <time>2018-02-19T12:24:05Z</time>
      </trkpt>
      <trkpt lat="44.08802" lon="1.75841">
        <ele>313.4</ele>
        <time>2018-02-19T12:24:09Z</time>
      </trkpt>
      <trkpt lat="44.08807" lon="1.75855">
        <ele>313.7</ele>
        <time>2018-02-19T12:24:12Z</time>
      </trkpt>
      <trkpt lat="44.0881" lon="1.75865">
        <ele>314.1</ele>
        <time>2018-02-19T12:24:15Z</time>
      </trkpt>
      <trkpt lat="44.08814" lon="1.75874">
        <ele>314.5</ele>
        <time>2018-02-19T12:24:18Z</time>
      </trkpt>
      <trkpt lat="44.08819" lon="1.75885">
        <ele>315.1</ele>
        <time>2018-02-19T12:24:21Z</time>
      </trkpt>
      <trkpt lat="44.08824" lon="1.75896">
        <ele>315.2</ele>
        <time>2018-02-19T12:24:24Z</time>
      </trkpt>
      <trkpt lat="44.08828" lon="1.75907">
        <ele>315.3</ele>
        <time>2018-02-19T12:24:27Z</time>
      </trkpt>
      <trkpt lat="44.08831" lon="1.75916">
        <ele>315.8</ele>
        <time>2018-02-19T12:24:32Z</time>
      </trkpt>
      <trkpt lat="44.08837" lon="1.75928">
        <ele>316.5</ele>
        <time>2018-02-19T12:24:36Z</time>
      </trkpt>
      <trkpt lat="44.08839" lon="1.7594">
        <ele>316.9</ele>
        <time>2018-02-19T12:24:39Z</time>
      </trkpt>
      <trkpt lat="44.08843" lon="1.75951">
        <ele>317.2</ele>
        <time>2018-02-19T12:24:41Z</time>
      </trkpt>
      <trkpt lat="44.08847" lon="1.75965">
        <ele>317.9</ele>
        <time>2018-02-19T12:24:44Z</time>
      </trkpt>
      <trkpt lat="44.0885" lon="1.75975">
        <ele>318.7</ele>
        <time>2018-02-19T12:24:47Z</time>
      </trkpt>
      <trkpt lat="44.08857" lon="1.75984">
        <ele>319.7</ele>
        <time>2018-02-19T12:24:51Z</time>
      </trkpt>
      <trkpt lat="44.08863" lon="1.75992">
        <ele>320.4</ele>
        <time>2018-02-19T12:24:55Z</time>
      </trkpt>
      <trkpt lat="44.08867" lon="1.76002">
        <ele>320.7</ele>
        <time>2018-02-19T12:24:58Z</time>
      </trkpt>
      <trkpt lat="44.08871" lon="1.76012">
        <ele>321.7</ele>
        <time>2018-02-19T12:25:01Z</time>
      </trkpt>
      <trkpt lat="44.08875" lon="1.76021">
        <ele>322.4</ele>
        <time>2018-02-19T12:25:04Z</time>
      </trkpt>
      <trkpt lat="44.0888" lon="1.76031">
        <ele>323.4</ele>
        <time>2018-02-19T12:25:07Z</time>
      </trkpt>
      <trkpt lat="44.08884" lon="1.76041">
        <ele>324.6</ele>
        <time>2018-02-19T12:25:10Z</time>
      </trkpt>
      <trkpt lat="44.08889" lon="1.76054">
        <ele>325.9</ele>
        <time>2018-02-19T12:25:13Z</time>
      </trkpt>
      <trkpt lat="44.08891" lon="1.76064">
        <ele>327.4</ele>
        <time>2018-02-19T12:25:15Z</time>
      </trkpt>
      <trkpt lat="44.08893" lon="1.76074">
        <ele>328</ele>
        <time>2018-02-19T12:25:17Z</time>
      </trkpt>
      <trkpt lat="44.08897" lon="1.76084">
        <ele>328.2</ele>
        <time>2018-02-19T12:25:19Z</time>
      </trkpt>
      <trkpt lat="44.08901" lon="1.76094">
        <ele>327.8</ele>
        <time>2018-02-19T12:25:21Z</time>
      </trkpt>
      <trkpt lat="44.08906" lon="1.76102">
        <ele>326.7</ele>
        <time>2018-02-19T12:25:23Z</time>
      </trkpt>
      <trkpt lat="44.08911" lon="1.76112">
        <ele>325</ele>
        <time>2018-02-19T12:25:26Z</time>
      </trkpt>
      <trkpt lat="44.08915" lon="1.76125">
        <ele>324</ele>
        <time>2018-02-19T12:25:29Z</time>
      </trkpt>
      <trkpt lat="44.08918" lon="1.76135">
        <ele>323.2</ele>
        <time>2018-02-19T12:25:31Z</time>
      </trkpt>
      <trkpt lat="44.08921" lon="1.76145">
        <ele>322.2</ele>
        <time>2018-02-19T12:25:33Z</time>
      </trkpt>
      <trkpt lat="44.08925" lon="1.76157">
        <ele>321.2</ele>
        <time>2018-02-19T12:25:35Z</time>
      </trkpt>
      <trkpt lat="44.08928" lon="1.76169">
        <ele>320.7</ele>
        <time>2018-02-19T12:25:37Z</time>
      </trkpt>
      <trkpt lat="44.08934" lon="1.76179">
        <ele>320.4</ele>
        <time>2018-02-19T12:25:40Z</time>
      </trkpt>
      <trkpt lat="44.08939" lon="1.76188">
        <ele>320.2</ele>
        <time>2018-02-19T12:25:43Z</time>
      </trkpt>
      <trkpt lat="44.08945" lon="1.762">
        <ele>320</ele>
        <time>2018-02-19T12:25:46Z</time>
      </trkpt>
      <trkpt lat="44.08951" lon="1.7621">
        <ele>319.1</ele>
        <time>2018-02-19T12:25:49Z</time>
      </trkpt>
      <trkpt lat="44.08957" lon="1.7622">
        <ele>319.2</ele>
        <time>2018-02-19T12:25:52Z</time>
      </trkpt>
      <trkpt lat="44.0896" lon="1.76229">
        <ele>318.9</ele>
        <time>2018-02-19T12:25:54Z</time>
      </trkpt>
      <trkpt lat="44.08962" lon="1.76241">
        <ele>318.2</ele>
        <time>2018-02-19T12:25:57Z</time>
      </trkpt>
      <trkpt lat="44.08968" lon="1.76248">
        <ele>317.5</ele>
        <time>2018-02-19T12:26:01Z</time>
      </trkpt>
      <trkpt lat="44.08973" lon="1.76256">
        <ele>316.3</ele>
        <time>2018-02-19T12:26:04Z</time>
      </trkpt>
      <trkpt lat="44.08979" lon="1.76265">
        <ele>315.4</ele>
        <time>2018-02-19T12:26:07Z</time>
      </trkpt>
      <trkpt lat="44.08984" lon="1.76272">
        <ele>314.8</ele>
        <time>2018-02-19T12:26:11Z</time>
      </trkpt>
      <trkpt lat="44.0899" lon="1.76282">
        <ele>315.9</ele>
        <time>2018-02-19T12:26:15Z</time>
      </trkpt>
      <trkpt lat="44.08994" lon="1.76289">
        <ele>315.4</ele>
        <time>2018-02-19T12:26:18Z</time>
      </trkpt>
      <trkpt lat="44.09001" lon="1.76298">
        <ele>315.1</ele>
        <time>2018-02-19T12:26:23Z</time>
      </trkpt>
      <trkpt lat="44.09006" lon="1.76307">
        <ele>314.7</ele>
        <time>2018-02-19T12:26:27Z</time>
      </trkpt>
      <trkpt lat="44.0901" lon="1.76315">
        <ele>314.5</ele>
        <time>2018-02-19T12:26:31Z</time>
      </trkpt>
      <trkpt lat="44.09015" lon="1.76325">
        <ele>314.3</ele>
        <time>2018-02-19T12:26:36Z</time>
      </trkpt>
      <trkpt lat="44.09019" lon="1.76336">
        <ele>314.1</ele>
        <time>2018-02-19T12:26:40Z</time>
      </trkpt>
      <trkpt lat="44.09022" lon="1.76346">
        <ele>313.6</ele>
        <time>2018-02-19T12:26:43Z</time>
      </trkpt>
      <trkpt lat="44.09029" lon="1.76355">
        <ele>313</ele>
        <time>2018-02-19T12:26:46Z</time>
      </trkpt>
      <trkpt lat="44.09036" lon="1.76366">
        <ele>312</ele>
        <time>2018-02-19T12:26:49Z</time>
      </trkpt>
      <trkpt lat="44.09042" lon="1.76375">
        <ele>311.2</ele>
        <time>2018-02-19T12:26:53Z</time>
      </trkpt>
      <trkpt lat="44.0905" lon="1.76382">
        <ele>310.6</ele>
        <time>2018-02-19T12:26:57Z</time>
      </trkpt>
      <trkpt lat="44.09059" lon="1.76386">
        <ele>310.1</ele>
        <time>2018-02-19T12:27:01Z</time>
      </trkpt>
      <trkpt lat="44.09068" lon="1.76387">
        <ele>309.9</ele>
        <time>2018-02-19T12:27:04Z</time>
      </trkpt>
      <trkpt lat="44.09076" lon="1.76388">
        <ele>309.8</ele>
        <time>2018-02-19T12:27:07Z</time>
      </trkpt>
      <trkpt lat="44.09084" lon="1.76393">
        <ele>310.3</ele>
        <time>2018-02-19T12:27:11Z</time>
      </trkpt>
      <trkpt lat="44.09093" lon="1.76395">
        <ele>310.2</ele>
        <time>2018-02-19T12:27:13Z</time>
      </trkpt>
      <trkpt lat="44.09103" lon="1.76395">
        <ele>311</ele>
        <time>2018-02-19T12:27:17Z</time>
      </trkpt>
      <trkpt lat="44.09111" lon="1.764">
        <ele>311.6</ele>
        <time>2018-02-19T12:27:20Z</time>
      </trkpt>
      <trkpt lat="44.09118" lon="1.76401">
        <ele>312</ele>
        <time>2018-02-19T12:27:23Z</time>
      </trkpt>
      <trkpt lat="44.09126" lon="1.76404">
        <ele>312.3</ele>
        <time>2018-02-19T12:27:26Z</time>
      </trkpt>
      <trkpt lat="44.09135" lon="1.76406">
        <ele>312.8</ele>
        <time>2018-02-19T12:27:30Z</time>
      </trkpt>
      <trkpt lat="44.09142" lon="1.76409">
        <ele>313.1</ele>
        <time>2018-02-19T12:27:33Z</time>
      </trkpt>
      <trkpt lat="44.09149" lon="1.76412">
        <ele>313.2</ele>
        <time>2018-02-19T12:27:36Z</time>
      </trkpt>
      <trkpt lat="44.09157" lon="1.76415">
        <ele>313.1</ele>
        <time>2018-02-19T12:27:40Z</time>
      </trkpt>
      <trkpt lat="44.09164" lon="1.76418">
        <ele>313</ele>
        <time>2018-02-19T12:27:43Z</time>
      </trkpt>
      <trkpt lat="44.09173" lon="1.76421">
        <ele>312.9</ele>
        <time>2018-02-19T12:27:46Z</time>
      </trkpt>
      <trkpt lat="44.09185" lon="1.76426">
        <ele>313.1</ele>
        <time>2018-02-19T12:27:48Z</time>
      </trkpt>
      <trkpt lat="44.09194" lon="1.7643">
        <ele>313.5</ele>
        <time>2018-02-19T12:27:50Z</time>
      </trkpt>
      <trkpt lat="44.09201" lon="1.76436">
        <ele>314.3</ele>
        <time>2018-02-19T12:27:53Z</time>
      </trkpt>
      <trkpt lat="44.09208" lon="1.76442">
        <ele>315.1</ele>
        <time>2018-02-19T12:27:57Z</time>
      </trkpt>
      <trkpt lat="44.09216" lon="1.76448">
        <ele>316.2</ele>
        <time>2018-02-19T12:28:00Z</time>
      </trkpt>
      <trkpt lat="44.09224" lon="1.76449">
        <ele>316.6</ele>
        <time>2018-02-19T12:28:03Z</time>
      </trkpt>
      <trkpt lat="44.09233" lon="1.76452">
        <ele>317.9</ele>
        <time>2018-02-19T12:28:07Z</time>
      </trkpt>
      <trkpt lat="44.0924" lon="1.76457">
        <ele>319.6</ele>
        <time>2018-02-19T12:28:10Z</time>
      </trkpt>
      <trkpt lat="44.09246" lon="1.76465">
        <ele>322.3</ele>
        <time>2018-02-19T12:28:14Z</time>
      </trkpt>
      <trkpt lat="44.0925" lon="1.76472">
        <ele>324.1</ele>
        <time>2018-02-19T12:28:17Z</time>
      </trkpt>
      <trkpt lat="44.09262" lon="1.76482">
        <ele>324.8</ele>
        <time>2018-02-19T12:28:19Z</time>
      </trkpt>
      <trkpt lat="44.09269" lon="1.76492">
        <ele>326.1</ele>
        <time>2018-02-19T12:28:22Z</time>
      </trkpt>
      <trkpt lat="44.09277" lon="1.76497">
        <ele>326.4</ele>
        <time>2018-02-19T12:28:24Z</time>
      </trkpt>
      <trkpt lat="44.09285" lon="1.76505">
        <ele>327.1</ele>
        <time>2018-02-19T12:28:27Z</time>
      </trkpt>
      <trkpt lat="44.09291" lon="1.76512">
        <ele>327.9</ele>
        <time>2018-02-19T12:28:30Z</time>
      </trkpt>
      <trkpt lat="44.09297" lon="1.76521">
        <ele>329.1</ele>
        <time>2018-02-19T12:28:33Z</time>
      </trkpt>
      <trkpt lat="44.09307" lon="1.76528">
        <ele>330.2</ele>
        <time>2018-02-19T12:28:36Z</time>
      </trkpt>
      <trkpt lat="44.09312" lon="1.76535">
        <ele>331</ele>
        <time>2018-02-19T12:28:39Z</time>
      </trkpt>
      <trkpt lat="44.09317" lon="1.76544">
        <ele>332</ele>
        <time>2018-02-19T12:28:42Z</time>
      </trkpt>
      <trkpt lat="44.09323" lon="1.76552">
        <ele>333.1</ele>
        <time>2018-02-19T12:28:45Z</time>
      </trkpt>
      <trkpt lat="44.09331" lon="1.76558">
        <ele>333.3</ele>
        <time>2018-02-19T12:28:48Z</time>
      </trkpt>
      <trkpt lat="44.09338" lon="1.76567">
        <ele>333.3</ele>
        <time>2018-02-19T12:28:51Z</time>
      </trkpt>
      <trkpt lat="44.09344" lon="1.76578">
        <ele>333.5</ele>
        <time>2018-02-19T12:28:54Z</time>
      </trkpt>
      <trkpt lat="44.0935" lon="1.76584">
        <ele>333.8</ele>
        <time>2018-02-19T12:28:57Z</time>
      </trkpt>
      <trkpt lat="44.09357" lon="1.76591">
        <ele>334.4</ele>
        <time>2018-02-19T12:29:01Z</time>
      </trkpt>
      <trkpt lat="44.09364" lon="1.76601">
        <ele>335.5</ele>
        <time>2018-02-19T12:29:05Z</time>
      </trkpt>
      <trkpt lat="44.0937" lon="1.76609">
        <ele>336.4</ele>
        <time>2018-02-19T12:29:08Z</time>
      </trkpt>
      <trkpt lat="44.09375" lon="1.76618">
        <ele>337.1</ele>
        <time>2018-02-19T12:29:11Z</time>
      </trkpt>
      <trkpt lat="44.09378" lon="1.76627">
        <ele>337.7</ele>
        <time>2018-02-19T12:29:14Z</time>
      </trkpt>
      <trkpt lat="44.09384" lon="1.76637">
        <ele>338.5</ele>
        <time>2018-02-19T12:29:17Z</time>
      </trkpt>
      <trkpt lat="44.09389" lon="1.76644">
        <ele>339.7</ele>
        <time>2018-02-19T12:29:20Z</time>
      </trkpt>
      <trkpt lat="44.09396" lon="1.76655">
        <ele>340.5</ele>
        <time>2018-02-19T12:29:22Z</time>
      </trkpt>
      <trkpt lat="44.094" lon="1.76664">
        <ele>341.2</ele>
        <time>2018-02-19T12:29:24Z</time>
      </trkpt>
      <trkpt lat="44.09409" lon="1.76675">
        <ele>341.7</ele>
        <time>2018-02-19T12:29:26Z</time>
      </trkpt>
      <trkpt lat="44.0942" lon="1.76684">
        <ele>341.8</ele>
        <time>2018-02-19T12:29:28Z</time>
      </trkpt>
      <trkpt lat="44.09427" lon="1.76688">
        <ele>341.7</ele>
        <time>2018-02-19T12:29:29Z</time>
      </trkpt>
      <trkpt lat="44.09434" lon="1.76697">
        <ele>342.1</ele>
        <time>2018-02-19T12:29:31Z</time>
      </trkpt>
      <trkpt lat="44.0944" lon="1.76706">
        <ele>342.3</ele>
        <time>2018-02-19T12:29:34Z</time>
      </trkpt>
      <trkpt lat="44.09445" lon="1.76716">
        <ele>343.3</ele>
        <time>2018-02-19T12:29:37Z</time>
      </trkpt>
      <trkpt lat="44.09447" lon="1.76726">
        <ele>343.6</ele>
        <time>2018-02-19T12:29:40Z</time>
      </trkpt>
      <trkpt lat="44.09451" lon="1.76735">
        <ele>343.8</ele>
        <time>2018-02-19T12:29:43Z</time>
      </trkpt>
      <trkpt lat="44.09453" lon="1.76741">
        <ele>341.6</ele>
        <time>2018-02-19T12:29:50Z</time>
      </trkpt>
      <trkpt lat="44.09462" lon="1.76742">
        <ele>336.2</ele>
        <time>2018-02-19T12:30:27Z</time>
      </trkpt>
      <trkpt lat="44.09467" lon="1.76763">
        <ele>333.5</ele>
        <time>2018-02-19T12:29:58Z</time>
      </trkpt>
      <trkpt lat="44.09473" lon="1.7677">
        <ele>333.5</ele>
        <time>2018-02-19T12:31:06Z</time>
      </trkpt>
      <trkpt lat="44.0948" lon="1.76779">
        <ele>333.4</ele>
        <time>2018-02-19T12:31:09Z</time>
      </trkpt>
      <trkpt lat="44.09484" lon="1.76789">
        <ele>333.3</ele>
        <time>2018-02-19T12:31:12Z</time>
      </trkpt>
      <trkpt lat="44.09488" lon="1.768">
        <ele>333.4</ele>
        <time>2018-02-19T12:31:15Z</time>
      </trkpt>
      <trkpt lat="44.09491" lon="1.76812">
        <ele>333.2</ele>
        <time>2018-02-19T12:31:18Z</time>
      </trkpt>
      <trkpt lat="44.09495" lon="1.76823">
        <ele>333.3</ele>
        <time>2018-02-19T12:31:21Z</time>
      </trkpt>
      <trkpt lat="44.09499" lon="1.76833">
        <ele>333.6</ele>
        <time>2018-02-19T12:31:25Z</time>
      </trkpt>
      <trkpt lat="44.09503" lon="1.76843">
        <ele>333.9</ele>
        <time>2018-02-19T12:31:28Z</time>
      </trkpt>
      <trkpt lat="44.09505" lon="1.76854">
        <ele>333.7</ele>
        <time>2018-02-19T12:31:30Z</time>
      </trkpt>
      <trkpt lat="44.09506" lon="1.76864">
        <ele>334.1</ele>
        <time>2018-02-19T12:31:33Z</time>
      </trkpt>
      <trkpt lat="44.09512" lon="1.76874">
        <ele>334.6</ele>
        <time>2018-02-19T12:31:36Z</time>
      </trkpt>
      <trkpt lat="44.09518" lon="1.76883">
        <ele>334.3</ele>
        <time>2018-02-19T12:31:39Z</time>
      </trkpt>
      <trkpt lat="44.09524" lon="1.76893">
        <ele>333.9</ele>
        <time>2018-02-19T12:31:42Z</time>
      </trkpt>
      <trkpt lat="44.09527" lon="1.76903">
        <ele>333.3</ele>
        <time>2018-02-19T12:31:45Z</time>
      </trkpt>
      <trkpt lat="44.09532" lon="1.76913">
        <ele>334</ele>
        <time>2018-02-19T12:31:49Z</time>
      </trkpt>
      <trkpt lat="44.09538" lon="1.76922">
        <ele>334.4</ele>
        <time>2018-02-19T12:31:52Z</time>
      </trkpt>
      <trkpt lat="44.09541" lon="1.76933">
        <ele>333.3</ele>
        <time>2018-02-19T12:31:55Z</time>
      </trkpt>
      <trkpt lat="44.09547" lon="1.76944">
        <ele>334.3</ele>
        <time>2018-02-19T12:31:58Z</time>
      </trkpt>
      <trkpt lat="44.09551" lon="1.76953">
        <ele>334.8</ele>
        <time>2018-02-19T12:32:00Z</time>
      </trkpt>
      <trkpt lat="44.09556" lon="1.76961">
        <ele>335.5</ele>
        <time>2018-02-19T12:32:02Z</time>
      </trkpt>
      <trkpt lat="44.09561" lon="1.76969">
        <ele>336.8</ele>
        <time>2018-02-19T12:32:04Z</time>
      </trkpt>
      <trkpt lat="44.09565" lon="1.76978">
        <ele>337.6</ele>
        <time>2018-02-19T12:32:06Z</time>
      </trkpt>
      <trkpt lat="44.0957" lon="1.76987">
        <ele>338.4</ele>
        <time>2018-02-19T12:32:08Z</time>
      </trkpt>
      <trkpt lat="44.09575" lon="1.76998">
        <ele>339.8</ele>
        <time>2018-02-19T12:32:11Z</time>
      </trkpt>
      <trkpt lat="44.09581" lon="1.77006">
        <ele>341.3</ele>
        <time>2018-02-19T12:32:14Z</time>
      </trkpt>
      <trkpt lat="44.09587" lon="1.77017">
        <ele>342.8</ele>
        <time>2018-02-19T12:32:17Z</time>
      </trkpt>
      <trkpt lat="44.09592" lon="1.77025">
        <ele>343.6</ele>
        <time>2018-02-19T12:32:19Z</time>
      </trkpt>
      <trkpt lat="44.09597" lon="1.77038">
        <ele>345.3</ele>
        <time>2018-02-19T12:32:22Z</time>
      </trkpt>
      <trkpt lat="44.09599" lon="1.77048">
        <ele>345.4</ele>
        <time>2018-02-19T12:32:24Z</time>
      </trkpt>
      <trkpt lat="44.09605" lon="1.77056">
        <ele>345.8</ele>
        <time>2018-02-19T12:32:26Z</time>
      </trkpt>
      <trkpt lat="44.09614" lon="1.77061">
        <ele>345.5</ele>
        <time>2018-02-19T12:32:29Z</time>
      </trkpt>
      <trkpt lat="44.09623" lon="1.77068">
        <ele>345.6</ele>
        <time>2018-02-19T12:32:32Z</time>
      </trkpt>
      <trkpt lat="44.09629" lon="1.77073">
        <ele>345.7</ele>
        <time>2018-02-19T12:32:34Z</time>
      </trkpt>
      <trkpt lat="44.09637" lon="1.77078">
        <ele>346</ele>
        <time>2018-02-19T12:32:36Z</time>
      </trkpt>
      <trkpt lat="44.09646" lon="1.77081">
        <ele>347.4</ele>
        <time>2018-02-19T12:32:38Z</time>
      </trkpt>
      <trkpt lat="44.09654" lon="1.77087">
        <ele>347.1</ele>
        <time>2018-02-19T12:32:41Z</time>
      </trkpt>
      <trkpt lat="44.09662" lon="1.77092">
        <ele>349.3</ele>
        <time>2018-02-19T12:32:45Z</time>
      </trkpt>
      <trkpt lat="44.0967" lon="1.77099">
        <ele>350.4</ele>
        <time>2018-02-19T12:32:48Z</time>
      </trkpt>
      <trkpt lat="44.09677" lon="1.77102">
        <ele>350.4</ele>
        <time>2018-02-19T12:32:50Z</time>
      </trkpt>
      <trkpt lat="44.09683" lon="1.77111">
        <ele>351.1</ele>
        <time>2018-02-19T12:32:54Z</time>
      </trkpt>
      <trkpt lat="44.09693" lon="1.77111">
        <ele>351.2</ele>
        <time>2018-02-19T12:32:56Z</time>
      </trkpt>
      <trkpt lat="44.09701" lon="1.7711">
        <ele>351.4</ele>
        <time>2018-02-19T12:32:58Z</time>
      </trkpt>
      <trkpt lat="44.09709" lon="1.77108">
        <ele>351.3</ele>
        <time>2018-02-19T12:33:00Z</time>
      </trkpt>
      <trkpt lat="44.09718" lon="1.77103">
        <ele>351.7</ele>
        <time>2018-02-19T12:33:02Z</time>
      </trkpt>
      <trkpt lat="44.09726" lon="1.77107">
        <ele>351.8</ele>
        <time>2018-02-19T12:33:04Z</time>
      </trkpt>
      <trkpt lat="44.09732" lon="1.77119">
        <ele>350.7</ele>
        <time>2018-02-19T12:33:06Z</time>
      </trkpt>
      <trkpt lat="44.0974" lon="1.77129">
        <ele>349.4</ele>
        <time>2018-02-19T12:33:08Z</time>
      </trkpt>
      <trkpt lat="44.09747" lon="1.77136">
        <ele>348.8</ele>
        <time>2018-02-19T12:33:10Z</time>
      </trkpt>
      <trkpt lat="44.09753" lon="1.77144">
        <ele>347.2</ele>
        <time>2018-02-19T12:33:13Z</time>
      </trkpt>
      <trkpt lat="44.09753" lon="1.77154">
        <ele>344.3</ele>
        <time>2018-02-19T12:33:16Z</time>
      </trkpt>
      <trkpt lat="44.0975" lon="1.77164">
        <ele>342.9</ele>
        <time>2018-02-19T12:33:19Z</time>
      </trkpt>
      <trkpt lat="44.09749" lon="1.77165">
        <ele>341.3</ele>
        <time>2018-02-19T12:33:26Z</time>
      </trkpt>
      <trkpt lat="44.09749" lon="1.77174">
        <ele>333.2</ele>
        <time>2018-02-19T12:33:55Z</time>
      </trkpt>
      <trkpt lat="44.09745" lon="1.77185">
        <ele>332.4</ele>
        <time>2018-02-19T12:34:00Z</time>
      </trkpt>
      <trkpt lat="44.09749" lon="1.77202">
        <ele>331.6</ele>
        <time>2018-02-19T12:34:04Z</time>
      </trkpt>
      <trkpt lat="44.09754" lon="1.77215">
        <ele>331.5</ele>
        <time>2018-02-19T12:34:07Z</time>
      </trkpt>
      <trkpt lat="44.0976" lon="1.77228">
        <ele>331.5</ele>
        <time>2018-02-19T12:34:10Z</time>
      </trkpt>
      <trkpt lat="44.09765" lon="1.77241">
        <ele>331.6</ele>
        <time>2018-02-19T12:34:13Z</time>
      </trkpt>
      <trkpt lat="44.0977" lon="1.77249">
        <ele>331.8</ele>
        <time>2018-02-19T12:34:15Z</time>
      </trkpt>
      <trkpt lat="44.09774" lon="1.77258">
        <ele>331.8</ele>
        <time>2018-02-19T12:34:17Z</time>
      </trkpt>
      <trkpt lat="44.09779" lon="1.77267">
        <ele>332.1</ele>
        <time>2018-02-19T12:34:19Z</time>
      </trkpt>
      <trkpt lat="44.09783" lon="1.77277">
        <ele>332.4</ele>
        <time>2018-02-19T12:34:21Z</time>
      </trkpt>
      <trkpt lat="44.09788" lon="1.77286">
        <ele>332.7</ele>
        <time>2018-02-19T12:34:23Z</time>
      </trkpt>
      <trkpt lat="44.09794" lon="1.77294">
        <ele>332.8</ele>
        <time>2018-02-19T12:34:25Z</time>
      </trkpt>
      <trkpt lat="44.098" lon="1.77303">
        <ele>333.3</ele>
        <time>2018-02-19T12:34:28Z</time>
      </trkpt>
      <trkpt lat="44.09807" lon="1.77309">
        <ele>333.9</ele>
        <time>2018-02-19T12:34:30Z</time>
      </trkpt>
      <trkpt lat="44.09814" lon="1.77316">
        <ele>334.7</ele>
        <time>2018-02-19T12:34:33Z</time>
      </trkpt>
      <trkpt lat="44.09821" lon="1.77322">
        <ele>335.4</ele>
        <time>2018-02-19T12:34:36Z</time>
      </trkpt>
      <trkpt lat="44.09827" lon="1.77329">
        <ele>336.5</ele>
        <time>2018-02-19T12:34:39Z</time>
      </trkpt>
      <trkpt lat="44.09834" lon="1.77337">
        <ele>337.7</ele>
        <time>2018-02-19T12:34:42Z</time>
      </trkpt>
      <trkpt lat="44.09841" lon="1.77347">
        <ele>339</ele>
        <time>2018-02-19T12:34:45Z</time>
      </trkpt>
      <trkpt lat="44.0985" lon="1.77353">
        <ele>339.5</ele>
        <time>2018-02-19T12:34:47Z</time>
      </trkpt>
      <trkpt lat="44.09857" lon="1.7736">
        <ele>340.1</ele>
        <time>2018-02-19T12:34:49Z</time>
      </trkpt>
      <trkpt lat="44.09865" lon="1.77367">
        <ele>340.5</ele>
        <time>2018-02-19T12:34:51Z</time>
      </trkpt>
      <trkpt lat="44.09871" lon="1.77374">
        <ele>341.2</ele>
        <time>2018-02-19T12:34:53Z</time>
      </trkpt>
      <trkpt lat="44.09879" lon="1.77384">
        <ele>341.6</ele>
        <time>2018-02-19T12:34:55Z</time>
      </trkpt>
      <trkpt lat="44.09886" lon="1.77395">
        <ele>342.4</ele>
        <time>2018-02-19T12:34:57Z</time>
      </trkpt>
      <trkpt lat="44.09895" lon="1.77407">
        <ele>342.9</ele>
        <time>2018-02-19T12:34:59Z</time>
      </trkpt>
      <trkpt lat="44.09901" lon="1.77416">
        <ele>342.8</ele>
        <time>2018-02-19T12:35:00Z</time>
      </trkpt>
      <trkpt lat="44.09908" lon="1.77432">
        <ele>342.6</ele>
        <time>2018-02-19T12:35:02Z</time>
      </trkpt>
      <trkpt lat="44.09912" lon="1.77446">
        <ele>342.3</ele>
        <time>2018-02-19T12:35:04Z</time>
      </trkpt>
      <trkpt lat="44.09916" lon="1.77458">
        <ele>342.1</ele>
        <time>2018-02-19T12:35:06Z</time>
      </trkpt>
      <trkpt lat="44.0992" lon="1.77471">
        <ele>341.8</ele>
        <time>2018-02-19T12:35:08Z</time>
      </trkpt>
      <trkpt lat="44.09924" lon="1.77481">
        <ele>341.6</ele>
        <time>2018-02-19T12:35:10Z</time>
      </trkpt>
      <trkpt lat="44.09927" lon="1.77493">
        <ele>341.4</ele>
        <time>2018-02-19T12:35:12Z</time>
      </trkpt>
      <trkpt lat="44.0993" lon="1.77505">
        <ele>341.4</ele>
        <time>2018-02-19T12:35:14Z</time>
      </trkpt>
      <trkpt lat="44.09933" lon="1.77516">
        <ele>341.5</ele>
        <time>2018-02-19T12:35:16Z</time>
      </trkpt>
      <trkpt lat="44.09936" lon="1.77529">
        <ele>340.9</ele>
        <time>2018-02-19T12:35:18Z</time>
      </trkpt>
      <trkpt lat="44.0994" lon="1.77542">
        <ele>340.5</ele>
        <time>2018-02-19T12:35:20Z</time>
      </trkpt>
      <trkpt lat="44.09943" lon="1.77554">
        <ele>339.9</ele>
        <time>2018-02-19T12:35:22Z</time>
      </trkpt>
      <trkpt lat="44.09946" lon="1.77569">
        <ele>339.4</ele>
        <time>2018-02-19T12:35:24Z</time>
      </trkpt>
      <trkpt lat="44.09949" lon="1.77582">
        <ele>338.6</ele>
        <time>2018-02-19T12:35:26Z</time>
      </trkpt>
      <trkpt lat="44.09953" lon="1.77595">
        <ele>338.6</ele>
        <time>2018-02-19T12:35:28Z</time>
      </trkpt>
      <trkpt lat="44.09958" lon="1.77606">
        <ele>338.1</ele>
        <time>2018-02-19T12:35:30Z</time>
      </trkpt>
      <trkpt lat="44.09962" lon="1.77617">
        <ele>338</ele>
        <time>2018-02-19T12:35:32Z</time>
      </trkpt>
      <trkpt lat="44.09968" lon="1.7763">
        <ele>338.2</ele>
        <time>2018-02-19T12:35:34Z</time>
      </trkpt>
      <trkpt lat="44.09972" lon="1.77642">
        <ele>338.3</ele>
        <time>2018-02-19T12:35:36Z</time>
      </trkpt>
      <trkpt lat="44.09976" lon="1.77654">
        <ele>338.6</ele>
        <time>2018-02-19T12:35:38Z</time>
      </trkpt>
      <trkpt lat="44.09981" lon="1.77667">
        <ele>338.5</ele>
        <time>2018-02-19T12:35:40Z</time>
      </trkpt>
      <trkpt lat="44.09986" lon="1.77679">
        <ele>339.1</ele>
        <time>2018-02-19T12:35:42Z</time>
      </trkpt>
      <trkpt lat="44.09991" lon="1.77691">
        <ele>339.3</ele>
        <time>2018-02-19T12:35:44Z</time>
      </trkpt>
      <trkpt lat="44.09998" lon="1.77701">
        <ele>339.6</ele>
        <time>2018-02-19T12:35:46Z</time>
      </trkpt>
      <trkpt lat="44.10005" lon="1.77711">
        <ele>340.1</ele>
        <time>2018-02-19T12:35:48Z</time>
      </trkpt>
      <trkpt lat="44.10012" lon="1.7772">
        <ele>341</ele>
        <time>2018-02-19T12:35:50Z</time>
      </trkpt>
      <trkpt lat="44.10018" lon="1.77731">
        <ele>341.7</ele>
        <time>2018-02-19T12:35:52Z</time>
      </trkpt>
      <trkpt lat="44.10024" lon="1.77742">
        <ele>342.7</ele>
        <time>2018-02-19T12:35:54Z</time>
      </trkpt>
      <trkpt lat="44.10031" lon="1.77753">
        <ele>343.8</ele>
        <time>2018-02-19T12:35:56Z</time>
      </trkpt>
      <trkpt lat="44.10037" lon="1.77764">
        <ele>345</ele>
        <time>2018-02-19T12:35:58Z</time>
      </trkpt>
      <trkpt lat="44.10045" lon="1.77774">
        <ele>345.8</ele>
        <time>2018-02-19T12:36:00Z</time>
      </trkpt>
      <trkpt lat="44.10051" lon="1.77787">
        <ele>346.6</ele>
        <time>2018-02-19T12:36:02Z</time>
      </trkpt>
      <trkpt lat="44.10057" lon="1.77801">
        <ele>347.1</ele>
        <time>2018-02-19T12:36:04Z</time>
      </trkpt>
      <trkpt lat="44.10063" lon="1.77813">
        <ele>347.5</ele>
        <time>2018-02-19T12:36:06Z</time>
      </trkpt>
      <trkpt lat="44.10068" lon="1.77824">
        <ele>348.2</ele>
        <time>2018-02-19T12:36:08Z</time>
      </trkpt>
      <trkpt lat="44.10074" lon="1.77836">
        <ele>348.7</ele>
        <time>2018-02-19T12:36:10Z</time>
      </trkpt>
      <trkpt lat="44.10081" lon="1.77847">
        <ele>349</ele>
        <time>2018-02-19T12:36:12Z</time>
      </trkpt>
      <trkpt lat="44.10086" lon="1.77858">
        <ele>349.7</ele>
        <time>2018-02-19T12:36:14Z</time>
      </trkpt>
      <trkpt lat="44.10092" lon="1.7787">
        <ele>350.1</ele>
        <time>2018-02-19T12:36:16Z</time>
      </trkpt>
      <trkpt lat="44.101" lon="1.77878">
        <ele>350.7</ele>
        <time>2018-02-19T12:36:18Z</time>
      </trkpt>
      <trkpt lat="44.10106" lon="1.77889">
        <ele>351.2</ele>
        <time>2018-02-19T12:36:20Z</time>
      </trkpt>
      <trkpt lat="44.10113" lon="1.77899">
        <ele>352.2</ele>
        <time>2018-02-19T12:36:22Z</time>
      </trkpt>
      <trkpt lat="44.10121" lon="1.7791">
        <ele>353</ele>
        <time>2018-02-19T12:36:24Z</time>
      </trkpt>
      <trkpt lat="44.10127" lon="1.77921">
        <ele>353.7</ele>
        <time>2018-02-19T12:36:26Z</time>
      </trkpt>
      <trkpt lat="44.10132" lon="1.77935">
        <ele>354.6</ele>
        <time>2018-02-19T12:36:28Z</time>
      </trkpt>
      <trkpt lat="44.10139" lon="1.77947">
        <ele>355.7</ele>
        <time>2018-02-19T12:36:30Z</time>
      </trkpt>
      <trkpt lat="44.10145" lon="1.77958">
        <ele>356.9</ele>
        <time>2018-02-19T12:36:32Z</time>
      </trkpt>
      <trkpt lat="44.1015" lon="1.77971">
        <ele>358</ele>
        <time>2018-02-19T12:36:34Z</time>
      </trkpt>
      <trkpt lat="44.10157" lon="1.77986">
        <ele>359.3</ele>
        <time>2018-02-19T12:36:36Z</time>
      </trkpt>
      <trkpt lat="44.10161" lon="1.77997">
        <ele>360.3</ele>
        <time>2018-02-19T12:36:38Z</time>
      </trkpt>
      <trkpt lat="44.10166" lon="1.78009">
        <ele>361.3</ele>
        <time>2018-02-19T12:36:40Z</time>
      </trkpt>
      <trkpt lat="44.10172" lon="1.7802">
        <ele>362.5</ele>
        <time>2018-02-19T12:36:42Z</time>
      </trkpt>
      <trkpt lat="44.10176" lon="1.78031">
        <ele>363.9</ele>
        <time>2018-02-19T12:36:44Z</time>
      </trkpt>
      <trkpt lat="44.10185" lon="1.78041">
        <ele>364.7</ele>
        <time>2018-02-19T12:36:46Z</time>
      </trkpt>
      <trkpt lat="44.10193" lon="1.78051">
        <ele>366.1</ele>
        <time>2018-02-19T12:36:48Z</time>
      </trkpt>
      <trkpt lat="44.10202" lon="1.78063">
        <ele>367.1</ele>
        <time>2018-02-19T12:36:50Z</time>
      </trkpt>
      <trkpt lat="44.1021" lon="1.78074">
        <ele>368.2</ele>
        <time>2018-02-19T12:36:52Z</time>
      </trkpt>
      <trkpt lat="44.10216" lon="1.78088">
        <ele>368.9</ele>
        <time>2018-02-19T12:36:54Z</time>
      </trkpt>
      <trkpt lat="44.10221" lon="1.78101">
        <ele>369.9</ele>
        <time>2018-02-19T12:36:56Z</time>
      </trkpt>
      <trkpt lat="44.10226" lon="1.78114">
        <ele>371.3</ele>
        <time>2018-02-19T12:36:58Z</time>
      </trkpt>
      <trkpt lat="44.10231" lon="1.78127">
        <ele>371.4</ele>
        <time>2018-02-19T12:37:00Z</time>
      </trkpt>
      <trkpt lat="44.10239" lon="1.78138">
        <ele>371.9</ele>
        <time>2018-02-19T12:37:02Z</time>
      </trkpt>
      <trkpt lat="44.10254" lon="1.78144">
        <ele>372.2</ele>
        <time>2018-02-19T12:37:04Z</time>
      </trkpt>
      <trkpt lat="44.10264" lon="1.78145">
        <ele>372.2</ele>
        <time>2018-02-19T12:37:05Z</time>
      </trkpt>
      <trkpt lat="44.10272" lon="1.7815">
        <ele>371.8</ele>
        <time>2018-02-19T12:37:06Z</time>
      </trkpt>
      <trkpt lat="44.10286" lon="1.78156">
        <ele>371.9</ele>
        <time>2018-02-19T12:37:08Z</time>
      </trkpt>
      <trkpt lat="44.10294" lon="1.78159">
        <ele>371.7</ele>
        <time>2018-02-19T12:37:09Z</time>
      </trkpt>
      <trkpt lat="44.10303" lon="1.78163">
        <ele>371.3</ele>
        <time>2018-02-19T12:37:10Z</time>
      </trkpt>
      <trkpt lat="44.10312" lon="1.78166">
        <ele>370.4</ele>
        <time>2018-02-19T12:37:11Z</time>
      </trkpt>
      <trkpt lat="44.10322" lon="1.78169">
        <ele>368.8</ele>
        <time>2018-02-19T12:37:12Z</time>
      </trkpt>
      <trkpt lat="44.1033" lon="1.78172">
        <ele>368</ele>
        <time>2018-02-19T12:37:13Z</time>
      </trkpt>
      <trkpt lat="44.10338" lon="1.78177">
        <ele>367.4</ele>
        <time>2018-02-19T12:37:14Z</time>
      </trkpt>
      <trkpt lat="44.10345" lon="1.78183">
        <ele>367.1</ele>
        <time>2018-02-19T12:37:15Z</time>
      </trkpt>
      <trkpt lat="44.10352" lon="1.7819">
        <ele>367.1</ele>
        <time>2018-02-19T12:37:16Z</time>
      </trkpt>
      <trkpt lat="44.10366" lon="1.78205">
        <ele>366.4</ele>
        <time>2018-02-19T12:37:18Z</time>
      </trkpt>
      <trkpt lat="44.10374" lon="1.78211">
        <ele>365.2</ele>
        <time>2018-02-19T12:37:19Z</time>
      </trkpt>
      <trkpt lat="44.10382" lon="1.78217">
        <ele>364.8</ele>
        <time>2018-02-19T12:37:20Z</time>
      </trkpt>
      <trkpt lat="44.10389" lon="1.78221">
        <ele>363.9</ele>
        <time>2018-02-19T12:37:21Z</time>
      </trkpt>
      <trkpt lat="44.10396" lon="1.78226">
        <ele>363.8</ele>
        <time>2018-02-19T12:37:22Z</time>
      </trkpt>
      <trkpt lat="44.10403" lon="1.78231">
        <ele>363.4</ele>
        <time>2018-02-19T12:37:23Z</time>
      </trkpt>
      <trkpt lat="44.1041" lon="1.78237">
        <ele>362.7</ele>
        <time>2018-02-19T12:37:24Z</time>
      </trkpt>
      <trkpt lat="44.10416" lon="1.78241">
        <ele>362.3</ele>
        <time>2018-02-19T12:37:25Z</time>
      </trkpt>
      <trkpt lat="44.10429" lon="1.78248">
        <ele>361.5</ele>
        <time>2018-02-19T12:37:27Z</time>
      </trkpt>
      <trkpt lat="44.1044" lon="1.78256">
        <ele>360.9</ele>
        <time>2018-02-19T12:37:29Z</time>
      </trkpt>
      <trkpt lat="44.10449" lon="1.78264">
        <ele>359.7</ele>
        <time>2018-02-19T12:37:31Z</time>
      </trkpt>
      <trkpt lat="44.10458" lon="1.78271">
        <ele>359.5</ele>
        <time>2018-02-19T12:37:33Z</time>
      </trkpt>
      <trkpt lat="44.10468" lon="1.78279">
        <ele>359</ele>
        <time>2018-02-19T12:37:35Z</time>
      </trkpt>
      <trkpt lat="44.10477" lon="1.78288">
        <ele>358.5</ele>
        <time>2018-02-19T12:37:37Z</time>
      </trkpt>
      <trkpt lat="44.10483" lon="1.78298">
        <ele>358.3</ele>
        <time>2018-02-19T12:37:39Z</time>
      </trkpt>
      <trkpt lat="44.10491" lon="1.78306">
        <ele>357.6</ele>
        <time>2018-02-19T12:37:41Z</time>
      </trkpt>
      <trkpt lat="44.10499" lon="1.78315">
        <ele>357.3</ele>
        <time>2018-02-19T12:37:43Z</time>
      </trkpt>
      <trkpt lat="44.10508" lon="1.78324">
        <ele>356.7</ele>
        <time>2018-02-19T12:37:45Z</time>
      </trkpt>
      <trkpt lat="44.10514" lon="1.78332">
        <ele>357.1</ele>
        <time>2018-02-19T12:37:47Z</time>
      </trkpt>
      <trkpt lat="44.10522" lon="1.7834">
        <ele>357.3</ele>
        <time>2018-02-19T12:37:49Z</time>
      </trkpt>
      <trkpt lat="44.10532" lon="1.7835">
        <ele>357.3</ele>
        <time>2018-02-19T12:37:51Z</time>
      </trkpt>
      <trkpt lat="44.1054" lon="1.7836">
        <ele>357</ele>
        <time>2018-02-19T12:37:53Z</time>
      </trkpt>
      <trkpt lat="44.10546" lon="1.78369">
        <ele>356.9</ele>
        <time>2018-02-19T12:37:55Z</time>
      </trkpt>
      <trkpt lat="44.10552" lon="1.78376">
        <ele>357</ele>
        <time>2018-02-19T12:37:57Z</time>
      </trkpt>
      <trkpt lat="44.10561" lon="1.78383">
        <ele>356.9</ele>
        <time>2018-02-19T12:37:59Z</time>
      </trkpt>
      <trkpt lat="44.10574" lon="1.78386">
        <ele>356.3</ele>
        <time>2018-02-19T12:38:01Z</time>
      </trkpt>
      <trkpt lat="44.10586" lon="1.7839">
        <ele>356.3</ele>
        <time>2018-02-19T12:38:03Z</time>
      </trkpt>
      <trkpt lat="44.10598" lon="1.78399">
        <ele>356.9</ele>
        <time>2018-02-19T12:38:05Z</time>
      </trkpt>
      <trkpt lat="44.10605" lon="1.78406">
        <ele>356.8</ele>
        <time>2018-02-19T12:38:06Z</time>
      </trkpt>
      <trkpt lat="44.10612" lon="1.78411">
        <ele>356.7</ele>
        <time>2018-02-19T12:38:07Z</time>
      </trkpt>
      <trkpt lat="44.10619" lon="1.78418">
        <ele>356.4</ele>
        <time>2018-02-19T12:38:08Z</time>
      </trkpt>
      <trkpt lat="44.10625" lon="1.78426">
        <ele>356.3</ele>
        <time>2018-02-19T12:38:09Z</time>
      </trkpt>
      <trkpt lat="44.10629" lon="1.78437">
        <ele>355.4</ele>
        <time>2018-02-19T12:38:10Z</time>
      </trkpt>
      <trkpt lat="44.10635" lon="1.78449">
        <ele>354.6</ele>
        <time>2018-02-19T12:38:11Z</time>
      </trkpt>
      <trkpt lat="44.10641" lon="1.78459">
        <ele>353.9</ele>
        <time>2018-02-19T12:38:12Z</time>
      </trkpt>
      <trkpt lat="44.10648" lon="1.78471">
        <ele>353.6</ele>
        <time>2018-02-19T12:38:13Z</time>
      </trkpt>
      <trkpt lat="44.10655" lon="1.78481">
        <ele>353.2</ele>
        <time>2018-02-19T12:38:14Z</time>
      </trkpt>
      <trkpt lat="44.10662" lon="1.78491">
        <ele>352.4</ele>
        <time>2018-02-19T12:38:15Z</time>
      </trkpt>
      <trkpt lat="44.10668" lon="1.78501">
        <ele>352.2</ele>
        <time>2018-02-19T12:38:16Z</time>
      </trkpt>
      <trkpt lat="44.10674" lon="1.78509">
        <ele>351.7</ele>
        <time>2018-02-19T12:38:17Z</time>
      </trkpt>
      <trkpt lat="44.10681" lon="1.78517">
        <ele>351.4</ele>
        <time>2018-02-19T12:38:18Z</time>
      </trkpt>
      <trkpt lat="44.10687" lon="1.78525">
        <ele>351.1</ele>
        <time>2018-02-19T12:38:19Z</time>
      </trkpt>
      <trkpt lat="44.10692" lon="1.78534">
        <ele>350.6</ele>
        <time>2018-02-19T12:38:20Z</time>
      </trkpt>
      <trkpt lat="44.10697" lon="1.78542">
        <ele>350.4</ele>
        <time>2018-02-19T12:38:21Z</time>
      </trkpt>
      <trkpt lat="44.10702" lon="1.78549">
        <ele>349.9</ele>
        <time>2018-02-19T12:38:22Z</time>
      </trkpt>
      <trkpt lat="44.10708" lon="1.78556">
        <ele>349.2</ele>
        <time>2018-02-19T12:38:23Z</time>
      </trkpt>
      <trkpt lat="44.10719" lon="1.78565">
        <ele>348.3</ele>
        <time>2018-02-19T12:38:25Z</time>
      </trkpt>
      <trkpt lat="44.10726" lon="1.78565">
        <ele>348</ele>
        <time>2018-02-19T12:38:26Z</time>
      </trkpt>
      <trkpt lat="44.1074" lon="1.78567">
        <ele>347.6</ele>
        <time>2018-02-19T12:38:28Z</time>
      </trkpt>
      <trkpt lat="44.10751" lon="1.78568">
        <ele>347.3</ele>
        <time>2018-02-19T12:38:30Z</time>
      </trkpt>
      <trkpt lat="44.10763" lon="1.78566">
        <ele>347.2</ele>
        <time>2018-02-19T12:38:32Z</time>
      </trkpt>
      <trkpt lat="44.10778" lon="1.78565">
        <ele>346.5</ele>
        <time>2018-02-19T12:38:34Z</time>
      </trkpt>
      <trkpt lat="44.1079" lon="1.78564">
        <ele>345.4</ele>
        <time>2018-02-19T12:38:36Z</time>
      </trkpt>
      <trkpt lat="44.10798" lon="1.78565">
        <ele>345.3</ele>
        <time>2018-02-19T12:38:37Z</time>
      </trkpt>
      <trkpt lat="44.10805" lon="1.78566">
        <ele>345.3</ele>
        <time>2018-02-19T12:38:38Z</time>
      </trkpt>
      <trkpt lat="44.10818" lon="1.78569">
        <ele>344.7</ele>
        <time>2018-02-19T12:38:40Z</time>
      </trkpt>
      <trkpt lat="44.10831" lon="1.78572">
        <ele>344.3</ele>
        <time>2018-02-19T12:38:42Z</time>
      </trkpt>
      <trkpt lat="44.10838" lon="1.78574">
        <ele>344.2</ele>
        <time>2018-02-19T12:38:43Z</time>
      </trkpt>
      <trkpt lat="44.10852" lon="1.78577">
        <ele>343.3</ele>
        <time>2018-02-19T12:38:45Z</time>
      </trkpt>
      <trkpt lat="44.10859" lon="1.7858">
        <ele>343.9</ele>
        <time>2018-02-19T12:38:46Z</time>
      </trkpt>
      <trkpt lat="44.10867" lon="1.78584">
        <ele>343.5</ele>
        <time>2018-02-19T12:38:47Z</time>
      </trkpt>
      <trkpt lat="44.10875" lon="1.78589">
        <ele>342.8</ele>
        <time>2018-02-19T12:38:48Z</time>
      </trkpt>
      <trkpt lat="44.10884" lon="1.78594">
        <ele>342.3</ele>
        <time>2018-02-19T12:38:49Z</time>
      </trkpt>
      <trkpt lat="44.10893" lon="1.786">
        <ele>341.9</ele>
        <time>2018-02-19T12:38:50Z</time>
      </trkpt>
      <trkpt lat="44.10904" lon="1.78603">
        <ele>341.9</ele>
        <time>2018-02-19T12:38:51Z</time>
      </trkpt>
      <trkpt lat="44.10911" lon="1.78607">
        <ele>341.8</ele>
        <time>2018-02-19T12:38:52Z</time>
      </trkpt>
      <trkpt lat="44.1092" lon="1.78616">
        <ele>341.6</ele>
        <time>2018-02-19T12:38:54Z</time>
      </trkpt>
      <trkpt lat="44.10925" lon="1.78624">
        <ele>341.1</ele>
        <time>2018-02-19T12:38:57Z</time>
      </trkpt>
      <trkpt lat="44.10934" lon="1.78629">
        <ele>340.6</ele>
        <time>2018-02-19T12:39:00Z</time>
      </trkpt>
      <trkpt lat="44.10943" lon="1.78629">
        <ele>340</ele>
        <time>2018-02-19T12:39:02Z</time>
      </trkpt>
      <trkpt lat="44.10952" lon="1.78628">
        <ele>339.3</ele>
        <time>2018-02-19T12:39:04Z</time>
      </trkpt>
      <trkpt lat="44.10962" lon="1.78628">
        <ele>338.1</ele>
        <time>2018-02-19T12:39:06Z</time>
      </trkpt>
      <trkpt lat="44.10971" lon="1.7863">
        <ele>338.4</ele>
        <time>2018-02-19T12:39:08Z</time>
      </trkpt>
      <trkpt lat="44.1098" lon="1.78632">
        <ele>338.1</ele>
        <time>2018-02-19T12:39:10Z</time>
      </trkpt>
      <trkpt lat="44.1099" lon="1.78633">
        <ele>337.7</ele>
        <time>2018-02-19T12:39:12Z</time>
      </trkpt>
      <trkpt lat="44.11002" lon="1.78633">
        <ele>337.2</ele>
        <time>2018-02-19T12:39:14Z</time>
      </trkpt>
      <trkpt lat="44.11013" lon="1.78634">
        <ele>337.2</ele>
        <time>2018-02-19T12:39:16Z</time>
      </trkpt>
      <trkpt lat="44.11025" lon="1.78634">
        <ele>336.7</ele>
        <time>2018-02-19T12:39:18Z</time>
      </trkpt>
      <trkpt lat="44.11037" lon="1.78633">
        <ele>336</ele>
        <time>2018-02-19T12:39:20Z</time>
      </trkpt>
      <trkpt lat="44.11049" lon="1.78634">
        <ele>336.1</ele>
        <time>2018-02-19T12:39:22Z</time>
      </trkpt>
      <trkpt lat="44.11061" lon="1.78634">
        <ele>336.8</ele>
        <time>2018-02-19T12:39:24Z</time>
      </trkpt>
      <trkpt lat="44.11072" lon="1.78633">
        <ele>338.9</ele>
        <time>2018-02-19T12:39:26Z</time>
      </trkpt>
      <trkpt lat="44.11082" lon="1.78634">
        <ele>340.2</ele>
        <time>2018-02-19T12:39:28Z</time>
      </trkpt>
      <trkpt lat="44.11094" lon="1.78634">
        <ele>340.1</ele>
        <time>2018-02-19T12:39:30Z</time>
      </trkpt>
      <trkpt lat="44.11106" lon="1.78634">
        <ele>339.2</ele>
        <time>2018-02-19T12:39:32Z</time>
      </trkpt>
      <trkpt lat="44.11118" lon="1.78635">
        <ele>337.3</ele>
        <time>2018-02-19T12:39:34Z</time>
      </trkpt>
      <trkpt lat="44.11129" lon="1.78634">
        <ele>338.3</ele>
        <time>2018-02-19T12:39:36Z</time>
      </trkpt>
      <trkpt lat="44.1114" lon="1.78634">
        <ele>339.1</ele>
        <time>2018-02-19T12:39:38Z</time>
      </trkpt>
      <trkpt lat="44.11151" lon="1.78635">
        <ele>338.8</ele>
        <time>2018-02-19T12:39:40Z</time>
      </trkpt>
      <trkpt lat="44.11163" lon="1.78634">
        <ele>339</ele>
        <time>2018-02-19T12:39:42Z</time>
      </trkpt>
      <trkpt lat="44.11173" lon="1.78634">
        <ele>338.7</ele>
        <time>2018-02-19T12:39:44Z</time>
      </trkpt>
      <trkpt lat="44.11184" lon="1.78635">
        <ele>338.3</ele>
        <time>2018-02-19T12:39:46Z</time>
      </trkpt>
      <trkpt lat="44.11195" lon="1.78636">
        <ele>337.7</ele>
        <time>2018-02-19T12:39:48Z</time>
      </trkpt>
      <trkpt lat="44.11207" lon="1.78636">
        <ele>336.1</ele>
        <time>2018-02-19T12:39:50Z</time>
      </trkpt>
      <trkpt lat="44.11218" lon="1.78636">
        <ele>335.5</ele>
        <time>2018-02-19T12:39:52Z</time>
      </trkpt>
      <trkpt lat="44.11229" lon="1.78636">
        <ele>335.4</ele>
        <time>2018-02-19T12:39:54Z</time>
      </trkpt>
      <trkpt lat="44.1124" lon="1.78636">
        <ele>334</ele>
        <time>2018-02-19T12:39:56Z</time>
      </trkpt>
      <trkpt lat="44.11251" lon="1.78636">
        <ele>334.1</ele>
        <time>2018-02-19T12:39:58Z</time>
      </trkpt>
      <trkpt lat="44.11262" lon="1.78636">
        <ele>334.6</ele>
        <time>2018-02-19T12:40:00Z</time>
      </trkpt>
      <trkpt lat="44.11273" lon="1.78636">
        <ele>334.8</ele>
        <time>2018-02-19T12:40:02Z</time>
      </trkpt>
      <trkpt lat="44.11285" lon="1.78636">
        <ele>334.6</ele>
        <time>2018-02-19T12:40:04Z</time>
      </trkpt>
      <trkpt lat="44.11295" lon="1.78636">
        <ele>335.7</ele>
        <time>2018-02-19T12:40:06Z</time>
      </trkpt>
      <trkpt lat="44.11306" lon="1.78636">
        <ele>335.9</ele>
        <time>2018-02-19T12:40:08Z</time>
      </trkpt>
      <trkpt lat="44.11317" lon="1.78636">
        <ele>336.2</ele>
        <time>2018-02-19T12:40:10Z</time>
      </trkpt>
      <trkpt lat="44.11327" lon="1.78636">
        <ele>336.3</ele>
        <time>2018-02-19T12:40:12Z</time>
      </trkpt>
      <trkpt lat="44.11337" lon="1.78636">
        <ele>337</ele>
        <time>2018-02-19T12:40:14Z</time>
      </trkpt>
      <trkpt lat="44.11348" lon="1.78637">
        <ele>338.3</ele>
        <time>2018-02-19T12:40:16Z</time>
      </trkpt>
      <trkpt lat="44.11359" lon="1.78638">
        <ele>337.8</ele>
        <time>2018-02-19T12:40:18Z</time>
      </trkpt>
      <trkpt lat="44.1137" lon="1.78637">
        <ele>337.9</ele>
        <time>2018-02-19T12:40:20Z</time>
      </trkpt>
      <trkpt lat="44.11381" lon="1.78637">
        <ele>339.1</ele>
        <time>2018-02-19T12:40:22Z</time>
      </trkpt>
      <trkpt lat="44.11392" lon="1.78637">
        <ele>339.7</ele>
        <time>2018-02-19T12:40:24Z</time>
      </trkpt>
      <trkpt lat="44.11403" lon="1.78637">
        <ele>339.8</ele>
        <time>2018-02-19T12:40:26Z</time>
      </trkpt>
      <trkpt lat="44.11414" lon="1.78636">
        <ele>339.4</ele>
        <time>2018-02-19T12:40:28Z</time>
      </trkpt>
      <trkpt lat="44.11426" lon="1.78637">
        <ele>339.7</ele>
        <time>2018-02-19T12:40:30Z</time>
      </trkpt>
      <trkpt lat="44.11437" lon="1.78637">
        <ele>339.7</ele>
        <time>2018-02-19T12:40:32Z</time>
      </trkpt>
      <trkpt lat="44.11448" lon="1.78637">
        <ele>339.3</ele>
        <time>2018-02-19T12:40:34Z</time>
      </trkpt>
      <trkpt lat="44.11462" lon="1.78637">
        <ele>338.2</ele>
        <time>2018-02-19T12:40:36Z</time>
      </trkpt>
      <trkpt lat="44.1147" lon="1.78637">
        <ele>337.6</ele>
        <time>2018-02-19T12:40:37Z</time>
      </trkpt>
      <trkpt lat="44.11485" lon="1.78637">
        <ele>337.2</ele>
        <time>2018-02-19T12:40:39Z</time>
      </trkpt>
      <trkpt lat="44.11493" lon="1.78637">
        <ele>336.5</ele>
        <time>2018-02-19T12:40:40Z</time>
      </trkpt>
      <trkpt lat="44.11502" lon="1.78638">
        <ele>335.6</ele>
        <time>2018-02-19T12:40:41Z</time>
      </trkpt>
      <trkpt lat="44.1151" lon="1.78638">
        <ele>335</ele>
        <time>2018-02-19T12:40:42Z</time>
      </trkpt>
      <trkpt lat="44.11519" lon="1.78638">
        <ele>334.2</ele>
        <time>2018-02-19T12:40:43Z</time>
      </trkpt>
      <trkpt lat="44.11529" lon="1.78638">
        <ele>332.9</ele>
        <time>2018-02-19T12:40:44Z</time>
      </trkpt>
      <trkpt lat="44.11538" lon="1.78638">
        <ele>332.3</ele>
        <time>2018-02-19T12:40:45Z</time>
      </trkpt>
      <trkpt lat="44.11547" lon="1.78637">
        <ele>331.9</ele>
        <time>2018-02-19T12:40:46Z</time>
      </trkpt>
      <trkpt lat="44.11557" lon="1.78636">
        <ele>331.1</ele>
        <time>2018-02-19T12:40:47Z</time>
      </trkpt>
      <trkpt lat="44.11566" lon="1.78636">
        <ele>331.6</ele>
        <time>2018-02-19T12:40:48Z</time>
      </trkpt>
      <trkpt lat="44.11576" lon="1.78636">
        <ele>331.5</ele>
        <time>2018-02-19T12:40:49Z</time>
      </trkpt>
      <trkpt lat="44.11585" lon="1.78635">
        <ele>331.4</ele>
        <time>2018-02-19T12:40:50Z</time>
      </trkpt>
      <trkpt lat="44.11594" lon="1.78634">
        <ele>331.3</ele>
        <time>2018-02-19T12:40:51Z</time>
      </trkpt>
      <trkpt lat="44.11602" lon="1.78634">
        <ele>331.9</ele>
        <time>2018-02-19T12:40:52Z</time>
      </trkpt>
      <trkpt lat="44.1161" lon="1.78634">
        <ele>332.5</ele>
        <time>2018-02-19T12:40:53Z</time>
      </trkpt>
      <trkpt lat="44.11618" lon="1.78634">
        <ele>332.5</ele>
        <time>2018-02-19T12:40:54Z</time>
      </trkpt>
      <trkpt lat="44.11627" lon="1.78634">
        <ele>332.8</ele>
        <time>2018-02-19T12:40:55Z</time>
      </trkpt>
      <trkpt lat="44.11635" lon="1.78634">
        <ele>334</ele>
        <time>2018-02-19T12:40:56Z</time>
      </trkpt>
      <trkpt lat="44.11643" lon="1.78634">
        <ele>333.6</ele>
        <time>2018-02-19T12:40:57Z</time>
      </trkpt>
      <trkpt lat="44.11651" lon="1.78634">
        <ele>333.8</ele>
        <time>2018-02-19T12:40:58Z</time>
      </trkpt>
      <trkpt lat="44.1166" lon="1.78634">
        <ele>331.9</ele>
        <time>2018-02-19T12:40:59Z</time>
      </trkpt>
      <trkpt lat="44.11668" lon="1.78635">
        <ele>332.2</ele>
        <time>2018-02-19T12:41:00Z</time>
      </trkpt>
      <trkpt lat="44.11676" lon="1.78636">
        <ele>332.8</ele>
        <time>2018-02-19T12:41:01Z</time>
      </trkpt>
      <trkpt lat="44.11684" lon="1.78636">
        <ele>332.2</ele>
        <time>2018-02-19T12:41:02Z</time>
      </trkpt>
      <trkpt lat="44.11692" lon="1.78636">
        <ele>332.2</ele>
        <time>2018-02-19T12:41:03Z</time>
      </trkpt>
      <trkpt lat="44.11699" lon="1.78636">
        <ele>331.7</ele>
        <time>2018-02-19T12:41:04Z</time>
      </trkpt>
      <trkpt lat="44.11707" lon="1.78637">
        <ele>331.3</ele>
        <time>2018-02-19T12:41:05Z</time>
      </trkpt>
      <trkpt lat="44.11721" lon="1.78638">
        <ele>331</ele>
        <time>2018-02-19T12:41:07Z</time>
      </trkpt>
      <trkpt lat="44.11734" lon="1.78638">
        <ele>330.9</ele>
        <time>2018-02-19T12:41:09Z</time>
      </trkpt>
      <trkpt lat="44.11746" lon="1.78638">
        <ele>331</ele>
        <time>2018-02-19T12:41:11Z</time>
      </trkpt>
      <trkpt lat="44.11757" lon="1.78639">
        <ele>331.1</ele>
        <time>2018-02-19T12:41:13Z</time>
      </trkpt>
      <trkpt lat="44.11768" lon="1.78639">
        <ele>330.8</ele>
        <time>2018-02-19T12:41:15Z</time>
      </trkpt>
      <trkpt lat="44.11779" lon="1.78639">
        <ele>330.8</ele>
        <time>2018-02-19T12:41:17Z</time>
      </trkpt>
      <trkpt lat="44.11789" lon="1.78639">
        <ele>330.9</ele>
        <time>2018-02-19T12:41:19Z</time>
      </trkpt>
      <trkpt lat="44.11801" lon="1.78639">
        <ele>330.1</ele>
        <time>2018-02-19T12:41:21Z</time>
      </trkpt>
      <trkpt lat="44.11811" lon="1.78639">
        <ele>329.4</ele>
        <time>2018-02-19T12:41:23Z</time>
      </trkpt>
      <trkpt lat="44.11823" lon="1.78639">
        <ele>329.7</ele>
        <time>2018-02-19T12:41:25Z</time>
      </trkpt>
      <trkpt lat="44.11832" lon="1.78639">
        <ele>332.7</ele>
        <time>2018-02-19T12:41:27Z</time>
      </trkpt>
      <trkpt lat="44.11842" lon="1.78638">
        <ele>334.4</ele>
        <time>2018-02-19T12:41:29Z</time>
      </trkpt>
      <trkpt lat="44.11854" lon="1.78638">
        <ele>335.5</ele>
        <time>2018-02-19T12:41:31Z</time>
      </trkpt>
      <trkpt lat="44.11865" lon="1.78639">
        <ele>336.3</ele>
        <time>2018-02-19T12:41:33Z</time>
      </trkpt>
      <trkpt lat="44.11876" lon="1.78639">
        <ele>335.6</ele>
        <time>2018-02-19T12:41:35Z</time>
      </trkpt>
      <trkpt lat="44.11887" lon="1.78639">
        <ele>334.8</ele>
        <time>2018-02-19T12:41:37Z</time>
      </trkpt>
      <trkpt lat="44.11899" lon="1.78639">
        <ele>334.3</ele>
        <time>2018-02-19T12:41:39Z</time>
      </trkpt>
      <trkpt lat="44.11911" lon="1.78639">
        <ele>333.5</ele>
        <time>2018-02-19T12:41:41Z</time>
      </trkpt>
      <trkpt lat="44.11923" lon="1.7864">
        <ele>333.9</ele>
        <time>2018-02-19T12:41:43Z</time>
      </trkpt>
      <trkpt lat="44.11936" lon="1.7864">
        <ele>333.8</ele>
        <time>2018-02-19T12:41:45Z</time>
      </trkpt>
      <trkpt lat="44.11947" lon="1.7864">
        <ele>334.3</ele>
        <time>2018-02-19T12:41:47Z</time>
      </trkpt>
      <trkpt lat="44.11959" lon="1.78641">
        <ele>335.2</ele>
        <time>2018-02-19T12:41:49Z</time>
      </trkpt>
      <trkpt lat="44.1197" lon="1.7864">
        <ele>335.7</ele>
        <time>2018-02-19T12:41:51Z</time>
      </trkpt>
      <trkpt lat="44.11981" lon="1.7864">
        <ele>335.4</ele>
        <time>2018-02-19T12:41:53Z</time>
      </trkpt>
      <trkpt lat="44.11992" lon="1.7864">
        <ele>335.5</ele>
        <time>2018-02-19T12:41:55Z</time>
      </trkpt>
      <trkpt lat="44.12002" lon="1.78639">
        <ele>336</ele>
        <time>2018-02-19T12:41:57Z</time>
      </trkpt>
      <trkpt lat="44.12013" lon="1.78639">
        <ele>337.1</ele>
        <time>2018-02-19T12:41:59Z</time>
      </trkpt>
      <trkpt lat="44.12023" lon="1.78639">
        <ele>337</ele>
        <time>2018-02-19T12:42:01Z</time>
      </trkpt>
      <trkpt lat="44.12034" lon="1.78639">
        <ele>338.1</ele>
        <time>2018-02-19T12:42:03Z</time>
      </trkpt>
      <trkpt lat="44.12044" lon="1.78639">
        <ele>338.7</ele>
        <time>2018-02-19T12:42:05Z</time>
      </trkpt>
      <trkpt lat="44.12055" lon="1.7864">
        <ele>340.6</ele>
        <time>2018-02-19T12:42:07Z</time>
      </trkpt>
      <trkpt lat="44.12067" lon="1.7864">
        <ele>341.1</ele>
        <time>2018-02-19T12:42:09Z</time>
      </trkpt>
      <trkpt lat="44.12078" lon="1.7864">
        <ele>341.3</ele>
        <time>2018-02-19T12:42:11Z</time>
      </trkpt>
      <trkpt lat="44.12089" lon="1.7864">
        <ele>341.4</ele>
        <time>2018-02-19T12:42:13Z</time>
      </trkpt>
      <trkpt lat="44.12101" lon="1.7864">
        <ele>341.6</ele>
        <time>2018-02-19T12:42:15Z</time>
      </trkpt>
      <trkpt lat="44.12113" lon="1.78641">
        <ele>341.5</ele>
        <time>2018-02-19T12:42:17Z</time>
      </trkpt>
      <trkpt lat="44.12126" lon="1.78641">
        <ele>340</ele>
        <time>2018-02-19T12:42:19Z</time>
      </trkpt>
      <trkpt lat="44.12139" lon="1.78641">
        <ele>339.3</ele>
        <time>2018-02-19T12:42:21Z</time>
      </trkpt>
      <trkpt lat="44.12153" lon="1.78641">
        <ele>337.6</ele>
        <time>2018-02-19T12:42:23Z</time>
      </trkpt>
      <trkpt lat="44.1216" lon="1.78641">
        <ele>336.6</ele>
        <time>2018-02-19T12:42:24Z</time>
      </trkpt>
      <trkpt lat="44.12167" lon="1.78642">
        <ele>335.7</ele>
        <time>2018-02-19T12:42:25Z</time>
      </trkpt>
      <trkpt lat="44.12175" lon="1.78641">
        <ele>335</ele>
        <time>2018-02-19T12:42:26Z</time>
      </trkpt>
      <trkpt lat="44.12183" lon="1.78641">
        <ele>334.6</ele>
        <time>2018-02-19T12:42:27Z</time>
      </trkpt>
      <trkpt lat="44.12191" lon="1.78642">
        <ele>335.1</ele>
        <time>2018-02-19T12:42:28Z</time>
      </trkpt>
      <trkpt lat="44.12198" lon="1.78643">
        <ele>334.7</ele>
        <time>2018-02-19T12:42:29Z</time>
      </trkpt>
      <trkpt lat="44.12206" lon="1.78642">
        <ele>333.7</ele>
        <time>2018-02-19T12:42:30Z</time>
      </trkpt>
      <trkpt lat="44.12219" lon="1.78641">
        <ele>334.3</ele>
        <time>2018-02-19T12:42:32Z</time>
      </trkpt>
      <trkpt lat="44.12227" lon="1.78641">
        <ele>334.5</ele>
        <time>2018-02-19T12:42:33Z</time>
      </trkpt>
      <trkpt lat="44.12241" lon="1.7864">
        <ele>335.6</ele>
        <time>2018-02-19T12:42:35Z</time>
      </trkpt>
      <trkpt lat="44.12255" lon="1.7864">
        <ele>335.9</ele>
        <time>2018-02-19T12:42:37Z</time>
      </trkpt>
      <trkpt lat="44.12268" lon="1.78641">
        <ele>336</ele>
        <time>2018-02-19T12:42:39Z</time>
      </trkpt>
      <trkpt lat="44.12281" lon="1.7864">
        <ele>334.3</ele>
        <time>2018-02-19T12:42:41Z</time>
      </trkpt>
      <trkpt lat="44.12294" lon="1.78641">
        <ele>333.9</ele>
        <time>2018-02-19T12:42:43Z</time>
      </trkpt>
      <trkpt lat="44.12306" lon="1.78641">
        <ele>333.9</ele>
        <time>2018-02-19T12:42:45Z</time>
      </trkpt>
      <trkpt lat="44.12318" lon="1.78642">
        <ele>333.9</ele>
        <time>2018-02-19T12:42:47Z</time>
      </trkpt>
      <trkpt lat="44.12329" lon="1.78641">
        <ele>333.9</ele>
        <time>2018-02-19T12:42:49Z</time>
      </trkpt>
      <trkpt lat="44.1234" lon="1.7864">
        <ele>335.2</ele>
        <time>2018-02-19T12:42:51Z</time>
      </trkpt>
      <trkpt lat="44.1235" lon="1.7864">
        <ele>335.4</ele>
        <time>2018-02-19T12:42:53Z</time>
      </trkpt>
      <trkpt lat="44.12361" lon="1.78639">
        <ele>336.6</ele>
        <time>2018-02-19T12:42:55Z</time>
      </trkpt>
      <trkpt lat="44.12371" lon="1.78639">
        <ele>337.3</ele>
        <time>2018-02-19T12:42:57Z</time>
      </trkpt>
      <trkpt lat="44.12382" lon="1.78639">
        <ele>338</ele>
        <time>2018-02-19T12:42:59Z</time>
      </trkpt>
      <trkpt lat="44.12391" lon="1.78639">
        <ele>339.8</ele>
        <time>2018-02-19T12:43:01Z</time>
      </trkpt>
      <trkpt lat="44.124" lon="1.78639">
        <ele>341.3</ele>
        <time>2018-02-19T12:43:03Z</time>
      </trkpt>
      <trkpt lat="44.12408" lon="1.78639">
        <ele>342</ele>
        <time>2018-02-19T12:43:05Z</time>
      </trkpt>
      <trkpt lat="44.12416" lon="1.78639">
        <ele>343</ele>
        <time>2018-02-19T12:43:07Z</time>
      </trkpt>
      <trkpt lat="44.12426" lon="1.78644">
        <ele>345.8</ele>
        <time>2018-02-19T12:43:10Z</time>
      </trkpt>
      <trkpt lat="44.12425" lon="1.78656">
        <ele>346.7</ele>
        <time>2018-02-19T12:43:12Z</time>
      </trkpt>
      <trkpt lat="44.12421" lon="1.78667">
        <ele>346.3</ele>
        <time>2018-02-19T12:43:14Z</time>
      </trkpt>
      <trkpt lat="44.12416" lon="1.78679">
        <ele>346.4</ele>
        <time>2018-02-19T12:43:16Z</time>
      </trkpt>
      <trkpt lat="44.12414" lon="1.78692">
        <ele>346</ele>
        <time>2018-02-19T12:43:18Z</time>
      </trkpt>
      <trkpt lat="44.12409" lon="1.78708">
        <ele>346.1</ele>
        <time>2018-02-19T12:43:20Z</time>
      </trkpt>
      <trkpt lat="44.12402" lon="1.78725">
        <ele>346.5</ele>
        <time>2018-02-19T12:43:22Z</time>
      </trkpt>
      <trkpt lat="44.12397" lon="1.78739">
        <ele>346.5</ele>
        <time>2018-02-19T12:43:24Z</time>
      </trkpt>
      <trkpt lat="44.12393" lon="1.78752">
        <ele>346.4</ele>
        <time>2018-02-19T12:43:26Z</time>
      </trkpt>
      <trkpt lat="44.12388" lon="1.78766">
        <ele>346.3</ele>
        <time>2018-02-19T12:43:28Z</time>
      </trkpt>
      <trkpt lat="44.12383" lon="1.78778">
        <ele>345.7</ele>
        <time>2018-02-19T12:43:30Z</time>
      </trkpt>
      <trkpt lat="44.12378" lon="1.7879">
        <ele>345</ele>
        <time>2018-02-19T12:43:32Z</time>
      </trkpt>
      <trkpt lat="44.12369" lon="1.78804">
        <ele>345.1</ele>
        <time>2018-02-19T12:43:34Z</time>
      </trkpt>
      <trkpt lat="44.12361" lon="1.78818">
        <ele>345.2</ele>
        <time>2018-02-19T12:43:36Z</time>
      </trkpt>
      <trkpt lat="44.12354" lon="1.78833">
        <ele>345.2</ele>
        <time>2018-02-19T12:43:38Z</time>
      </trkpt>
      <trkpt lat="44.12346" lon="1.78846">
        <ele>345.4</ele>
        <time>2018-02-19T12:43:40Z</time>
      </trkpt>
      <trkpt lat="44.12338" lon="1.7886">
        <ele>345.3</ele>
        <time>2018-02-19T12:43:42Z</time>
      </trkpt>
      <trkpt lat="44.12329" lon="1.78876">
        <ele>345.5</ele>
        <time>2018-02-19T12:43:44Z</time>
      </trkpt>
      <trkpt lat="44.1232" lon="1.78891">
        <ele>345.7</ele>
        <time>2018-02-19T12:43:46Z</time>
      </trkpt>
      <trkpt lat="44.12314" lon="1.789">
        <ele>345.8</ele>
        <time>2018-02-19T12:43:47Z</time>
      </trkpt>
      <trkpt lat="44.12304" lon="1.7891">
        <ele>344.7</ele>
        <time>2018-02-19T12:43:49Z</time>
      </trkpt>
      <trkpt lat="44.12294" lon="1.78923">
        <ele>345</ele>
        <time>2018-02-19T12:43:51Z</time>
      </trkpt>
      <trkpt lat="44.12288" lon="1.78936">
        <ele>344.8</ele>
        <time>2018-02-19T12:43:53Z</time>
      </trkpt>
      <trkpt lat="44.12281" lon="1.78948">
        <ele>345</ele>
        <time>2018-02-19T12:43:55Z</time>
      </trkpt>
      <trkpt lat="44.12273" lon="1.78958">
        <ele>344.5</ele>
        <time>2018-02-19T12:43:57Z</time>
      </trkpt>
      <trkpt lat="44.12264" lon="1.78971">
        <ele>344.8</ele>
        <time>2018-02-19T12:43:59Z</time>
      </trkpt>
      <trkpt lat="44.12256" lon="1.78984">
        <ele>345</ele>
        <time>2018-02-19T12:44:01Z</time>
      </trkpt>
      <trkpt lat="44.12249" lon="1.78998">
        <ele>345.1</ele>
        <time>2018-02-19T12:44:03Z</time>
      </trkpt>
      <trkpt lat="44.12243" lon="1.79012">
        <ele>345.4</ele>
        <time>2018-02-19T12:44:05Z</time>
      </trkpt>
      <trkpt lat="44.12237" lon="1.79024">
        <ele>345.4</ele>
        <time>2018-02-19T12:44:07Z</time>
      </trkpt>
      <trkpt lat="44.1223" lon="1.79031">
        <ele>344.2</ele>
        <time>2018-02-19T12:44:09Z</time>
      </trkpt>
      <trkpt lat="44.12222" lon="1.79038">
        <ele>343.5</ele>
        <time>2018-02-19T12:44:12Z</time>
      </trkpt>
      <trkpt lat="44.12215" lon="1.79045">
        <ele>342.6</ele>
        <time>2018-02-19T12:44:15Z</time>
      </trkpt>
      <trkpt lat="44.12207" lon="1.79053">
        <ele>341.3</ele>
        <time>2018-02-19T12:44:20Z</time>
      </trkpt>
      <trkpt lat="44.12202" lon="1.79059">
        <ele>340.8</ele>
        <time>2018-02-19T12:44:23Z</time>
      </trkpt>
      <trkpt lat="44.12196" lon="1.79067">
        <ele>339.7</ele>
        <time>2018-02-19T12:44:26Z</time>
      </trkpt>
      <trkpt lat="44.1219" lon="1.79076">
        <ele>339.2</ele>
        <time>2018-02-19T12:44:29Z</time>
      </trkpt>
      <trkpt lat="44.12186" lon="1.79086">
        <ele>338.4</ele>
        <time>2018-02-19T12:44:31Z</time>
      </trkpt>
      <trkpt lat="44.12181" lon="1.79094">
        <ele>337.8</ele>
        <time>2018-02-19T12:44:34Z</time>
      </trkpt>
      <trkpt lat="44.12176" lon="1.79103">
        <ele>336.9</ele>
        <time>2018-02-19T12:44:37Z</time>
      </trkpt>
      <trkpt lat="44.1217" lon="1.79113">
        <ele>336.7</ele>
        <time>2018-02-19T12:44:39Z</time>
      </trkpt>
      <trkpt lat="44.12165" lon="1.79123">
        <ele>336.2</ele>
        <time>2018-02-19T12:44:42Z</time>
      </trkpt>
      <trkpt lat="44.1216" lon="1.79134">
        <ele>336.2</ele>
        <time>2018-02-19T12:44:45Z</time>
      </trkpt>
      <trkpt lat="44.12153" lon="1.79142">
        <ele>336.1</ele>
        <time>2018-02-19T12:44:48Z</time>
      </trkpt>
      <trkpt lat="44.12143" lon="1.79153">
        <ele>335.9</ele>
        <time>2018-02-19T12:44:50Z</time>
      </trkpt>
      <trkpt lat="44.12135" lon="1.79162">
        <ele>335.9</ele>
        <time>2018-02-19T12:44:52Z</time>
      </trkpt>
      <trkpt lat="44.12123" lon="1.79165">
        <ele>335.7</ele>
        <time>2018-02-19T12:44:54Z</time>
      </trkpt>
      <trkpt lat="44.12113" lon="1.79166">
        <ele>335.7</ele>
        <time>2018-02-19T12:44:56Z</time>
      </trkpt>
      <trkpt lat="44.12105" lon="1.79166">
        <ele>335.5</ele>
        <time>2018-02-19T12:44:58Z</time>
      </trkpt>
      <trkpt lat="44.12096" lon="1.79166">
        <ele>335.5</ele>
        <time>2018-02-19T12:45:00Z</time>
      </trkpt>
      <trkpt lat="44.12086" lon="1.79166">
        <ele>335.5</ele>
        <time>2018-02-19T12:45:02Z</time>
      </trkpt>
      <trkpt lat="44.12077" lon="1.79166">
        <ele>335.3</ele>
        <time>2018-02-19T12:45:04Z</time>
      </trkpt>
      <trkpt lat="44.12067" lon="1.79168">
        <ele>334.7</ele>
        <time>2018-02-19T12:45:07Z</time>
      </trkpt>
      <trkpt lat="44.12058" lon="1.79167">
        <ele>334.4</ele>
        <time>2018-02-19T12:45:10Z</time>
      </trkpt>
      <trkpt lat="44.12051" lon="1.7917">
        <ele>334.2</ele>
        <time>2018-02-19T12:45:14Z</time>
      </trkpt>
      <trkpt lat="44.12043" lon="1.79177">
        <ele>334</ele>
        <time>2018-02-19T12:45:17Z</time>
      </trkpt>
      <trkpt lat="44.12043" lon="1.79189">
        <ele>333.7</ele>
        <time>2018-02-19T12:45:21Z</time>
      </trkpt>
      <trkpt lat="44.12045" lon="1.792">
        <ele>333.8</ele>
        <time>2018-02-19T12:45:24Z</time>
      </trkpt>
      <trkpt lat="44.12048" lon="1.79213">
        <ele>333.9</ele>
        <time>2018-02-19T12:45:27Z</time>
      </trkpt>
      <trkpt lat="44.12052" lon="1.79222">
        <ele>333.7</ele>
        <time>2018-02-19T12:45:30Z</time>
      </trkpt>
      <trkpt lat="44.12055" lon="1.79235">
        <ele>333.8</ele>
        <time>2018-02-19T12:45:33Z</time>
      </trkpt>
      <trkpt lat="44.12057" lon="1.79245">
        <ele>334.2</ele>
        <time>2018-02-19T12:45:36Z</time>
      </trkpt>
      <trkpt lat="44.12059" lon="1.79257">
        <ele>333.9</ele>
        <time>2018-02-19T12:45:40Z</time>
      </trkpt>
      <trkpt lat="44.12064" lon="1.79267">
        <ele>333.8</ele>
        <time>2018-02-19T12:45:43Z</time>
      </trkpt>
      <trkpt lat="44.12067" lon="1.79277">
        <ele>333.7</ele>
        <time>2018-02-19T12:45:46Z</time>
      </trkpt>
      <trkpt lat="44.12071" lon="1.79288">
        <ele>333.6</ele>
        <time>2018-02-19T12:45:49Z</time>
      </trkpt>
      <trkpt lat="44.12073" lon="1.79298">
        <ele>333.5</ele>
        <time>2018-02-19T12:45:51Z</time>
      </trkpt>
      <trkpt lat="44.12075" lon="1.79311">
        <ele>333.2</ele>
        <time>2018-02-19T12:45:54Z</time>
      </trkpt>
      <trkpt lat="44.12075" lon="1.7932">
        <ele>332.9</ele>
        <time>2018-02-19T12:45:56Z</time>
      </trkpt>
      <trkpt lat="44.12079" lon="1.79332">
        <ele>332.6</ele>
        <time>2018-02-19T12:45:59Z</time>
      </trkpt>
      <trkpt lat="44.12083" lon="1.79343">
        <ele>332.2</ele>
        <time>2018-02-19T12:46:02Z</time>
      </trkpt>
      <trkpt lat="44.12087" lon="1.79355">
        <ele>331.7</ele>
        <time>2018-02-19T12:46:06Z</time>
      </trkpt>
      <trkpt lat="44.1209" lon="1.79364">
        <ele>331.4</ele>
        <time>2018-02-19T12:46:09Z</time>
      </trkpt>
      <trkpt lat="44.12091" lon="1.79377">
        <ele>331.2</ele>
        <time>2018-02-19T12:46:12Z</time>
      </trkpt>
      <trkpt lat="44.1209" lon="1.7939">
        <ele>330.7</ele>
        <time>2018-02-19T12:46:14Z</time>
      </trkpt>
      <trkpt lat="44.12093" lon="1.79403">
        <ele>330.7</ele>
        <time>2018-02-19T12:46:17Z</time>
      </trkpt>
      <trkpt lat="44.12095" lon="1.79417">
        <ele>330.8</ele>
        <time>2018-02-19T12:46:20Z</time>
      </trkpt>
      <trkpt lat="44.12099" lon="1.7943">
        <ele>331.2</ele>
        <time>2018-02-19T12:46:22Z</time>
      </trkpt>
      <trkpt lat="44.12103" lon="1.7944">
        <ele>331.1</ele>
        <time>2018-02-19T12:46:24Z</time>
      </trkpt>
      <trkpt lat="44.12108" lon="1.79449">
        <ele>331.3</ele>
        <time>2018-02-19T12:46:26Z</time>
      </trkpt>
      <trkpt lat="44.12113" lon="1.79458">
        <ele>331.5</ele>
        <time>2018-02-19T12:46:28Z</time>
      </trkpt>
      <trkpt lat="44.12117" lon="1.79468">
        <ele>331.9</ele>
        <time>2018-02-19T12:46:30Z</time>
      </trkpt>
      <trkpt lat="44.12122" lon="1.79479">
        <ele>332.8</ele>
        <time>2018-02-19T12:46:33Z</time>
      </trkpt>
      <trkpt lat="44.12129" lon="1.79491">
        <ele>334.3</ele>
        <time>2018-02-19T12:46:36Z</time>
      </trkpt>
      <trkpt lat="44.12135" lon="1.79498">
        <ele>335.5</ele>
        <time>2018-02-19T12:46:38Z</time>
      </trkpt>
      <trkpt lat="44.12141" lon="1.79505">
        <ele>336.1</ele>
        <time>2018-02-19T12:46:40Z</time>
      </trkpt>
      <trkpt lat="44.12147" lon="1.79514">
        <ele>337</ele>
        <time>2018-02-19T12:46:42Z</time>
      </trkpt>
      <trkpt lat="44.12151" lon="1.79522">
        <ele>338.1</ele>
        <time>2018-02-19T12:46:44Z</time>
      </trkpt>
      <trkpt lat="44.12155" lon="1.79533">
        <ele>339.6</ele>
        <time>2018-02-19T12:46:49Z</time>
      </trkpt>
      <trkpt lat="44.12155" lon="1.79544">
        <ele>338</ele>
        <time>2018-02-19T12:46:52Z</time>
      </trkpt>
      <trkpt lat="44.12153" lon="1.79556">
        <ele>337.4</ele>
        <time>2018-02-19T12:46:54Z</time>
      </trkpt>
      <trkpt lat="44.1215" lon="1.79569">
        <ele>337</ele>
        <time>2018-02-19T12:46:57Z</time>
      </trkpt>
      <trkpt lat="44.12148" lon="1.7958">
        <ele>335.5</ele>
        <time>2018-02-19T12:47:01Z</time>
      </trkpt>
      <trkpt lat="44.12143" lon="1.7959">
        <ele>334.1</ele>
        <time>2018-02-19T12:47:05Z</time>
      </trkpt>
      <trkpt lat="44.12142" lon="1.796">
        <ele>332.6</ele>
        <time>2018-02-19T12:47:08Z</time>
      </trkpt>
      <trkpt lat="44.12139" lon="1.7961">
        <ele>331.4</ele>
        <time>2018-02-19T12:47:11Z</time>
      </trkpt>
      <trkpt lat="44.12137" lon="1.7962">
        <ele>329.9</ele>
        <time>2018-02-19T12:47:14Z</time>
      </trkpt>
      <trkpt lat="44.12134" lon="1.7963">
        <ele>328.4</ele>
        <time>2018-02-19T12:47:17Z</time>
      </trkpt>
      <trkpt lat="44.1213" lon="1.79643">
        <ele>327.2</ele>
        <time>2018-02-19T12:47:20Z</time>
      </trkpt>
      <trkpt lat="44.12126" lon="1.79654">
        <ele>326.1</ele>
        <time>2018-02-19T12:47:23Z</time>
      </trkpt>
      <trkpt lat="44.12125" lon="1.79665">
        <ele>324.8</ele>
        <time>2018-02-19T12:47:26Z</time>
      </trkpt>
      <trkpt lat="44.12123" lon="1.79678">
        <ele>323.6</ele>
        <time>2018-02-19T12:47:30Z</time>
      </trkpt>
      <trkpt lat="44.12124" lon="1.79689">
        <ele>323</ele>
        <time>2018-02-19T12:47:33Z</time>
      </trkpt>
      <trkpt lat="44.12123" lon="1.79701">
        <ele>322.3</ele>
        <time>2018-02-19T12:47:36Z</time>
      </trkpt>
      <trkpt lat="44.12129" lon="1.79708">
        <ele>322.5</ele>
        <time>2018-02-19T12:47:41Z</time>
      </trkpt>
      <trkpt lat="44.12136" lon="1.79708">
        <ele>322.4</ele>
        <time>2018-02-19T12:47:46Z</time>
      </trkpt>
      <trkpt lat="44.12147" lon="1.79703">
        <ele>322.5</ele>
        <time>2018-02-19T12:47:49Z</time>
      </trkpt>
      <trkpt lat="44.12154" lon="1.797">
        <ele>322.3</ele>
        <time>2018-02-19T12:47:51Z</time>
      </trkpt>
      <trkpt lat="44.12161" lon="1.79697">
        <ele>322.1</ele>
        <time>2018-02-19T12:47:53Z</time>
      </trkpt>
      <trkpt lat="44.1217" lon="1.79697">
        <ele>321.8</ele>
        <time>2018-02-19T12:47:56Z</time>
      </trkpt>
      <trkpt lat="44.12178" lon="1.79695">
        <ele>322.8</ele>
        <time>2018-02-19T12:48:00Z</time>
      </trkpt>
      <trkpt lat="44.12186" lon="1.79693">
        <ele>323</ele>
        <time>2018-02-19T12:48:05Z</time>
      </trkpt>
      <trkpt lat="44.12195" lon="1.79691">
        <ele>323.7</ele>
        <time>2018-02-19T12:48:08Z</time>
      </trkpt>
      <trkpt lat="44.12203" lon="1.79689">
        <ele>323.1</ele>
        <time>2018-02-19T12:48:11Z</time>
      </trkpt>
      <trkpt lat="44.12213" lon="1.79686">
        <ele>322.8</ele>
        <time>2018-02-19T12:48:14Z</time>
      </trkpt>
      <trkpt lat="44.12222" lon="1.79683">
        <ele>323.4</ele>
        <time>2018-02-19T12:48:17Z</time>
      </trkpt>
      <trkpt lat="44.12231" lon="1.79681">
        <ele>324.4</ele>
        <time>2018-02-19T12:48:20Z</time>
      </trkpt>
      <trkpt lat="44.12239" lon="1.79681">
        <ele>324.3</ele>
        <time>2018-02-19T12:48:23Z</time>
      </trkpt>
      <trkpt lat="44.12247" lon="1.7968">
        <ele>324.6</ele>
        <time>2018-02-19T12:48:26Z</time>
      </trkpt>
      <trkpt lat="44.12255" lon="1.79681">
        <ele>324.6</ele>
        <time>2018-02-19T12:48:28Z</time>
      </trkpt>
      <trkpt lat="44.12266" lon="1.79683">
        <ele>323.3</ele>
        <time>2018-02-19T12:48:30Z</time>
      </trkpt>
      <trkpt lat="44.12276" lon="1.79682">
        <ele>323.3</ele>
        <time>2018-02-19T12:48:32Z</time>
      </trkpt>
      <trkpt lat="44.12283" lon="1.79681">
        <ele>322.7</ele>
        <time>2018-02-19T12:48:34Z</time>
      </trkpt>
      <trkpt lat="44.12294" lon="1.79679">
        <ele>322.9</ele>
        <time>2018-02-19T12:48:37Z</time>
      </trkpt>
      <trkpt lat="44.12302" lon="1.79678">
        <ele>323.5</ele>
        <time>2018-02-19T12:48:40Z</time>
      </trkpt>
      <trkpt lat="44.12311" lon="1.79675">
        <ele>324.1</ele>
        <time>2018-02-19T12:48:43Z</time>
      </trkpt>
      <trkpt lat="44.12319" lon="1.79674">
        <ele>322.3</ele>
        <time>2018-02-19T12:48:45Z</time>
      </trkpt>
      <trkpt lat="44.12326" lon="1.7967">
        <ele>321.7</ele>
        <time>2018-02-19T12:48:47Z</time>
      </trkpt>
      <trkpt lat="44.12334" lon="1.79668">
        <ele>320.7</ele>
        <time>2018-02-19T12:48:50Z</time>
      </trkpt>
      <trkpt lat="44.12342" lon="1.79665">
        <ele>320.7</ele>
        <time>2018-02-19T12:48:52Z</time>
      </trkpt>
      <trkpt lat="44.12349" lon="1.79661">
        <ele>320.5</ele>
        <time>2018-02-19T12:48:54Z</time>
      </trkpt>
      <trkpt lat="44.12358" lon="1.79657">
        <ele>320</ele>
        <time>2018-02-19T12:48:56Z</time>
      </trkpt>
      <trkpt lat="44.12366" lon="1.79654">
        <ele>319.3</ele>
        <time>2018-02-19T12:48:58Z</time>
      </trkpt>
      <trkpt lat="44.12376" lon="1.7965">
        <ele>319.1</ele>
        <time>2018-02-19T12:49:01Z</time>
      </trkpt>
      <trkpt lat="44.12385" lon="1.79647">
        <ele>319</ele>
        <time>2018-02-19T12:49:04Z</time>
      </trkpt>
      <trkpt lat="44.12393" lon="1.79649">
        <ele>319.4</ele>
        <time>2018-02-19T12:49:06Z</time>
      </trkpt>
      <trkpt lat="44.12402" lon="1.79652">
        <ele>319.5</ele>
        <time>2018-02-19T12:49:08Z</time>
      </trkpt>
      <trkpt lat="44.12411" lon="1.79657">
        <ele>319.9</ele>
        <time>2018-02-19T12:49:10Z</time>
      </trkpt>
      <trkpt lat="44.1242" lon="1.7966">
        <ele>320.4</ele>
        <time>2018-02-19T12:49:12Z</time>
      </trkpt>
      <trkpt lat="44.1243" lon="1.79665">
        <ele>320.8</ele>
        <time>2018-02-19T12:49:14Z</time>
      </trkpt>
      <trkpt lat="44.12439" lon="1.79672">
        <ele>321</ele>
        <time>2018-02-19T12:49:16Z</time>
      </trkpt>
      <trkpt lat="44.12446" lon="1.79682">
        <ele>321.2</ele>
        <time>2018-02-19T12:49:18Z</time>
      </trkpt>
      <trkpt lat="44.12451" lon="1.79692">
        <ele>321.4</ele>
        <time>2018-02-19T12:49:20Z</time>
      </trkpt>
      <trkpt lat="44.12456" lon="1.79702">
        <ele>321.7</ele>
        <time>2018-02-19T12:49:22Z</time>
      </trkpt>
      <trkpt lat="44.12463" lon="1.7971">
        <ele>322.1</ele>
        <time>2018-02-19T12:49:24Z</time>
      </trkpt>
      <trkpt lat="44.12468" lon="1.7972">
        <ele>322</ele>
        <time>2018-02-19T12:49:26Z</time>
      </trkpt>
      <trkpt lat="44.12472" lon="1.79731">
        <ele>321.7</ele>
        <time>2018-02-19T12:49:28Z</time>
      </trkpt>
      <trkpt lat="44.12477" lon="1.79742">
        <ele>321.6</ele>
        <time>2018-02-19T12:49:30Z</time>
      </trkpt>
      <trkpt lat="44.12482" lon="1.79749">
        <ele>322.9</ele>
        <time>2018-02-19T12:49:32Z</time>
      </trkpt>
      <trkpt lat="44.12483" lon="1.79762">
        <ele>323.4</ele>
        <time>2018-02-19T12:49:35Z</time>
      </trkpt>
      <trkpt lat="44.12485" lon="1.79774">
        <ele>324.3</ele>
        <time>2018-02-19T12:49:39Z</time>
      </trkpt>
      <trkpt lat="44.12487" lon="1.79785">
        <ele>325.1</ele>
        <time>2018-02-19T12:49:42Z</time>
      </trkpt>
      <trkpt lat="44.12488" lon="1.79795">
        <ele>325.4</ele>
        <time>2018-02-19T12:49:45Z</time>
      </trkpt>
      <trkpt lat="44.12489" lon="1.79809">
        <ele>326.4</ele>
        <time>2018-02-19T12:49:48Z</time>
      </trkpt>
      <trkpt lat="44.12491" lon="1.79819">
        <ele>326.8</ele>
        <time>2018-02-19T12:49:50Z</time>
      </trkpt>
      <trkpt lat="44.12493" lon="1.79834">
        <ele>326.5</ele>
        <time>2018-02-19T12:49:53Z</time>
      </trkpt>
      <trkpt lat="44.12491" lon="1.79845">
        <ele>325.9</ele>
        <time>2018-02-19T12:49:55Z</time>
      </trkpt>
      <trkpt lat="44.12488" lon="1.79858">
        <ele>325.3</ele>
        <time>2018-02-19T12:49:58Z</time>
      </trkpt>
      <trkpt lat="44.12488" lon="1.79875">
        <ele>324.9</ele>
        <time>2018-02-19T12:50:00Z</time>
      </trkpt>
      <trkpt lat="44.12487" lon="1.7989">
        <ele>324.1</ele>
        <time>2018-02-19T12:50:02Z</time>
      </trkpt>
      <trkpt lat="44.12484" lon="1.79901">
        <ele>323.9</ele>
        <time>2018-02-19T12:50:04Z</time>
      </trkpt>
      <trkpt lat="44.12481" lon="1.79912">
        <ele>323.2</ele>
        <time>2018-02-19T12:50:07Z</time>
      </trkpt>
      <trkpt lat="44.12485" lon="1.79922">
        <ele>320.8</ele>
        <time>2018-02-19T12:50:13Z</time>
      </trkpt>
      <trkpt lat="44.12491" lon="1.79929">
        <ele>320</ele>
        <time>2018-02-19T12:50:17Z</time>
      </trkpt>
      <trkpt lat="44.12497" lon="1.79936">
        <ele>319.8</ele>
        <time>2018-02-19T12:50:20Z</time>
      </trkpt>
      <trkpt lat="44.12504" lon="1.79941">
        <ele>320.1</ele>
        <time>2018-02-19T12:50:23Z</time>
      </trkpt>
      <trkpt lat="44.12511" lon="1.79944">
        <ele>320.3</ele>
        <time>2018-02-19T12:50:25Z</time>
      </trkpt>
      <trkpt lat="44.1252" lon="1.79948">
        <ele>320.3</ele>
        <time>2018-02-19T12:50:28Z</time>
      </trkpt>
      <trkpt lat="44.12533" lon="1.79955">
        <ele>320.3</ele>
        <time>2018-02-19T12:50:30Z</time>
      </trkpt>
      <trkpt lat="44.12539" lon="1.79959">
        <ele>320.2</ele>
        <time>2018-02-19T12:50:31Z</time>
      </trkpt>
      <trkpt lat="44.12549" lon="1.79966">
        <ele>320.4</ele>
        <time>2018-02-19T12:50:33Z</time>
      </trkpt>
      <trkpt lat="44.12556" lon="1.79975">
        <ele>320.6</ele>
        <time>2018-02-19T12:50:35Z</time>
      </trkpt>
      <trkpt lat="44.12564" lon="1.79985">
        <ele>320.8</ele>
        <time>2018-02-19T12:50:37Z</time>
      </trkpt>
      <trkpt lat="44.12571" lon="1.79991">
        <ele>320.9</ele>
        <time>2018-02-19T12:50:39Z</time>
      </trkpt>
      <trkpt lat="44.1258" lon="1.79998">
        <ele>321.5</ele>
        <time>2018-02-19T12:50:42Z</time>
      </trkpt>
      <trkpt lat="44.12589" lon="1.80003">
        <ele>322.3</ele>
        <time>2018-02-19T12:50:45Z</time>
      </trkpt>
      <trkpt lat="44.12601" lon="1.80013">
        <ele>323.3</ele>
        <time>2018-02-19T12:50:48Z</time>
      </trkpt>
      <trkpt lat="44.1261" lon="1.80023">
        <ele>323.8</ele>
        <time>2018-02-19T12:50:50Z</time>
      </trkpt>
      <trkpt lat="44.12616" lon="1.80033">
        <ele>324.1</ele>
        <time>2018-02-19T12:50:52Z</time>
      </trkpt>
      <trkpt lat="44.12625" lon="1.80042">
        <ele>324.5</ele>
        <time>2018-02-19T12:50:54Z</time>
      </trkpt>
      <trkpt lat="44.12634" lon="1.8005">
        <ele>325</ele>
        <time>2018-02-19T12:50:56Z</time>
      </trkpt>
      <trkpt lat="44.1264" lon="1.80057">
        <ele>325.3</ele>
        <time>2018-02-19T12:50:58Z</time>
      </trkpt>
      <trkpt lat="44.12646" lon="1.80065">
        <ele>325.8</ele>
        <time>2018-02-19T12:51:00Z</time>
      </trkpt>
      <trkpt lat="44.12654" lon="1.80073">
        <ele>326.2</ele>
        <time>2018-02-19T12:51:02Z</time>
      </trkpt>
      <trkpt lat="44.12663" lon="1.80081">
        <ele>326.7</ele>
        <time>2018-02-19T12:51:05Z</time>
      </trkpt>
      <trkpt lat="44.12669" lon="1.8009">
        <ele>326.8</ele>
        <time>2018-02-19T12:51:07Z</time>
      </trkpt>
      <trkpt lat="44.12676" lon="1.80099">
        <ele>327</ele>
        <time>2018-02-19T12:51:09Z</time>
      </trkpt>
      <trkpt lat="44.12682" lon="1.80105">
        <ele>327.1</ele>
        <time>2018-02-19T12:51:11Z</time>
      </trkpt>
      <trkpt lat="44.12691" lon="1.80109">
        <ele>326.7</ele>
        <time>2018-02-19T12:51:13Z</time>
      </trkpt>
      <trkpt lat="44.12702" lon="1.80109">
        <ele>326.4</ele>
        <time>2018-02-19T12:51:15Z</time>
      </trkpt>
      <trkpt lat="44.1271" lon="1.80108">
        <ele>325.6</ele>
        <time>2018-02-19T12:51:17Z</time>
      </trkpt>
      <trkpt lat="44.12718" lon="1.80105">
        <ele>324.3</ele>
        <time>2018-02-19T12:51:19Z</time>
      </trkpt>
      <trkpt lat="44.12726" lon="1.80102">
        <ele>323.4</ele>
        <time>2018-02-19T12:51:21Z</time>
      </trkpt>
      <trkpt lat="44.12733" lon="1.801">
        <ele>322.5</ele>
        <time>2018-02-19T12:51:23Z</time>
      </trkpt>
      <trkpt lat="44.1274" lon="1.80098">
        <ele>321.9</ele>
        <time>2018-02-19T12:51:25Z</time>
      </trkpt>
      <trkpt lat="44.12749" lon="1.80092">
        <ele>321</ele>
        <time>2018-02-19T12:51:28Z</time>
      </trkpt>
      <trkpt lat="44.12757" lon="1.80085">
        <ele>320</ele>
        <time>2018-02-19T12:51:31Z</time>
      </trkpt>
      <trkpt lat="44.12765" lon="1.80078">
        <ele>319</ele>
        <time>2018-02-19T12:51:34Z</time>
      </trkpt>
      <trkpt lat="44.12771" lon="1.80072">
        <ele>318</ele>
        <time>2018-02-19T12:51:36Z</time>
      </trkpt>
      <trkpt lat="44.12777" lon="1.80064">
        <ele>316.1</ele>
        <time>2018-02-19T12:51:38Z</time>
      </trkpt>
      <trkpt lat="44.12782" lon="1.80056">
        <ele>314.9</ele>
        <time>2018-02-19T12:51:40Z</time>
      </trkpt>
      <trkpt lat="44.12787" lon="1.80047">
        <ele>313.5</ele>
        <time>2018-02-19T12:51:42Z</time>
      </trkpt>
      <trkpt lat="44.1279" lon="1.80034">
        <ele>311.7</ele>
        <time>2018-02-19T12:51:44Z</time>
      </trkpt>
      <trkpt lat="44.12798" lon="1.80022">
        <ele>309.2</ele>
        <time>2018-02-19T12:51:46Z</time>
      </trkpt>
      <trkpt lat="44.12803" lon="1.8001">
        <ele>307.9</ele>
        <time>2018-02-19T12:51:48Z</time>
      </trkpt>
      <trkpt lat="44.12814" lon="1.79998">
        <ele>306.8</ele>
        <time>2018-02-19T12:51:50Z</time>
      </trkpt>
      <trkpt lat="44.12824" lon="1.79993">
        <ele>306.8</ele>
        <time>2018-02-19T12:51:51Z</time>
      </trkpt>
      <trkpt lat="44.12832" lon="1.79989">
        <ele>306.4</ele>
        <time>2018-02-19T12:51:52Z</time>
      </trkpt>
      <trkpt lat="44.12843" lon="1.79982">
        <ele>305.7</ele>
        <time>2018-02-19T12:51:54Z</time>
      </trkpt>
      <trkpt lat="44.12852" lon="1.79978">
        <ele>305.2</ele>
        <time>2018-02-19T12:51:56Z</time>
      </trkpt>
      <trkpt lat="44.12863" lon="1.79972">
        <ele>304.3</ele>
        <time>2018-02-19T12:51:58Z</time>
      </trkpt>
      <trkpt lat="44.12873" lon="1.79965">
        <ele>304.2</ele>
        <time>2018-02-19T12:52:00Z</time>
      </trkpt>
      <trkpt lat="44.12879" lon="1.79959">
        <ele>303.6</ele>
        <time>2018-02-19T12:52:02Z</time>
      </trkpt>
      <trkpt lat="44.1289" lon="1.79951">
        <ele>303</ele>
        <time>2018-02-19T12:52:04Z</time>
      </trkpt>
      <trkpt lat="44.12898" lon="1.79944">
        <ele>302.4</ele>
        <time>2018-02-19T12:52:06Z</time>
      </trkpt>
      <trkpt lat="44.12905" lon="1.79938">
        <ele>302.8</ele>
        <time>2018-02-19T12:52:08Z</time>
      </trkpt>
      <trkpt lat="44.12914" lon="1.79933">
        <ele>302.5</ele>
        <time>2018-02-19T12:52:10Z</time>
      </trkpt>
      <trkpt lat="44.12921" lon="1.79927">
        <ele>302.3</ele>
        <time>2018-02-19T12:52:12Z</time>
      </trkpt>
      <trkpt lat="44.12928" lon="1.79921">
        <ele>302.5</ele>
        <time>2018-02-19T12:52:14Z</time>
      </trkpt>
      <trkpt lat="44.12934" lon="1.79917">
        <ele>302.6</ele>
        <time>2018-02-19T12:52:16Z</time>
      </trkpt>
      <trkpt lat="44.12941" lon="1.79912">
        <ele>302.6</ele>
        <time>2018-02-19T12:52:18Z</time>
      </trkpt>
      <trkpt lat="44.12947" lon="1.79907">
        <ele>303</ele>
        <time>2018-02-19T12:52:20Z</time>
      </trkpt>
      <trkpt lat="44.12955" lon="1.79899">
        <ele>303.8</ele>
        <time>2018-02-19T12:52:23Z</time>
      </trkpt>
      <trkpt lat="44.12964" lon="1.79891">
        <ele>304.1</ele>
        <time>2018-02-19T12:52:26Z</time>
      </trkpt>
      <trkpt lat="44.1297" lon="1.79885">
        <ele>304.3</ele>
        <time>2018-02-19T12:52:28Z</time>
      </trkpt>
      <trkpt lat="44.12977" lon="1.79875">
        <ele>305.2</ele>
        <time>2018-02-19T12:52:31Z</time>
      </trkpt>
      <trkpt lat="44.12983" lon="1.79868">
        <ele>305.8</ele>
        <time>2018-02-19T12:52:33Z</time>
      </trkpt>
      <trkpt lat="44.1299" lon="1.79864">
        <ele>306.2</ele>
        <time>2018-02-19T12:52:35Z</time>
      </trkpt>
      <trkpt lat="44.12997" lon="1.7986">
        <ele>306.7</ele>
        <time>2018-02-19T12:52:37Z</time>
      </trkpt>
      <trkpt lat="44.13006" lon="1.79856">
        <ele>308.1</ele>
        <time>2018-02-19T12:52:40Z</time>
      </trkpt>
      <trkpt lat="44.13013" lon="1.79852">
        <ele>308.6</ele>
        <time>2018-02-19T12:52:42Z</time>
      </trkpt>
      <trkpt lat="44.13022" lon="1.79845">
        <ele>309.6</ele>
        <time>2018-02-19T12:52:45Z</time>
      </trkpt>
      <trkpt lat="44.1303" lon="1.79839">
        <ele>310</ele>
        <time>2018-02-19T12:52:47Z</time>
      </trkpt>
      <trkpt lat="44.13036" lon="1.79834">
        <ele>310.2</ele>
        <time>2018-02-19T12:52:49Z</time>
      </trkpt>
      <trkpt lat="44.13043" lon="1.79829">
        <ele>310.5</ele>
        <time>2018-02-19T12:52:51Z</time>
      </trkpt>
      <trkpt lat="44.13053" lon="1.79821">
        <ele>311.4</ele>
        <time>2018-02-19T12:52:54Z</time>
      </trkpt>
      <trkpt lat="44.13059" lon="1.79817">
        <ele>312.3</ele>
        <time>2018-02-19T12:52:56Z</time>
      </trkpt>
      <trkpt lat="44.13069" lon="1.79811">
        <ele>313.3</ele>
        <time>2018-02-19T12:52:59Z</time>
      </trkpt>
      <trkpt lat="44.13076" lon="1.79808">
        <ele>313.3</ele>
        <time>2018-02-19T12:53:01Z</time>
      </trkpt>
      <trkpt lat="44.13083" lon="1.79805">
        <ele>314</ele>
        <time>2018-02-19T12:53:04Z</time>
      </trkpt>
      <trkpt lat="44.13091" lon="1.798">
        <ele>314.9</ele>
        <time>2018-02-19T12:53:06Z</time>
      </trkpt>
      <trkpt lat="44.13098" lon="1.79796">
        <ele>315.7</ele>
        <time>2018-02-19T12:53:08Z</time>
      </trkpt>
      <trkpt lat="44.13106" lon="1.79791">
        <ele>316.4</ele>
        <time>2018-02-19T12:53:10Z</time>
      </trkpt>
      <trkpt lat="44.13113" lon="1.79787">
        <ele>317.3</ele>
        <time>2018-02-19T12:53:12Z</time>
      </trkpt>
      <trkpt lat="44.13119" lon="1.79781">
        <ele>317.8</ele>
        <time>2018-02-19T12:53:14Z</time>
      </trkpt>
      <trkpt lat="44.13125" lon="1.79769">
        <ele>318.9</ele>
        <time>2018-02-19T12:53:17Z</time>
      </trkpt>
      <trkpt lat="44.13131" lon="1.79758">
        <ele>320.1</ele>
        <time>2018-02-19T12:53:20Z</time>
      </trkpt>
      <trkpt lat="44.13138" lon="1.79746">
        <ele>321.2</ele>
        <time>2018-02-19T12:53:23Z</time>
      </trkpt>
      <trkpt lat="44.13145" lon="1.79735">
        <ele>322.3</ele>
        <time>2018-02-19T12:53:26Z</time>
      </trkpt>
      <trkpt lat="44.13152" lon="1.79726">
        <ele>323.5</ele>
        <time>2018-02-19T12:53:29Z</time>
      </trkpt>
      <trkpt lat="44.13156" lon="1.79712">
        <ele>323.9</ele>
        <time>2018-02-19T12:53:32Z</time>
      </trkpt>
      <trkpt lat="44.1316" lon="1.79703">
        <ele>323.8</ele>
        <time>2018-02-19T12:53:34Z</time>
      </trkpt>
      <trkpt lat="44.13163" lon="1.79694">
        <ele>323.4</ele>
        <time>2018-02-19T12:53:36Z</time>
      </trkpt>
      <trkpt lat="44.13166" lon="1.79684">
        <ele>323.2</ele>
        <time>2018-02-19T12:53:38Z</time>
      </trkpt>
      <trkpt lat="44.13169" lon="1.79674">
        <ele>323.1</ele>
        <time>2018-02-19T12:53:40Z</time>
      </trkpt>
      <trkpt lat="44.13171" lon="1.79664">
        <ele>322.9</ele>
        <time>2018-02-19T12:53:42Z</time>
      </trkpt>
      <trkpt lat="44.13174" lon="1.79654">
        <ele>322.8</ele>
        <time>2018-02-19T12:53:44Z</time>
      </trkpt>
      <trkpt lat="44.13177" lon="1.79643">
        <ele>322.4</ele>
        <time>2018-02-19T12:53:46Z</time>
      </trkpt>
      <trkpt lat="44.1318" lon="1.79632">
        <ele>321.7</ele>
        <time>2018-02-19T12:53:48Z</time>
      </trkpt>
      <trkpt lat="44.13183" lon="1.79623">
        <ele>321.3</ele>
        <time>2018-02-19T12:53:50Z</time>
      </trkpt>
      <trkpt lat="44.13188" lon="1.79611">
        <ele>320.8</ele>
        <time>2018-02-19T12:53:53Z</time>
      </trkpt>
      <trkpt lat="44.13193" lon="1.79602">
        <ele>320.2</ele>
        <time>2018-02-19T12:53:56Z</time>
      </trkpt>
      <trkpt lat="44.13201" lon="1.79596">
        <ele>319.9</ele>
        <time>2018-02-19T12:53:59Z</time>
      </trkpt>
      <trkpt lat="44.13211" lon="1.79591">
        <ele>320.1</ele>
        <time>2018-02-19T12:54:02Z</time>
      </trkpt>
      <trkpt lat="44.13218" lon="1.79588">
        <ele>321.2</ele>
        <time>2018-02-19T12:54:04Z</time>
      </trkpt>
      <trkpt lat="44.13226" lon="1.79585">
        <ele>321.4</ele>
        <time>2018-02-19T12:54:06Z</time>
      </trkpt>
      <trkpt lat="44.13235" lon="1.7958">
        <ele>322</ele>
        <time>2018-02-19T12:54:08Z</time>
      </trkpt>
      <trkpt lat="44.13244" lon="1.79579">
        <ele>322.3</ele>
        <time>2018-02-19T12:54:10Z</time>
      </trkpt>
      <trkpt lat="44.13252" lon="1.79578">
        <ele>322.1</ele>
        <time>2018-02-19T12:54:12Z</time>
      </trkpt>
      <trkpt lat="44.13261" lon="1.79577">
        <ele>322.6</ele>
        <time>2018-02-19T12:54:14Z</time>
      </trkpt>
      <trkpt lat="44.13269" lon="1.79576">
        <ele>324</ele>
        <time>2018-02-19T12:54:16Z</time>
      </trkpt>
      <trkpt lat="44.13277" lon="1.79576">
        <ele>326.7</ele>
        <time>2018-02-19T12:54:18Z</time>
      </trkpt>
      <trkpt lat="44.13285" lon="1.79575">
        <ele>328.3</ele>
        <time>2018-02-19T12:54:20Z</time>
      </trkpt>
      <trkpt lat="44.13293" lon="1.79575">
        <ele>328.7</ele>
        <time>2018-02-19T12:54:22Z</time>
      </trkpt>
      <trkpt lat="44.13301" lon="1.79573">
        <ele>329.6</ele>
        <time>2018-02-19T12:54:24Z</time>
      </trkpt>
      <trkpt lat="44.1331" lon="1.79571">
        <ele>329.5</ele>
        <time>2018-02-19T12:54:26Z</time>
      </trkpt>
      <trkpt lat="44.13318" lon="1.79568">
        <ele>330.1</ele>
        <time>2018-02-19T12:54:28Z</time>
      </trkpt>
      <trkpt lat="44.13325" lon="1.79563">
        <ele>330.4</ele>
        <time>2018-02-19T12:54:30Z</time>
      </trkpt>
      <trkpt lat="44.13333" lon="1.79557">
        <ele>331</ele>
        <time>2018-02-19T12:54:32Z</time>
      </trkpt>
      <trkpt lat="44.1334" lon="1.79551">
        <ele>331.3</ele>
        <time>2018-02-19T12:54:34Z</time>
      </trkpt>
      <trkpt lat="44.13346" lon="1.79545">
        <ele>331.9</ele>
        <time>2018-02-19T12:54:36Z</time>
      </trkpt>
      <trkpt lat="44.13352" lon="1.79538">
        <ele>332.3</ele>
        <time>2018-02-19T12:54:38Z</time>
      </trkpt>
      <trkpt lat="44.13359" lon="1.79527">
        <ele>332.7</ele>
        <time>2018-02-19T12:54:41Z</time>
      </trkpt>
      <trkpt lat="44.13363" lon="1.79518">
        <ele>333</ele>
        <time>2018-02-19T12:54:44Z</time>
      </trkpt>
      <trkpt lat="44.13367" lon="1.79505">
        <ele>333.2</ele>
        <time>2018-02-19T12:54:48Z</time>
      </trkpt>
      <trkpt lat="44.13371" lon="1.79494">
        <ele>333.1</ele>
        <time>2018-02-19T12:54:51Z</time>
      </trkpt>
      <trkpt lat="44.13376" lon="1.79486">
        <ele>332.5</ele>
        <time>2018-02-19T12:54:53Z</time>
      </trkpt>
      <trkpt lat="44.13379" lon="1.79476">
        <ele>332.7</ele>
        <time>2018-02-19T12:54:55Z</time>
      </trkpt>
      <trkpt lat="44.13382" lon="1.79467">
        <ele>332.4</ele>
        <time>2018-02-19T12:54:57Z</time>
      </trkpt>
      <trkpt lat="44.13387" lon="1.79457">
        <ele>332.1</ele>
        <time>2018-02-19T12:54:59Z</time>
      </trkpt>
      <trkpt lat="44.13391" lon="1.79447">
        <ele>332.4</ele>
        <time>2018-02-19T12:55:01Z</time>
      </trkpt>
      <trkpt lat="44.13398" lon="1.79438">
        <ele>332.6</ele>
        <time>2018-02-19T12:55:03Z</time>
      </trkpt>
      <trkpt lat="44.13406" lon="1.7943">
        <ele>332.6</ele>
        <time>2018-02-19T12:55:05Z</time>
      </trkpt>
      <trkpt lat="44.13413" lon="1.79423">
        <ele>332.8</ele>
        <time>2018-02-19T12:55:07Z</time>
      </trkpt>
      <trkpt lat="44.13421" lon="1.79414">
        <ele>333</ele>
        <time>2018-02-19T12:55:09Z</time>
      </trkpt>
      <trkpt lat="44.13429" lon="1.79406">
        <ele>332.9</ele>
        <time>2018-02-19T12:55:11Z</time>
      </trkpt>
      <trkpt lat="44.13437" lon="1.79395">
        <ele>333.1</ele>
        <time>2018-02-19T12:55:13Z</time>
      </trkpt>
      <trkpt lat="44.13443" lon="1.79384">
        <ele>333.1</ele>
        <time>2018-02-19T12:55:15Z</time>
      </trkpt>
      <trkpt lat="44.13451" lon="1.79373">
        <ele>332.8</ele>
        <time>2018-02-19T12:55:17Z</time>
      </trkpt>
      <trkpt lat="44.13459" lon="1.79359">
        <ele>332.5</ele>
        <time>2018-02-19T12:55:19Z</time>
      </trkpt>
      <trkpt lat="44.13467" lon="1.79345">
        <ele>332.7</ele>
        <time>2018-02-19T12:55:21Z</time>
      </trkpt>
      <trkpt lat="44.13475" lon="1.79332">
        <ele>332.4</ele>
        <time>2018-02-19T12:55:23Z</time>
      </trkpt>
      <trkpt lat="44.13483" lon="1.79318">
        <ele>332.2</ele>
        <time>2018-02-19T12:55:25Z</time>
      </trkpt>
      <trkpt lat="44.1349" lon="1.79305">
        <ele>331.6</ele>
        <time>2018-02-19T12:55:27Z</time>
      </trkpt>
      <trkpt lat="44.13496" lon="1.79293">
        <ele>331.7</ele>
        <time>2018-02-19T12:55:29Z</time>
      </trkpt>
      <trkpt lat="44.13503" lon="1.79282">
        <ele>331.7</ele>
        <time>2018-02-19T12:55:31Z</time>
      </trkpt>
      <trkpt lat="44.1351" lon="1.7927">
        <ele>331.6</ele>
        <time>2018-02-19T12:55:33Z</time>
      </trkpt>
      <trkpt lat="44.13517" lon="1.79256">
        <ele>330.9</ele>
        <time>2018-02-19T12:55:35Z</time>
      </trkpt>
      <trkpt lat="44.13525" lon="1.79242">
        <ele>330.5</ele>
        <time>2018-02-19T12:55:37Z</time>
      </trkpt>
      <trkpt lat="44.13533" lon="1.79227">
        <ele>330</ele>
        <time>2018-02-19T12:55:39Z</time>
      </trkpt>
      <trkpt lat="44.13542" lon="1.79213">
        <ele>329.4</ele>
        <time>2018-02-19T12:55:41Z</time>
      </trkpt>
      <trkpt lat="44.13549" lon="1.79199">
        <ele>328.8</ele>
        <time>2018-02-19T12:55:43Z</time>
      </trkpt>
      <trkpt lat="44.13557" lon="1.79186">
        <ele>328.4</ele>
        <time>2018-02-19T12:55:45Z</time>
      </trkpt>
      <trkpt lat="44.13563" lon="1.79172">
        <ele>327.9</ele>
        <time>2018-02-19T12:55:47Z</time>
      </trkpt>
      <trkpt lat="44.13571" lon="1.79159">
        <ele>327.1</ele>
        <time>2018-02-19T12:55:49Z</time>
      </trkpt>
      <trkpt lat="44.13577" lon="1.79145">
        <ele>326.3</ele>
        <time>2018-02-19T12:55:51Z</time>
      </trkpt>
      <trkpt lat="44.13584" lon="1.79131">
        <ele>325.7</ele>
        <time>2018-02-19T12:55:53Z</time>
      </trkpt>
      <trkpt lat="44.1359" lon="1.79117">
        <ele>325.1</ele>
        <time>2018-02-19T12:55:55Z</time>
      </trkpt>
      <trkpt lat="44.13595" lon="1.79104">
        <ele>324.6</ele>
        <time>2018-02-19T12:55:57Z</time>
      </trkpt>
      <trkpt lat="44.13601" lon="1.7909">
        <ele>325.1</ele>
        <time>2018-02-19T12:55:59Z</time>
      </trkpt>
      <trkpt lat="44.13606" lon="1.79076">
        <ele>325.5</ele>
        <time>2018-02-19T12:56:01Z</time>
      </trkpt>
      <trkpt lat="44.13612" lon="1.79061">
        <ele>325.7</ele>
        <time>2018-02-19T12:56:03Z</time>
      </trkpt>
      <trkpt lat="44.13618" lon="1.79047">
        <ele>326.1</ele>
        <time>2018-02-19T12:56:05Z</time>
      </trkpt>
      <trkpt lat="44.13624" lon="1.79033">
        <ele>326.8</ele>
        <time>2018-02-19T12:56:07Z</time>
      </trkpt>
      <trkpt lat="44.1363" lon="1.7902">
        <ele>327.2</ele>
        <time>2018-02-19T12:56:09Z</time>
      </trkpt>
      <trkpt lat="44.13636" lon="1.79004">
        <ele>327.3</ele>
        <time>2018-02-19T12:56:11Z</time>
      </trkpt>
      <trkpt lat="44.13642" lon="1.7899">
        <ele>328</ele>
        <time>2018-02-19T12:56:13Z</time>
      </trkpt>
      <trkpt lat="44.13647" lon="1.78976">
        <ele>329.5</ele>
        <time>2018-02-19T12:56:15Z</time>
      </trkpt>
      <trkpt lat="44.13653" lon="1.78961">
        <ele>331</ele>
        <time>2018-02-19T12:56:17Z</time>
      </trkpt>
      <trkpt lat="44.1366" lon="1.78949">
        <ele>332.6</ele>
        <time>2018-02-19T12:56:19Z</time>
      </trkpt>
      <trkpt lat="44.13666" lon="1.78936">
        <ele>333.3</ele>
        <time>2018-02-19T12:56:21Z</time>
      </trkpt>
      <trkpt lat="44.13672" lon="1.78922">
        <ele>333.8</ele>
        <time>2018-02-19T12:56:23Z</time>
      </trkpt>
      <trkpt lat="44.13679" lon="1.78911">
        <ele>334.6</ele>
        <time>2018-02-19T12:56:25Z</time>
      </trkpt>
      <trkpt lat="44.13686" lon="1.78899">
        <ele>334.9</ele>
        <time>2018-02-19T12:56:27Z</time>
      </trkpt>
      <trkpt lat="44.13691" lon="1.78889">
        <ele>335.6</ele>
        <time>2018-02-19T12:56:29Z</time>
      </trkpt>
      <trkpt lat="44.13697" lon="1.78879">
        <ele>336.4</ele>
        <time>2018-02-19T12:56:31Z</time>
      </trkpt>
      <trkpt lat="44.13703" lon="1.78868">
        <ele>337.6</ele>
        <time>2018-02-19T12:56:33Z</time>
      </trkpt>
      <trkpt lat="44.13709" lon="1.78857">
        <ele>339.1</ele>
        <time>2018-02-19T12:56:35Z</time>
      </trkpt>
      <trkpt lat="44.13717" lon="1.78845">
        <ele>339.7</ele>
        <time>2018-02-19T12:56:37Z</time>
      </trkpt>
      <trkpt lat="44.13723" lon="1.78835">
        <ele>340.5</ele>
        <time>2018-02-19T12:56:39Z</time>
      </trkpt>
      <trkpt lat="44.1373" lon="1.78825">
        <ele>341.3</ele>
        <time>2018-02-19T12:56:41Z</time>
      </trkpt>
      <trkpt lat="44.13738" lon="1.78814">
        <ele>341.6</ele>
        <time>2018-02-19T12:56:43Z</time>
      </trkpt>
      <trkpt lat="44.13746" lon="1.78803">
        <ele>341.5</ele>
        <time>2018-02-19T12:56:45Z</time>
      </trkpt>
      <trkpt lat="44.13752" lon="1.78793">
        <ele>341.2</ele>
        <time>2018-02-19T12:56:47Z</time>
      </trkpt>
      <trkpt lat="44.13759" lon="1.78784">
        <ele>341</ele>
        <time>2018-02-19T12:56:49Z</time>
      </trkpt>
      <trkpt lat="44.13766" lon="1.78776">
        <ele>340.5</ele>
        <time>2018-02-19T12:56:51Z</time>
      </trkpt>
      <trkpt lat="44.13771" lon="1.78767">
        <ele>340.2</ele>
        <time>2018-02-19T12:56:53Z</time>
      </trkpt>
      <trkpt lat="44.13777" lon="1.78757">
        <ele>339.8</ele>
        <time>2018-02-19T12:56:55Z</time>
      </trkpt>
      <trkpt lat="44.13784" lon="1.78746">
        <ele>340.2</ele>
        <time>2018-02-19T12:56:57Z</time>
      </trkpt>
      <trkpt lat="44.13791" lon="1.78735">
        <ele>340.2</ele>
        <time>2018-02-19T12:56:59Z</time>
      </trkpt>
      <trkpt lat="44.138" lon="1.78725">
        <ele>339.8</ele>
        <time>2018-02-19T12:57:01Z</time>
      </trkpt>
      <trkpt lat="44.13809" lon="1.78715">
        <ele>339.2</ele>
        <time>2018-02-19T12:57:03Z</time>
      </trkpt>
      <trkpt lat="44.13818" lon="1.78706">
        <ele>338.3</ele>
        <time>2018-02-19T12:57:05Z</time>
      </trkpt>
      <trkpt lat="44.13826" lon="1.78698">
        <ele>337.7</ele>
        <time>2018-02-19T12:57:07Z</time>
      </trkpt>
      <trkpt lat="44.13834" lon="1.78689">
        <ele>337.5</ele>
        <time>2018-02-19T12:57:09Z</time>
      </trkpt>
      <trkpt lat="44.13844" lon="1.78681">
        <ele>336.8</ele>
        <time>2018-02-19T12:57:11Z</time>
      </trkpt>
      <trkpt lat="44.13855" lon="1.78671">
        <ele>336.6</ele>
        <time>2018-02-19T12:57:13Z</time>
      </trkpt>
      <trkpt lat="44.13862" lon="1.78661">
        <ele>336.9</ele>
        <time>2018-02-19T12:57:15Z</time>
      </trkpt>
      <trkpt lat="44.13871" lon="1.78655">
        <ele>336.6</ele>
        <time>2018-02-19T12:57:17Z</time>
      </trkpt>
      <trkpt lat="44.13877" lon="1.78648">
        <ele>336.6</ele>
        <time>2018-02-19T12:57:19Z</time>
      </trkpt>
      <trkpt lat="44.13875" lon="1.78637">
        <ele>336</ele>
        <time>2018-02-19T12:57:46Z</time>
      </trkpt>
      <trkpt lat="44.13874" lon="1.78634">
        <ele>334.9</ele>
        <time>2018-02-19T12:57:53Z</time>
      </trkpt>
      <trkpt lat="44.13884" lon="1.78631">
        <ele>347.1</ele>
        <time>2018-02-19T13:00:02Z</time>
      </trkpt>
      <trkpt lat="44.13892" lon="1.78624">
        <ele>347.2</ele>
        <time>2018-02-19T13:00:05Z</time>
      </trkpt>
      <trkpt lat="44.13901" lon="1.78617">
        <ele>347.6</ele>
        <time>2018-02-19T13:00:08Z</time>
      </trkpt>
      <trkpt lat="44.13907" lon="1.7861">
        <ele>347.7</ele>
        <time>2018-02-19T13:00:10Z</time>
      </trkpt>
      <trkpt lat="44.13912" lon="1.78602">
        <ele>348.1</ele>
        <time>2018-02-19T13:00:12Z</time>
      </trkpt>
      <trkpt lat="44.13918" lon="1.78594">
        <ele>348.3</ele>
        <time>2018-02-19T13:00:14Z</time>
      </trkpt>
      <trkpt lat="44.13924" lon="1.78585">
        <ele>348.5</ele>
        <time>2018-02-19T13:00:16Z</time>
      </trkpt>
      <trkpt lat="44.13931" lon="1.78575">
        <ele>348.5</ele>
        <time>2018-02-19T13:00:18Z</time>
      </trkpt>
      <trkpt lat="44.13938" lon="1.78566">
        <ele>348.3</ele>
        <time>2018-02-19T13:00:20Z</time>
      </trkpt>
      <trkpt lat="44.13945" lon="1.78557">
        <ele>348.2</ele>
        <time>2018-02-19T13:00:22Z</time>
      </trkpt>
      <trkpt lat="44.13951" lon="1.78548">
        <ele>348.2</ele>
        <time>2018-02-19T13:00:24Z</time>
      </trkpt>
      <trkpt lat="44.13959" lon="1.78539">
        <ele>347.8</ele>
        <time>2018-02-19T13:00:26Z</time>
      </trkpt>
      <trkpt lat="44.13966" lon="1.78531">
        <ele>347.5</ele>
        <time>2018-02-19T13:00:28Z</time>
      </trkpt>
      <trkpt lat="44.13974" lon="1.78522">
        <ele>347.3</ele>
        <time>2018-02-19T13:00:30Z</time>
      </trkpt>
      <trkpt lat="44.13982" lon="1.78513">
        <ele>347.1</ele>
        <time>2018-02-19T13:00:32Z</time>
      </trkpt>
      <trkpt lat="44.13991" lon="1.78505">
        <ele>346.9</ele>
        <time>2018-02-19T13:00:34Z</time>
      </trkpt>
      <trkpt lat="44.14001" lon="1.78502">
        <ele>346.7</ele>
        <time>2018-02-19T13:00:36Z</time>
      </trkpt>
      <trkpt lat="44.14012" lon="1.78498">
        <ele>346.7</ele>
        <time>2018-02-19T13:00:38Z</time>
      </trkpt>
      <trkpt lat="44.14024" lon="1.78496">
        <ele>346.4</ele>
        <time>2018-02-19T13:00:40Z</time>
      </trkpt>
      <trkpt lat="44.14038" lon="1.78495">
        <ele>345.9</ele>
        <time>2018-02-19T13:00:42Z</time>
      </trkpt>
      <trkpt lat="44.14045" lon="1.78495">
        <ele>345.4</ele>
        <time>2018-02-19T13:00:43Z</time>
      </trkpt>
      <trkpt lat="44.1406" lon="1.78494">
        <ele>344.7</ele>
        <time>2018-02-19T13:00:45Z</time>
      </trkpt>
      <trkpt lat="44.14075" lon="1.78493">
        <ele>344.1</ele>
        <time>2018-02-19T13:00:47Z</time>
      </trkpt>
      <trkpt lat="44.14083" lon="1.78492">
        <ele>343.7</ele>
        <time>2018-02-19T13:00:48Z</time>
      </trkpt>
      <trkpt lat="44.14092" lon="1.78492">
        <ele>343.5</ele>
        <time>2018-02-19T13:00:49Z</time>
      </trkpt>
      <trkpt lat="44.141" lon="1.78491">
        <ele>343.2</ele>
        <time>2018-02-19T13:00:50Z</time>
      </trkpt>
      <trkpt lat="44.14108" lon="1.78491">
        <ele>343.1</ele>
        <time>2018-02-19T13:00:51Z</time>
      </trkpt>
      <trkpt lat="44.14117" lon="1.78491">
        <ele>342.5</ele>
        <time>2018-02-19T13:00:52Z</time>
      </trkpt>
      <trkpt lat="44.14126" lon="1.78491">
        <ele>341.8</ele>
        <time>2018-02-19T13:00:53Z</time>
      </trkpt>
      <trkpt lat="44.14134" lon="1.78491">
        <ele>341.5</ele>
        <time>2018-02-19T13:00:54Z</time>
      </trkpt>
      <trkpt lat="44.14141" lon="1.78491">
        <ele>341</ele>
        <time>2018-02-19T13:00:55Z</time>
      </trkpt>
      <trkpt lat="44.14149" lon="1.7849">
        <ele>340.3</ele>
        <time>2018-02-19T13:00:56Z</time>
      </trkpt>
      <trkpt lat="44.14159" lon="1.78478">
        <ele>340.2</ele>
        <time>2018-02-19T13:00:58Z</time>
      </trkpt>
      <trkpt lat="44.14166" lon="1.78463">
        <ele>338.8</ele>
        <time>2018-02-19T13:01:00Z</time>
      </trkpt>
      <trkpt lat="44.14288" lon="1.78262">
        <ele>338.6</ele>
        <time>2018-02-19T13:01:30Z</time>
      </trkpt>
      <trkpt lat="44.14295" lon="1.78251">
        <ele>339.6</ele>
        <time>2018-02-19T13:01:32Z</time>
      </trkpt>
      <trkpt lat="44.14301" lon="1.78241">
        <ele>340.3</ele>
        <time>2018-02-19T13:01:34Z</time>
      </trkpt>
      <trkpt lat="44.14308" lon="1.78231">
        <ele>340.2</ele>
        <time>2018-02-19T13:01:36Z</time>
      </trkpt>
      <trkpt lat="44.14315" lon="1.78218">
        <ele>340.5</ele>
        <time>2018-02-19T13:01:38Z</time>
      </trkpt>
      <trkpt lat="44.14322" lon="1.78204">
        <ele>341.2</ele>
        <time>2018-02-19T13:01:40Z</time>
      </trkpt>
      <trkpt lat="44.1433" lon="1.78193">
        <ele>341</ele>
        <time>2018-02-19T13:01:42Z</time>
      </trkpt>
      <trkpt lat="44.14337" lon="1.7818">
        <ele>341.6</ele>
        <time>2018-02-19T13:01:44Z</time>
      </trkpt>
      <trkpt lat="44.14344" lon="1.78168">
        <ele>341.6</ele>
        <time>2018-02-19T13:01:46Z</time>
      </trkpt>
      <trkpt lat="44.14351" lon="1.78154">
        <ele>341.6</ele>
        <time>2018-02-19T13:01:48Z</time>
      </trkpt>
      <trkpt lat="44.14359" lon="1.7814">
        <ele>341.9</ele>
        <time>2018-02-19T13:01:50Z</time>
      </trkpt>
      <trkpt lat="44.14365" lon="1.78127">
        <ele>342</ele>
        <time>2018-02-19T13:01:52Z</time>
      </trkpt>
      <trkpt lat="44.14372" lon="1.78117">
        <ele>342.1</ele>
        <time>2018-02-19T13:01:54Z</time>
      </trkpt>
      <trkpt lat="44.14378" lon="1.78107">
        <ele>341.7</ele>
        <time>2018-02-19T13:01:56Z</time>
      </trkpt>
      <trkpt lat="44.14385" lon="1.78097">
        <ele>341.4</ele>
        <time>2018-02-19T13:01:58Z</time>
      </trkpt>
      <trkpt lat="44.14392" lon="1.78091">
        <ele>341.3</ele>
        <time>2018-02-19T13:02:00Z</time>
      </trkpt>
      <trkpt lat="44.14399" lon="1.78086">
        <ele>341.1</ele>
        <time>2018-02-19T13:02:02Z</time>
      </trkpt>
      <trkpt lat="44.14405" lon="1.78074">
        <ele>340.1</ele>
        <time>2018-02-19T13:02:05Z</time>
      </trkpt>
      <trkpt lat="44.14413" lon="1.78064">
        <ele>339.8</ele>
        <time>2018-02-19T13:02:08Z</time>
      </trkpt>
      <trkpt lat="44.14418" lon="1.78056">
        <ele>339.5</ele>
        <time>2018-02-19T13:02:10Z</time>
      </trkpt>
      <trkpt lat="44.14425" lon="1.7805">
        <ele>339.3</ele>
        <time>2018-02-19T13:02:12Z</time>
      </trkpt>
      <trkpt lat="44.14432" lon="1.78042">
        <ele>338.9</ele>
        <time>2018-02-19T13:02:14Z</time>
      </trkpt>
      <trkpt lat="44.14439" lon="1.78034">
        <ele>338.5</ele>
        <time>2018-02-19T13:02:16Z</time>
      </trkpt>
      <trkpt lat="44.14448" lon="1.78032">
        <ele>337.9</ele>
        <time>2018-02-19T13:02:18Z</time>
      </trkpt>
      <trkpt lat="44.14457" lon="1.7803">
        <ele>337.4</ele>
        <time>2018-02-19T13:02:20Z</time>
      </trkpt>
      <trkpt lat="44.14464" lon="1.78026">
        <ele>337.2</ele>
        <time>2018-02-19T13:02:22Z</time>
      </trkpt>
      <trkpt lat="44.14472" lon="1.78022">
        <ele>337.2</ele>
        <time>2018-02-19T13:02:24Z</time>
      </trkpt>
      <trkpt lat="44.1448" lon="1.78017">
        <ele>336.6</ele>
        <time>2018-02-19T13:02:27Z</time>
      </trkpt>
      <trkpt lat="44.14486" lon="1.7801">
        <ele>336.3</ele>
        <time>2018-02-19T13:02:30Z</time>
      </trkpt>
      <trkpt lat="44.14492" lon="1.78">
        <ele>335.5</ele>
        <time>2018-02-19T13:02:33Z</time>
      </trkpt>
      <trkpt lat="44.14495" lon="1.77997">
        <ele>335.2</ele>
        <time>2018-02-19T13:02:40Z</time>
      </trkpt>
      <trkpt lat="44.14488" lon="1.78001">
        <ele>334</ele>
        <time>2018-02-19T13:04:34Z</time>
      </trkpt>
      <trkpt lat="44.14491" lon="1.78012">
        <ele>333.3</ele>
        <time>2018-02-19T13:04:40Z</time>
      </trkpt>
      <trkpt lat="44.1449" lon="1.78019">
        <ele>334</ele>
        <time>2018-02-19T13:04:47Z</time>
      </trkpt>
      <trkpt lat="44.14483" lon="1.78021">
        <ele>333.7</ele>
        <time>2018-02-19T13:05:26Z</time>
      </trkpt>
      <trkpt lat="44.14476" lon="1.78026">
        <ele>334.3</ele>
        <time>2018-02-19T13:05:29Z</time>
      </trkpt>
      <trkpt lat="44.14469" lon="1.7802">
        <ele>336.2</ele>
        <time>2018-02-19T13:05:36Z</time>
      </trkpt>
      <trkpt lat="44.14463" lon="1.78011">
        <ele>336.6</ele>
        <time>2018-02-19T13:05:40Z</time>
      </trkpt>
      <trkpt lat="44.14455" lon="1.78005">
        <ele>336.9</ele>
        <time>2018-02-19T13:05:44Z</time>
      </trkpt>
      <trkpt lat="44.1445" lon="1.77997">
        <ele>337.2</ele>
        <time>2018-02-19T13:05:48Z</time>
      </trkpt>
      <trkpt lat="44.14443" lon="1.7799">
        <ele>337.4</ele>
        <time>2018-02-19T13:05:52Z</time>
      </trkpt>
      <trkpt lat="44.14438" lon="1.77981">
        <ele>337</ele>
        <time>2018-02-19T13:05:55Z</time>
      </trkpt>
      <trkpt lat="44.14435" lon="1.77972">
        <ele>336.6</ele>
        <time>2018-02-19T13:05:59Z</time>
      </trkpt>
      <trkpt lat="44.1443" lon="1.77961">
        <ele>336.1</ele>
        <time>2018-02-19T13:06:04Z</time>
      </trkpt>
      <trkpt lat="44.14427" lon="1.77949">
        <ele>335.5</ele>
        <time>2018-02-19T13:06:08Z</time>
      </trkpt>
      <trkpt lat="44.14424" lon="1.77937">
        <ele>334.5</ele>
        <time>2018-02-19T13:06:12Z</time>
      </trkpt>
      <trkpt lat="44.14423" lon="1.77925">
        <ele>333.3</ele>
        <time>2018-02-19T13:06:16Z</time>
      </trkpt>
      <trkpt lat="44.14419" lon="1.77915">
        <ele>331.6</ele>
        <time>2018-02-19T13:06:21Z</time>
      </trkpt>
      <trkpt lat="44.14414" lon="1.77904">
        <ele>330.5</ele>
        <time>2018-02-19T13:06:26Z</time>
      </trkpt>
      <trkpt lat="44.14411" lon="1.77894">
        <ele>329.5</ele>
        <time>2018-02-19T13:06:30Z</time>
      </trkpt>
      <trkpt lat="44.14408" lon="1.77882">
        <ele>328.3</ele>
        <time>2018-02-19T13:06:35Z</time>
      </trkpt>
      <trkpt lat="44.14403" lon="1.77871">
        <ele>327.3</ele>
        <time>2018-02-19T13:06:39Z</time>
      </trkpt>
      <trkpt lat="44.14403" lon="1.77858">
        <ele>325.8</ele>
        <time>2018-02-19T13:06:43Z</time>
      </trkpt>
      <trkpt lat="44.14401" lon="1.77845">
        <ele>324.4</ele>
        <time>2018-02-19T13:06:46Z</time>
      </trkpt>
      <trkpt lat="44.14402" lon="1.77831">
        <ele>322.8</ele>
        <time>2018-02-19T13:06:49Z</time>
      </trkpt>
      <trkpt lat="44.14401" lon="1.77819">
        <ele>321</ele>
        <time>2018-02-19T13:06:52Z</time>
      </trkpt>
      <trkpt lat="44.14401" lon="1.77808">
        <ele>319.2</ele>
        <time>2018-02-19T13:06:56Z</time>
      </trkpt>
      <trkpt lat="44.14398" lon="1.77795">
        <ele>318</ele>
        <time>2018-02-19T13:06:59Z</time>
      </trkpt>
      <trkpt lat="44.14397" lon="1.77784">
        <ele>317.1</ele>
        <time>2018-02-19T13:07:01Z</time>
      </trkpt>
      <trkpt lat="44.14399" lon="1.77773">
        <ele>316.2</ele>
        <time>2018-02-19T13:07:03Z</time>
      </trkpt>
      <trkpt lat="44.14403" lon="1.77761">
        <ele>314.6</ele>
        <time>2018-02-19T13:07:06Z</time>
      </trkpt>
      <trkpt lat="44.14406" lon="1.7775">
        <ele>313</ele>
        <time>2018-02-19T13:07:09Z</time>
      </trkpt>
      <trkpt lat="44.14402" lon="1.77739">
        <ele>311.8</ele>
        <time>2018-02-19T13:07:12Z</time>
      </trkpt>
      <trkpt lat="44.14402" lon="1.77727">
        <ele>309.9</ele>
        <time>2018-02-19T13:07:15Z</time>
      </trkpt>
      <trkpt lat="44.14405" lon="1.77718">
        <ele>308.6</ele>
        <time>2018-02-19T13:07:17Z</time>
      </trkpt>
      <trkpt lat="44.14408" lon="1.77709">
        <ele>307.4</ele>
        <time>2018-02-19T13:07:19Z</time>
      </trkpt>
      <trkpt lat="44.14412" lon="1.77694">
        <ele>305.4</ele>
        <time>2018-02-19T13:07:22Z</time>
      </trkpt>
      <trkpt lat="44.1441" lon="1.77683">
        <ele>303.2</ele>
        <time>2018-02-19T13:07:25Z</time>
      </trkpt>
      <trkpt lat="44.14416" lon="1.7767">
        <ele>301.4</ele>
        <time>2018-02-19T13:07:28Z</time>
      </trkpt>
      <trkpt lat="44.14416" lon="1.77659">
        <ele>298.4</ele>
        <time>2018-02-19T13:07:32Z</time>
      </trkpt>
      <trkpt lat="44.14413" lon="1.7765">
        <ele>295.3</ele>
        <time>2018-02-19T13:07:36Z</time>
      </trkpt>
      <trkpt lat="44.14424" lon="1.77639">
        <ele>294.1</ele>
        <time>2018-02-19T13:07:38Z</time>
      </trkpt>
      <trkpt lat="44.14429" lon="1.77628">
        <ele>293.4</ele>
        <time>2018-02-19T13:07:40Z</time>
      </trkpt>
      <trkpt lat="44.14437" lon="1.7762">
        <ele>292.4</ele>
        <time>2018-02-19T13:07:42Z</time>
      </trkpt>
      <trkpt lat="44.14443" lon="1.7761">
        <ele>290.3</ele>
        <time>2018-02-19T13:07:45Z</time>
      </trkpt>
      <trkpt lat="44.14436" lon="1.77601">
        <ele>288.3</ele>
        <time>2018-02-19T13:07:48Z</time>
      </trkpt>
      <trkpt lat="44.14427" lon="1.7759">
        <ele>285.5</ele>
        <time>2018-02-19T13:07:52Z</time>
      </trkpt>
      <trkpt lat="44.14431" lon="1.7758">
        <ele>283.5</ele>
        <time>2018-02-19T13:07:55Z</time>
      </trkpt>
      <trkpt lat="44.14432" lon="1.7757">
        <ele>281.7</ele>
        <time>2018-02-19T13:07:58Z</time>
      </trkpt>
      <trkpt lat="44.14433" lon="1.77559">
        <ele>280.3</ele>
        <time>2018-02-19T13:08:01Z</time>
      </trkpt>
      <trkpt lat="44.14438" lon="1.77546">
        <ele>278.7</ele>
        <time>2018-02-19T13:08:04Z</time>
      </trkpt>
      <trkpt lat="44.14439" lon="1.77535">
        <ele>276.2</ele>
        <time>2018-02-19T13:08:08Z</time>
      </trkpt>
      <trkpt lat="44.14442" lon="1.77525">
        <ele>274</ele>
        <time>2018-02-19T13:08:11Z</time>
      </trkpt>
      <trkpt lat="44.14448" lon="1.77518">
        <ele>273.1</ele>
        <time>2018-02-19T13:08:13Z</time>
      </trkpt>
      <trkpt lat="44.1445" lon="1.77507">
        <ele>271.3</ele>
        <time>2018-02-19T13:08:16Z</time>
      </trkpt>
      <trkpt lat="44.1445" lon="1.77495">
        <ele>269.1</ele>
        <time>2018-02-19T13:08:19Z</time>
      </trkpt>
      <trkpt lat="44.14454" lon="1.77485">
        <ele>266.7</ele>
        <time>2018-02-19T13:08:22Z</time>
      </trkpt>
      <trkpt lat="44.14455" lon="1.77473">
        <ele>263.8</ele>
        <time>2018-02-19T13:08:26Z</time>
      </trkpt>
      <trkpt lat="44.14457" lon="1.7746">
        <ele>260.9</ele>
        <time>2018-02-19T13:08:31Z</time>
      </trkpt>
      <trkpt lat="44.14459" lon="1.77447">
        <ele>257</ele>
        <time>2018-02-19T13:08:36Z</time>
      </trkpt>
      <trkpt lat="44.14461" lon="1.77434">
        <ele>255.5</ele>
        <time>2018-02-19T13:08:39Z</time>
      </trkpt>
      <trkpt lat="44.14465" lon="1.77419">
        <ele>253.2</ele>
        <time>2018-02-19T13:08:42Z</time>
      </trkpt>
      <trkpt lat="44.14466" lon="1.77407">
        <ele>251.5</ele>
        <time>2018-02-19T13:08:44Z</time>
      </trkpt>
      <trkpt lat="44.14466" lon="1.77394">
        <ele>249.9</ele>
        <time>2018-02-19T13:08:46Z</time>
      </trkpt>
      <trkpt lat="44.14465" lon="1.77383">
        <ele>248.4</ele>
        <time>2018-02-19T13:08:48Z</time>
      </trkpt>
      <trkpt lat="44.14465" lon="1.7737">
        <ele>247.5</ele>
        <time>2018-02-19T13:08:50Z</time>
      </trkpt>
      <trkpt lat="44.14464" lon="1.77359">
        <ele>246.3</ele>
        <time>2018-02-19T13:08:52Z</time>
      </trkpt>
      <trkpt lat="44.14467" lon="1.77349">
        <ele>245.1</ele>
        <time>2018-02-19T13:08:54Z</time>
      </trkpt>
      <trkpt lat="44.1447" lon="1.77335">
        <ele>243.4</ele>
        <time>2018-02-19T13:08:57Z</time>
      </trkpt>
      <trkpt lat="44.14471" lon="1.77322">
        <ele>241.6</ele>
        <time>2018-02-19T13:09:00Z</time>
      </trkpt>
      <trkpt lat="44.14468" lon="1.77311">
        <ele>240.8</ele>
        <time>2018-02-19T13:09:02Z</time>
      </trkpt>
      <trkpt lat="44.14467" lon="1.773">
        <ele>240</ele>
        <time>2018-02-19T13:09:04Z</time>
      </trkpt>
      <trkpt lat="44.14467" lon="1.77289">
        <ele>239</ele>
        <time>2018-02-19T13:09:06Z</time>
      </trkpt>
      <trkpt lat="44.14471" lon="1.77279">
        <ele>237.6</ele>
        <time>2018-02-19T13:09:08Z</time>
      </trkpt>
      <trkpt lat="44.14475" lon="1.77268">
        <ele>236.5</ele>
        <time>2018-02-19T13:09:10Z</time>
      </trkpt>
      <trkpt lat="44.14479" lon="1.77259">
        <ele>235.4</ele>
        <time>2018-02-19T13:09:12Z</time>
      </trkpt>
      <trkpt lat="44.14484" lon="1.77247">
        <ele>233.7</ele>
        <time>2018-02-19T13:09:15Z</time>
      </trkpt>
      <trkpt lat="44.14489" lon="1.77238">
        <ele>232.7</ele>
        <time>2018-02-19T13:09:17Z</time>
      </trkpt>
      <trkpt lat="44.1449" lon="1.77227">
        <ele>230.9</ele>
        <time>2018-02-19T13:09:20Z</time>
      </trkpt>
      <trkpt lat="44.14489" lon="1.77215">
        <ele>229.4</ele>
        <time>2018-02-19T13:09:23Z</time>
      </trkpt>
      <trkpt lat="44.14492" lon="1.77206">
        <ele>227.6</ele>
        <time>2018-02-19T13:09:26Z</time>
      </trkpt>
      <trkpt lat="44.14494" lon="1.77196">
        <ele>226.1</ele>
        <time>2018-02-19T13:09:29Z</time>
      </trkpt>
      <trkpt lat="44.14498" lon="1.77184">
        <ele>224.3</ele>
        <time>2018-02-19T13:09:33Z</time>
      </trkpt>
      <trkpt lat="44.14501" lon="1.77173">
        <ele>223</ele>
        <time>2018-02-19T13:09:36Z</time>
      </trkpt>
      <trkpt lat="44.14507" lon="1.77163">
        <ele>221.6</ele>
        <time>2018-02-19T13:09:39Z</time>
      </trkpt>
      <trkpt lat="44.14512" lon="1.77156">
        <ele>220.7</ele>
        <time>2018-02-19T13:09:41Z</time>
      </trkpt>
      <trkpt lat="44.14515" lon="1.77143">
        <ele>219.5</ele>
        <time>2018-02-19T13:09:44Z</time>
      </trkpt>
      <trkpt lat="44.14513" lon="1.77131">
        <ele>218.2</ele>
        <time>2018-02-19T13:09:47Z</time>
      </trkpt>
      <trkpt lat="44.14513" lon="1.77119">
        <ele>217.1</ele>
        <time>2018-02-19T13:09:50Z</time>
      </trkpt>
      <trkpt lat="44.14519" lon="1.77108">
        <ele>215.7</ele>
        <time>2018-02-19T13:09:53Z</time>
      </trkpt>
      <trkpt lat="44.14522" lon="1.77095">
        <ele>214.6</ele>
        <time>2018-02-19T13:09:56Z</time>
      </trkpt>
      <trkpt lat="44.14525" lon="1.77085">
        <ele>213.5</ele>
        <time>2018-02-19T13:09:59Z</time>
      </trkpt>
      <trkpt lat="44.14526" lon="1.77073">
        <ele>212.4</ele>
        <time>2018-02-19T13:10:03Z</time>
      </trkpt>
      <trkpt lat="44.14529" lon="1.77063">
        <ele>211.1</ele>
        <time>2018-02-19T13:10:07Z</time>
      </trkpt>
      <trkpt lat="44.14531" lon="1.7705">
        <ele>210.1</ele>
        <time>2018-02-19T13:10:11Z</time>
      </trkpt>
      <trkpt lat="44.14529" lon="1.77036">
        <ele>209.8</ele>
        <time>2018-02-19T13:10:15Z</time>
      </trkpt>
      <trkpt lat="44.14529" lon="1.77025">
        <ele>208.5</ele>
        <time>2018-02-19T13:10:19Z</time>
      </trkpt>
      <trkpt lat="44.14528" lon="1.77013">
        <ele>206.9</ele>
        <time>2018-02-19T13:10:23Z</time>
      </trkpt>
      <trkpt lat="44.14523" lon="1.77004">
        <ele>206.6</ele>
        <time>2018-02-19T13:10:26Z</time>
      </trkpt>
      <trkpt lat="44.14522" lon="1.76993">
        <ele>206.1</ele>
        <time>2018-02-19T13:10:29Z</time>
      </trkpt>
      <trkpt lat="44.14519" lon="1.7698">
        <ele>205.8</ele>
        <time>2018-02-19T13:10:33Z</time>
      </trkpt>
      <trkpt lat="44.14517" lon="1.76968">
        <ele>204.7</ele>
        <time>2018-02-19T13:10:37Z</time>
      </trkpt>
      <trkpt lat="44.14513" lon="1.76958">
        <ele>203.8</ele>
        <time>2018-02-19T13:10:40Z</time>
      </trkpt>
      <trkpt lat="44.14511" lon="1.76943">
        <ele>201.2</ele>
        <time>2018-02-19T13:10:46Z</time>
      </trkpt>
      <trkpt lat="44.14511" lon="1.7693">
        <ele>199.8</ele>
        <time>2018-02-19T13:10:47Z</time>
      </trkpt>
      <trkpt lat="44.1451" lon="1.76919">
        <ele>198.3</ele>
        <time>2018-02-19T13:10:49Z</time>
      </trkpt>
      <trkpt lat="44.14508" lon="1.76907">
        <ele>196.7</ele>
        <time>2018-02-19T13:10:51Z</time>
      </trkpt>
      <trkpt lat="44.14507" lon="1.76895">
        <ele>194.1</ele>
        <time>2018-02-19T13:10:54Z</time>
      </trkpt>
      <trkpt lat="44.14504" lon="1.76882">
        <ele>191.6</ele>
        <time>2018-02-19T13:10:57Z</time>
      </trkpt>
      <trkpt lat="44.145" lon="1.76872">
        <ele>189.1</ele>
        <time>2018-02-19T13:11:00Z</time>
      </trkpt>
      <trkpt lat="44.14499" lon="1.76861">
        <ele>186.3</ele>
        <time>2018-02-19T13:11:03Z</time>
      </trkpt>
      <trkpt lat="44.14495" lon="1.76849">
        <ele>183.6</ele>
        <time>2018-02-19T13:11:06Z</time>
      </trkpt>
      <trkpt lat="44.14493" lon="1.76839">
        <ele>181.9</ele>
        <time>2018-02-19T13:11:08Z</time>
      </trkpt>
      <trkpt lat="44.14491" lon="1.76827">
        <ele>179</ele>
        <time>2018-02-19T13:11:11Z</time>
      </trkpt>
      <trkpt lat="44.14492" lon="1.76817">
        <ele>176.5</ele>
        <time>2018-02-19T13:11:14Z</time>
      </trkpt>
      <trkpt lat="44.14489" lon="1.76806">
        <ele>173.3</ele>
        <time>2018-02-19T13:11:18Z</time>
      </trkpt>
      <trkpt lat="44.14489" lon="1.76794">
        <ele>171</ele>
        <time>2018-02-19T13:11:22Z</time>
      </trkpt>
      <trkpt lat="44.1449" lon="1.76782">
        <ele>172.7</ele>
        <time>2018-02-19T13:11:28Z</time>
      </trkpt>
      <trkpt lat="44.14492" lon="1.76771">
        <ele>172.3</ele>
        <time>2018-02-19T13:11:31Z</time>
      </trkpt>
      <trkpt lat="44.14494" lon="1.76759">
        <ele>172.2</ele>
        <time>2018-02-19T13:11:35Z</time>
      </trkpt>
      <trkpt lat="44.14495" lon="1.76748">
        <ele>171.6</ele>
        <time>2018-02-19T13:11:39Z</time>
      </trkpt>
      <trkpt lat="44.14495" lon="1.76736">
        <ele>170.9</ele>
        <time>2018-02-19T13:11:44Z</time>
      </trkpt>
      <trkpt lat="44.14497" lon="1.76726">
        <ele>170</ele>
        <time>2018-02-19T13:11:48Z</time>
      </trkpt>
      <trkpt lat="44.14502" lon="1.76715">
        <ele>169</ele>
        <time>2018-02-19T13:11:51Z</time>
      </trkpt>
      <trkpt lat="44.14506" lon="1.76703">
        <ele>167.4</ele>
        <time>2018-02-19T13:11:55Z</time>
      </trkpt>
      <trkpt lat="44.1451" lon="1.76692">
        <ele>165.5</ele>
        <time>2018-02-19T13:11:59Z</time>
      </trkpt>
      <trkpt lat="44.14514" lon="1.76684">
        <ele>163.6</ele>
        <time>2018-02-19T13:12:03Z</time>
      </trkpt>
      <trkpt lat="44.1452" lon="1.76675">
        <ele>161.9</ele>
        <time>2018-02-19T13:12:06Z</time>
      </trkpt>
      <trkpt lat="44.14528" lon="1.76666">
        <ele>159.8</ele>
        <time>2018-02-19T13:12:11Z</time>
      </trkpt>
      <trkpt lat="44.14536" lon="1.76658">
        <ele>160</ele>
        <time>2018-02-19T13:12:15Z</time>
      </trkpt>
      <trkpt lat="44.14543" lon="1.7665">
        <ele>159.2</ele>
        <time>2018-02-19T13:12:18Z</time>
      </trkpt>
      <trkpt lat="44.14545" lon="1.7664">
        <ele>158.2</ele>
        <time>2018-02-19T13:12:22Z</time>
      </trkpt>
      <trkpt lat="44.14546" lon="1.76627">
        <ele>156.1</ele>
        <time>2018-02-19T13:12:27Z</time>
      </trkpt>
      <trkpt lat="44.14547" lon="1.76615">
        <ele>154.3</ele>
        <time>2018-02-19T13:12:30Z</time>
      </trkpt>
      <trkpt lat="44.14551" lon="1.76603">
        <ele>152.5</ele>
        <time>2018-02-19T13:12:33Z</time>
      </trkpt>
      <trkpt lat="44.14556" lon="1.76593">
        <ele>150.7</ele>
        <time>2018-02-19T13:12:37Z</time>
      </trkpt>
      <trkpt lat="44.14555" lon="1.76583">
        <ele>148.8</ele>
        <time>2018-02-19T13:12:41Z</time>
      </trkpt>
      <trkpt lat="44.14554" lon="1.7657">
        <ele>145.8</ele>
        <time>2018-02-19T13:12:46Z</time>
      </trkpt>
      <trkpt lat="44.14554" lon="1.76558">
        <ele>143.4</ele>
        <time>2018-02-19T13:12:50Z</time>
      </trkpt>
      <trkpt lat="44.14556" lon="1.76547">
        <ele>141.4</ele>
        <time>2018-02-19T13:12:55Z</time>
      </trkpt>
      <trkpt lat="44.14561" lon="1.76536">
        <ele>141</ele>
        <time>2018-02-19T13:12:59Z</time>
      </trkpt>
      <trkpt lat="44.14563" lon="1.76523">
        <ele>139.8</ele>
        <time>2018-02-19T13:13:03Z</time>
      </trkpt>
      <trkpt lat="44.14566" lon="1.76515">
        <ele>138.8</ele>
        <time>2018-02-19T13:13:06Z</time>
      </trkpt>
      <trkpt lat="44.1457" lon="1.76504">
        <ele>137.3</ele>
        <time>2018-02-19T13:13:09Z</time>
      </trkpt>
      <trkpt lat="44.14571" lon="1.76494">
        <ele>135.9</ele>
        <time>2018-02-19T13:13:13Z</time>
      </trkpt>
      <trkpt lat="44.14576" lon="1.76486">
        <ele>135.2</ele>
        <time>2018-02-19T13:13:16Z</time>
      </trkpt>
      <trkpt lat="44.14579" lon="1.76475">
        <ele>134.2</ele>
        <time>2018-02-19T13:13:20Z</time>
      </trkpt>
      <trkpt lat="44.14581" lon="1.76464">
        <ele>132.9</ele>
        <time>2018-02-19T13:13:24Z</time>
      </trkpt>
      <trkpt lat="44.14583" lon="1.76453">
        <ele>132</ele>
        <time>2018-02-19T13:13:28Z</time>
      </trkpt>
      <trkpt lat="44.14583" lon="1.76441">
        <ele>130.7</ele>
        <time>2018-02-19T13:13:33Z</time>
      </trkpt>
      <trkpt lat="44.14588" lon="1.76431">
        <ele>128.7</ele>
        <time>2018-02-19T13:13:37Z</time>
      </trkpt>
      <trkpt lat="44.14589" lon="1.7642">
        <ele>126.9</ele>
        <time>2018-02-19T13:13:41Z</time>
      </trkpt>
      <trkpt lat="44.1459" lon="1.76408">
        <ele>125.1</ele>
        <time>2018-02-19T13:13:44Z</time>
      </trkpt>
      <trkpt lat="44.1459" lon="1.76398">
        <ele>123.7</ele>
        <time>2018-02-19T13:13:46Z</time>
      </trkpt>
      <trkpt lat="44.14591" lon="1.76385">
        <ele>122.2</ele>
        <time>2018-02-19T13:13:48Z</time>
      </trkpt>
      <trkpt lat="44.1459" lon="1.7637">
        <ele>120.7</ele>
        <time>2018-02-19T13:13:50Z</time>
      </trkpt>
      <trkpt lat="44.14591" lon="1.76354">
        <ele>119.5</ele>
        <time>2018-02-19T13:13:52Z</time>
      </trkpt>
      <trkpt lat="44.14591" lon="1.76344">
        <ele>118.9</ele>
        <time>2018-02-19T13:13:53Z</time>
      </trkpt>
      <trkpt lat="44.14591" lon="1.76327">
        <ele>117.8</ele>
        <time>2018-02-19T13:13:55Z</time>
      </trkpt>
      <trkpt lat="44.14591" lon="1.76309">
        <ele>116.2</ele>
        <time>2018-02-19T13:13:57Z</time>
      </trkpt>
      <trkpt lat="44.14592" lon="1.76294">
        <ele>114.6</ele>
        <time>2018-02-19T13:13:59Z</time>
      </trkpt>
      <trkpt lat="44.14591" lon="1.76278">
        <ele>113.1</ele>
        <time>2018-02-19T13:14:01Z</time>
      </trkpt>
      <trkpt lat="44.14601" lon="1.76251">
        <ele>114.8</ele>
        <time>2018-02-19T13:14:03Z</time>
      </trkpt>
      <trkpt lat="44.14604" lon="1.76231">
        <ele>113.7</ele>
        <time>2018-02-19T13:14:05Z</time>
      </trkpt>
      <trkpt lat="44.14603" lon="1.76221">
        <ele>112.8</ele>
        <time>2018-02-19T13:14:06Z</time>
      </trkpt>
      <trkpt lat="44.14602" lon="1.7621">
        <ele>112.3</ele>
        <time>2018-02-19T13:14:07Z</time>
      </trkpt>
      <trkpt lat="44.14602" lon="1.76199">
        <ele>111.8</ele>
        <time>2018-02-19T13:14:08Z</time>
      </trkpt>
      <trkpt lat="44.14599" lon="1.76185">
        <ele>111.1</ele>
        <time>2018-02-19T13:14:09Z</time>
      </trkpt>
      <trkpt lat="44.14598" lon="1.76175">
        <ele>110.3</ele>
        <time>2018-02-19T13:14:10Z</time>
      </trkpt>
      <trkpt lat="44.14597" lon="1.76163">
        <ele>109.5</ele>
        <time>2018-02-19T13:14:11Z</time>
      </trkpt>
      <trkpt lat="44.14598" lon="1.7615">
        <ele>108.7</ele>
        <time>2018-02-19T13:14:12Z</time>
      </trkpt>
      <trkpt lat="44.14599" lon="1.76136">
        <ele>107.8</ele>
        <time>2018-02-19T13:14:13Z</time>
      </trkpt>
      <trkpt lat="44.146" lon="1.76122">
        <ele>106.9</ele>
        <time>2018-02-19T13:14:14Z</time>
      </trkpt>
      <trkpt lat="44.14602" lon="1.76108">
        <ele>106</ele>
        <time>2018-02-19T13:14:15Z</time>
      </trkpt>
      <trkpt lat="44.14602" lon="1.76095">
        <ele>105.2</ele>
        <time>2018-02-19T13:14:16Z</time>
      </trkpt>
      <trkpt lat="44.14605" lon="1.76081">
        <ele>104.3</ele>
        <time>2018-02-19T13:14:17Z</time>
      </trkpt>
      <trkpt lat="44.14607" lon="1.76067">
        <ele>103.4</ele>
        <time>2018-02-19T13:14:18Z</time>
      </trkpt>
      <trkpt lat="44.14611" lon="1.76054">
        <ele>102.6</ele>
        <time>2018-02-19T13:14:19Z</time>
      </trkpt>
      <trkpt lat="44.14614" lon="1.76041">
        <ele>101.8</ele>
        <time>2018-02-19T13:14:20Z</time>
      </trkpt>
      <trkpt lat="44.14619" lon="1.76028">
        <ele>101</ele>
        <time>2018-02-19T13:14:21Z</time>
      </trkpt>
      <trkpt lat="44.14623" lon="1.76015">
        <ele>100.2</ele>
        <time>2018-02-19T13:14:22Z</time>
      </trkpt>
      <trkpt lat="44.14627" lon="1.76003">
        <ele>99.4</ele>
        <time>2018-02-19T13:14:23Z</time>
      </trkpt>
      <trkpt lat="44.14632" lon="1.75992">
        <ele>98.6</ele>
        <time>2018-02-19T13:14:24Z</time>
      </trkpt>
      <trkpt lat="44.14637" lon="1.75982">
        <ele>97.8</ele>
        <time>2018-02-19T13:14:25Z</time>
      </trkpt>
      <trkpt lat="44.14642" lon="1.75972">
        <ele>97</ele>
        <time>2018-02-19T13:14:26Z</time>
      </trkpt>
      <trkpt lat="44.14649" lon="1.75961">
        <ele>96.4</ele>
        <time>2018-02-19T13:14:27Z</time>
      </trkpt>
      <trkpt lat="44.14656" lon="1.75952">
        <ele>95.7</ele>
        <time>2018-02-19T13:14:28Z</time>
      </trkpt>
      <trkpt lat="44.14661" lon="1.75941">
        <ele>95</ele>
        <time>2018-02-19T13:14:29Z</time>
      </trkpt>
      <trkpt lat="44.14663" lon="1.75929">
        <ele>94.3</ele>
        <time>2018-02-19T13:14:30Z</time>
      </trkpt>
      <trkpt lat="44.14665" lon="1.75915">
        <ele>93.5</ele>
        <time>2018-02-19T13:14:31Z</time>
      </trkpt>
      <trkpt lat="44.14667" lon="1.75901">
        <ele>92.6</ele>
        <time>2018-02-19T13:14:32Z</time>
      </trkpt>
      <trkpt lat="44.1467" lon="1.75886">
        <ele>91.7</ele>
        <time>2018-02-19T13:14:33Z</time>
      </trkpt>
      <trkpt lat="44.14672" lon="1.75871">
        <ele>90.7</ele>
        <time>2018-02-19T13:14:34Z</time>
      </trkpt>
      <trkpt lat="44.14675" lon="1.75857">
        <ele>89.8</ele>
        <time>2018-02-19T13:14:35Z</time>
      </trkpt>
      <trkpt lat="44.14678" lon="1.75841">
        <ele>88.9</ele>
        <time>2018-02-19T13:14:36Z</time>
      </trkpt>
      <trkpt lat="44.14681" lon="1.75828">
        <ele>87.9</ele>
        <time>2018-02-19T13:14:37Z</time>
      </trkpt>
      <trkpt lat="44.14682" lon="1.75816">
        <ele>86.9</ele>
        <time>2018-02-19T13:14:38Z</time>
      </trkpt>
      <trkpt lat="44.14684" lon="1.75804">
        <ele>85.9</ele>
        <time>2018-02-19T13:14:39Z</time>
      </trkpt>
      <trkpt lat="44.14687" lon="1.75792">
        <ele>85</ele>
        <time>2018-02-19T13:14:40Z</time>
      </trkpt>
      <trkpt lat="44.1469" lon="1.75781">
        <ele>84.1</ele>
        <time>2018-02-19T13:14:41Z</time>
      </trkpt>
      <trkpt lat="44.14691" lon="1.7577">
        <ele>83.3</ele>
        <time>2018-02-19T13:14:42Z</time>
      </trkpt>
      <trkpt lat="44.14695" lon="1.7576">
        <ele>82.6</ele>
        <time>2018-02-19T13:14:43Z</time>
      </trkpt>
      <trkpt lat="44.14694" lon="1.75751">
        <ele>82</ele>
        <time>2018-02-19T13:14:44Z</time>
      </trkpt>
      <trkpt lat="44.14698" lon="1.75732">
        <ele>81.1</ele>
        <time>2018-02-19T13:14:46Z</time>
      </trkpt>
      <trkpt lat="44.14705" lon="1.75714">
        <ele>80.1</ele>
        <time>2018-02-19T13:14:48Z</time>
      </trkpt>
      <trkpt lat="44.14718" lon="1.75705">
        <ele>79.6</ele>
        <time>2018-02-19T13:14:49Z</time>
      </trkpt>
      <trkpt lat="44.14734" lon="1.75697">
        <ele>78.7</ele>
        <time>2018-02-19T13:14:50Z</time>
      </trkpt>
      <trkpt lat="44.14742" lon="1.75685">
        <ele>78</ele>
        <time>2018-02-19T13:14:51Z</time>
      </trkpt>
      <trkpt lat="44.14755" lon="1.75675">
        <ele>77.2</ele>
        <time>2018-02-19T13:14:52Z</time>
      </trkpt>
      <trkpt lat="44.14762" lon="1.75663">
        <ele>76.6</ele>
        <time>2018-02-19T13:14:53Z</time>
      </trkpt>
      <trkpt lat="44.14769" lon="1.75651">
        <ele>75.9</ele>
        <time>2018-02-19T13:14:54Z</time>
      </trkpt>
      <trkpt lat="44.14776" lon="1.75638">
        <ele>75.1</ele>
        <time>2018-02-19T13:14:55Z</time>
      </trkpt>
      <trkpt lat="44.14784" lon="1.75625">
        <ele>74.4</ele>
        <time>2018-02-19T13:14:56Z</time>
      </trkpt>
      <trkpt lat="44.1479" lon="1.75612">
        <ele>73.6</ele>
        <time>2018-02-19T13:14:57Z</time>
      </trkpt>
      <trkpt lat="44.14799" lon="1.756">
        <ele>72.7</ele>
        <time>2018-02-19T13:14:58Z</time>
      </trkpt>
      <trkpt lat="44.14806" lon="1.75588">
        <ele>71.8</ele>
        <time>2018-02-19T13:14:59Z</time>
      </trkpt>
      <trkpt lat="44.14812" lon="1.75577">
        <ele>70.9</ele>
        <time>2018-02-19T13:15:00Z</time>
      </trkpt>
      <trkpt lat="44.14816" lon="1.75567">
        <ele>70.1</ele>
        <time>2018-02-19T13:15:01Z</time>
      </trkpt>
      <trkpt lat="44.1482" lon="1.75557">
        <ele>69.5</ele>
        <time>2018-02-19T13:15:02Z</time>
      </trkpt>
      <trkpt lat="44.14823" lon="1.7554">
        <ele>68.3</ele>
        <time>2018-02-19T13:15:04Z</time>
      </trkpt>
      <trkpt lat="44.14828" lon="1.75527">
        <ele>67.4</ele>
        <time>2018-02-19T13:15:06Z</time>
      </trkpt>
      <trkpt lat="44.14833" lon="1.75515">
        <ele>66.5</ele>
        <time>2018-02-19T13:15:08Z</time>
      </trkpt>
      <trkpt lat="44.14838" lon="1.75501">
        <ele>65.6</ele>
        <time>2018-02-19T13:15:10Z</time>
      </trkpt>
      <trkpt lat="44.14843" lon="1.75492">
        <ele>65.1</ele>
        <time>2018-02-19T13:15:11Z</time>
      </trkpt>
      <trkpt lat="44.14847" lon="1.75475">
        <ele>64</ele>
        <time>2018-02-19T13:15:13Z</time>
      </trkpt>
      <trkpt lat="44.14849" lon="1.75459">
        <ele>63.1</ele>
        <time>2018-02-19T13:15:15Z</time>
      </trkpt>
      <trkpt lat="44.14853" lon="1.75442">
        <ele>61.9</ele>
        <time>2018-02-19T13:15:17Z</time>
      </trkpt>
      <trkpt lat="44.14859" lon="1.75427">
        <ele>60.8</ele>
        <time>2018-02-19T13:15:19Z</time>
      </trkpt>
      <trkpt lat="44.14863" lon="1.75416">
        <ele>59.5</ele>
        <time>2018-02-19T13:15:21Z</time>
      </trkpt>
      <trkpt lat="44.14862" lon="1.75404">
        <ele>58.3</ele>
        <time>2018-02-19T13:15:23Z</time>
      </trkpt>
      <trkpt lat="44.14864" lon="1.7539">
        <ele>57.2</ele>
        <time>2018-02-19T13:15:25Z</time>
      </trkpt>
      <trkpt lat="44.1487" lon="1.7538">
        <ele>56</ele>
        <time>2018-02-19T13:15:27Z</time>
      </trkpt>
      <trkpt lat="44.14869" lon="1.75368">
        <ele>55</ele>
        <time>2018-02-19T13:15:29Z</time>
      </trkpt>
      <trkpt lat="44.14866" lon="1.75354">
        <ele>53.9</ele>
        <time>2018-02-19T13:15:32Z</time>
      </trkpt>
      <trkpt lat="44.14876" lon="1.75339">
        <ele>56.6</ele>
        <time>2018-02-19T13:15:38Z</time>
      </trkpt>
      <trkpt lat="44.14887" lon="1.75333">
        <ele>60.3</ele>
        <time>2018-02-19T13:15:39Z</time>
      </trkpt>
      <trkpt lat="44.14906" lon="1.75323">
        <ele>68</ele>
        <time>2018-02-19T13:15:42Z</time>
      </trkpt>
      <trkpt lat="44.14915" lon="1.75319">
        <ele>71.8</ele>
        <time>2018-02-19T13:15:44Z</time>
      </trkpt>
    </trkseg>
  </trk>
</gpx>